<?xml version="1.0" encoding="UTF-8"?>
<gpx version="1.1" creator="https://www.www-youtrack-es.amenigma.com" xsi:schemaLocation="http://www.topografix.com/GPX/1/1 http://www.topografix.com/GPX/1/1/gpx.xsd http://www.garmin.com/xmlschemas/GpxExtensions/v3 http://www.garmin.com/xmlschemas/GpxExtensionsv3.xsd http://www.garmin.com/xmlschemas/TrackPointExtension/v1 http://www.garmin.com/xmlschemas/TrackPointExtensionv1.xsd" xmlns:gpxtpx="http://www.garmin.com/xmlschemas/TrackPointExtension/v1" xmlns:gpxx="http://www.garmin.com/xmlschemas/GpxExtensions/v3" xmlns:xsi="http://www.w3.org/2001/XMLSchema-instance">
  <metadata>
    <author>
      <name>Jair Giraldo</name>
      <email id="jairgiga" domain="hotmail.com"/>
    </author>
    <link href="https://www.www-youtrack-es.amenigma.com">
      <text>YouTrack.es</text>
    </link>
    <time>2026-08-31T07:12:43Z</time>
  </metadata>
  <trk>
    <src>https://www.www-youtrack-es.amenigma.com</src>
    <link href="https://www.www-youtrack-es.amenigma.com/ruta/29467-caminata-el-otono--la-fonda--el-otono--la-candelaria--villacarmelo--la-fonda">
      <text>YouTrack.es</text>
    </link>
    <trkseg>
      <trkpt lat="3.3901970" lon="-76.5908670">
        <ele>1289.1</ele>
        <time>2022-02-13T11:39:48Z</time>
      </trkpt>
      <trkpt lat="3.3901960" lon="-76.5908680">
        <ele>1289.2</ele>
        <time>2022-02-13T11:39:49Z</time>
      </trkpt>
      <trkpt lat="3.3901930" lon="-76.5908440">
        <ele>1289.2</ele>
        <time>2022-02-13T11:39:56Z</time>
      </trkpt>
      <trkpt lat="3.3901960" lon="-76.5908110">
        <ele>1289.3</ele>
        <time>2022-02-13T11:39:59Z</time>
      </trkpt>
      <trkpt lat="3.3902010" lon="-76.5908010">
        <ele>1289.3</ele>
        <time>2022-02-13T11:40:00Z</time>
      </trkpt>
      <trkpt lat="3.3902120" lon="-76.5907760">
        <ele>1289.4</ele>
        <time>2022-02-13T11:40:03Z</time>
      </trkpt>
      <trkpt lat="3.3902680" lon="-76.5907060">
        <ele>1289.7</ele>
        <time>2022-02-13T11:40:11Z</time>
      </trkpt>
      <trkpt lat="3.3902640" lon="-76.5906960">
        <ele>1289.7</ele>
        <time>2022-02-13T11:40:12Z</time>
      </trkpt>
      <trkpt lat="3.3902670" lon="-76.5906410">
        <ele>1289.9</ele>
        <time>2022-02-13T11:40:18Z</time>
      </trkpt>
      <trkpt lat="3.3902850" lon="-76.5906250">
        <ele>1290.0</ele>
        <time>2022-02-13T11:40:22Z</time>
      </trkpt>
      <trkpt lat="3.3902950" lon="-76.5906060">
        <ele>1290.0</ele>
        <time>2022-02-13T11:40:25Z</time>
      </trkpt>
      <trkpt lat="3.3903090" lon="-76.5905540">
        <ele>1290.2</ele>
        <time>2022-02-13T11:40:31Z</time>
      </trkpt>
      <trkpt lat="3.3903120" lon="-76.5905470">
        <ele>1290.2</ele>
        <time>2022-02-13T11:40:32Z</time>
      </trkpt>
      <trkpt lat="3.3903190" lon="-76.5905380">
        <ele>1290.3</ele>
        <time>2022-02-13T11:40:33Z</time>
      </trkpt>
      <trkpt lat="3.3903270" lon="-76.5905110">
        <ele>1290.8</ele>
        <time>2022-02-13T11:40:36Z</time>
      </trkpt>
      <trkpt lat="3.3903430" lon="-76.5904920">
        <ele>1291.2</ele>
        <time>2022-02-13T11:40:39Z</time>
      </trkpt>
      <trkpt lat="3.3903540" lon="-76.5904350">
        <ele>1292.3</ele>
        <time>2022-02-13T11:40:45Z</time>
      </trkpt>
      <trkpt lat="3.3903500" lon="-76.5904260">
        <ele>1292.5</ele>
        <time>2022-02-13T11:40:46Z</time>
      </trkpt>
      <trkpt lat="3.3903450" lon="-76.5904140">
        <ele>1292.7</ele>
        <time>2022-02-13T11:40:47Z</time>
      </trkpt>
      <trkpt lat="3.3903370" lon="-76.5903330">
        <ele>1294.2</ele>
        <time>2022-02-13T11:40:54Z</time>
      </trkpt>
      <trkpt lat="3.3903280" lon="-76.5902660">
        <ele>1295.4</ele>
        <time>2022-02-13T11:41:02Z</time>
      </trkpt>
      <trkpt lat="3.3903190" lon="-76.5902230">
        <ele>1296.1</ele>
        <time>2022-02-13T11:41:06Z</time>
      </trkpt>
      <trkpt lat="3.3903130" lon="-76.5902050">
        <ele>1296.5</ele>
        <time>2022-02-13T11:41:08Z</time>
      </trkpt>
      <trkpt lat="3.3902840" lon="-76.5901490">
        <ele>1297.6</ele>
        <time>2022-02-13T11:41:15Z</time>
      </trkpt>
      <trkpt lat="3.3902670" lon="-76.5901270">
        <ele>1298.1</ele>
        <time>2022-02-13T11:41:18Z</time>
      </trkpt>
      <trkpt lat="3.3902340" lon="-76.5901040">
        <ele>1298.9</ele>
        <time>2022-02-13T11:41:22Z</time>
      </trkpt>
      <trkpt lat="3.3902090" lon="-76.5900970">
        <ele>1299.3</ele>
        <time>2022-02-13T11:41:25Z</time>
      </trkpt>
      <trkpt lat="3.3901740" lon="-76.5900990">
        <ele>1299.9</ele>
        <time>2022-02-13T11:41:30Z</time>
      </trkpt>
      <trkpt lat="3.3901170" lon="-76.5900980">
        <ele>1300.8</ele>
        <time>2022-02-13T11:41:36Z</time>
      </trkpt>
      <trkpt lat="3.3900940" lon="-76.5901010">
        <ele>1301.2</ele>
        <time>2022-02-13T11:41:38Z</time>
      </trkpt>
      <trkpt lat="3.3900630" lon="-76.5901130">
        <ele>1301.7</ele>
        <time>2022-02-13T11:41:42Z</time>
      </trkpt>
      <trkpt lat="3.3900310" lon="-76.5901200">
        <ele>1302.2</ele>
        <time>2022-02-13T11:41:45Z</time>
      </trkpt>
      <trkpt lat="3.3899510" lon="-76.5901130">
        <ele>1303.5</ele>
        <time>2022-02-13T11:41:53Z</time>
      </trkpt>
      <trkpt lat="3.3898510" lon="-76.5901110">
        <ele>1305.2</ele>
        <time>2022-02-13T11:42:05Z</time>
      </trkpt>
      <trkpt lat="3.3898130" lon="-76.5901010">
        <ele>1305.8</ele>
        <time>2022-02-13T11:42:12Z</time>
      </trkpt>
      <trkpt lat="3.3897690" lon="-76.5900680">
        <ele>1306.6</ele>
        <time>2022-02-13T11:42:20Z</time>
      </trkpt>
      <trkpt lat="3.3897230" lon="-76.5900390">
        <ele>1307.4</ele>
        <time>2022-02-13T11:42:26Z</time>
      </trkpt>
      <trkpt lat="3.3896920" lon="-76.5900090">
        <ele>1308.0</ele>
        <time>2022-02-13T11:42:30Z</time>
      </trkpt>
      <trkpt lat="3.3896670" lon="-76.5900020">
        <ele>1308.3</ele>
        <time>2022-02-13T11:42:33Z</time>
      </trkpt>
      <trkpt lat="3.3895920" lon="-76.5899950">
        <ele>1309.3</ele>
        <time>2022-02-13T11:42:40Z</time>
      </trkpt>
      <trkpt lat="3.3895840" lon="-76.5899890">
        <ele>1309.4</ele>
        <time>2022-02-13T11:42:41Z</time>
      </trkpt>
      <trkpt lat="3.3895520" lon="-76.5899620">
        <ele>1309.9</ele>
        <time>2022-02-13T11:42:44Z</time>
      </trkpt>
      <trkpt lat="3.3895100" lon="-76.5899340">
        <ele>1310.3</ele>
        <time>2022-02-13T11:42:48Z</time>
      </trkpt>
      <trkpt lat="3.3894950" lon="-76.5899260">
        <ele>1310.5</ele>
        <time>2022-02-13T11:42:50Z</time>
      </trkpt>
      <trkpt lat="3.3894870" lon="-76.5899250">
        <ele>1310.5</ele>
        <time>2022-02-13T11:42:51Z</time>
      </trkpt>
      <trkpt lat="3.3894440" lon="-76.5899170">
        <ele>1310.8</ele>
        <time>2022-02-13T11:42:56Z</time>
      </trkpt>
      <trkpt lat="3.3894340" lon="-76.5899140">
        <ele>1310.8</ele>
        <time>2022-02-13T11:42:57Z</time>
      </trkpt>
      <trkpt lat="3.3894250" lon="-76.5899130">
        <ele>1310.8</ele>
        <time>2022-02-13T11:42:58Z</time>
      </trkpt>
      <trkpt lat="3.3893700" lon="-76.5899000">
        <ele>1311.0</ele>
        <time>2022-02-13T11:43:03Z</time>
      </trkpt>
      <trkpt lat="3.3893270" lon="-76.5898950">
        <ele>1311.0</ele>
        <time>2022-02-13T11:43:07Z</time>
      </trkpt>
      <trkpt lat="3.3893070" lon="-76.5898980">
        <ele>1311.0</ele>
        <time>2022-02-13T11:43:09Z</time>
      </trkpt>
      <trkpt lat="3.3892970" lon="-76.5898940">
        <ele>1311.0</ele>
        <time>2022-02-13T11:43:10Z</time>
      </trkpt>
      <trkpt lat="3.3892890" lon="-76.5899000">
        <ele>1310.9</ele>
        <time>2022-02-13T11:43:11Z</time>
      </trkpt>
      <trkpt lat="3.3892670" lon="-76.5899040">
        <ele>1310.9</ele>
        <time>2022-02-13T11:43:13Z</time>
      </trkpt>
      <trkpt lat="3.3892570" lon="-76.5899080">
        <ele>1310.9</ele>
        <time>2022-02-13T11:43:14Z</time>
      </trkpt>
      <trkpt lat="3.3892430" lon="-76.5899090">
        <ele>1310.9</ele>
        <time>2022-02-13T11:43:15Z</time>
      </trkpt>
      <trkpt lat="3.3891300" lon="-76.5899510">
        <ele>1310.8</ele>
        <time>2022-02-13T11:43:26Z</time>
      </trkpt>
      <trkpt lat="3.3890570" lon="-76.5899690">
        <ele>1310.7</ele>
        <time>2022-02-13T11:43:32Z</time>
      </trkpt>
      <trkpt lat="3.3890450" lon="-76.5899730">
        <ele>1310.7</ele>
        <time>2022-02-13T11:43:33Z</time>
      </trkpt>
      <trkpt lat="3.3889870" lon="-76.5899890">
        <ele>1310.7</ele>
        <time>2022-02-13T11:43:38Z</time>
      </trkpt>
      <trkpt lat="3.3889550" lon="-76.5899960">
        <ele>1310.6</ele>
        <time>2022-02-13T11:43:41Z</time>
      </trkpt>
      <trkpt lat="3.3889290" lon="-76.5899970">
        <ele>1310.6</ele>
        <time>2022-02-13T11:43:43Z</time>
      </trkpt>
      <trkpt lat="3.3889110" lon="-76.5900040">
        <ele>1310.6</ele>
        <time>2022-02-13T11:43:45Z</time>
      </trkpt>
      <trkpt lat="3.3888360" lon="-76.5900350">
        <ele>1310.5</ele>
        <time>2022-02-13T11:43:52Z</time>
      </trkpt>
      <trkpt lat="3.3887730" lon="-76.5900990">
        <ele>1310.5</ele>
        <time>2022-02-13T11:44:00Z</time>
      </trkpt>
      <trkpt lat="3.3887450" lon="-76.5901440">
        <ele>1310.5</ele>
        <time>2022-02-13T11:44:05Z</time>
      </trkpt>
      <trkpt lat="3.3887260" lon="-76.5901710">
        <ele>1310.5</ele>
        <time>2022-02-13T11:44:08Z</time>
      </trkpt>
      <trkpt lat="3.3887190" lon="-76.5901810">
        <ele>1310.4</ele>
        <time>2022-02-13T11:44:09Z</time>
      </trkpt>
      <trkpt lat="3.3886840" lon="-76.5902190">
        <ele>1310.4</ele>
        <time>2022-02-13T11:44:14Z</time>
      </trkpt>
      <trkpt lat="3.3886590" lon="-76.5902400">
        <ele>1310.4</ele>
        <time>2022-02-13T11:44:17Z</time>
      </trkpt>
      <trkpt lat="3.3886550" lon="-76.5902470">
        <ele>1310.4</ele>
        <time>2022-02-13T11:44:18Z</time>
      </trkpt>
      <trkpt lat="3.3885960" lon="-76.5903160">
        <ele>1310.3</ele>
        <time>2022-02-13T11:44:27Z</time>
      </trkpt>
      <trkpt lat="3.3885890" lon="-76.5903180">
        <ele>1310.3</ele>
        <time>2022-02-13T11:44:28Z</time>
      </trkpt>
      <trkpt lat="3.3885790" lon="-76.5903260">
        <ele>1310.3</ele>
        <time>2022-02-13T11:44:30Z</time>
      </trkpt>
      <trkpt lat="3.3885640" lon="-76.5903460">
        <ele>1310.3</ele>
        <time>2022-02-13T11:44:33Z</time>
      </trkpt>
      <trkpt lat="3.3885290" lon="-76.5904000">
        <ele>1310.4</ele>
        <time>2022-02-13T11:44:41Z</time>
      </trkpt>
      <trkpt lat="3.3885220" lon="-76.5904220">
        <ele>1310.4</ele>
        <time>2022-02-13T11:44:43Z</time>
      </trkpt>
      <trkpt lat="3.3885140" lon="-76.5904710">
        <ele>1310.4</ele>
        <time>2022-02-13T11:44:47Z</time>
      </trkpt>
      <trkpt lat="3.3884760" lon="-76.5905540">
        <ele>1310.5</ele>
        <time>2022-02-13T11:44:54Z</time>
      </trkpt>
      <trkpt lat="3.3884340" lon="-76.5906110">
        <ele>1310.6</ele>
        <time>2022-02-13T11:45:00Z</time>
      </trkpt>
      <trkpt lat="3.3884310" lon="-76.5906370">
        <ele>1310.6</ele>
        <time>2022-02-13T11:45:02Z</time>
      </trkpt>
      <trkpt lat="3.3884220" lon="-76.5906610">
        <ele>1310.7</ele>
        <time>2022-02-13T11:45:04Z</time>
      </trkpt>
      <trkpt lat="3.3883800" lon="-76.5907150">
        <ele>1310.8</ele>
        <time>2022-02-13T11:45:10Z</time>
      </trkpt>
      <trkpt lat="3.3883320" lon="-76.5908130">
        <ele>1311.2</ele>
        <time>2022-02-13T11:45:19Z</time>
      </trkpt>
      <trkpt lat="3.3882960" lon="-76.5909140">
        <ele>1311.5</ele>
        <time>2022-02-13T11:45:28Z</time>
      </trkpt>
      <trkpt lat="3.3883010" lon="-76.5909600">
        <ele>1311.7</ele>
        <time>2022-02-13T11:45:32Z</time>
      </trkpt>
      <trkpt lat="3.3883140" lon="-76.5909870">
        <ele>1311.8</ele>
        <time>2022-02-13T11:45:35Z</time>
      </trkpt>
      <trkpt lat="3.3883330" lon="-76.5910720">
        <ele>1312.1</ele>
        <time>2022-02-13T11:45:43Z</time>
      </trkpt>
      <trkpt lat="3.3883290" lon="-76.5910790">
        <ele>1312.1</ele>
        <time>2022-02-13T11:45:44Z</time>
      </trkpt>
      <trkpt lat="3.3882880" lon="-76.5911680">
        <ele>1312.4</ele>
        <time>2022-02-13T11:45:53Z</time>
      </trkpt>
      <trkpt lat="3.3882640" lon="-76.5911900">
        <ele>1312.5</ele>
        <time>2022-02-13T11:45:56Z</time>
      </trkpt>
      <trkpt lat="3.3882540" lon="-76.5911950">
        <ele>1312.5</ele>
        <time>2022-02-13T11:45:57Z</time>
      </trkpt>
      <trkpt lat="3.3882230" lon="-76.5912240">
        <ele>1312.7</ele>
        <time>2022-02-13T11:46:01Z</time>
      </trkpt>
      <trkpt lat="3.3881910" lon="-76.5912460">
        <ele>1312.9</ele>
        <time>2022-02-13T11:46:04Z</time>
      </trkpt>
      <trkpt lat="3.3881590" lon="-76.5912750">
        <ele>1313.1</ele>
        <time>2022-02-13T11:46:07Z</time>
      </trkpt>
      <trkpt lat="3.3881270" lon="-76.5913080">
        <ele>1313.3</ele>
        <time>2022-02-13T11:46:11Z</time>
      </trkpt>
      <trkpt lat="3.3881200" lon="-76.5913120">
        <ele>1313.3</ele>
        <time>2022-02-13T11:46:12Z</time>
      </trkpt>
      <trkpt lat="3.3881160" lon="-76.5913220">
        <ele>1313.4</ele>
        <time>2022-02-13T11:46:13Z</time>
      </trkpt>
      <trkpt lat="3.3880870" lon="-76.5913860">
        <ele>1313.7</ele>
        <time>2022-02-13T11:46:19Z</time>
      </trkpt>
      <trkpt lat="3.3880850" lon="-76.5914110">
        <ele>1313.8</ele>
        <time>2022-02-13T11:46:21Z</time>
      </trkpt>
      <trkpt lat="3.3880740" lon="-76.5914630">
        <ele>1314.0</ele>
        <time>2022-02-13T11:46:26Z</time>
      </trkpt>
      <trkpt lat="3.3880830" lon="-76.5914870">
        <ele>1314.0</ele>
        <time>2022-02-13T11:46:28Z</time>
      </trkpt>
      <trkpt lat="3.3881240" lon="-76.5915200">
        <ele>1314.1</ele>
        <time>2022-02-13T11:46:33Z</time>
      </trkpt>
      <trkpt lat="3.3881570" lon="-76.5915600">
        <ele>1314.0</ele>
        <time>2022-02-13T11:46:37Z</time>
      </trkpt>
      <trkpt lat="3.3881820" lon="-76.5915820">
        <ele>1314.0</ele>
        <time>2022-02-13T11:46:40Z</time>
      </trkpt>
      <trkpt lat="3.3882010" lon="-76.5915970">
        <ele>1314.0</ele>
        <time>2022-02-13T11:46:43Z</time>
      </trkpt>
      <trkpt lat="3.3882310" lon="-76.5916150">
        <ele>1313.9</ele>
        <time>2022-02-13T11:46:45Z</time>
      </trkpt>
      <trkpt lat="3.3882830" lon="-76.5916570">
        <ele>1313.7</ele>
        <time>2022-02-13T11:46:50Z</time>
      </trkpt>
      <trkpt lat="3.3883130" lon="-76.5917040">
        <ele>1313.6</ele>
        <time>2022-02-13T11:46:55Z</time>
      </trkpt>
      <trkpt lat="3.3883270" lon="-76.5917160">
        <ele>1313.5</ele>
        <time>2022-02-13T11:46:57Z</time>
      </trkpt>
      <trkpt lat="3.3883610" lon="-76.5917660">
        <ele>1313.4</ele>
        <time>2022-02-13T11:47:05Z</time>
      </trkpt>
      <trkpt lat="3.3883750" lon="-76.5917970">
        <ele>1313.3</ele>
        <time>2022-02-13T11:47:07Z</time>
      </trkpt>
      <trkpt lat="3.3883840" lon="-76.5918340">
        <ele>1313.3</ele>
        <time>2022-02-13T11:47:11Z</time>
      </trkpt>
      <trkpt lat="3.3883830" lon="-76.5918440">
        <ele>1313.2</ele>
        <time>2022-02-13T11:47:12Z</time>
      </trkpt>
      <trkpt lat="3.3883780" lon="-76.5918610">
        <ele>1313.2</ele>
        <time>2022-02-13T11:47:14Z</time>
      </trkpt>
      <trkpt lat="3.3883770" lon="-76.5918750">
        <ele>1313.2</ele>
        <time>2022-02-13T11:47:16Z</time>
      </trkpt>
      <trkpt lat="3.3883780" lon="-76.5919020">
        <ele>1313.1</ele>
        <time>2022-02-13T11:47:18Z</time>
      </trkpt>
      <trkpt lat="3.3883780" lon="-76.5919160">
        <ele>1313.1</ele>
        <time>2022-02-13T11:47:19Z</time>
      </trkpt>
      <trkpt lat="3.3883800" lon="-76.5919260">
        <ele>1313.1</ele>
        <time>2022-02-13T11:47:20Z</time>
      </trkpt>
      <trkpt lat="3.3883810" lon="-76.5919370">
        <ele>1313.1</ele>
        <time>2022-02-13T11:47:21Z</time>
      </trkpt>
      <trkpt lat="3.3883780" lon="-76.5919450">
        <ele>1313.1</ele>
        <time>2022-02-13T11:47:22Z</time>
      </trkpt>
      <trkpt lat="3.3883610" lon="-76.5919740">
        <ele>1313.1</ele>
        <time>2022-02-13T11:47:27Z</time>
      </trkpt>
      <trkpt lat="3.3882980" lon="-76.5919810">
        <ele>1313.3</ele>
        <time>2022-02-13T11:47:34Z</time>
      </trkpt>
      <trkpt lat="3.3882830" lon="-76.5919810">
        <ele>1313.3</ele>
        <time>2022-02-13T11:47:37Z</time>
      </trkpt>
      <trkpt lat="3.3882760" lon="-76.5919630">
        <ele>1313.4</ele>
        <time>2022-02-13T11:47:39Z</time>
      </trkpt>
      <trkpt lat="3.3882720" lon="-76.5919480">
        <ele>1313.5</ele>
        <time>2022-02-13T11:47:40Z</time>
      </trkpt>
      <trkpt lat="3.3882650" lon="-76.5919330">
        <ele>1313.5</ele>
        <time>2022-02-13T11:47:42Z</time>
      </trkpt>
      <trkpt lat="3.3882650" lon="-76.5918770">
        <ele>1313.8</ele>
        <time>2022-02-13T11:47:46Z</time>
      </trkpt>
      <trkpt lat="3.3882690" lon="-76.5918590">
        <ele>1313.9</ele>
        <time>2022-02-13T11:47:48Z</time>
      </trkpt>
      <trkpt lat="3.3882390" lon="-76.5918420">
        <ele>1314.1</ele>
        <time>2022-02-13T11:47:51Z</time>
      </trkpt>
      <trkpt lat="3.3882290" lon="-76.5918370">
        <ele>1314.1</ele>
        <time>2022-02-13T11:47:52Z</time>
      </trkpt>
      <trkpt lat="3.3882240" lon="-76.5918280">
        <ele>1314.2</ele>
        <time>2022-02-13T11:47:53Z</time>
      </trkpt>
      <trkpt lat="3.3882090" lon="-76.5918160">
        <ele>1314.4</ele>
        <time>2022-02-13T11:47:55Z</time>
      </trkpt>
      <trkpt lat="3.3881820" lon="-76.5918100">
        <ele>1314.5</ele>
        <time>2022-02-13T11:47:57Z</time>
      </trkpt>
      <trkpt lat="3.3880730" lon="-76.5917690">
        <ele>1315.4</ele>
        <time>2022-02-13T11:48:05Z</time>
      </trkpt>
      <trkpt lat="3.3880110" lon="-76.5917600">
        <ele>1315.9</ele>
        <time>2022-02-13T11:48:10Z</time>
      </trkpt>
      <trkpt lat="3.3879770" lon="-76.5917530">
        <ele>1316.1</ele>
        <time>2022-02-13T11:48:13Z</time>
      </trkpt>
      <trkpt lat="3.3879360" lon="-76.5917360">
        <ele>1316.5</ele>
        <time>2022-02-13T11:48:17Z</time>
      </trkpt>
      <trkpt lat="3.3879270" lon="-76.5917270">
        <ele>1316.6</ele>
        <time>2022-02-13T11:48:18Z</time>
      </trkpt>
      <trkpt lat="3.3879030" lon="-76.5917180">
        <ele>1316.8</ele>
        <time>2022-02-13T11:48:20Z</time>
      </trkpt>
      <trkpt lat="3.3878220" lon="-76.5917300">
        <ele>1317.5</ele>
        <time>2022-02-13T11:48:26Z</time>
      </trkpt>
      <trkpt lat="3.3878100" lon="-76.5917330">
        <ele>1317.7</ele>
        <time>2022-02-13T11:48:27Z</time>
      </trkpt>
      <trkpt lat="3.3877170" lon="-76.5917420">
        <ele>1318.6</ele>
        <time>2022-02-13T11:48:35Z</time>
      </trkpt>
      <trkpt lat="3.3877070" lon="-76.5917410">
        <ele>1318.7</ele>
        <time>2022-02-13T11:48:36Z</time>
      </trkpt>
      <trkpt lat="3.3876360" lon="-76.5917420">
        <ele>1319.3</ele>
        <time>2022-02-13T11:48:43Z</time>
      </trkpt>
      <trkpt lat="3.3876100" lon="-76.5917440">
        <ele>1319.5</ele>
        <time>2022-02-13T11:48:45Z</time>
      </trkpt>
      <trkpt lat="3.3875400" lon="-76.5917410">
        <ele>1320.1</ele>
        <time>2022-02-13T11:48:52Z</time>
      </trkpt>
      <trkpt lat="3.3875320" lon="-76.5917400">
        <ele>1320.1</ele>
        <time>2022-02-13T11:48:53Z</time>
      </trkpt>
      <trkpt lat="3.3875000" lon="-76.5917380">
        <ele>1320.3</ele>
        <time>2022-02-13T11:48:58Z</time>
      </trkpt>
      <trkpt lat="3.3874740" lon="-76.5917430">
        <ele>1320.5</ele>
        <time>2022-02-13T11:49:01Z</time>
      </trkpt>
      <trkpt lat="3.3874450" lon="-76.5917530">
        <ele>1320.6</ele>
        <time>2022-02-13T11:49:04Z</time>
      </trkpt>
      <trkpt lat="3.3874090" lon="-76.5917600">
        <ele>1320.8</ele>
        <time>2022-02-13T11:49:07Z</time>
      </trkpt>
      <trkpt lat="3.3873460" lon="-76.5917650">
        <ele>1321.1</ele>
        <time>2022-02-13T11:49:13Z</time>
      </trkpt>
      <trkpt lat="3.3873250" lon="-76.5917650">
        <ele>1321.2</ele>
        <time>2022-02-13T11:49:15Z</time>
      </trkpt>
      <trkpt lat="3.3873020" lon="-76.5917670">
        <ele>1321.4</ele>
        <time>2022-02-13T11:49:17Z</time>
      </trkpt>
      <trkpt lat="3.3872900" lon="-76.5917700">
        <ele>1321.4</ele>
        <time>2022-02-13T11:49:18Z</time>
      </trkpt>
      <trkpt lat="3.3872790" lon="-76.5917730">
        <ele>1321.5</ele>
        <time>2022-02-13T11:49:19Z</time>
      </trkpt>
      <trkpt lat="3.3872070" lon="-76.5917770">
        <ele>1322.0</ele>
        <time>2022-02-13T11:49:25Z</time>
      </trkpt>
      <trkpt lat="3.3871130" lon="-76.5917770">
        <ele>1322.7</ele>
        <time>2022-02-13T11:49:33Z</time>
      </trkpt>
      <trkpt lat="3.3870040" lon="-76.5917840">
        <ele>1323.6</ele>
        <time>2022-02-13T11:49:42Z</time>
      </trkpt>
      <trkpt lat="3.3869140" lon="-76.5917940">
        <ele>1324.5</ele>
        <time>2022-02-13T11:49:50Z</time>
      </trkpt>
      <trkpt lat="3.3868910" lon="-76.5917930">
        <ele>1324.8</ele>
        <time>2022-02-13T11:49:52Z</time>
      </trkpt>
      <trkpt lat="3.3868360" lon="-76.5918070">
        <ele>1325.4</ele>
        <time>2022-02-13T11:49:57Z</time>
      </trkpt>
      <trkpt lat="3.3867930" lon="-76.5918300">
        <ele>1325.8</ele>
        <time>2022-02-13T11:50:01Z</time>
      </trkpt>
      <trkpt lat="3.3867320" lon="-76.5918620">
        <ele>1326.2</ele>
        <time>2022-02-13T11:50:07Z</time>
      </trkpt>
      <trkpt lat="3.3867220" lon="-76.5918710">
        <ele>1326.2</ele>
        <time>2022-02-13T11:50:08Z</time>
      </trkpt>
      <trkpt lat="3.3867170" lon="-76.5918760">
        <ele>1326.3</ele>
        <time>2022-02-13T11:50:09Z</time>
      </trkpt>
      <trkpt lat="3.3866890" lon="-76.5919120">
        <ele>1326.5</ele>
        <time>2022-02-13T11:50:14Z</time>
      </trkpt>
      <trkpt lat="3.3866770" lon="-76.5919280">
        <ele>1326.7</ele>
        <time>2022-02-13T11:50:16Z</time>
      </trkpt>
      <trkpt lat="3.3866750" lon="-76.5919360">
        <ele>1326.7</ele>
        <time>2022-02-13T11:50:17Z</time>
      </trkpt>
      <trkpt lat="3.3866690" lon="-76.5919840">
        <ele>1327.1</ele>
        <time>2022-02-13T11:50:21Z</time>
      </trkpt>
      <trkpt lat="3.3866520" lon="-76.5920540">
        <ele>1327.9</ele>
        <time>2022-02-13T11:50:27Z</time>
      </trkpt>
      <trkpt lat="3.3866310" lon="-76.5921680">
        <ele>1329.3</ele>
        <time>2022-02-13T11:50:36Z</time>
      </trkpt>
      <trkpt lat="3.3866120" lon="-76.5922420">
        <ele>1330.2</ele>
        <time>2022-02-13T11:50:42Z</time>
      </trkpt>
      <trkpt lat="3.3866040" lon="-76.5922480">
        <ele>1330.4</ele>
        <time>2022-02-13T11:50:43Z</time>
      </trkpt>
      <trkpt lat="3.3865960" lon="-76.5922500">
        <ele>1330.4</ele>
        <time>2022-02-13T11:50:44Z</time>
      </trkpt>
      <trkpt lat="3.3865600" lon="-76.5922500">
        <ele>1330.8</ele>
        <time>2022-02-13T11:50:48Z</time>
      </trkpt>
      <trkpt lat="3.3865230" lon="-76.5922420">
        <ele>1331.2</ele>
        <time>2022-02-13T11:50:54Z</time>
      </trkpt>
      <trkpt lat="3.3864470" lon="-76.5922070">
        <ele>1332.1</ele>
        <time>2022-02-13T11:51:04Z</time>
      </trkpt>
      <trkpt lat="3.3864450" lon="-76.5922030">
        <ele>1332.1</ele>
        <time>2022-02-13T11:51:06Z</time>
      </trkpt>
      <trkpt lat="3.3863930" lon="-76.5921860">
        <ele>1332.7</ele>
        <time>2022-02-13T11:51:13Z</time>
      </trkpt>
      <trkpt lat="3.3863490" lon="-76.5921910">
        <ele>1333.3</ele>
        <time>2022-02-13T11:51:19Z</time>
      </trkpt>
      <trkpt lat="3.3863070" lon="-76.5922160">
        <ele>1334.2</ele>
        <time>2022-02-13T11:51:23Z</time>
      </trkpt>
      <trkpt lat="3.3863060" lon="-76.5922250">
        <ele>1334.3</ele>
        <time>2022-02-13T11:51:24Z</time>
      </trkpt>
      <trkpt lat="3.3862960" lon="-76.5922670">
        <ele>1335.2</ele>
        <time>2022-02-13T11:51:28Z</time>
      </trkpt>
      <trkpt lat="3.3863000" lon="-76.5922910">
        <ele>1335.6</ele>
        <time>2022-02-13T11:51:30Z</time>
      </trkpt>
      <trkpt lat="3.3863030" lon="-76.5923010">
        <ele>1335.8</ele>
        <time>2022-02-13T11:51:31Z</time>
      </trkpt>
      <trkpt lat="3.3863270" lon="-76.5923260">
        <ele>1336.5</ele>
        <time>2022-02-13T11:51:34Z</time>
      </trkpt>
      <trkpt lat="3.3863520" lon="-76.5923540">
        <ele>1337.1</ele>
        <time>2022-02-13T11:51:38Z</time>
      </trkpt>
      <trkpt lat="3.3863900" lon="-76.5923990">
        <ele>1337.7</ele>
        <time>2022-02-13T11:51:45Z</time>
      </trkpt>
      <trkpt lat="3.3863950" lon="-76.5924080">
        <ele>1337.8</ele>
        <time>2022-02-13T11:51:46Z</time>
      </trkpt>
      <trkpt lat="3.3864230" lon="-76.5924380">
        <ele>1338.0</ele>
        <time>2022-02-13T11:51:51Z</time>
      </trkpt>
      <trkpt lat="3.3864330" lon="-76.5924480">
        <ele>1338.1</ele>
        <time>2022-02-13T11:51:53Z</time>
      </trkpt>
      <trkpt lat="3.3864410" lon="-76.5924600">
        <ele>1338.2</ele>
        <time>2022-02-13T11:51:55Z</time>
      </trkpt>
      <trkpt lat="3.3864490" lon="-76.5924790">
        <ele>1338.2</ele>
        <time>2022-02-13T11:51:57Z</time>
      </trkpt>
      <trkpt lat="3.3864550" lon="-76.5924980">
        <ele>1338.3</ele>
        <time>2022-02-13T11:51:59Z</time>
      </trkpt>
      <trkpt lat="3.3864590" lon="-76.5925090">
        <ele>1338.4</ele>
        <time>2022-02-13T11:52:00Z</time>
      </trkpt>
      <trkpt lat="3.3864800" lon="-76.5925720">
        <ele>1339.0</ele>
        <time>2022-02-13T11:52:06Z</time>
      </trkpt>
      <trkpt lat="3.3864790" lon="-76.5925830">
        <ele>1339.2</ele>
        <time>2022-02-13T11:52:07Z</time>
      </trkpt>
      <trkpt lat="3.3864720" lon="-76.5926640">
        <ele>1340.6</ele>
        <time>2022-02-13T11:52:14Z</time>
      </trkpt>
      <trkpt lat="3.3864640" lon="-76.5926840">
        <ele>1341.1</ele>
        <time>2022-02-13T11:52:16Z</time>
      </trkpt>
      <trkpt lat="3.3864470" lon="-76.5927400">
        <ele>1342.5</ele>
        <time>2022-02-13T11:52:22Z</time>
      </trkpt>
      <trkpt lat="3.3864350" lon="-76.5927550">
        <ele>1343.0</ele>
        <time>2022-02-13T11:52:24Z</time>
      </trkpt>
      <trkpt lat="3.3864220" lon="-76.5927920">
        <ele>1344.0</ele>
        <time>2022-02-13T11:52:29Z</time>
      </trkpt>
      <trkpt lat="3.3864060" lon="-76.5928380">
        <ele>1345.2</ele>
        <time>2022-02-13T11:52:35Z</time>
      </trkpt>
      <trkpt lat="3.3863370" lon="-76.5929050">
        <ele>1346.9</ele>
        <time>2022-02-13T11:52:46Z</time>
      </trkpt>
      <trkpt lat="3.3863190" lon="-76.5929200">
        <ele>1347.3</ele>
        <time>2022-02-13T11:52:49Z</time>
      </trkpt>
      <trkpt lat="3.3862980" lon="-76.5929520">
        <ele>1347.8</ele>
        <time>2022-02-13T11:52:54Z</time>
      </trkpt>
      <trkpt lat="3.3862910" lon="-76.5929570">
        <ele>1348.0</ele>
        <time>2022-02-13T11:52:55Z</time>
      </trkpt>
      <trkpt lat="3.3862640" lon="-76.5929720">
        <ele>1348.4</ele>
        <time>2022-02-13T11:52:59Z</time>
      </trkpt>
      <trkpt lat="3.3862460" lon="-76.5929780">
        <ele>1348.7</ele>
        <time>2022-02-13T11:53:01Z</time>
      </trkpt>
      <trkpt lat="3.3862370" lon="-76.5929820">
        <ele>1348.8</ele>
        <time>2022-02-13T11:53:02Z</time>
      </trkpt>
      <trkpt lat="3.3862160" lon="-76.5929860">
        <ele>1349.0</ele>
        <time>2022-02-13T11:53:04Z</time>
      </trkpt>
      <trkpt lat="3.3862000" lon="-76.5929900">
        <ele>1349.1</ele>
        <time>2022-02-13T11:53:06Z</time>
      </trkpt>
      <trkpt lat="3.3861870" lon="-76.5929920">
        <ele>1349.2</ele>
        <time>2022-02-13T11:53:07Z</time>
      </trkpt>
      <trkpt lat="3.3861710" lon="-76.5929980">
        <ele>1349.4</ele>
        <time>2022-02-13T11:53:09Z</time>
      </trkpt>
      <trkpt lat="3.3861210" lon="-76.5930090">
        <ele>1349.7</ele>
        <time>2022-02-13T11:53:14Z</time>
      </trkpt>
      <trkpt lat="3.3860860" lon="-76.5930120">
        <ele>1350.0</ele>
        <time>2022-02-13T11:53:17Z</time>
      </trkpt>
      <trkpt lat="3.3860270" lon="-76.5930190">
        <ele>1350.7</ele>
        <time>2022-02-13T11:53:23Z</time>
      </trkpt>
      <trkpt lat="3.3860050" lon="-76.5930240">
        <ele>1350.9</ele>
        <time>2022-02-13T11:53:25Z</time>
      </trkpt>
      <trkpt lat="3.3859880" lon="-76.5930270">
        <ele>1351.2</ele>
        <time>2022-02-13T11:53:27Z</time>
      </trkpt>
      <trkpt lat="3.3859290" lon="-76.5930260">
        <ele>1352.1</ele>
        <time>2022-02-13T11:53:34Z</time>
      </trkpt>
      <trkpt lat="3.3858650" lon="-76.5930250">
        <ele>1353.6</ele>
        <time>2022-02-13T11:53:41Z</time>
      </trkpt>
      <trkpt lat="3.3858420" lon="-76.5930320">
        <ele>1354.2</ele>
        <time>2022-02-13T11:53:44Z</time>
      </trkpt>
      <trkpt lat="3.3858320" lon="-76.5930360">
        <ele>1354.5</ele>
        <time>2022-02-13T11:53:45Z</time>
      </trkpt>
      <trkpt lat="3.3858050" lon="-76.5930350">
        <ele>1355.1</ele>
        <time>2022-02-13T11:53:48Z</time>
      </trkpt>
      <trkpt lat="3.3857400" lon="-76.5930470">
        <ele>1356.5</ele>
        <time>2022-02-13T11:53:54Z</time>
      </trkpt>
      <trkpt lat="3.3857270" lon="-76.5930530">
        <ele>1356.7</ele>
        <time>2022-02-13T11:53:56Z</time>
      </trkpt>
      <trkpt lat="3.3856370" lon="-76.5930620">
        <ele>1357.8</ele>
        <time>2022-02-13T11:54:05Z</time>
      </trkpt>
      <trkpt lat="3.3856300" lon="-76.5930650">
        <ele>1357.9</ele>
        <time>2022-02-13T11:54:06Z</time>
      </trkpt>
      <trkpt lat="3.3855930" lon="-76.5930690">
        <ele>1358.3</ele>
        <time>2022-02-13T11:54:11Z</time>
      </trkpt>
      <trkpt lat="3.3855850" lon="-76.5930700">
        <ele>1358.3</ele>
        <time>2022-02-13T11:54:12Z</time>
      </trkpt>
      <trkpt lat="3.3855710" lon="-76.5930790">
        <ele>1358.5</ele>
        <time>2022-02-13T11:54:14Z</time>
      </trkpt>
      <trkpt lat="3.3855200" lon="-76.5930830">
        <ele>1358.9</ele>
        <time>2022-02-13T11:54:20Z</time>
      </trkpt>
      <trkpt lat="3.3854320" lon="-76.5930990">
        <ele>1359.4</ele>
        <time>2022-02-13T11:54:30Z</time>
      </trkpt>
      <trkpt lat="3.3853560" lon="-76.5931180">
        <ele>1359.9</ele>
        <time>2022-02-13T11:54:37Z</time>
      </trkpt>
      <trkpt lat="3.3853340" lon="-76.5931260">
        <ele>1360.0</ele>
        <time>2022-02-13T11:54:39Z</time>
      </trkpt>
      <trkpt lat="3.3853250" lon="-76.5931260">
        <ele>1360.0</ele>
        <time>2022-02-13T11:54:40Z</time>
      </trkpt>
      <trkpt lat="3.3852930" lon="-76.5931200">
        <ele>1360.3</ele>
        <time>2022-02-13T11:54:43Z</time>
      </trkpt>
      <trkpt lat="3.3852750" lon="-76.5931230">
        <ele>1360.4</ele>
        <time>2022-02-13T11:54:45Z</time>
      </trkpt>
      <trkpt lat="3.3852450" lon="-76.5931490">
        <ele>1360.8</ele>
        <time>2022-02-13T11:54:49Z</time>
      </trkpt>
      <trkpt lat="3.3851600" lon="-76.5931800">
        <ele>1361.8</ele>
        <time>2022-02-13T11:54:59Z</time>
      </trkpt>
      <trkpt lat="3.3851180" lon="-76.5931910">
        <ele>1362.4</ele>
        <time>2022-02-13T11:55:03Z</time>
      </trkpt>
      <trkpt lat="3.3850930" lon="-76.5932060">
        <ele>1362.8</ele>
        <time>2022-02-13T11:55:06Z</time>
      </trkpt>
      <trkpt lat="3.3850580" lon="-76.5932220">
        <ele>1363.4</ele>
        <time>2022-02-13T11:55:09Z</time>
      </trkpt>
      <trkpt lat="3.3850420" lon="-76.5932340">
        <ele>1363.7</ele>
        <time>2022-02-13T11:55:10Z</time>
      </trkpt>
      <trkpt lat="3.3850340" lon="-76.5932380">
        <ele>1363.9</ele>
        <time>2022-02-13T11:55:11Z</time>
      </trkpt>
      <trkpt lat="3.3850240" lon="-76.5932400">
        <ele>1364.1</ele>
        <time>2022-02-13T11:55:12Z</time>
      </trkpt>
      <trkpt lat="3.3849530" lon="-76.5932770">
        <ele>1365.5</ele>
        <time>2022-02-13T11:55:21Z</time>
      </trkpt>
      <trkpt lat="3.3849260" lon="-76.5932760">
        <ele>1366.0</ele>
        <time>2022-02-13T11:55:24Z</time>
      </trkpt>
      <trkpt lat="3.3848950" lon="-76.5932850">
        <ele>1366.5</ele>
        <time>2022-02-13T11:55:27Z</time>
      </trkpt>
      <trkpt lat="3.3848860" lon="-76.5932910">
        <ele>1366.7</ele>
        <time>2022-02-13T11:55:28Z</time>
      </trkpt>
      <trkpt lat="3.3848770" lon="-76.5932950">
        <ele>1366.9</ele>
        <time>2022-02-13T11:55:29Z</time>
      </trkpt>
      <trkpt lat="3.3848490" lon="-76.5932980">
        <ele>1367.3</ele>
        <time>2022-02-13T11:55:32Z</time>
      </trkpt>
      <trkpt lat="3.3848290" lon="-76.5932960">
        <ele>1367.7</ele>
        <time>2022-02-13T11:55:34Z</time>
      </trkpt>
      <trkpt lat="3.3848210" lon="-76.5932980">
        <ele>1367.8</ele>
        <time>2022-02-13T11:55:35Z</time>
      </trkpt>
      <trkpt lat="3.3847610" lon="-76.5933280">
        <ele>1369.0</ele>
        <time>2022-02-13T11:55:43Z</time>
      </trkpt>
      <trkpt lat="3.3847360" lon="-76.5933280">
        <ele>1369.4</ele>
        <time>2022-02-13T11:55:46Z</time>
      </trkpt>
      <trkpt lat="3.3847180" lon="-76.5933280">
        <ele>1369.7</ele>
        <time>2022-02-13T11:55:48Z</time>
      </trkpt>
      <trkpt lat="3.3846970" lon="-76.5933290">
        <ele>1370.1</ele>
        <time>2022-02-13T11:55:50Z</time>
      </trkpt>
      <trkpt lat="3.3846400" lon="-76.5933150">
        <ele>1371.1</ele>
        <time>2022-02-13T11:55:58Z</time>
      </trkpt>
      <trkpt lat="3.3845810" lon="-76.5932900">
        <ele>1372.1</ele>
        <time>2022-02-13T11:56:05Z</time>
      </trkpt>
      <trkpt lat="3.3845250" lon="-76.5932680">
        <ele>1372.9</ele>
        <time>2022-02-13T11:56:10Z</time>
      </trkpt>
      <trkpt lat="3.3844660" lon="-76.5932470">
        <ele>1373.8</ele>
        <time>2022-02-13T11:56:16Z</time>
      </trkpt>
      <trkpt lat="3.3843450" lon="-76.5931900">
        <ele>1375.9</ele>
        <time>2022-02-13T11:56:27Z</time>
      </trkpt>
      <trkpt lat="3.3842610" lon="-76.5931490">
        <ele>1377.3</ele>
        <time>2022-02-13T11:56:36Z</time>
      </trkpt>
      <trkpt lat="3.3842510" lon="-76.5931450">
        <ele>1377.5</ele>
        <time>2022-02-13T11:56:37Z</time>
      </trkpt>
      <trkpt lat="3.3842360" lon="-76.5931330">
        <ele>1377.8</ele>
        <time>2022-02-13T11:56:39Z</time>
      </trkpt>
      <trkpt lat="3.3841940" lon="-76.5931050">
        <ele>1378.6</ele>
        <time>2022-02-13T11:56:44Z</time>
      </trkpt>
      <trkpt lat="3.3841690" lon="-76.5930810">
        <ele>1379.1</ele>
        <time>2022-02-13T11:56:48Z</time>
      </trkpt>
      <trkpt lat="3.3841420" lon="-76.5930450">
        <ele>1379.8</ele>
        <time>2022-02-13T11:56:53Z</time>
      </trkpt>
      <trkpt lat="3.3840980" lon="-76.5929940">
        <ele>1380.8</ele>
        <time>2022-02-13T11:57:00Z</time>
      </trkpt>
      <trkpt lat="3.3841070" lon="-76.5929160">
        <ele>1382.0</ele>
        <time>2022-02-13T11:57:08Z</time>
      </trkpt>
      <trkpt lat="3.3841110" lon="-76.5928160">
        <ele>1383.7</ele>
        <time>2022-02-13T11:57:18Z</time>
      </trkpt>
      <trkpt lat="3.3840740" lon="-76.5927550">
        <ele>1385.0</ele>
        <time>2022-02-13T11:57:26Z</time>
      </trkpt>
      <trkpt lat="3.3840330" lon="-76.5927440">
        <ele>1385.7</ele>
        <time>2022-02-13T11:57:30Z</time>
      </trkpt>
      <trkpt lat="3.3840060" lon="-76.5927470">
        <ele>1386.1</ele>
        <time>2022-02-13T11:57:33Z</time>
      </trkpt>
      <trkpt lat="3.3839460" lon="-76.5927780">
        <ele>1386.6</ele>
        <time>2022-02-13T11:57:41Z</time>
      </trkpt>
      <trkpt lat="3.3839460" lon="-76.5927790">
        <ele>1386.6</ele>
        <time>2022-02-13T11:57:42Z</time>
      </trkpt>
      <trkpt lat="3.3839410" lon="-76.5927830">
        <ele>1386.7</ele>
        <time>2022-02-13T11:57:45Z</time>
      </trkpt>
      <trkpt lat="3.3839240" lon="-76.5928020">
        <ele>1386.8</ele>
        <time>2022-02-13T11:57:48Z</time>
      </trkpt>
      <trkpt lat="3.3839090" lon="-76.5928420">
        <ele>1387.4</ele>
        <time>2022-02-13T11:57:53Z</time>
      </trkpt>
      <trkpt lat="3.3839050" lon="-76.5928500">
        <ele>1387.6</ele>
        <time>2022-02-13T11:57:54Z</time>
      </trkpt>
      <trkpt lat="3.3838840" lon="-76.5928900">
        <ele>1388.2</ele>
        <time>2022-02-13T11:57:59Z</time>
      </trkpt>
      <trkpt lat="3.3838590" lon="-76.5929320">
        <ele>1389.0</ele>
        <time>2022-02-13T11:58:04Z</time>
      </trkpt>
      <trkpt lat="3.3838150" lon="-76.5929950">
        <ele>1390.4</ele>
        <time>2022-02-13T11:58:12Z</time>
      </trkpt>
      <trkpt lat="3.3837800" lon="-76.5930390">
        <ele>1391.5</ele>
        <time>2022-02-13T11:58:18Z</time>
      </trkpt>
      <trkpt lat="3.3837670" lon="-76.5930510">
        <ele>1391.8</ele>
        <time>2022-02-13T11:58:20Z</time>
      </trkpt>
      <trkpt lat="3.3837450" lon="-76.5931010">
        <ele>1392.9</ele>
        <time>2022-02-13T11:58:26Z</time>
      </trkpt>
      <trkpt lat="3.3837360" lon="-76.5931500">
        <ele>1393.9</ele>
        <time>2022-02-13T11:58:32Z</time>
      </trkpt>
      <trkpt lat="3.3837330" lon="-76.5931700">
        <ele>1394.3</ele>
        <time>2022-02-13T11:58:35Z</time>
      </trkpt>
      <trkpt lat="3.3837270" lon="-76.5932030">
        <ele>1394.9</ele>
        <time>2022-02-13T11:58:39Z</time>
      </trkpt>
      <trkpt lat="3.3837150" lon="-76.5932330">
        <ele>1395.5</ele>
        <time>2022-02-13T11:58:42Z</time>
      </trkpt>
      <trkpt lat="3.3837130" lon="-76.5932430">
        <ele>1395.7</ele>
        <time>2022-02-13T11:58:43Z</time>
      </trkpt>
      <trkpt lat="3.3836960" lon="-76.5933100">
        <ele>1396.8</ele>
        <time>2022-02-13T11:58:50Z</time>
      </trkpt>
      <trkpt lat="3.3836870" lon="-76.5933320">
        <ele>1397.2</ele>
        <time>2022-02-13T11:58:52Z</time>
      </trkpt>
      <trkpt lat="3.3836910" lon="-76.5933640">
        <ele>1397.7</ele>
        <time>2022-02-13T11:58:56Z</time>
      </trkpt>
      <trkpt lat="3.3836840" lon="-76.5934080">
        <ele>1398.3</ele>
        <time>2022-02-13T11:59:01Z</time>
      </trkpt>
      <trkpt lat="3.3836830" lon="-76.5934150">
        <ele>1398.4</ele>
        <time>2022-02-13T11:59:02Z</time>
      </trkpt>
      <trkpt lat="3.3836820" lon="-76.5934220">
        <ele>1398.6</ele>
        <time>2022-02-13T11:59:03Z</time>
      </trkpt>
      <trkpt lat="3.3836730" lon="-76.5934830">
        <ele>1399.5</ele>
        <time>2022-02-13T11:59:10Z</time>
      </trkpt>
      <trkpt lat="3.3836620" lon="-76.5935430">
        <ele>1400.4</ele>
        <time>2022-02-13T11:59:17Z</time>
      </trkpt>
      <trkpt lat="3.3836540" lon="-76.5935700">
        <ele>1400.8</ele>
        <time>2022-02-13T11:59:20Z</time>
      </trkpt>
      <trkpt lat="3.3836580" lon="-76.5935820">
        <ele>1400.9</ele>
        <time>2022-02-13T11:59:21Z</time>
      </trkpt>
      <trkpt lat="3.3836640" lon="-76.5936250">
        <ele>1401.6</ele>
        <time>2022-02-13T11:59:26Z</time>
      </trkpt>
      <trkpt lat="3.3836710" lon="-76.5936510">
        <ele>1401.9</ele>
        <time>2022-02-13T11:59:31Z</time>
      </trkpt>
      <trkpt lat="3.3836720" lon="-76.5936500">
        <ele>1401.9</ele>
        <time>2022-02-13T11:59:32Z</time>
      </trkpt>
      <trkpt lat="3.3836700" lon="-76.5936680">
        <ele>1402.2</ele>
        <time>2022-02-13T11:59:42Z</time>
      </trkpt>
      <trkpt lat="3.3836570" lon="-76.5937100">
        <ele>1402.8</ele>
        <time>2022-02-13T11:59:48Z</time>
      </trkpt>
      <trkpt lat="3.3836530" lon="-76.5937470">
        <ele>1403.3</ele>
        <time>2022-02-13T11:59:52Z</time>
      </trkpt>
      <trkpt lat="3.3836560" lon="-76.5938140">
        <ele>1404.1</ele>
        <time>2022-02-13T11:59:59Z</time>
      </trkpt>
      <trkpt lat="3.3836470" lon="-76.5938820">
        <ele>1405.0</ele>
        <time>2022-02-13T12:00:05Z</time>
      </trkpt>
      <trkpt lat="3.3836530" lon="-76.5939120">
        <ele>1405.4</ele>
        <time>2022-02-13T12:00:08Z</time>
      </trkpt>
      <trkpt lat="3.3836460" lon="-76.5939230">
        <ele>1405.5</ele>
        <time>2022-02-13T12:00:09Z</time>
      </trkpt>
      <trkpt lat="3.3836280" lon="-76.5939970">
        <ele>1406.4</ele>
        <time>2022-02-13T12:00:16Z</time>
      </trkpt>
      <trkpt lat="3.3836320" lon="-76.5940230">
        <ele>1406.8</ele>
        <time>2022-02-13T12:00:18Z</time>
      </trkpt>
      <trkpt lat="3.3836400" lon="-76.5940760">
        <ele>1407.4</ele>
        <time>2022-02-13T12:00:23Z</time>
      </trkpt>
      <trkpt lat="3.3836370" lon="-76.5941620">
        <ele>1408.5</ele>
        <time>2022-02-13T12:00:31Z</time>
      </trkpt>
      <trkpt lat="3.3836840" lon="-76.5942310">
        <ele>1409.5</ele>
        <time>2022-02-13T12:00:38Z</time>
      </trkpt>
      <trkpt lat="3.3837570" lon="-76.5942990">
        <ele>1410.8</ele>
        <time>2022-02-13T12:00:46Z</time>
      </trkpt>
      <trkpt lat="3.3837810" lon="-76.5943330">
        <ele>1411.4</ele>
        <time>2022-02-13T12:00:50Z</time>
      </trkpt>
      <trkpt lat="3.3837790" lon="-76.5943640">
        <ele>1411.8</ele>
        <time>2022-02-13T12:00:54Z</time>
      </trkpt>
      <trkpt lat="3.3837650" lon="-76.5943840">
        <ele>1412.2</ele>
        <time>2022-02-13T12:00:57Z</time>
      </trkpt>
      <trkpt lat="3.3837370" lon="-76.5944010">
        <ele>1412.7</ele>
        <time>2022-02-13T12:01:01Z</time>
      </trkpt>
      <trkpt lat="3.3837170" lon="-76.5944000">
        <ele>1413.0</ele>
        <time>2022-02-13T12:01:04Z</time>
      </trkpt>
      <trkpt lat="3.3837060" lon="-76.5943900">
        <ele>1413.2</ele>
        <time>2022-02-13T12:01:06Z</time>
      </trkpt>
      <trkpt lat="3.3836940" lon="-76.5943800">
        <ele>1413.4</ele>
        <time>2022-02-13T12:01:08Z</time>
      </trkpt>
      <trkpt lat="3.3836790" lon="-76.5943680">
        <ele>1413.7</ele>
        <time>2022-02-13T12:01:10Z</time>
      </trkpt>
      <trkpt lat="3.3836610" lon="-76.5943380">
        <ele>1414.2</ele>
        <time>2022-02-13T12:01:14Z</time>
      </trkpt>
      <trkpt lat="3.3836410" lon="-76.5943230">
        <ele>1414.5</ele>
        <time>2022-02-13T12:01:16Z</time>
      </trkpt>
      <trkpt lat="3.3836330" lon="-76.5943150">
        <ele>1414.6</ele>
        <time>2022-02-13T12:01:17Z</time>
      </trkpt>
      <trkpt lat="3.3836180" lon="-76.5942700">
        <ele>1415.1</ele>
        <time>2022-02-13T12:01:22Z</time>
      </trkpt>
      <trkpt lat="3.3836000" lon="-76.5942520">
        <ele>1415.4</ele>
        <time>2022-02-13T12:01:24Z</time>
      </trkpt>
      <trkpt lat="3.3835710" lon="-76.5942200">
        <ele>1415.8</ele>
        <time>2022-02-13T12:01:28Z</time>
      </trkpt>
      <trkpt lat="3.3835280" lon="-76.5941710">
        <ele>1416.4</ele>
        <time>2022-02-13T12:01:35Z</time>
      </trkpt>
      <trkpt lat="3.3835210" lon="-76.5941610">
        <ele>1416.5</ele>
        <time>2022-02-13T12:01:36Z</time>
      </trkpt>
      <trkpt lat="3.3835110" lon="-76.5941410">
        <ele>1416.7</ele>
        <time>2022-02-13T12:01:39Z</time>
      </trkpt>
      <trkpt lat="3.3835030" lon="-76.5941220">
        <ele>1416.9</ele>
        <time>2022-02-13T12:01:42Z</time>
      </trkpt>
      <trkpt lat="3.3834800" lon="-76.5941150">
        <ele>1417.1</ele>
        <time>2022-02-13T12:01:44Z</time>
      </trkpt>
      <trkpt lat="3.3834570" lon="-76.5940920">
        <ele>1417.4</ele>
        <time>2022-02-13T12:01:47Z</time>
      </trkpt>
      <trkpt lat="3.3834470" lon="-76.5940830">
        <ele>1417.5</ele>
        <time>2022-02-13T12:01:48Z</time>
      </trkpt>
      <trkpt lat="3.3834390" lon="-76.5940620">
        <ele>1417.6</ele>
        <time>2022-02-13T12:01:50Z</time>
      </trkpt>
      <trkpt lat="3.3834210" lon="-76.5940440">
        <ele>1417.8</ele>
        <time>2022-02-13T12:01:52Z</time>
      </trkpt>
      <trkpt lat="3.3834080" lon="-76.5940360">
        <ele>1418.0</ele>
        <time>2022-02-13T12:01:53Z</time>
      </trkpt>
      <trkpt lat="3.3833910" lon="-76.5940210">
        <ele>1418.1</ele>
        <time>2022-02-13T12:01:55Z</time>
      </trkpt>
      <trkpt lat="3.3833650" lon="-76.5939840">
        <ele>1418.5</ele>
        <time>2022-02-13T12:01:59Z</time>
      </trkpt>
      <trkpt lat="3.3833600" lon="-76.5939730">
        <ele>1418.6</ele>
        <time>2022-02-13T12:02:00Z</time>
      </trkpt>
      <trkpt lat="3.3833650" lon="-76.5939450">
        <ele>1418.8</ele>
        <time>2022-02-13T12:02:03Z</time>
      </trkpt>
      <trkpt lat="3.3833560" lon="-76.5939090">
        <ele>1419.0</ele>
        <time>2022-02-13T12:02:07Z</time>
      </trkpt>
      <trkpt lat="3.3833250" lon="-76.5938720">
        <ele>1419.4</ele>
        <time>2022-02-13T12:02:11Z</time>
      </trkpt>
      <trkpt lat="3.3833150" lon="-76.5938450">
        <ele>1419.6</ele>
        <time>2022-02-13T12:02:14Z</time>
      </trkpt>
      <trkpt lat="3.3833010" lon="-76.5938260">
        <ele>1419.8</ele>
        <time>2022-02-13T12:02:16Z</time>
      </trkpt>
      <trkpt lat="3.3832520" lon="-76.5937310">
        <ele>1420.5</ele>
        <time>2022-02-13T12:02:26Z</time>
      </trkpt>
      <trkpt lat="3.3832080" lon="-76.5936570">
        <ele>1421.2</ele>
        <time>2022-02-13T12:02:34Z</time>
      </trkpt>
      <trkpt lat="3.3831890" lon="-76.5936460">
        <ele>1421.4</ele>
        <time>2022-02-13T12:02:36Z</time>
      </trkpt>
      <trkpt lat="3.3831220" lon="-76.5936450">
        <ele>1422.0</ele>
        <time>2022-02-13T12:02:42Z</time>
      </trkpt>
      <trkpt lat="3.3830910" lon="-76.5936580">
        <ele>1422.3</ele>
        <time>2022-02-13T12:02:45Z</time>
      </trkpt>
      <trkpt lat="3.3830630" lon="-76.5936880">
        <ele>1422.7</ele>
        <time>2022-02-13T12:02:49Z</time>
      </trkpt>
      <trkpt lat="3.3830120" lon="-76.5937730">
        <ele>1423.9</ele>
        <time>2022-02-13T12:02:58Z</time>
      </trkpt>
      <trkpt lat="3.3829940" lon="-76.5938160">
        <ele>1424.6</ele>
        <time>2022-02-13T12:03:03Z</time>
      </trkpt>
      <trkpt lat="3.3829890" lon="-76.5938320">
        <ele>1424.8</ele>
        <time>2022-02-13T12:03:05Z</time>
      </trkpt>
      <trkpt lat="3.3829330" lon="-76.5939220">
        <ele>1426.6</ele>
        <time>2022-02-13T12:03:16Z</time>
      </trkpt>
      <trkpt lat="3.3829150" lon="-76.5939650">
        <ele>1427.4</ele>
        <time>2022-02-13T12:03:23Z</time>
      </trkpt>
      <trkpt lat="3.3829060" lon="-76.5939990">
        <ele>1428.0</ele>
        <time>2022-02-13T12:03:29Z</time>
      </trkpt>
      <trkpt lat="3.3828670" lon="-76.5940400">
        <ele>1429.0</ele>
        <time>2022-02-13T12:03:36Z</time>
      </trkpt>
      <trkpt lat="3.3828100" lon="-76.5940980">
        <ele>1430.0</ele>
        <time>2022-02-13T12:03:43Z</time>
      </trkpt>
      <trkpt lat="3.3827650" lon="-76.5941420">
        <ele>1430.6</ele>
        <time>2022-02-13T12:03:47Z</time>
      </trkpt>
      <trkpt lat="3.3827080" lon="-76.5941960">
        <ele>1431.2</ele>
        <time>2022-02-13T12:03:54Z</time>
      </trkpt>
      <trkpt lat="3.3826730" lon="-76.5942420">
        <ele>1431.6</ele>
        <time>2022-02-13T12:04:00Z</time>
      </trkpt>
      <trkpt lat="3.3826110" lon="-76.5943100">
        <ele>1432.3</ele>
        <time>2022-02-13T12:04:08Z</time>
      </trkpt>
      <trkpt lat="3.3826030" lon="-76.5943200">
        <ele>1432.4</ele>
        <time>2022-02-13T12:04:09Z</time>
      </trkpt>
      <trkpt lat="3.3825280" lon="-76.5943950">
        <ele>1433.3</ele>
        <time>2022-02-13T12:04:19Z</time>
      </trkpt>
      <trkpt lat="3.3824610" lon="-76.5944360">
        <ele>1434.0</ele>
        <time>2022-02-13T12:04:26Z</time>
      </trkpt>
      <trkpt lat="3.3823910" lon="-76.5944960">
        <ele>1434.9</ele>
        <time>2022-02-13T12:04:34Z</time>
      </trkpt>
      <trkpt lat="3.3823750" lon="-76.5945080">
        <ele>1435.1</ele>
        <time>2022-02-13T12:04:36Z</time>
      </trkpt>
      <trkpt lat="3.3822910" lon="-76.5945740">
        <ele>1436.4</ele>
        <time>2022-02-13T12:04:46Z</time>
      </trkpt>
      <trkpt lat="3.3822490" lon="-76.5946390">
        <ele>1437.5</ele>
        <time>2022-02-13T12:04:54Z</time>
      </trkpt>
      <trkpt lat="3.3822080" lon="-76.5946990">
        <ele>1438.6</ele>
        <time>2022-02-13T12:05:00Z</time>
      </trkpt>
      <trkpt lat="3.3821570" lon="-76.5947600">
        <ele>1439.7</ele>
        <time>2022-02-13T12:05:08Z</time>
      </trkpt>
      <trkpt lat="3.3821480" lon="-76.5947790">
        <ele>1440.0</ele>
        <time>2022-02-13T12:05:10Z</time>
      </trkpt>
      <trkpt lat="3.3821390" lon="-76.5948330">
        <ele>1440.8</ele>
        <time>2022-02-13T12:05:16Z</time>
      </trkpt>
      <trkpt lat="3.3820940" lon="-76.5948950">
        <ele>1441.9</ele>
        <time>2022-02-13T12:05:24Z</time>
      </trkpt>
      <trkpt lat="3.3820490" lon="-76.5949470">
        <ele>1443.0</ele>
        <time>2022-02-13T12:05:31Z</time>
      </trkpt>
      <trkpt lat="3.3820330" lon="-76.5949740">
        <ele>1443.5</ele>
        <time>2022-02-13T12:05:34Z</time>
      </trkpt>
      <trkpt lat="3.3819910" lon="-76.5950130">
        <ele>1444.4</ele>
        <time>2022-02-13T12:05:41Z</time>
      </trkpt>
      <trkpt lat="3.3819830" lon="-76.5950230">
        <ele>1444.6</ele>
        <time>2022-02-13T12:05:43Z</time>
      </trkpt>
      <trkpt lat="3.3819770" lon="-76.5950300">
        <ele>1444.8</ele>
        <time>2022-02-13T12:05:45Z</time>
      </trkpt>
      <trkpt lat="3.3819530" lon="-76.5950590">
        <ele>1445.5</ele>
        <time>2022-02-13T12:05:49Z</time>
      </trkpt>
      <trkpt lat="3.3819270" lon="-76.5950890">
        <ele>1446.2</ele>
        <time>2022-02-13T12:05:56Z</time>
      </trkpt>
      <trkpt lat="3.3819250" lon="-76.5950920">
        <ele>1446.2</ele>
        <time>2022-02-13T12:05:57Z</time>
      </trkpt>
      <trkpt lat="3.3819140" lon="-76.5951010">
        <ele>1446.5</ele>
        <time>2022-02-13T12:05:59Z</time>
      </trkpt>
      <trkpt lat="3.3819070" lon="-76.5951230">
        <ele>1446.9</ele>
        <time>2022-02-13T12:06:01Z</time>
      </trkpt>
      <trkpt lat="3.3819040" lon="-76.5951350">
        <ele>1447.1</ele>
        <time>2022-02-13T12:06:02Z</time>
      </trkpt>
      <trkpt lat="3.3818770" lon="-76.5951700">
        <ele>1447.9</ele>
        <time>2022-02-13T12:06:07Z</time>
      </trkpt>
      <trkpt lat="3.3818120" lon="-76.5952140">
        <ele>1449.3</ele>
        <time>2022-02-13T12:06:14Z</time>
      </trkpt>
      <trkpt lat="3.3817900" lon="-76.5952160">
        <ele>1449.6</ele>
        <time>2022-02-13T12:06:16Z</time>
      </trkpt>
      <trkpt lat="3.3817600" lon="-76.5952220">
        <ele>1450.1</ele>
        <time>2022-02-13T12:06:19Z</time>
      </trkpt>
      <trkpt lat="3.3817520" lon="-76.5952280">
        <ele>1450.3</ele>
        <time>2022-02-13T12:06:20Z</time>
      </trkpt>
      <trkpt lat="3.3816840" lon="-76.5952690">
        <ele>1451.5</ele>
        <time>2022-02-13T12:06:28Z</time>
      </trkpt>
      <trkpt lat="3.3816310" lon="-76.5953020">
        <ele>1452.4</ele>
        <time>2022-02-13T12:06:35Z</time>
      </trkpt>
      <trkpt lat="3.3816150" lon="-76.5953160">
        <ele>1452.7</ele>
        <time>2022-02-13T12:06:37Z</time>
      </trkpt>
      <trkpt lat="3.3815750" lon="-76.5953360">
        <ele>1453.2</ele>
        <time>2022-02-13T12:06:42Z</time>
      </trkpt>
      <trkpt lat="3.3815290" lon="-76.5953510">
        <ele>1453.8</ele>
        <time>2022-02-13T12:06:48Z</time>
      </trkpt>
      <trkpt lat="3.3814900" lon="-76.5953600">
        <ele>1454.1</ele>
        <time>2022-02-13T12:06:52Z</time>
      </trkpt>
      <trkpt lat="3.3814010" lon="-76.5953600">
        <ele>1454.8</ele>
        <time>2022-02-13T12:07:01Z</time>
      </trkpt>
      <trkpt lat="3.3813080" lon="-76.5953590">
        <ele>1455.2</ele>
        <time>2022-02-13T12:07:10Z</time>
      </trkpt>
      <trkpt lat="3.3812650" lon="-76.5953450">
        <ele>1455.3</ele>
        <time>2022-02-13T12:07:15Z</time>
      </trkpt>
      <trkpt lat="3.3812470" lon="-76.5953440">
        <ele>1455.3</ele>
        <time>2022-02-13T12:07:17Z</time>
      </trkpt>
      <trkpt lat="3.3811650" lon="-76.5953890">
        <ele>1455.5</ele>
        <time>2022-02-13T12:07:26Z</time>
      </trkpt>
      <trkpt lat="3.3811550" lon="-76.5953940">
        <ele>1455.5</ele>
        <time>2022-02-13T12:07:27Z</time>
      </trkpt>
      <trkpt lat="3.3811000" lon="-76.5954160">
        <ele>1455.7</ele>
        <time>2022-02-13T12:07:32Z</time>
      </trkpt>
      <trkpt lat="3.3810650" lon="-76.5954110">
        <ele>1455.7</ele>
        <time>2022-02-13T12:07:35Z</time>
      </trkpt>
      <trkpt lat="3.3810150" lon="-76.5954050">
        <ele>1455.9</ele>
        <time>2022-02-13T12:07:38Z</time>
      </trkpt>
      <trkpt lat="3.3810080" lon="-76.5954080">
        <ele>1455.9</ele>
        <time>2022-02-13T12:07:39Z</time>
      </trkpt>
      <trkpt lat="3.3809890" lon="-76.5954330">
        <ele>1456.0</ele>
        <time>2022-02-13T12:07:41Z</time>
      </trkpt>
      <trkpt lat="3.3809660" lon="-76.5954440">
        <ele>1456.0</ele>
        <time>2022-02-13T12:07:43Z</time>
      </trkpt>
      <trkpt lat="3.3809510" lon="-76.5954540">
        <ele>1456.1</ele>
        <time>2022-02-13T12:07:45Z</time>
      </trkpt>
      <trkpt lat="3.3808610" lon="-76.5954650">
        <ele>1456.3</ele>
        <time>2022-02-13T12:07:53Z</time>
      </trkpt>
      <trkpt lat="3.3808510" lon="-76.5954660">
        <ele>1456.3</ele>
        <time>2022-02-13T12:07:54Z</time>
      </trkpt>
      <trkpt lat="3.3808130" lon="-76.5954840">
        <ele>1456.4</ele>
        <time>2022-02-13T12:07:58Z</time>
      </trkpt>
      <trkpt lat="3.3808070" lon="-76.5954870">
        <ele>1456.4</ele>
        <time>2022-02-13T12:08:00Z</time>
      </trkpt>
      <trkpt lat="3.3807930" lon="-76.5954950">
        <ele>1456.5</ele>
        <time>2022-02-13T12:08:02Z</time>
      </trkpt>
      <trkpt lat="3.3807780" lon="-76.5954990">
        <ele>1456.5</ele>
        <time>2022-02-13T12:08:03Z</time>
      </trkpt>
      <trkpt lat="3.3807190" lon="-76.5954990">
        <ele>1456.6</ele>
        <time>2022-02-13T12:08:08Z</time>
      </trkpt>
      <trkpt lat="3.3806650" lon="-76.5954710">
        <ele>1456.6</ele>
        <time>2022-02-13T12:08:16Z</time>
      </trkpt>
      <trkpt lat="3.3806600" lon="-76.5954710">
        <ele>1456.6</ele>
        <time>2022-02-13T12:08:17Z</time>
      </trkpt>
      <trkpt lat="3.3806310" lon="-76.5954230">
        <ele>1456.5</ele>
        <time>2022-02-13T12:08:22Z</time>
      </trkpt>
      <trkpt lat="3.3806180" lon="-76.5953980">
        <ele>1456.5</ele>
        <time>2022-02-13T12:08:24Z</time>
      </trkpt>
      <trkpt lat="3.3806010" lon="-76.5953720">
        <ele>1456.4</ele>
        <time>2022-02-13T12:08:28Z</time>
      </trkpt>
      <trkpt lat="3.3805770" lon="-76.5953490">
        <ele>1456.2</ele>
        <time>2022-02-13T12:08:31Z</time>
      </trkpt>
      <trkpt lat="3.3805430" lon="-76.5953260">
        <ele>1456.0</ele>
        <time>2022-02-13T12:08:35Z</time>
      </trkpt>
      <trkpt lat="3.3804870" lon="-76.5952740">
        <ele>1455.5</ele>
        <time>2022-02-13T12:08:42Z</time>
      </trkpt>
      <trkpt lat="3.3804570" lon="-76.5952550">
        <ele>1455.3</ele>
        <time>2022-02-13T12:08:46Z</time>
      </trkpt>
      <trkpt lat="3.3804340" lon="-76.5952400">
        <ele>1455.1</ele>
        <time>2022-02-13T12:08:49Z</time>
      </trkpt>
      <trkpt lat="3.3804020" lon="-76.5952280">
        <ele>1454.9</ele>
        <time>2022-02-13T12:08:52Z</time>
      </trkpt>
      <trkpt lat="3.3803760" lon="-76.5952210">
        <ele>1454.8</ele>
        <time>2022-02-13T12:08:54Z</time>
      </trkpt>
      <trkpt lat="3.3803430" lon="-76.5952120">
        <ele>1454.6</ele>
        <time>2022-02-13T12:08:57Z</time>
      </trkpt>
      <trkpt lat="3.3802860" lon="-76.5952110">
        <ele>1454.3</ele>
        <time>2022-02-13T12:09:02Z</time>
      </trkpt>
      <trkpt lat="3.3802430" lon="-76.5952210">
        <ele>1454.2</ele>
        <time>2022-02-13T12:09:05Z</time>
      </trkpt>
      <trkpt lat="3.3802290" lon="-76.5952200">
        <ele>1454.1</ele>
        <time>2022-02-13T12:09:06Z</time>
      </trkpt>
      <trkpt lat="3.3801660" lon="-76.5952150">
        <ele>1453.9</ele>
        <time>2022-02-13T12:09:12Z</time>
      </trkpt>
      <trkpt lat="3.3801570" lon="-76.5952120">
        <ele>1453.9</ele>
        <time>2022-02-13T12:09:13Z</time>
      </trkpt>
      <trkpt lat="3.3801430" lon="-76.5952070">
        <ele>1453.9</ele>
        <time>2022-02-13T12:09:15Z</time>
      </trkpt>
      <trkpt lat="3.3801330" lon="-76.5951990">
        <ele>1453.8</ele>
        <time>2022-02-13T12:09:17Z</time>
      </trkpt>
      <trkpt lat="3.3800760" lon="-76.5951580">
        <ele>1453.7</ele>
        <time>2022-02-13T12:09:24Z</time>
      </trkpt>
      <trkpt lat="3.3800370" lon="-76.5951290">
        <ele>1453.6</ele>
        <time>2022-02-13T12:09:29Z</time>
      </trkpt>
      <trkpt lat="3.3800210" lon="-76.5951180">
        <ele>1453.6</ele>
        <time>2022-02-13T12:09:31Z</time>
      </trkpt>
      <trkpt lat="3.3800180" lon="-76.5951110">
        <ele>1453.6</ele>
        <time>2022-02-13T12:09:32Z</time>
      </trkpt>
      <trkpt lat="3.3799880" lon="-76.5950700">
        <ele>1453.6</ele>
        <time>2022-02-13T12:09:37Z</time>
      </trkpt>
      <trkpt lat="3.3799250" lon="-76.5950080">
        <ele>1453.9</ele>
        <time>2022-02-13T12:09:44Z</time>
      </trkpt>
      <trkpt lat="3.3799100" lon="-76.5949850">
        <ele>1454.0</ele>
        <time>2022-02-13T12:09:47Z</time>
      </trkpt>
      <trkpt lat="3.3798820" lon="-76.5949620">
        <ele>1454.1</ele>
        <time>2022-02-13T12:09:50Z</time>
      </trkpt>
      <trkpt lat="3.3798740" lon="-76.5949570">
        <ele>1454.2</ele>
        <time>2022-02-13T12:09:51Z</time>
      </trkpt>
      <trkpt lat="3.3798690" lon="-76.5949480">
        <ele>1454.2</ele>
        <time>2022-02-13T12:09:52Z</time>
      </trkpt>
      <trkpt lat="3.3798570" lon="-76.5949360">
        <ele>1454.3</ele>
        <time>2022-02-13T12:09:54Z</time>
      </trkpt>
      <trkpt lat="3.3798300" lon="-76.5949180">
        <ele>1454.5</ele>
        <time>2022-02-13T12:09:57Z</time>
      </trkpt>
      <trkpt lat="3.3798070" lon="-76.5949150">
        <ele>1454.6</ele>
        <time>2022-02-13T12:10:00Z</time>
      </trkpt>
      <trkpt lat="3.3797810" lon="-76.5949090">
        <ele>1454.7</ele>
        <time>2022-02-13T12:10:05Z</time>
      </trkpt>
      <trkpt lat="3.3797630" lon="-76.5949120">
        <ele>1454.8</ele>
        <time>2022-02-13T12:10:09Z</time>
      </trkpt>
      <trkpt lat="3.3797610" lon="-76.5949110">
        <ele>1454.8</ele>
        <time>2022-02-13T12:10:11Z</time>
      </trkpt>
      <trkpt lat="3.3797610" lon="-76.5949110">
        <ele>1454.8</ele>
        <time>2022-02-13T12:10:12Z</time>
      </trkpt>
      <trkpt lat="3.3797610" lon="-76.5949110">
        <ele>1454.8</ele>
        <time>2022-02-13T12:10:14Z</time>
      </trkpt>
      <trkpt lat="3.3797590" lon="-76.5948960">
        <ele>1454.9</ele>
        <time>2022-02-13T12:10:21Z</time>
      </trkpt>
      <trkpt lat="3.3797590" lon="-76.5948960">
        <ele>1454.9</ele>
        <time>2022-02-13T12:10:25Z</time>
      </trkpt>
      <trkpt lat="3.3797610" lon="-76.5948990">
        <ele>1454.9</ele>
        <time>2022-02-13T12:10:39Z</time>
      </trkpt>
      <trkpt lat="3.3796690" lon="-76.5949010">
        <ele>1455.1</ele>
        <time>2022-02-13T12:10:53Z</time>
      </trkpt>
      <trkpt lat="3.3796170" lon="-76.5948930">
        <ele>1455.4</ele>
        <time>2022-02-13T12:10:58Z</time>
      </trkpt>
      <trkpt lat="3.3795660" lon="-76.5948870">
        <ele>1455.8</ele>
        <time>2022-02-13T12:11:04Z</time>
      </trkpt>
      <trkpt lat="3.3795460" lon="-76.5948890">
        <ele>1455.9</ele>
        <time>2022-02-13T12:11:14Z</time>
      </trkpt>
      <trkpt lat="3.3794910" lon="-76.5948820">
        <ele>1456.3</ele>
        <time>2022-02-13T12:11:20Z</time>
      </trkpt>
      <trkpt lat="3.3794600" lon="-76.5948760">
        <ele>1456.5</ele>
        <time>2022-02-13T12:11:23Z</time>
      </trkpt>
      <trkpt lat="3.3794480" lon="-76.5948740">
        <ele>1456.6</ele>
        <time>2022-02-13T12:11:24Z</time>
      </trkpt>
      <trkpt lat="3.3793880" lon="-76.5948560">
        <ele>1457.1</ele>
        <time>2022-02-13T12:11:30Z</time>
      </trkpt>
      <trkpt lat="3.3793700" lon="-76.5948480">
        <ele>1457.3</ele>
        <time>2022-02-13T12:11:32Z</time>
      </trkpt>
      <trkpt lat="3.3793580" lon="-76.5948470">
        <ele>1457.4</ele>
        <time>2022-02-13T12:11:33Z</time>
      </trkpt>
      <trkpt lat="3.3793260" lon="-76.5948350">
        <ele>1457.7</ele>
        <time>2022-02-13T12:11:36Z</time>
      </trkpt>
      <trkpt lat="3.3793010" lon="-76.5948290">
        <ele>1457.9</ele>
        <time>2022-02-13T12:11:38Z</time>
      </trkpt>
      <trkpt lat="3.3792140" lon="-76.5948130">
        <ele>1458.6</ele>
        <time>2022-02-13T12:11:45Z</time>
      </trkpt>
      <trkpt lat="3.3791790" lon="-76.5948130">
        <ele>1458.9</ele>
        <time>2022-02-13T12:11:48Z</time>
      </trkpt>
      <trkpt lat="3.3791280" lon="-76.5947990">
        <ele>1459.4</ele>
        <time>2022-02-13T12:11:53Z</time>
      </trkpt>
      <trkpt lat="3.3790870" lon="-76.5948030">
        <ele>1459.8</ele>
        <time>2022-02-13T12:11:57Z</time>
      </trkpt>
      <trkpt lat="3.3790180" lon="-76.5947990">
        <ele>1460.4</ele>
        <time>2022-02-13T12:12:04Z</time>
      </trkpt>
      <trkpt lat="3.3789590" lon="-76.5948040">
        <ele>1460.9</ele>
        <time>2022-02-13T12:12:10Z</time>
      </trkpt>
      <trkpt lat="3.3788600" lon="-76.5948110">
        <ele>1461.8</ele>
        <time>2022-02-13T12:12:20Z</time>
      </trkpt>
      <trkpt lat="3.3788400" lon="-76.5948060">
        <ele>1462.0</ele>
        <time>2022-02-13T12:12:22Z</time>
      </trkpt>
      <trkpt lat="3.3787670" lon="-76.5947930">
        <ele>1462.6</ele>
        <time>2022-02-13T12:12:30Z</time>
      </trkpt>
      <trkpt lat="3.3787150" lon="-76.5947780">
        <ele>1462.9</ele>
        <time>2022-02-13T12:12:36Z</time>
      </trkpt>
      <trkpt lat="3.3786940" lon="-76.5947690">
        <ele>1463.1</ele>
        <time>2022-02-13T12:12:38Z</time>
      </trkpt>
      <trkpt lat="3.3786850" lon="-76.5947630">
        <ele>1463.2</ele>
        <time>2022-02-13T12:12:39Z</time>
      </trkpt>
      <trkpt lat="3.3786580" lon="-76.5947490">
        <ele>1463.3</ele>
        <time>2022-02-13T12:12:43Z</time>
      </trkpt>
      <trkpt lat="3.3786190" lon="-76.5947330">
        <ele>1463.6</ele>
        <time>2022-02-13T12:12:47Z</time>
      </trkpt>
      <trkpt lat="3.3785320" lon="-76.5946940">
        <ele>1464.1</ele>
        <time>2022-02-13T12:12:56Z</time>
      </trkpt>
      <trkpt lat="3.3785120" lon="-76.5946840">
        <ele>1464.3</ele>
        <time>2022-02-13T12:12:58Z</time>
      </trkpt>
      <trkpt lat="3.3784570" lon="-76.5946690">
        <ele>1464.6</ele>
        <time>2022-02-13T12:13:03Z</time>
      </trkpt>
      <trkpt lat="3.3783710" lon="-76.5946350">
        <ele>1465.1</ele>
        <time>2022-02-13T12:13:12Z</time>
      </trkpt>
      <trkpt lat="3.3782620" lon="-76.5945880">
        <ele>1465.9</ele>
        <time>2022-02-13T12:13:23Z</time>
      </trkpt>
      <trkpt lat="3.3781980" lon="-76.5945570">
        <ele>1466.4</ele>
        <time>2022-02-13T12:13:30Z</time>
      </trkpt>
      <trkpt lat="3.3781900" lon="-76.5945510">
        <ele>1466.4</ele>
        <time>2022-02-13T12:13:31Z</time>
      </trkpt>
      <trkpt lat="3.3781130" lon="-76.5945210">
        <ele>1467.0</ele>
        <time>2022-02-13T12:13:41Z</time>
      </trkpt>
      <trkpt lat="3.3781070" lon="-76.5945210">
        <ele>1467.1</ele>
        <time>2022-02-13T12:13:45Z</time>
      </trkpt>
      <trkpt lat="3.3780800" lon="-76.5945040">
        <ele>1467.3</ele>
        <time>2022-02-13T12:13:49Z</time>
      </trkpt>
      <trkpt lat="3.3780190" lon="-76.5944910">
        <ele>1467.8</ele>
        <time>2022-02-13T12:13:54Z</time>
      </trkpt>
      <trkpt lat="3.3779940" lon="-76.5944820">
        <ele>1468.0</ele>
        <time>2022-02-13T12:13:56Z</time>
      </trkpt>
      <trkpt lat="3.3778640" lon="-76.5944480">
        <ele>1469.1</ele>
        <time>2022-02-13T12:14:08Z</time>
      </trkpt>
      <trkpt lat="3.3777760" lon="-76.5944170">
        <ele>1469.9</ele>
        <time>2022-02-13T12:14:16Z</time>
      </trkpt>
      <trkpt lat="3.3777230" lon="-76.5944130">
        <ele>1470.4</ele>
        <time>2022-02-13T12:14:21Z</time>
      </trkpt>
      <trkpt lat="3.3776500" lon="-76.5944000">
        <ele>1471.1</ele>
        <time>2022-02-13T12:14:27Z</time>
      </trkpt>
      <trkpt lat="3.3775590" lon="-76.5944080">
        <ele>1472.0</ele>
        <time>2022-02-13T12:14:36Z</time>
      </trkpt>
      <trkpt lat="3.3775100" lon="-76.5944220">
        <ele>1472.5</ele>
        <time>2022-02-13T12:14:41Z</time>
      </trkpt>
      <trkpt lat="3.3774620" lon="-76.5944430">
        <ele>1473.6</ele>
        <time>2022-02-13T12:14:46Z</time>
      </trkpt>
      <trkpt lat="3.3774520" lon="-76.5944880">
        <ele>1474.0</ele>
        <time>2022-02-13T12:14:51Z</time>
      </trkpt>
      <trkpt lat="3.3774630" lon="-76.5944930">
        <ele>1474.1</ele>
        <time>2022-02-13T12:14:52Z</time>
      </trkpt>
      <trkpt lat="3.3775570" lon="-76.5944990">
        <ele>1474.9</ele>
        <time>2022-02-13T12:15:00Z</time>
      </trkpt>
      <trkpt lat="3.3776680" lon="-76.5944840">
        <ele>1475.7</ele>
        <time>2022-02-13T12:15:10Z</time>
      </trkpt>
      <trkpt lat="3.3776790" lon="-76.5944850">
        <ele>1475.8</ele>
        <time>2022-02-13T12:15:11Z</time>
      </trkpt>
      <trkpt lat="3.3777760" lon="-76.5945370">
        <ele>1476.4</ele>
        <time>2022-02-13T12:15:21Z</time>
      </trkpt>
      <trkpt lat="3.3778280" lon="-76.5945690">
        <ele>1476.7</ele>
        <time>2022-02-13T12:15:26Z</time>
      </trkpt>
      <trkpt lat="3.3778620" lon="-76.5945710">
        <ele>1476.9</ele>
        <time>2022-02-13T12:15:29Z</time>
      </trkpt>
      <trkpt lat="3.3779500" lon="-76.5946010">
        <ele>1477.4</ele>
        <time>2022-02-13T12:15:37Z</time>
      </trkpt>
      <trkpt lat="3.3780640" lon="-76.5946560">
        <ele>1478.0</ele>
        <time>2022-02-13T12:15:49Z</time>
      </trkpt>
      <trkpt lat="3.3780710" lon="-76.5946570">
        <ele>1478.1</ele>
        <time>2022-02-13T12:15:52Z</time>
      </trkpt>
      <trkpt lat="3.3780870" lon="-76.5946710">
        <ele>1478.2</ele>
        <time>2022-02-13T12:15:55Z</time>
      </trkpt>
      <trkpt lat="3.3780970" lon="-76.5946770">
        <ele>1478.3</ele>
        <time>2022-02-13T12:15:56Z</time>
      </trkpt>
      <trkpt lat="3.3781400" lon="-76.5946990">
        <ele>1478.6</ele>
        <time>2022-02-13T12:16:01Z</time>
      </trkpt>
      <trkpt lat="3.3781540" lon="-76.5947080">
        <ele>1478.7</ele>
        <time>2022-02-13T12:16:03Z</time>
      </trkpt>
      <trkpt lat="3.3781830" lon="-76.5947140">
        <ele>1478.9</ele>
        <time>2022-02-13T12:16:08Z</time>
      </trkpt>
      <trkpt lat="3.3781830" lon="-76.5947130">
        <ele>1478.9</ele>
        <time>2022-02-13T12:16:09Z</time>
      </trkpt>
      <trkpt lat="3.3781890" lon="-76.5947090">
        <ele>1478.9</ele>
        <time>2022-02-13T12:16:15Z</time>
      </trkpt>
      <trkpt lat="3.3781900" lon="-76.5947070">
        <ele>1478.9</ele>
        <time>2022-02-13T12:16:17Z</time>
      </trkpt>
      <trkpt lat="3.3782570" lon="-76.5947660">
        <ele>1479.6</ele>
        <time>2022-02-13T12:20:38Z</time>
      </trkpt>
      <trkpt lat="3.3782470" lon="-76.5947620">
        <ele>1479.7</ele>
        <time>2022-02-13T12:20:39Z</time>
      </trkpt>
      <trkpt lat="3.3782320" lon="-76.5947690">
        <ele>1479.8</ele>
        <time>2022-02-13T12:20:42Z</time>
      </trkpt>
      <trkpt lat="3.3782330" lon="-76.5947780">
        <ele>1479.9</ele>
        <time>2022-02-13T12:20:45Z</time>
      </trkpt>
      <trkpt lat="3.3783040" lon="-76.5948230">
        <ele>1480.6</ele>
        <time>2022-02-13T12:20:52Z</time>
      </trkpt>
      <trkpt lat="3.3784050" lon="-76.5948760">
        <ele>1481.6</ele>
        <time>2022-02-13T12:21:01Z</time>
      </trkpt>
      <trkpt lat="3.3784140" lon="-76.5948850">
        <ele>1481.7</ele>
        <time>2022-02-13T12:21:02Z</time>
      </trkpt>
      <trkpt lat="3.3784690" lon="-76.5949270">
        <ele>1482.2</ele>
        <time>2022-02-13T12:21:08Z</time>
      </trkpt>
      <trkpt lat="3.3784970" lon="-76.5949560">
        <ele>1482.5</ele>
        <time>2022-02-13T12:21:12Z</time>
      </trkpt>
      <trkpt lat="3.3785260" lon="-76.5949970">
        <ele>1482.9</ele>
        <time>2022-02-13T12:21:16Z</time>
      </trkpt>
      <trkpt lat="3.3785650" lon="-76.5950350">
        <ele>1483.2</ele>
        <time>2022-02-13T12:21:20Z</time>
      </trkpt>
      <trkpt lat="3.3785860" lon="-76.5950610">
        <ele>1483.4</ele>
        <time>2022-02-13T12:21:23Z</time>
      </trkpt>
      <trkpt lat="3.3785970" lon="-76.5950650">
        <ele>1483.5</ele>
        <time>2022-02-13T12:21:24Z</time>
      </trkpt>
      <trkpt lat="3.3786900" lon="-76.5951040">
        <ele>1484.1</ele>
        <time>2022-02-13T12:21:32Z</time>
      </trkpt>
      <trkpt lat="3.3787310" lon="-76.5951240">
        <ele>1484.4</ele>
        <time>2022-02-13T12:21:36Z</time>
      </trkpt>
      <trkpt lat="3.3787620" lon="-76.5951430">
        <ele>1484.6</ele>
        <time>2022-02-13T12:21:39Z</time>
      </trkpt>
      <trkpt lat="3.3787960" lon="-76.5951730">
        <ele>1484.9</ele>
        <time>2022-02-13T12:21:43Z</time>
      </trkpt>
      <trkpt lat="3.3788730" lon="-76.5952540">
        <ele>1485.6</ele>
        <time>2022-02-13T12:21:53Z</time>
      </trkpt>
      <trkpt lat="3.3789180" lon="-76.5952930">
        <ele>1485.8</ele>
        <time>2022-02-13T12:21:58Z</time>
      </trkpt>
      <trkpt lat="3.3789410" lon="-76.5953030">
        <ele>1485.9</ele>
        <time>2022-02-13T12:22:00Z</time>
      </trkpt>
      <trkpt lat="3.3789740" lon="-76.5953320">
        <ele>1486.1</ele>
        <time>2022-02-13T12:22:04Z</time>
      </trkpt>
      <trkpt lat="3.3789950" lon="-76.5953470">
        <ele>1486.3</ele>
        <time>2022-02-13T12:22:06Z</time>
      </trkpt>
      <trkpt lat="3.3790340" lon="-76.5953660">
        <ele>1486.5</ele>
        <time>2022-02-13T12:22:10Z</time>
      </trkpt>
      <trkpt lat="3.3790400" lon="-76.5953680">
        <ele>1486.5</ele>
        <time>2022-02-13T12:22:11Z</time>
      </trkpt>
      <trkpt lat="3.3790530" lon="-76.5953750">
        <ele>1486.6</ele>
        <time>2022-02-13T12:22:13Z</time>
      </trkpt>
      <trkpt lat="3.3790600" lon="-76.5953750">
        <ele>1486.7</ele>
        <time>2022-02-13T12:22:16Z</time>
      </trkpt>
      <trkpt lat="3.3790680" lon="-76.5953840">
        <ele>1486.7</ele>
        <time>2022-02-13T12:22:18Z</time>
      </trkpt>
      <trkpt lat="3.3790840" lon="-76.5953940">
        <ele>1486.9</ele>
        <time>2022-02-13T12:22:22Z</time>
      </trkpt>
      <trkpt lat="3.3791130" lon="-76.5954260">
        <ele>1487.2</ele>
        <time>2022-02-13T12:22:28Z</time>
      </trkpt>
      <trkpt lat="3.3791640" lon="-76.5954990">
        <ele>1488.2</ele>
        <time>2022-02-13T12:22:36Z</time>
      </trkpt>
      <trkpt lat="3.3791710" lon="-76.5955080">
        <ele>1488.3</ele>
        <time>2022-02-13T12:22:37Z</time>
      </trkpt>
      <trkpt lat="3.3792600" lon="-76.5955810">
        <ele>1489.9</ele>
        <time>2022-02-13T12:22:47Z</time>
      </trkpt>
      <trkpt lat="3.3792930" lon="-76.5956080">
        <ele>1490.6</ele>
        <time>2022-02-13T12:22:51Z</time>
      </trkpt>
      <trkpt lat="3.3793090" lon="-76.5956500">
        <ele>1491.3</ele>
        <time>2022-02-13T12:22:55Z</time>
      </trkpt>
      <trkpt lat="3.3793270" lon="-76.5957450">
        <ele>1492.9</ele>
        <time>2022-02-13T12:23:04Z</time>
      </trkpt>
      <trkpt lat="3.3793490" lon="-76.5958120">
        <ele>1494.0</ele>
        <time>2022-02-13T12:23:12Z</time>
      </trkpt>
      <trkpt lat="3.3793510" lon="-76.5958600">
        <ele>1494.9</ele>
        <time>2022-02-13T12:23:17Z</time>
      </trkpt>
      <trkpt lat="3.3793680" lon="-76.5959300">
        <ele>1496.0</ele>
        <time>2022-02-13T12:23:24Z</time>
      </trkpt>
      <trkpt lat="3.3793810" lon="-76.5959870">
        <ele>1496.9</ele>
        <time>2022-02-13T12:23:29Z</time>
      </trkpt>
      <trkpt lat="3.3793990" lon="-76.5960090">
        <ele>1497.3</ele>
        <time>2022-02-13T12:23:31Z</time>
      </trkpt>
      <trkpt lat="3.3794130" lon="-76.5960250">
        <ele>1497.5</ele>
        <time>2022-02-13T12:23:33Z</time>
      </trkpt>
      <trkpt lat="3.3794500" lon="-76.5960560">
        <ele>1498.0</ele>
        <time>2022-02-13T12:23:37Z</time>
      </trkpt>
      <trkpt lat="3.3794610" lon="-76.5960620">
        <ele>1498.2</ele>
        <time>2022-02-13T12:23:38Z</time>
      </trkpt>
      <trkpt lat="3.3794980" lon="-76.5960770">
        <ele>1498.5</ele>
        <time>2022-02-13T12:23:41Z</time>
      </trkpt>
      <trkpt lat="3.3795350" lon="-76.5960830">
        <ele>1498.7</ele>
        <time>2022-02-13T12:23:44Z</time>
      </trkpt>
      <trkpt lat="3.3795490" lon="-76.5960840">
        <ele>1498.8</ele>
        <time>2022-02-13T12:23:45Z</time>
      </trkpt>
      <trkpt lat="3.3796010" lon="-76.5960910">
        <ele>1498.9</ele>
        <time>2022-02-13T12:23:49Z</time>
      </trkpt>
      <trkpt lat="3.3796410" lon="-76.5960880">
        <ele>1499.0</ele>
        <time>2022-02-13T12:23:52Z</time>
      </trkpt>
      <trkpt lat="3.3796650" lon="-76.5960870">
        <ele>1499.1</ele>
        <time>2022-02-13T12:23:54Z</time>
      </trkpt>
      <trkpt lat="3.3797020" lon="-76.5960950">
        <ele>1499.2</ele>
        <time>2022-02-13T12:23:57Z</time>
      </trkpt>
      <trkpt lat="3.3797380" lon="-76.5960900">
        <ele>1499.3</ele>
        <time>2022-02-13T12:24:00Z</time>
      </trkpt>
      <trkpt lat="3.3797640" lon="-76.5960880">
        <ele>1499.3</ele>
        <time>2022-02-13T12:24:02Z</time>
      </trkpt>
      <trkpt lat="3.3798640" lon="-76.5960940">
        <ele>1499.5</ele>
        <time>2022-02-13T12:24:10Z</time>
      </trkpt>
      <trkpt lat="3.3799150" lon="-76.5960870">
        <ele>1499.7</ele>
        <time>2022-02-13T12:24:14Z</time>
      </trkpt>
      <trkpt lat="3.3799430" lon="-76.5960850">
        <ele>1499.8</ele>
        <time>2022-02-13T12:24:16Z</time>
      </trkpt>
      <trkpt lat="3.3799870" lon="-76.5960950">
        <ele>1500.0</ele>
        <time>2022-02-13T12:24:20Z</time>
      </trkpt>
      <trkpt lat="3.3800590" lon="-76.5961220">
        <ele>1500.5</ele>
        <time>2022-02-13T12:24:27Z</time>
      </trkpt>
      <trkpt lat="3.3801190" lon="-76.5961610">
        <ele>1500.9</ele>
        <time>2022-02-13T12:24:34Z</time>
      </trkpt>
      <trkpt lat="3.3801300" lon="-76.5961660">
        <ele>1500.9</ele>
        <time>2022-02-13T12:24:35Z</time>
      </trkpt>
      <trkpt lat="3.3801760" lon="-76.5961840">
        <ele>1501.2</ele>
        <time>2022-02-13T12:24:39Z</time>
      </trkpt>
      <trkpt lat="3.3802080" lon="-76.5961910">
        <ele>1501.4</ele>
        <time>2022-02-13T12:24:42Z</time>
      </trkpt>
      <trkpt lat="3.3802450" lon="-76.5961980">
        <ele>1501.6</ele>
        <time>2022-02-13T12:24:45Z</time>
      </trkpt>
      <trkpt lat="3.3802570" lon="-76.5961960">
        <ele>1501.6</ele>
        <time>2022-02-13T12:24:46Z</time>
      </trkpt>
      <trkpt lat="3.3802910" lon="-76.5961990">
        <ele>1501.8</ele>
        <time>2022-02-13T12:24:49Z</time>
      </trkpt>
      <trkpt lat="3.3803820" lon="-76.5962260">
        <ele>1502.2</ele>
        <time>2022-02-13T12:24:58Z</time>
      </trkpt>
      <trkpt lat="3.3803890" lon="-76.5962360">
        <ele>1502.3</ele>
        <time>2022-02-13T12:24:59Z</time>
      </trkpt>
      <trkpt lat="3.3804280" lon="-76.5962730">
        <ele>1502.6</ele>
        <time>2022-02-13T12:25:04Z</time>
      </trkpt>
      <trkpt lat="3.3804430" lon="-76.5963020">
        <ele>1502.7</ele>
        <time>2022-02-13T12:25:07Z</time>
      </trkpt>
      <trkpt lat="3.3804680" lon="-76.5963760">
        <ele>1503.2</ele>
        <time>2022-02-13T12:25:15Z</time>
      </trkpt>
      <trkpt lat="3.3804790" lon="-76.5964310">
        <ele>1503.5</ele>
        <time>2022-02-13T12:25:20Z</time>
      </trkpt>
      <trkpt lat="3.3804840" lon="-76.5964750">
        <ele>1503.8</ele>
        <time>2022-02-13T12:25:24Z</time>
      </trkpt>
      <trkpt lat="3.3804680" lon="-76.5965190">
        <ele>1504.4</ele>
        <time>2022-02-13T12:25:29Z</time>
      </trkpt>
      <trkpt lat="3.3804550" lon="-76.5965220">
        <ele>1504.6</ele>
        <time>2022-02-13T12:25:31Z</time>
      </trkpt>
      <trkpt lat="3.3804490" lon="-76.5965240">
        <ele>1504.7</ele>
        <time>2022-02-13T12:25:32Z</time>
      </trkpt>
      <trkpt lat="3.3804440" lon="-76.5965300">
        <ele>1504.8</ele>
        <time>2022-02-13T12:25:35Z</time>
      </trkpt>
      <trkpt lat="3.3804380" lon="-76.5965460">
        <ele>1505.1</ele>
        <time>2022-02-13T12:25:38Z</time>
      </trkpt>
      <trkpt lat="3.3804290" lon="-76.5965670">
        <ele>1505.5</ele>
        <time>2022-02-13T12:25:40Z</time>
      </trkpt>
      <trkpt lat="3.3804250" lon="-76.5965860">
        <ele>1505.8</ele>
        <time>2022-02-13T12:25:43Z</time>
      </trkpt>
      <trkpt lat="3.3804220" lon="-76.5965930">
        <ele>1505.9</ele>
        <time>2022-02-13T12:25:44Z</time>
      </trkpt>
      <trkpt lat="3.3804110" lon="-76.5966050">
        <ele>1506.2</ele>
        <time>2022-02-13T12:25:46Z</time>
      </trkpt>
      <trkpt lat="3.3804080" lon="-76.5966450">
        <ele>1507.0</ele>
        <time>2022-02-13T12:25:49Z</time>
      </trkpt>
      <trkpt lat="3.3804070" lon="-76.5966490">
        <ele>1507.1</ele>
        <time>2022-02-13T12:25:50Z</time>
      </trkpt>
      <trkpt lat="3.3804080" lon="-76.5966510">
        <ele>1507.1</ele>
        <time>2022-02-13T12:25:51Z</time>
      </trkpt>
      <trkpt lat="3.3804030" lon="-76.5966540">
        <ele>1507.3</ele>
        <time>2022-02-13T12:25:52Z</time>
      </trkpt>
      <trkpt lat="3.3804150" lon="-76.5966700">
        <ele>1507.7</ele>
        <time>2022-02-13T12:25:56Z</time>
      </trkpt>
      <trkpt lat="3.3804170" lon="-76.5966950">
        <ele>1508.2</ele>
        <time>2022-02-13T12:25:59Z</time>
      </trkpt>
      <trkpt lat="3.3804050" lon="-76.5967520">
        <ele>1509.3</ele>
        <time>2022-02-13T12:26:04Z</time>
      </trkpt>
      <trkpt lat="3.3804070" lon="-76.5967650">
        <ele>1509.6</ele>
        <time>2022-02-13T12:26:06Z</time>
      </trkpt>
      <trkpt lat="3.3804010" lon="-76.5967890">
        <ele>1510.1</ele>
        <time>2022-02-13T12:26:08Z</time>
      </trkpt>
      <trkpt lat="3.3803990" lon="-76.5968020">
        <ele>1510.4</ele>
        <time>2022-02-13T12:26:09Z</time>
      </trkpt>
      <trkpt lat="3.3803940" lon="-76.5968170">
        <ele>1510.7</ele>
        <time>2022-02-13T12:26:11Z</time>
      </trkpt>
      <trkpt lat="3.3803750" lon="-76.5968350">
        <ele>1511.2</ele>
        <time>2022-02-13T12:26:14Z</time>
      </trkpt>
      <trkpt lat="3.3803590" lon="-76.5968590">
        <ele>1511.7</ele>
        <time>2022-02-13T12:26:17Z</time>
      </trkpt>
      <trkpt lat="3.3803190" lon="-76.5969010">
        <ele>1512.9</ele>
        <time>2022-02-13T12:26:22Z</time>
      </trkpt>
      <trkpt lat="3.3803040" lon="-76.5969070">
        <ele>1513.2</ele>
        <time>2022-02-13T12:26:24Z</time>
      </trkpt>
      <trkpt lat="3.3802890" lon="-76.5969200">
        <ele>1513.5</ele>
        <time>2022-02-13T12:26:26Z</time>
      </trkpt>
      <trkpt lat="3.3802820" lon="-76.5969290">
        <ele>1513.7</ele>
        <time>2022-02-13T12:26:27Z</time>
      </trkpt>
      <trkpt lat="3.3802400" lon="-76.5969910">
        <ele>1515.1</ele>
        <time>2022-02-13T12:26:34Z</time>
      </trkpt>
      <trkpt lat="3.3802270" lon="-76.5970130">
        <ele>1515.5</ele>
        <time>2022-02-13T12:26:37Z</time>
      </trkpt>
      <trkpt lat="3.3802300" lon="-76.5970560">
        <ele>1516.1</ele>
        <time>2022-02-13T12:26:40Z</time>
      </trkpt>
      <trkpt lat="3.3802390" lon="-76.5970990">
        <ele>1516.6</ele>
        <time>2022-02-13T12:26:44Z</time>
      </trkpt>
      <trkpt lat="3.3802380" lon="-76.5971030">
        <ele>1516.6</ele>
        <time>2022-02-13T12:26:45Z</time>
      </trkpt>
      <trkpt lat="3.3802430" lon="-76.5971090">
        <ele>1516.7</ele>
        <time>2022-02-13T12:26:46Z</time>
      </trkpt>
      <trkpt lat="3.3802490" lon="-76.5971320">
        <ele>1517.0</ele>
        <time>2022-02-13T12:26:48Z</time>
      </trkpt>
      <trkpt lat="3.3802550" lon="-76.5971420">
        <ele>1517.1</ele>
        <time>2022-02-13T12:26:49Z</time>
      </trkpt>
      <trkpt lat="3.3802630" lon="-76.5971610">
        <ele>1517.3</ele>
        <time>2022-02-13T12:26:50Z</time>
      </trkpt>
      <trkpt lat="3.3802800" lon="-76.5971840">
        <ele>1517.5</ele>
        <time>2022-02-13T12:26:52Z</time>
      </trkpt>
      <trkpt lat="3.3802870" lon="-76.5971950">
        <ele>1517.6</ele>
        <time>2022-02-13T12:26:53Z</time>
      </trkpt>
      <trkpt lat="3.3802960" lon="-76.5972020">
        <ele>1517.7</ele>
        <time>2022-02-13T12:26:54Z</time>
      </trkpt>
      <trkpt lat="3.3803030" lon="-76.5972090">
        <ele>1517.8</ele>
        <time>2022-02-13T12:26:55Z</time>
      </trkpt>
      <trkpt lat="3.3803300" lon="-76.5972430">
        <ele>1518.1</ele>
        <time>2022-02-13T12:26:59Z</time>
      </trkpt>
      <trkpt lat="3.3803530" lon="-76.5972630">
        <ele>1518.4</ele>
        <time>2022-02-13T12:27:02Z</time>
      </trkpt>
      <trkpt lat="3.3803760" lon="-76.5972780">
        <ele>1518.6</ele>
        <time>2022-02-13T12:27:04Z</time>
      </trkpt>
      <trkpt lat="3.3804070" lon="-76.5973040">
        <ele>1518.9</ele>
        <time>2022-02-13T12:27:07Z</time>
      </trkpt>
      <trkpt lat="3.3804210" lon="-76.5973070">
        <ele>1519.1</ele>
        <time>2022-02-13T12:27:08Z</time>
      </trkpt>
      <trkpt lat="3.3804650" lon="-76.5973220">
        <ele>1519.5</ele>
        <time>2022-02-13T12:27:12Z</time>
      </trkpt>
      <trkpt lat="3.3804750" lon="-76.5973290">
        <ele>1519.6</ele>
        <time>2022-02-13T12:27:13Z</time>
      </trkpt>
      <trkpt lat="3.3804940" lon="-76.5973330">
        <ele>1519.9</ele>
        <time>2022-02-13T12:27:15Z</time>
      </trkpt>
      <trkpt lat="3.3805410" lon="-76.5973380">
        <ele>1520.4</ele>
        <time>2022-02-13T12:27:20Z</time>
      </trkpt>
      <trkpt lat="3.3805850" lon="-76.5973490">
        <ele>1521.0</ele>
        <time>2022-02-13T12:27:24Z</time>
      </trkpt>
      <trkpt lat="3.3806130" lon="-76.5973480">
        <ele>1521.4</ele>
        <time>2022-02-13T12:27:27Z</time>
      </trkpt>
      <trkpt lat="3.3806310" lon="-76.5973530">
        <ele>1521.7</ele>
        <time>2022-02-13T12:27:29Z</time>
      </trkpt>
      <trkpt lat="3.3806750" lon="-76.5973510">
        <ele>1522.4</ele>
        <time>2022-02-13T12:27:34Z</time>
      </trkpt>
      <trkpt lat="3.3807530" lon="-76.5973590">
        <ele>1523.8</ele>
        <time>2022-02-13T12:27:43Z</time>
      </trkpt>
      <trkpt lat="3.3807790" lon="-76.5973570">
        <ele>1524.3</ele>
        <time>2022-02-13T12:27:46Z</time>
      </trkpt>
      <trkpt lat="3.3808080" lon="-76.5973570">
        <ele>1524.9</ele>
        <time>2022-02-13T12:27:50Z</time>
      </trkpt>
      <trkpt lat="3.3808840" lon="-76.5973620">
        <ele>1526.5</ele>
        <time>2022-02-13T12:27:59Z</time>
      </trkpt>
      <trkpt lat="3.3809070" lon="-76.5973760">
        <ele>1527.1</ele>
        <time>2022-02-13T12:28:02Z</time>
      </trkpt>
      <trkpt lat="3.3809440" lon="-76.5973940">
        <ele>1528.0</ele>
        <time>2022-02-13T12:28:07Z</time>
      </trkpt>
      <trkpt lat="3.3809630" lon="-76.5974070">
        <ele>1528.5</ele>
        <time>2022-02-13T12:28:10Z</time>
      </trkpt>
      <trkpt lat="3.3809890" lon="-76.5974230">
        <ele>1529.1</ele>
        <time>2022-02-13T12:28:14Z</time>
      </trkpt>
      <trkpt lat="3.3810360" lon="-76.5974560">
        <ele>1530.3</ele>
        <time>2022-02-13T12:28:21Z</time>
      </trkpt>
      <trkpt lat="3.3810420" lon="-76.5974620">
        <ele>1530.5</ele>
        <time>2022-02-13T12:28:22Z</time>
      </trkpt>
      <trkpt lat="3.3810450" lon="-76.5974680">
        <ele>1530.6</ele>
        <time>2022-02-13T12:28:23Z</time>
      </trkpt>
      <trkpt lat="3.3810500" lon="-76.5974760">
        <ele>1530.8</ele>
        <time>2022-02-13T12:28:24Z</time>
      </trkpt>
      <trkpt lat="3.3810850" lon="-76.5975430">
        <ele>1532.4</ele>
        <time>2022-02-13T12:28:33Z</time>
      </trkpt>
      <trkpt lat="3.3810890" lon="-76.5975540">
        <ele>1532.7</ele>
        <time>2022-02-13T12:28:35Z</time>
      </trkpt>
      <trkpt lat="3.3810930" lon="-76.5975840">
        <ele>1533.3</ele>
        <time>2022-02-13T12:28:39Z</time>
      </trkpt>
      <trkpt lat="3.3810870" lon="-76.5976040">
        <ele>1533.7</ele>
        <time>2022-02-13T12:28:42Z</time>
      </trkpt>
      <trkpt lat="3.3810720" lon="-76.5976360">
        <ele>1534.4</ele>
        <time>2022-02-13T12:28:46Z</time>
      </trkpt>
      <trkpt lat="3.3810540" lon="-76.5976600">
        <ele>1535.0</ele>
        <time>2022-02-13T12:28:50Z</time>
      </trkpt>
      <trkpt lat="3.3810190" lon="-76.5976950">
        <ele>1536.0</ele>
        <time>2022-02-13T12:28:56Z</time>
      </trkpt>
      <trkpt lat="3.3810060" lon="-76.5977090">
        <ele>1536.4</ele>
        <time>2022-02-13T12:28:58Z</time>
      </trkpt>
      <trkpt lat="3.3809710" lon="-76.5977470">
        <ele>1537.4</ele>
        <time>2022-02-13T12:29:04Z</time>
      </trkpt>
      <trkpt lat="3.3809660" lon="-76.5977500">
        <ele>1537.5</ele>
        <time>2022-02-13T12:29:05Z</time>
      </trkpt>
      <trkpt lat="3.3809550" lon="-76.5977580">
        <ele>1537.8</ele>
        <time>2022-02-13T12:29:08Z</time>
      </trkpt>
      <trkpt lat="3.3809370" lon="-76.5977830">
        <ele>1538.5</ele>
        <time>2022-02-13T12:29:12Z</time>
      </trkpt>
      <trkpt lat="3.3809300" lon="-76.5977970">
        <ele>1538.8</ele>
        <time>2022-02-13T12:29:14Z</time>
      </trkpt>
      <trkpt lat="3.3809210" lon="-76.5978110">
        <ele>1539.2</ele>
        <time>2022-02-13T12:29:16Z</time>
      </trkpt>
      <trkpt lat="3.3808810" lon="-76.5978420">
        <ele>1540.3</ele>
        <time>2022-02-13T12:29:22Z</time>
      </trkpt>
      <trkpt lat="3.3808700" lon="-76.5978520">
        <ele>1540.6</ele>
        <time>2022-02-13T12:29:24Z</time>
      </trkpt>
      <trkpt lat="3.3808640" lon="-76.5978650">
        <ele>1540.9</ele>
        <time>2022-02-13T12:29:26Z</time>
      </trkpt>
      <trkpt lat="3.3808550" lon="-76.5978790">
        <ele>1541.3</ele>
        <time>2022-02-13T12:29:29Z</time>
      </trkpt>
      <trkpt lat="3.3808370" lon="-76.5978910">
        <ele>1541.8</ele>
        <time>2022-02-13T12:29:34Z</time>
      </trkpt>
      <trkpt lat="3.3808150" lon="-76.5978970">
        <ele>1542.3</ele>
        <time>2022-02-13T12:29:38Z</time>
      </trkpt>
      <trkpt lat="3.3807900" lon="-76.5979070">
        <ele>1543.0</ele>
        <time>2022-02-13T12:29:42Z</time>
      </trkpt>
      <trkpt lat="3.3807770" lon="-76.5979140">
        <ele>1543.3</ele>
        <time>2022-02-13T12:29:44Z</time>
      </trkpt>
      <trkpt lat="3.3807450" lon="-76.5979530">
        <ele>1544.5</ele>
        <time>2022-02-13T12:29:49Z</time>
      </trkpt>
      <trkpt lat="3.3807280" lon="-76.5979590">
        <ele>1544.9</ele>
        <time>2022-02-13T12:29:51Z</time>
      </trkpt>
      <trkpt lat="3.3807010" lon="-76.5979750">
        <ele>1545.6</ele>
        <time>2022-02-13T12:29:55Z</time>
      </trkpt>
      <trkpt lat="3.3806560" lon="-76.5979710">
        <ele>1546.6</ele>
        <time>2022-02-13T12:30:01Z</time>
      </trkpt>
      <trkpt lat="3.3805620" lon="-76.5979450">
        <ele>1548.6</ele>
        <time>2022-02-13T12:30:12Z</time>
      </trkpt>
      <trkpt lat="3.3805230" lon="-76.5979300">
        <ele>1549.4</ele>
        <time>2022-02-13T12:30:17Z</time>
      </trkpt>
      <trkpt lat="3.3805040" lon="-76.5979120">
        <ele>1549.8</ele>
        <time>2022-02-13T12:30:20Z</time>
      </trkpt>
      <trkpt lat="3.3804650" lon="-76.5978770">
        <ele>1550.7</ele>
        <time>2022-02-13T12:30:25Z</time>
      </trkpt>
      <trkpt lat="3.3804290" lon="-76.5978620">
        <ele>1551.4</ele>
        <time>2022-02-13T12:30:31Z</time>
      </trkpt>
      <trkpt lat="3.3803790" lon="-76.5978150">
        <ele>1552.5</ele>
        <time>2022-02-13T12:30:38Z</time>
      </trkpt>
      <trkpt lat="3.3802970" lon="-76.5977910">
        <ele>1553.8</ele>
        <time>2022-02-13T12:30:47Z</time>
      </trkpt>
      <trkpt lat="3.3802050" lon="-76.5977850">
        <ele>1555.0</ele>
        <time>2022-02-13T12:30:56Z</time>
      </trkpt>
      <trkpt lat="3.3801640" lon="-76.5977800">
        <ele>1555.4</ele>
        <time>2022-02-13T12:31:00Z</time>
      </trkpt>
      <trkpt lat="3.3801500" lon="-76.5977800">
        <ele>1555.6</ele>
        <time>2022-02-13T12:31:02Z</time>
      </trkpt>
      <trkpt lat="3.3800720" lon="-76.5977860">
        <ele>1556.4</ele>
        <time>2022-02-13T12:31:10Z</time>
      </trkpt>
      <trkpt lat="3.3799950" lon="-76.5978160">
        <ele>1557.3</ele>
        <time>2022-02-13T12:31:18Z</time>
      </trkpt>
      <trkpt lat="3.3799770" lon="-76.5978160">
        <ele>1557.5</ele>
        <time>2022-02-13T12:31:20Z</time>
      </trkpt>
      <trkpt lat="3.3799030" lon="-76.5978190">
        <ele>1558.1</ele>
        <time>2022-02-13T12:31:27Z</time>
      </trkpt>
      <trkpt lat="3.3798280" lon="-76.5978270">
        <ele>1558.8</ele>
        <time>2022-02-13T12:31:33Z</time>
      </trkpt>
      <trkpt lat="3.3797440" lon="-76.5978530">
        <ele>1559.5</ele>
        <time>2022-02-13T12:31:40Z</time>
      </trkpt>
      <trkpt lat="3.3796700" lon="-76.5979160">
        <ele>1560.8</ele>
        <time>2022-02-13T12:31:48Z</time>
      </trkpt>
      <trkpt lat="3.3796260" lon="-76.5979640">
        <ele>1561.8</ele>
        <time>2022-02-13T12:31:55Z</time>
      </trkpt>
      <trkpt lat="3.3796200" lon="-76.5979730">
        <ele>1561.9</ele>
        <time>2022-02-13T12:31:56Z</time>
      </trkpt>
      <trkpt lat="3.3796160" lon="-76.5979840">
        <ele>1562.1</ele>
        <time>2022-02-13T12:31:57Z</time>
      </trkpt>
      <trkpt lat="3.3795970" lon="-76.5980140">
        <ele>1562.7</ele>
        <time>2022-02-13T12:32:01Z</time>
      </trkpt>
      <trkpt lat="3.3795910" lon="-76.5980260">
        <ele>1563.0</ele>
        <time>2022-02-13T12:32:03Z</time>
      </trkpt>
      <trkpt lat="3.3795760" lon="-76.5980580">
        <ele>1563.6</ele>
        <time>2022-02-13T12:32:07Z</time>
      </trkpt>
      <trkpt lat="3.3795730" lon="-76.5980660">
        <ele>1563.8</ele>
        <time>2022-02-13T12:32:08Z</time>
      </trkpt>
      <trkpt lat="3.3795660" lon="-76.5980860">
        <ele>1564.2</ele>
        <time>2022-02-13T12:32:10Z</time>
      </trkpt>
      <trkpt lat="3.3795570" lon="-76.5980960">
        <ele>1564.4</ele>
        <time>2022-02-13T12:32:12Z</time>
      </trkpt>
      <trkpt lat="3.3795460" lon="-76.5981110">
        <ele>1564.8</ele>
        <time>2022-02-13T12:32:14Z</time>
      </trkpt>
      <trkpt lat="3.3795400" lon="-76.5981170">
        <ele>1564.9</ele>
        <time>2022-02-13T12:32:15Z</time>
      </trkpt>
      <trkpt lat="3.3795300" lon="-76.5981310">
        <ele>1565.3</ele>
        <time>2022-02-13T12:32:17Z</time>
      </trkpt>
      <trkpt lat="3.3795010" lon="-76.5981620">
        <ele>1566.1</ele>
        <time>2022-02-13T12:32:21Z</time>
      </trkpt>
      <trkpt lat="3.3794790" lon="-76.5981640">
        <ele>1566.5</ele>
        <time>2022-02-13T12:32:23Z</time>
      </trkpt>
      <trkpt lat="3.3794480" lon="-76.5981810">
        <ele>1567.2</ele>
        <time>2022-02-13T12:32:27Z</time>
      </trkpt>
      <trkpt lat="3.3794180" lon="-76.5982000">
        <ele>1567.9</ele>
        <time>2022-02-13T12:32:30Z</time>
      </trkpt>
      <trkpt lat="3.3793800" lon="-76.5982340">
        <ele>1569.0</ele>
        <time>2022-02-13T12:32:36Z</time>
      </trkpt>
      <trkpt lat="3.3793260" lon="-76.5982330">
        <ele>1570.1</ele>
        <time>2022-02-13T12:32:42Z</time>
      </trkpt>
      <trkpt lat="3.3793180" lon="-76.5982360">
        <ele>1570.3</ele>
        <time>2022-02-13T12:32:43Z</time>
      </trkpt>
      <trkpt lat="3.3792900" lon="-76.5982460">
        <ele>1570.9</ele>
        <time>2022-02-13T12:32:46Z</time>
      </trkpt>
      <trkpt lat="3.3792500" lon="-76.5982500">
        <ele>1571.7</ele>
        <time>2022-02-13T12:32:50Z</time>
      </trkpt>
      <trkpt lat="3.3792030" lon="-76.5982510">
        <ele>1572.6</ele>
        <time>2022-02-13T12:32:54Z</time>
      </trkpt>
      <trkpt lat="3.3791740" lon="-76.5982480">
        <ele>1573.1</ele>
        <time>2022-02-13T12:32:56Z</time>
      </trkpt>
      <trkpt lat="3.3791150" lon="-76.5981900">
        <ele>1574.3</ele>
        <time>2022-02-13T12:33:05Z</time>
      </trkpt>
      <trkpt lat="3.3791060" lon="-76.5981840">
        <ele>1574.5</ele>
        <time>2022-02-13T12:33:06Z</time>
      </trkpt>
      <trkpt lat="3.3790600" lon="-76.5981560">
        <ele>1575.2</ele>
        <time>2022-02-13T12:33:10Z</time>
      </trkpt>
      <trkpt lat="3.3790470" lon="-76.5981460">
        <ele>1575.4</ele>
        <time>2022-02-13T12:33:11Z</time>
      </trkpt>
      <trkpt lat="3.3790040" lon="-76.5981210">
        <ele>1576.0</ele>
        <time>2022-02-13T12:33:14Z</time>
      </trkpt>
      <trkpt lat="3.3789950" lon="-76.5981160">
        <ele>1576.1</ele>
        <time>2022-02-13T12:33:15Z</time>
      </trkpt>
      <trkpt lat="3.3789500" lon="-76.5981120">
        <ele>1576.7</ele>
        <time>2022-02-13T12:33:19Z</time>
      </trkpt>
      <trkpt lat="3.3788650" lon="-76.5981060">
        <ele>1577.5</ele>
        <time>2022-02-13T12:33:27Z</time>
      </trkpt>
      <trkpt lat="3.3788350" lon="-76.5981050">
        <ele>1577.8</ele>
        <time>2022-02-13T12:33:30Z</time>
      </trkpt>
      <trkpt lat="3.3788130" lon="-76.5981090">
        <ele>1578.0</ele>
        <time>2022-02-13T12:33:32Z</time>
      </trkpt>
      <trkpt lat="3.3787920" lon="-76.5981100">
        <ele>1578.2</ele>
        <time>2022-02-13T12:33:34Z</time>
      </trkpt>
      <trkpt lat="3.3787730" lon="-76.5981010">
        <ele>1578.4</ele>
        <time>2022-02-13T12:33:36Z</time>
      </trkpt>
      <trkpt lat="3.3786420" lon="-76.5980960">
        <ele>1579.6</ele>
        <time>2022-02-13T12:33:46Z</time>
      </trkpt>
      <trkpt lat="3.3785500" lon="-76.5981070">
        <ele>1580.4</ele>
        <time>2022-02-13T12:33:54Z</time>
      </trkpt>
      <trkpt lat="3.3785290" lon="-76.5981130">
        <ele>1580.6</ele>
        <time>2022-02-13T12:33:56Z</time>
      </trkpt>
      <trkpt lat="3.3784810" lon="-76.5981310">
        <ele>1581.0</ele>
        <time>2022-02-13T12:34:01Z</time>
      </trkpt>
      <trkpt lat="3.3783820" lon="-76.5981460">
        <ele>1582.0</ele>
        <time>2022-02-13T12:34:10Z</time>
      </trkpt>
      <trkpt lat="3.3783720" lon="-76.5981480">
        <ele>1582.1</ele>
        <time>2022-02-13T12:34:11Z</time>
      </trkpt>
      <trkpt lat="3.3783130" lon="-76.5981440">
        <ele>1582.7</ele>
        <time>2022-02-13T12:34:18Z</time>
      </trkpt>
      <trkpt lat="3.3782250" lon="-76.5981500">
        <ele>1583.9</ele>
        <time>2022-02-13T12:34:27Z</time>
      </trkpt>
      <trkpt lat="3.3782110" lon="-76.5981430">
        <ele>1584.2</ele>
        <time>2022-02-13T12:34:29Z</time>
      </trkpt>
      <trkpt lat="3.3782010" lon="-76.5981340">
        <ele>1584.4</ele>
        <time>2022-02-13T12:34:31Z</time>
      </trkpt>
      <trkpt lat="3.3781700" lon="-76.5981300">
        <ele>1585.0</ele>
        <time>2022-02-13T12:34:35Z</time>
      </trkpt>
      <trkpt lat="3.3780980" lon="-76.5981300">
        <ele>1586.3</ele>
        <time>2022-02-13T12:34:42Z</time>
      </trkpt>
      <trkpt lat="3.3780330" lon="-76.5981230">
        <ele>1587.5</ele>
        <time>2022-02-13T12:34:49Z</time>
      </trkpt>
      <trkpt lat="3.3780290" lon="-76.5981230">
        <ele>1587.6</ele>
        <time>2022-02-13T12:34:50Z</time>
      </trkpt>
      <trkpt lat="3.3779760" lon="-76.5981440">
        <ele>1588.7</ele>
        <time>2022-02-13T12:34:55Z</time>
      </trkpt>
      <trkpt lat="3.3779400" lon="-76.5981750">
        <ele>1589.6</ele>
        <time>2022-02-13T12:35:04Z</time>
      </trkpt>
      <trkpt lat="3.3779200" lon="-76.5982270">
        <ele>1590.6</ele>
        <time>2022-02-13T12:35:12Z</time>
      </trkpt>
      <trkpt lat="3.3779170" lon="-76.5982310">
        <ele>1590.7</ele>
        <time>2022-02-13T12:35:13Z</time>
      </trkpt>
      <trkpt lat="3.3778990" lon="-76.5982730">
        <ele>1591.5</ele>
        <time>2022-02-13T12:35:18Z</time>
      </trkpt>
      <trkpt lat="3.3778940" lon="-76.5982850">
        <ele>1591.7</ele>
        <time>2022-02-13T12:35:19Z</time>
      </trkpt>
      <trkpt lat="3.3778850" lon="-76.5982910">
        <ele>1591.9</ele>
        <time>2022-02-13T12:35:20Z</time>
      </trkpt>
      <trkpt lat="3.3778700" lon="-76.5982980">
        <ele>1592.2</ele>
        <time>2022-02-13T12:35:22Z</time>
      </trkpt>
      <trkpt lat="3.3778510" lon="-76.5983060">
        <ele>1592.6</ele>
        <time>2022-02-13T12:35:24Z</time>
      </trkpt>
      <trkpt lat="3.3778350" lon="-76.5983060">
        <ele>1593.0</ele>
        <time>2022-02-13T12:35:26Z</time>
      </trkpt>
      <trkpt lat="3.3778200" lon="-76.5982990">
        <ele>1593.2</ele>
        <time>2022-02-13T12:35:28Z</time>
      </trkpt>
      <trkpt lat="3.3778010" lon="-76.5982970">
        <ele>1593.6</ele>
        <time>2022-02-13T12:35:31Z</time>
      </trkpt>
      <trkpt lat="3.3777910" lon="-76.5982930">
        <ele>1593.8</ele>
        <time>2022-02-13T12:35:32Z</time>
      </trkpt>
      <trkpt lat="3.3777850" lon="-76.5982900">
        <ele>1593.9</ele>
        <time>2022-02-13T12:35:33Z</time>
      </trkpt>
      <trkpt lat="3.3777670" lon="-76.5982850">
        <ele>1594.2</ele>
        <time>2022-02-13T12:35:36Z</time>
      </trkpt>
      <trkpt lat="3.3777520" lon="-76.5982760">
        <ele>1594.5</ele>
        <time>2022-02-13T12:35:38Z</time>
      </trkpt>
      <trkpt lat="3.3777430" lon="-76.5982720">
        <ele>1594.7</ele>
        <time>2022-02-13T12:35:39Z</time>
      </trkpt>
      <trkpt lat="3.3777080" lon="-76.5982530">
        <ele>1595.3</ele>
        <time>2022-02-13T12:35:43Z</time>
      </trkpt>
      <trkpt lat="3.3777000" lon="-76.5982520">
        <ele>1595.4</ele>
        <time>2022-02-13T12:35:44Z</time>
      </trkpt>
      <trkpt lat="3.3776870" lon="-76.5982440">
        <ele>1595.7</ele>
        <time>2022-02-13T12:35:46Z</time>
      </trkpt>
      <trkpt lat="3.3776810" lon="-76.5982390">
        <ele>1595.8</ele>
        <time>2022-02-13T12:35:47Z</time>
      </trkpt>
      <trkpt lat="3.3776230" lon="-76.5982150">
        <ele>1596.7</ele>
        <time>2022-02-13T12:35:51Z</time>
      </trkpt>
      <trkpt lat="3.3775980" lon="-76.5982010">
        <ele>1597.1</ele>
        <time>2022-02-13T12:35:53Z</time>
      </trkpt>
      <trkpt lat="3.3775750" lon="-76.5981790">
        <ele>1597.5</ele>
        <time>2022-02-13T12:35:55Z</time>
      </trkpt>
      <trkpt lat="3.3775490" lon="-76.5981510">
        <ele>1598.0</ele>
        <time>2022-02-13T12:35:58Z</time>
      </trkpt>
      <trkpt lat="3.3775250" lon="-76.5981500">
        <ele>1598.3</ele>
        <time>2022-02-13T12:36:00Z</time>
      </trkpt>
      <trkpt lat="3.3775150" lon="-76.5981460">
        <ele>1598.4</ele>
        <time>2022-02-13T12:36:01Z</time>
      </trkpt>
      <trkpt lat="3.3774720" lon="-76.5980990">
        <ele>1599.2</ele>
        <time>2022-02-13T12:36:07Z</time>
      </trkpt>
      <trkpt lat="3.3774490" lon="-76.5980840">
        <ele>1599.6</ele>
        <time>2022-02-13T12:36:10Z</time>
      </trkpt>
      <trkpt lat="3.3774140" lon="-76.5980630">
        <ele>1600.1</ele>
        <time>2022-02-13T12:36:14Z</time>
      </trkpt>
      <trkpt lat="3.3773800" lon="-76.5980640">
        <ele>1600.2</ele>
        <time>2022-02-13T12:36:20Z</time>
      </trkpt>
      <trkpt lat="3.3773720" lon="-76.5980700">
        <ele>1600.4</ele>
        <time>2022-02-13T12:36:28Z</time>
      </trkpt>
      <trkpt lat="3.3773730" lon="-76.5980690">
        <ele>1600.4</ele>
        <time>2022-02-13T12:36:32Z</time>
      </trkpt>
      <trkpt lat="3.3773730" lon="-76.5980690">
        <ele>1600.4</ele>
        <time>2022-02-13T12:36:35Z</time>
      </trkpt>
      <trkpt lat="3.3773730" lon="-76.5980690">
        <ele>1600.4</ele>
        <time>2022-02-13T12:36:37Z</time>
      </trkpt>
      <trkpt lat="3.3773720" lon="-76.5980680">
        <ele>1600.4</ele>
        <time>2022-02-13T12:36:48Z</time>
      </trkpt>
      <trkpt lat="3.3773630" lon="-76.5980660">
        <ele>1600.6</ele>
        <time>2022-02-13T12:36:56Z</time>
      </trkpt>
      <trkpt lat="3.3773620" lon="-76.5980650">
        <ele>1600.6</ele>
        <time>2022-02-13T12:37:07Z</time>
      </trkpt>
      <trkpt lat="3.3773600" lon="-76.5980650">
        <ele>1600.6</ele>
        <time>2022-02-13T12:37:11Z</time>
      </trkpt>
      <trkpt lat="3.3773470" lon="-76.5980530">
        <ele>1600.9</ele>
        <time>2022-02-13T12:37:28Z</time>
      </trkpt>
      <trkpt lat="3.3773510" lon="-76.5980340">
        <ele>1601.2</ele>
        <time>2022-02-13T12:37:42Z</time>
      </trkpt>
      <trkpt lat="3.3773510" lon="-76.5980340">
        <ele>1601.2</ele>
        <time>2022-02-13T12:37:45Z</time>
      </trkpt>
      <trkpt lat="3.3773510" lon="-76.5980340">
        <ele>1601.2</ele>
        <time>2022-02-13T12:37:49Z</time>
      </trkpt>
      <trkpt lat="3.3773150" lon="-76.5980840">
        <ele>1602.1</ele>
        <time>2022-02-13T12:38:08Z</time>
      </trkpt>
      <trkpt lat="3.3772600" lon="-76.5981430">
        <ele>1603.6</ele>
        <time>2022-02-13T12:38:13Z</time>
      </trkpt>
      <trkpt lat="3.3772480" lon="-76.5981570">
        <ele>1604.0</ele>
        <time>2022-02-13T12:38:14Z</time>
      </trkpt>
      <trkpt lat="3.3772310" lon="-76.5981780">
        <ele>1604.5</ele>
        <time>2022-02-13T12:38:16Z</time>
      </trkpt>
      <trkpt lat="3.3772200" lon="-76.5981940">
        <ele>1604.8</ele>
        <time>2022-02-13T12:38:18Z</time>
      </trkpt>
      <trkpt lat="3.3772110" lon="-76.5982030">
        <ele>1605.1</ele>
        <time>2022-02-13T12:38:20Z</time>
      </trkpt>
      <trkpt lat="3.3771980" lon="-76.5982120">
        <ele>1605.4</ele>
        <time>2022-02-13T12:38:22Z</time>
      </trkpt>
      <trkpt lat="3.3771580" lon="-76.5982570">
        <ele>1606.5</ele>
        <time>2022-02-13T12:38:27Z</time>
      </trkpt>
      <trkpt lat="3.3770860" lon="-76.5983390">
        <ele>1608.4</ele>
        <time>2022-02-13T12:38:36Z</time>
      </trkpt>
      <trkpt lat="3.3770170" lon="-76.5984290">
        <ele>1610.3</ele>
        <time>2022-02-13T12:38:45Z</time>
      </trkpt>
      <trkpt lat="3.3769780" lon="-76.5984760">
        <ele>1611.4</ele>
        <time>2022-02-13T12:38:50Z</time>
      </trkpt>
      <trkpt lat="3.3769630" lon="-76.5984960">
        <ele>1611.8</ele>
        <time>2022-02-13T12:38:53Z</time>
      </trkpt>
      <trkpt lat="3.3769460" lon="-76.5985350">
        <ele>1612.5</ele>
        <time>2022-02-13T12:38:57Z</time>
      </trkpt>
      <trkpt lat="3.3769150" lon="-76.5985740">
        <ele>1613.4</ele>
        <time>2022-02-13T12:39:01Z</time>
      </trkpt>
      <trkpt lat="3.3768660" lon="-76.5986550">
        <ele>1615.2</ele>
        <time>2022-02-13T12:39:10Z</time>
      </trkpt>
      <trkpt lat="3.3768370" lon="-76.5986930">
        <ele>1616.1</ele>
        <time>2022-02-13T12:39:15Z</time>
      </trkpt>
      <trkpt lat="3.3768140" lon="-76.5987240">
        <ele>1616.9</ele>
        <time>2022-02-13T12:39:18Z</time>
      </trkpt>
      <trkpt lat="3.3768060" lon="-76.5987360">
        <ele>1617.2</ele>
        <time>2022-02-13T12:39:19Z</time>
      </trkpt>
      <trkpt lat="3.3767830" lon="-76.5987810">
        <ele>1618.2</ele>
        <time>2022-02-13T12:39:24Z</time>
      </trkpt>
      <trkpt lat="3.3767730" lon="-76.5988080">
        <ele>1618.7</ele>
        <time>2022-02-13T12:39:26Z</time>
      </trkpt>
      <trkpt lat="3.3767560" lon="-76.5988440">
        <ele>1619.5</ele>
        <time>2022-02-13T12:39:29Z</time>
      </trkpt>
      <trkpt lat="3.3767490" lon="-76.5988730">
        <ele>1620.1</ele>
        <time>2022-02-13T12:39:32Z</time>
      </trkpt>
      <trkpt lat="3.3767260" lon="-76.5989040">
        <ele>1620.9</ele>
        <time>2022-02-13T12:39:36Z</time>
      </trkpt>
      <trkpt lat="3.3766810" lon="-76.5989810">
        <ele>1622.6</ele>
        <time>2022-02-13T12:39:45Z</time>
      </trkpt>
      <trkpt lat="3.3766780" lon="-76.5989940">
        <ele>1622.8</ele>
        <time>2022-02-13T12:39:47Z</time>
      </trkpt>
      <trkpt lat="3.3766640" lon="-76.5990130">
        <ele>1623.2</ele>
        <time>2022-02-13T12:39:49Z</time>
      </trkpt>
      <trkpt lat="3.3766480" lon="-76.5990420">
        <ele>1623.8</ele>
        <time>2022-02-13T12:39:52Z</time>
      </trkpt>
      <trkpt lat="3.3766390" lon="-76.5990560">
        <ele>1624.1</ele>
        <time>2022-02-13T12:39:54Z</time>
      </trkpt>
      <trkpt lat="3.3766190" lon="-76.5990860">
        <ele>1624.7</ele>
        <time>2022-02-13T12:39:58Z</time>
      </trkpt>
      <trkpt lat="3.3766050" lon="-76.5991170">
        <ele>1625.2</ele>
        <time>2022-02-13T12:40:01Z</time>
      </trkpt>
      <trkpt lat="3.3766020" lon="-76.5991260">
        <ele>1625.3</ele>
        <time>2022-02-13T12:40:03Z</time>
      </trkpt>
      <trkpt lat="3.3766030" lon="-76.5991280">
        <ele>1625.4</ele>
        <time>2022-02-13T12:40:04Z</time>
      </trkpt>
      <trkpt lat="3.3765810" lon="-76.5991600">
        <ele>1626.0</ele>
        <time>2022-02-13T12:40:09Z</time>
      </trkpt>
      <trkpt lat="3.3765740" lon="-76.5991740">
        <ele>1626.2</ele>
        <time>2022-02-13T12:40:10Z</time>
      </trkpt>
      <trkpt lat="3.3765620" lon="-76.5991890">
        <ele>1626.5</ele>
        <time>2022-02-13T12:40:12Z</time>
      </trkpt>
      <trkpt lat="3.3765480" lon="-76.5992340">
        <ele>1627.2</ele>
        <time>2022-02-13T12:40:16Z</time>
      </trkpt>
      <trkpt lat="3.3765220" lon="-76.5993120">
        <ele>1628.6</ele>
        <time>2022-02-13T12:40:24Z</time>
      </trkpt>
      <trkpt lat="3.3765060" lon="-76.5993490">
        <ele>1629.3</ele>
        <time>2022-02-13T12:40:29Z</time>
      </trkpt>
      <trkpt lat="3.3765010" lon="-76.5993670">
        <ele>1629.6</ele>
        <time>2022-02-13T12:40:31Z</time>
      </trkpt>
      <trkpt lat="3.3764980" lon="-76.5993700">
        <ele>1629.7</ele>
        <time>2022-02-13T12:40:33Z</time>
      </trkpt>
      <trkpt lat="3.3764770" lon="-76.5993830">
        <ele>1630.2</ele>
        <time>2022-02-13T12:40:36Z</time>
      </trkpt>
      <trkpt lat="3.3764700" lon="-76.5993870">
        <ele>1630.4</ele>
        <time>2022-02-13T12:40:37Z</time>
      </trkpt>
      <trkpt lat="3.3764610" lon="-76.5994010">
        <ele>1630.7</ele>
        <time>2022-02-13T12:40:40Z</time>
      </trkpt>
      <trkpt lat="3.3764520" lon="-76.5994200">
        <ele>1631.1</ele>
        <time>2022-02-13T12:40:43Z</time>
      </trkpt>
      <trkpt lat="3.3764440" lon="-76.5994260">
        <ele>1631.3</ele>
        <time>2022-02-13T12:40:45Z</time>
      </trkpt>
      <trkpt lat="3.3764420" lon="-76.5994270">
        <ele>1631.4</ele>
        <time>2022-02-13T12:40:46Z</time>
      </trkpt>
      <trkpt lat="3.3764200" lon="-76.5994510">
        <ele>1632.0</ele>
        <time>2022-02-13T12:40:49Z</time>
      </trkpt>
      <trkpt lat="3.3764040" lon="-76.5994840">
        <ele>1632.8</ele>
        <time>2022-02-13T12:40:51Z</time>
      </trkpt>
      <trkpt lat="3.3763680" lon="-76.5995430">
        <ele>1634.1</ele>
        <time>2022-02-13T12:40:56Z</time>
      </trkpt>
      <trkpt lat="3.3763460" lon="-76.5995610">
        <ele>1634.7</ele>
        <time>2022-02-13T12:40:58Z</time>
      </trkpt>
      <trkpt lat="3.3763360" lon="-76.5995650">
        <ele>1634.9</ele>
        <time>2022-02-13T12:40:59Z</time>
      </trkpt>
      <trkpt lat="3.3763160" lon="-76.5995740">
        <ele>1635.3</ele>
        <time>2022-02-13T12:41:01Z</time>
      </trkpt>
      <trkpt lat="3.3762980" lon="-76.5995970">
        <ele>1635.8</ele>
        <time>2022-02-13T12:41:03Z</time>
      </trkpt>
      <trkpt lat="3.3762940" lon="-76.5996040">
        <ele>1636.0</ele>
        <time>2022-02-13T12:41:04Z</time>
      </trkpt>
      <trkpt lat="3.3762840" lon="-76.5996120">
        <ele>1636.2</ele>
        <time>2022-02-13T12:41:05Z</time>
      </trkpt>
      <trkpt lat="3.3762700" lon="-76.5996210">
        <ele>1636.5</ele>
        <time>2022-02-13T12:41:07Z</time>
      </trkpt>
      <trkpt lat="3.3762450" lon="-76.5996300">
        <ele>1637.0</ele>
        <time>2022-02-13T12:41:10Z</time>
      </trkpt>
      <trkpt lat="3.3761510" lon="-76.5996720">
        <ele>1638.8</ele>
        <time>2022-02-13T12:41:20Z</time>
      </trkpt>
      <trkpt lat="3.3761420" lon="-76.5996770">
        <ele>1639.0</ele>
        <time>2022-02-13T12:41:21Z</time>
      </trkpt>
      <trkpt lat="3.3760750" lon="-76.5996990">
        <ele>1640.3</ele>
        <time>2022-02-13T12:41:27Z</time>
      </trkpt>
      <trkpt lat="3.3759930" lon="-76.5997510">
        <ele>1642.1</ele>
        <time>2022-02-13T12:41:37Z</time>
      </trkpt>
      <trkpt lat="3.3759940" lon="-76.5998250">
        <ele>1643.4</ele>
        <time>2022-02-13T12:41:45Z</time>
      </trkpt>
      <trkpt lat="3.3760120" lon="-76.5998830">
        <ele>1644.1</ele>
        <time>2022-02-13T12:41:52Z</time>
      </trkpt>
      <trkpt lat="3.3760380" lon="-76.5999640">
        <ele>1645.6</ele>
        <time>2022-02-13T12:41:59Z</time>
      </trkpt>
      <trkpt lat="3.3760580" lon="-76.6000340">
        <ele>1646.7</ele>
        <time>2022-02-13T12:42:06Z</time>
      </trkpt>
      <trkpt lat="3.3760650" lon="-76.6000400">
        <ele>1646.9</ele>
        <time>2022-02-13T12:42:09Z</time>
      </trkpt>
      <trkpt lat="3.3760620" lon="-76.6000480">
        <ele>1647.0</ele>
        <time>2022-02-13T12:42:11Z</time>
      </trkpt>
      <trkpt lat="3.3760630" lon="-76.6000520">
        <ele>1647.1</ele>
        <time>2022-02-13T12:42:12Z</time>
      </trkpt>
      <trkpt lat="3.3760600" lon="-76.6000610">
        <ele>1647.2</ele>
        <time>2022-02-13T12:42:14Z</time>
      </trkpt>
      <trkpt lat="3.3760530" lon="-76.6000870">
        <ele>1647.7</ele>
        <time>2022-02-13T12:42:16Z</time>
      </trkpt>
      <trkpt lat="3.3760500" lon="-76.6000890">
        <ele>1647.7</ele>
        <time>2022-02-13T12:42:17Z</time>
      </trkpt>
      <trkpt lat="3.3760440" lon="-76.6001330">
        <ele>1648.5</ele>
        <time>2022-02-13T12:42:25Z</time>
      </trkpt>
      <trkpt lat="3.3760520" lon="-76.6001490">
        <ele>1648.8</ele>
        <time>2022-02-13T12:42:30Z</time>
      </trkpt>
      <trkpt lat="3.3760440" lon="-76.6001930">
        <ele>1649.6</ele>
        <time>2022-02-13T12:42:37Z</time>
      </trkpt>
      <trkpt lat="3.3760370" lon="-76.6003100">
        <ele>1651.9</ele>
        <time>2022-02-13T12:42:45Z</time>
      </trkpt>
      <trkpt lat="3.3760080" lon="-76.6003690">
        <ele>1653.2</ele>
        <time>2022-02-13T12:42:50Z</time>
      </trkpt>
      <trkpt lat="3.3759960" lon="-76.6003880">
        <ele>1653.7</ele>
        <time>2022-02-13T12:42:53Z</time>
      </trkpt>
      <trkpt lat="3.3759960" lon="-76.6004040">
        <ele>1654.0</ele>
        <time>2022-02-13T12:42:55Z</time>
      </trkpt>
      <trkpt lat="3.3759740" lon="-76.6004600">
        <ele>1655.1</ele>
        <time>2022-02-13T12:43:00Z</time>
      </trkpt>
      <trkpt lat="3.3759590" lon="-76.6004990">
        <ele>1655.9</ele>
        <time>2022-02-13T12:43:04Z</time>
      </trkpt>
      <trkpt lat="3.3759470" lon="-76.6005170">
        <ele>1656.3</ele>
        <time>2022-02-13T12:43:06Z</time>
      </trkpt>
      <trkpt lat="3.3759290" lon="-76.6005550">
        <ele>1657.1</ele>
        <time>2022-02-13T12:43:11Z</time>
      </trkpt>
      <trkpt lat="3.3759180" lon="-76.6005700">
        <ele>1657.4</ele>
        <time>2022-02-13T12:43:13Z</time>
      </trkpt>
      <trkpt lat="3.3758940" lon="-76.6006260">
        <ele>1658.5</ele>
        <time>2022-02-13T12:43:17Z</time>
      </trkpt>
      <trkpt lat="3.3758740" lon="-76.6006540">
        <ele>1659.1</ele>
        <time>2022-02-13T12:43:20Z</time>
      </trkpt>
      <trkpt lat="3.3758330" lon="-76.6007230">
        <ele>1660.5</ele>
        <time>2022-02-13T12:43:26Z</time>
      </trkpt>
      <trkpt lat="3.3758170" lon="-76.6007230">
        <ele>1660.8</ele>
        <time>2022-02-13T12:43:28Z</time>
      </trkpt>
      <trkpt lat="3.3757670" lon="-76.6007490">
        <ele>1661.8</ele>
        <time>2022-02-13T12:43:36Z</time>
      </trkpt>
      <trkpt lat="3.3757580" lon="-76.6007640">
        <ele>1662.2</ele>
        <time>2022-02-13T12:43:38Z</time>
      </trkpt>
      <trkpt lat="3.3757240" lon="-76.6007880">
        <ele>1663.1</ele>
        <time>2022-02-13T12:43:43Z</time>
      </trkpt>
      <trkpt lat="3.3757130" lon="-76.6008180">
        <ele>1663.8</ele>
        <time>2022-02-13T12:43:46Z</time>
      </trkpt>
      <trkpt lat="3.3756850" lon="-76.6008450">
        <ele>1664.7</ele>
        <time>2022-02-13T12:43:51Z</time>
      </trkpt>
      <trkpt lat="3.3756650" lon="-76.6008710">
        <ele>1665.4</ele>
        <time>2022-02-13T12:43:57Z</time>
      </trkpt>
      <trkpt lat="3.3756660" lon="-76.6008720">
        <ele>1665.4</ele>
        <time>2022-02-13T12:43:58Z</time>
      </trkpt>
      <trkpt lat="3.3756480" lon="-76.6009240">
        <ele>1666.7</ele>
        <time>2022-02-13T12:44:05Z</time>
      </trkpt>
      <trkpt lat="3.3756120" lon="-76.6009500">
        <ele>1667.8</ele>
        <time>2022-02-13T12:44:11Z</time>
      </trkpt>
      <trkpt lat="3.3755990" lon="-76.6009650">
        <ele>1668.3</ele>
        <time>2022-02-13T12:44:14Z</time>
      </trkpt>
      <trkpt lat="3.3755800" lon="-76.6009860">
        <ele>1669.0</ele>
        <time>2022-02-13T12:44:18Z</time>
      </trkpt>
      <trkpt lat="3.3755680" lon="-76.6009970">
        <ele>1669.3</ele>
        <time>2022-02-13T12:44:21Z</time>
      </trkpt>
      <trkpt lat="3.3755680" lon="-76.6009980">
        <ele>1669.4</ele>
        <time>2022-02-13T12:44:22Z</time>
      </trkpt>
      <trkpt lat="3.3755370" lon="-76.6010260">
        <ele>1670.4</ele>
        <time>2022-02-13T12:44:28Z</time>
      </trkpt>
      <trkpt lat="3.3754920" lon="-76.6010890">
        <ele>1672.2</ele>
        <time>2022-02-13T12:44:36Z</time>
      </trkpt>
      <trkpt lat="3.3754620" lon="-76.6011220">
        <ele>1673.3</ele>
        <time>2022-02-13T12:44:40Z</time>
      </trkpt>
      <trkpt lat="3.3754450" lon="-76.6011440">
        <ele>1674.0</ele>
        <time>2022-02-13T12:44:43Z</time>
      </trkpt>
      <trkpt lat="3.3753970" lon="-76.6011840">
        <ele>1675.5</ele>
        <time>2022-02-13T12:44:50Z</time>
      </trkpt>
      <trkpt lat="3.3753920" lon="-76.6011890">
        <ele>1675.6</ele>
        <time>2022-02-13T12:44:51Z</time>
      </trkpt>
      <trkpt lat="3.3753390" lon="-76.6012460">
        <ele>1677.4</ele>
        <time>2022-02-13T12:44:59Z</time>
      </trkpt>
      <trkpt lat="3.3752920" lon="-76.6012940">
        <ele>1679.0</ele>
        <time>2022-02-13T12:45:06Z</time>
      </trkpt>
      <trkpt lat="3.3752730" lon="-76.6013150">
        <ele>1679.6</ele>
        <time>2022-02-13T12:45:09Z</time>
      </trkpt>
      <trkpt lat="3.3752530" lon="-76.6013510">
        <ele>1680.5</ele>
        <time>2022-02-13T12:45:14Z</time>
      </trkpt>
      <trkpt lat="3.3752470" lon="-76.6013600">
        <ele>1680.8</ele>
        <time>2022-02-13T12:45:16Z</time>
      </trkpt>
      <trkpt lat="3.3752130" lon="-76.6014170">
        <ele>1682.2</ele>
        <time>2022-02-13T12:45:24Z</time>
      </trkpt>
      <trkpt lat="3.3751860" lon="-76.6015310">
        <ele>1684.8</ele>
        <time>2022-02-13T12:45:35Z</time>
      </trkpt>
      <trkpt lat="3.3751870" lon="-76.6016200">
        <ele>1686.8</ele>
        <time>2022-02-13T12:45:44Z</time>
      </trkpt>
      <trkpt lat="3.3751870" lon="-76.6016400">
        <ele>1687.2</ele>
        <time>2022-02-13T12:45:46Z</time>
      </trkpt>
      <trkpt lat="3.3752010" lon="-76.6017160">
        <ele>1688.8</ele>
        <time>2022-02-13T12:45:55Z</time>
      </trkpt>
      <trkpt lat="3.3752250" lon="-76.6018180">
        <ele>1690.9</ele>
        <time>2022-02-13T12:46:06Z</time>
      </trkpt>
      <trkpt lat="3.3752650" lon="-76.6019130">
        <ele>1692.8</ele>
        <time>2022-02-13T12:46:15Z</time>
      </trkpt>
      <trkpt lat="3.3753470" lon="-76.6019870">
        <ele>1694.6</ele>
        <time>2022-02-13T12:46:24Z</time>
      </trkpt>
      <trkpt lat="3.3754160" lon="-76.6020320">
        <ele>1695.9</ele>
        <time>2022-02-13T12:46:33Z</time>
      </trkpt>
      <trkpt lat="3.3754590" lon="-76.6021130">
        <ele>1697.4</ele>
        <time>2022-02-13T12:46:41Z</time>
      </trkpt>
      <trkpt lat="3.3754990" lon="-76.6021690">
        <ele>1698.5</ele>
        <time>2022-02-13T12:46:48Z</time>
      </trkpt>
      <trkpt lat="3.3755250" lon="-76.6021880">
        <ele>1699.1</ele>
        <time>2022-02-13T12:46:51Z</time>
      </trkpt>
      <trkpt lat="3.3755530" lon="-76.6022130">
        <ele>1699.7</ele>
        <time>2022-02-13T12:46:54Z</time>
      </trkpt>
      <trkpt lat="3.3755820" lon="-76.6022440">
        <ele>1700.4</ele>
        <time>2022-02-13T12:46:58Z</time>
      </trkpt>
      <trkpt lat="3.3756250" lon="-76.6022820">
        <ele>1701.4</ele>
        <time>2022-02-13T12:47:04Z</time>
      </trkpt>
      <trkpt lat="3.3756540" lon="-76.6023340">
        <ele>1702.5</ele>
        <time>2022-02-13T12:47:10Z</time>
      </trkpt>
      <trkpt lat="3.3756570" lon="-76.6023420">
        <ele>1703.0</ele>
        <time>2022-02-13T12:47:11Z</time>
      </trkpt>
      <trkpt lat="3.3756720" lon="-76.6023600">
        <ele>1703.3</ele>
        <time>2022-02-13T12:47:13Z</time>
      </trkpt>
      <trkpt lat="3.3756570" lon="-76.6023950">
        <ele>1703.9</ele>
        <time>2022-02-13T12:47:16Z</time>
      </trkpt>
      <trkpt lat="3.3756590" lon="-76.6024020">
        <ele>1704.0</ele>
        <time>2022-02-13T12:47:18Z</time>
      </trkpt>
      <trkpt lat="3.3756580" lon="-76.6024140">
        <ele>1704.1</ele>
        <time>2022-02-13T12:47:20Z</time>
      </trkpt>
      <trkpt lat="3.3756530" lon="-76.6024330">
        <ele>1704.4</ele>
        <time>2022-02-13T12:47:23Z</time>
      </trkpt>
      <trkpt lat="3.3756460" lon="-76.6024620">
        <ele>1704.8</ele>
        <time>2022-02-13T12:47:26Z</time>
      </trkpt>
      <trkpt lat="3.3756340" lon="-76.6024820">
        <ele>1705.1</ele>
        <time>2022-02-13T12:47:29Z</time>
      </trkpt>
      <trkpt lat="3.3756310" lon="-76.6024860">
        <ele>1705.1</ele>
        <time>2022-02-13T12:47:30Z</time>
      </trkpt>
      <trkpt lat="3.3756180" lon="-76.6025160">
        <ele>1705.5</ele>
        <time>2022-02-13T12:47:33Z</time>
      </trkpt>
      <trkpt lat="3.3756010" lon="-76.6025500">
        <ele>1706.0</ele>
        <time>2022-02-13T12:47:37Z</time>
      </trkpt>
      <trkpt lat="3.3755570" lon="-76.6026500">
        <ele>1707.3</ele>
        <time>2022-02-13T12:47:46Z</time>
      </trkpt>
      <trkpt lat="3.3755200" lon="-76.6027040">
        <ele>1708.0</ele>
        <time>2022-02-13T12:47:53Z</time>
      </trkpt>
      <trkpt lat="3.3754920" lon="-76.6027860">
        <ele>1709.0</ele>
        <time>2022-02-13T12:48:00Z</time>
      </trkpt>
      <trkpt lat="3.3754390" lon="-76.6029050">
        <ele>1710.5</ele>
        <time>2022-02-13T12:48:10Z</time>
      </trkpt>
      <trkpt lat="3.3754320" lon="-76.6029160">
        <ele>1710.6</ele>
        <time>2022-02-13T12:48:11Z</time>
      </trkpt>
      <trkpt lat="3.3753890" lon="-76.6030230">
        <ele>1711.8</ele>
        <time>2022-02-13T12:48:21Z</time>
      </trkpt>
      <trkpt lat="3.3753660" lon="-76.6031240">
        <ele>1712.5</ele>
        <time>2022-02-13T12:48:30Z</time>
      </trkpt>
      <trkpt lat="3.3753520" lon="-76.6031990">
        <ele>1712.7</ele>
        <time>2022-02-13T12:48:38Z</time>
      </trkpt>
      <trkpt lat="3.3753360" lon="-76.6032640">
        <ele>1712.7</ele>
        <time>2022-02-13T12:48:46Z</time>
      </trkpt>
      <trkpt lat="3.3753340" lon="-76.6032840">
        <ele>1712.6</ele>
        <time>2022-02-13T12:48:48Z</time>
      </trkpt>
      <trkpt lat="3.3753110" lon="-76.6033430">
        <ele>1712.4</ele>
        <time>2022-02-13T12:48:54Z</time>
      </trkpt>
      <trkpt lat="3.3753090" lon="-76.6033510">
        <ele>1712.3</ele>
        <time>2022-02-13T12:48:55Z</time>
      </trkpt>
      <trkpt lat="3.3753050" lon="-76.6033690">
        <ele>1712.2</ele>
        <time>2022-02-13T12:48:57Z</time>
      </trkpt>
      <trkpt lat="3.3752920" lon="-76.6034250">
        <ele>1711.8</ele>
        <time>2022-02-13T12:49:03Z</time>
      </trkpt>
      <trkpt lat="3.3752480" lon="-76.6035310">
        <ele>1710.7</ele>
        <time>2022-02-13T12:49:13Z</time>
      </trkpt>
      <trkpt lat="3.3752470" lon="-76.6035420">
        <ele>1710.6</ele>
        <time>2022-02-13T12:49:14Z</time>
      </trkpt>
      <trkpt lat="3.3752530" lon="-76.6036670">
        <ele>1709.4</ele>
        <time>2022-02-13T12:49:23Z</time>
      </trkpt>
      <trkpt lat="3.3752450" lon="-76.6037050">
        <ele>1709.0</ele>
        <time>2022-02-13T12:49:27Z</time>
      </trkpt>
      <trkpt lat="3.3752400" lon="-76.6037480">
        <ele>1708.5</ele>
        <time>2022-02-13T12:49:30Z</time>
      </trkpt>
      <trkpt lat="3.3752280" lon="-76.6038040">
        <ele>1708.0</ele>
        <time>2022-02-13T12:49:35Z</time>
      </trkpt>
      <trkpt lat="3.3752340" lon="-76.6038150">
        <ele>1707.9</ele>
        <time>2022-02-13T12:49:36Z</time>
      </trkpt>
      <trkpt lat="3.3752410" lon="-76.6038280">
        <ele>1707.7</ele>
        <time>2022-02-13T12:49:37Z</time>
      </trkpt>
      <trkpt lat="3.3752420" lon="-76.6038430">
        <ele>1707.6</ele>
        <time>2022-02-13T12:49:38Z</time>
      </trkpt>
      <trkpt lat="3.3752320" lon="-76.6038860">
        <ele>1707.2</ele>
        <time>2022-02-13T12:49:41Z</time>
      </trkpt>
      <trkpt lat="3.3752300" lon="-76.6039000">
        <ele>1707.1</ele>
        <time>2022-02-13T12:49:42Z</time>
      </trkpt>
      <trkpt lat="3.3752170" lon="-76.6039680">
        <ele>1706.6</ele>
        <time>2022-02-13T12:49:47Z</time>
      </trkpt>
      <trkpt lat="3.3752150" lon="-76.6039900">
        <ele>1706.5</ele>
        <time>2022-02-13T12:49:48Z</time>
      </trkpt>
      <trkpt lat="3.3752090" lon="-76.6040050">
        <ele>1706.4</ele>
        <time>2022-02-13T12:49:49Z</time>
      </trkpt>
      <trkpt lat="3.3752070" lon="-76.6040570">
        <ele>1706.1</ele>
        <time>2022-02-13T12:49:54Z</time>
      </trkpt>
      <trkpt lat="3.3751720" lon="-76.6041600">
        <ele>1705.7</ele>
        <time>2022-02-13T12:50:02Z</time>
      </trkpt>
      <trkpt lat="3.3751580" lon="-76.6041770">
        <ele>1705.6</ele>
        <time>2022-02-13T12:50:03Z</time>
      </trkpt>
      <trkpt lat="3.3751150" lon="-76.6042340">
        <ele>1705.5</ele>
        <time>2022-02-13T12:50:09Z</time>
      </trkpt>
      <trkpt lat="3.3750750" lon="-76.6043120">
        <ele>1705.4</ele>
        <time>2022-02-13T12:50:16Z</time>
      </trkpt>
      <trkpt lat="3.3750230" lon="-76.6043620">
        <ele>1705.5</ele>
        <time>2022-02-13T12:50:21Z</time>
      </trkpt>
      <trkpt lat="3.3750050" lon="-76.6043830">
        <ele>1705.5</ele>
        <time>2022-02-13T12:50:23Z</time>
      </trkpt>
      <trkpt lat="3.3749790" lon="-76.6043980">
        <ele>1705.5</ele>
        <time>2022-02-13T12:50:26Z</time>
      </trkpt>
      <trkpt lat="3.3749250" lon="-76.6044250">
        <ele>1705.7</ele>
        <time>2022-02-13T12:50:31Z</time>
      </trkpt>
      <trkpt lat="3.3749160" lon="-76.6044330">
        <ele>1705.7</ele>
        <time>2022-02-13T12:50:32Z</time>
      </trkpt>
      <trkpt lat="3.3748810" lon="-76.6044670">
        <ele>1705.8</ele>
        <time>2022-02-13T12:50:38Z</time>
      </trkpt>
      <trkpt lat="3.3748030" lon="-76.6045140">
        <ele>1706.1</ele>
        <time>2022-02-13T12:50:44Z</time>
      </trkpt>
      <trkpt lat="3.3747410" lon="-76.6045410">
        <ele>1706.4</ele>
        <time>2022-02-13T12:50:50Z</time>
      </trkpt>
      <trkpt lat="3.3746860" lon="-76.6045920">
        <ele>1706.9</ele>
        <time>2022-02-13T12:50:58Z</time>
      </trkpt>
      <trkpt lat="3.3746650" lon="-76.6046020">
        <ele>1707.1</ele>
        <time>2022-02-13T12:51:00Z</time>
      </trkpt>
      <trkpt lat="3.3746400" lon="-76.6046230">
        <ele>1707.4</ele>
        <time>2022-02-13T12:51:04Z</time>
      </trkpt>
      <trkpt lat="3.3745800" lon="-76.6046600">
        <ele>1708.1</ele>
        <time>2022-02-13T12:51:10Z</time>
      </trkpt>
      <trkpt lat="3.3745350" lon="-76.6047180">
        <ele>1709.0</ele>
        <time>2022-02-13T12:51:16Z</time>
      </trkpt>
      <trkpt lat="3.3745080" lon="-76.6047470">
        <ele>1709.5</ele>
        <time>2022-02-13T12:51:19Z</time>
      </trkpt>
      <trkpt lat="3.3744920" lon="-76.6047500">
        <ele>1709.7</ele>
        <time>2022-02-13T12:51:21Z</time>
      </trkpt>
      <trkpt lat="3.3744390" lon="-76.6047890">
        <ele>1710.6</ele>
        <time>2022-02-13T12:51:27Z</time>
      </trkpt>
      <trkpt lat="3.3744310" lon="-76.6047920">
        <ele>1710.7</ele>
        <time>2022-02-13T12:51:28Z</time>
      </trkpt>
      <trkpt lat="3.3743980" lon="-76.6048230">
        <ele>1711.3</ele>
        <time>2022-02-13T12:51:32Z</time>
      </trkpt>
      <trkpt lat="3.3743640" lon="-76.6048590">
        <ele>1712.0</ele>
        <time>2022-02-13T12:51:36Z</time>
      </trkpt>
      <trkpt lat="3.3742890" lon="-76.6049350">
        <ele>1713.5</ele>
        <time>2022-02-13T12:51:45Z</time>
      </trkpt>
      <trkpt lat="3.3742140" lon="-76.6049590">
        <ele>1714.6</ele>
        <time>2022-02-13T12:51:53Z</time>
      </trkpt>
      <trkpt lat="3.3741350" lon="-76.6049750">
        <ele>1715.9</ele>
        <time>2022-02-13T12:52:01Z</time>
      </trkpt>
      <trkpt lat="3.3740630" lon="-76.6049890">
        <ele>1717.1</ele>
        <time>2022-02-13T12:52:09Z</time>
      </trkpt>
      <trkpt lat="3.3740340" lon="-76.6049960">
        <ele>1717.6</ele>
        <time>2022-02-13T12:52:12Z</time>
      </trkpt>
      <trkpt lat="3.3739330" lon="-76.6050190">
        <ele>1719.3</ele>
        <time>2022-02-13T12:52:22Z</time>
      </trkpt>
      <trkpt lat="3.3739110" lon="-76.6050210">
        <ele>1719.6</ele>
        <time>2022-02-13T12:52:26Z</time>
      </trkpt>
      <trkpt lat="3.3739030" lon="-76.6050180">
        <ele>1719.7</ele>
        <time>2022-02-13T12:52:29Z</time>
      </trkpt>
      <trkpt lat="3.3739010" lon="-76.6050170">
        <ele>1719.7</ele>
        <time>2022-02-13T12:52:31Z</time>
      </trkpt>
      <trkpt lat="3.3739120" lon="-76.6050090">
        <ele>1719.9</ele>
        <time>2022-02-13T12:52:57Z</time>
      </trkpt>
      <trkpt lat="3.3739120" lon="-76.6050090">
        <ele>1719.9</ele>
        <time>2022-02-13T12:53:00Z</time>
      </trkpt>
      <trkpt lat="3.3739090" lon="-76.6050220">
        <ele>1720.1</ele>
        <time>2022-02-13T12:53:02Z</time>
      </trkpt>
      <trkpt lat="3.3738760" lon="-76.6050620">
        <ele>1720.8</ele>
        <time>2022-02-13T12:53:06Z</time>
      </trkpt>
      <trkpt lat="3.3738670" lon="-76.6050730">
        <ele>1721.0</ele>
        <time>2022-02-13T12:53:07Z</time>
      </trkpt>
      <trkpt lat="3.3738440" lon="-76.6050820">
        <ele>1721.3</ele>
        <time>2022-02-13T12:53:09Z</time>
      </trkpt>
      <trkpt lat="3.3738250" lon="-76.6050820">
        <ele>1721.5</ele>
        <time>2022-02-13T12:53:12Z</time>
      </trkpt>
      <trkpt lat="3.3738220" lon="-76.6050820">
        <ele>1721.5</ele>
        <time>2022-02-13T12:53:13Z</time>
      </trkpt>
      <trkpt lat="3.3738280" lon="-76.6050450">
        <ele>1721.9</ele>
        <time>2022-02-13T12:55:16Z</time>
      </trkpt>
      <trkpt lat="3.3738280" lon="-76.6050450">
        <ele>1721.9</ele>
        <time>2022-02-13T12:55:17Z</time>
      </trkpt>
      <trkpt lat="3.3738210" lon="-76.6050440">
        <ele>1722.0</ele>
        <time>2022-02-13T12:55:20Z</time>
      </trkpt>
      <trkpt lat="3.3737930" lon="-76.6050720">
        <ele>1722.4</ele>
        <time>2022-02-13T12:55:23Z</time>
      </trkpt>
      <trkpt lat="3.3737580" lon="-76.6050980">
        <ele>1722.8</ele>
        <time>2022-02-13T12:55:26Z</time>
      </trkpt>
      <trkpt lat="3.3736940" lon="-76.6051440">
        <ele>1723.3</ele>
        <time>2022-02-13T12:55:32Z</time>
      </trkpt>
      <trkpt lat="3.3736820" lon="-76.6051460">
        <ele>1723.4</ele>
        <time>2022-02-13T12:55:33Z</time>
      </trkpt>
      <trkpt lat="3.3736440" lon="-76.6051680">
        <ele>1723.7</ele>
        <time>2022-02-13T12:55:37Z</time>
      </trkpt>
      <trkpt lat="3.3736140" lon="-76.6051810">
        <ele>1723.9</ele>
        <time>2022-02-13T12:55:40Z</time>
      </trkpt>
      <trkpt lat="3.3735790" lon="-76.6052060">
        <ele>1724.2</ele>
        <time>2022-02-13T12:55:43Z</time>
      </trkpt>
      <trkpt lat="3.3735100" lon="-76.6052450">
        <ele>1724.8</ele>
        <time>2022-02-13T12:55:50Z</time>
      </trkpt>
      <trkpt lat="3.3734200" lon="-76.6052820">
        <ele>1725.9</ele>
        <time>2022-02-13T12:55:59Z</time>
      </trkpt>
      <trkpt lat="3.3733820" lon="-76.6052980">
        <ele>1726.4</ele>
        <time>2022-02-13T12:56:03Z</time>
      </trkpt>
      <trkpt lat="3.3733610" lon="-76.6052990">
        <ele>1726.6</ele>
        <time>2022-02-13T12:56:05Z</time>
      </trkpt>
      <trkpt lat="3.3733260" lon="-76.6053050">
        <ele>1727.1</ele>
        <time>2022-02-13T12:56:08Z</time>
      </trkpt>
      <trkpt lat="3.3732610" lon="-76.6053300">
        <ele>1728.0</ele>
        <time>2022-02-13T12:56:14Z</time>
      </trkpt>
      <trkpt lat="3.3732060" lon="-76.6053580">
        <ele>1728.9</ele>
        <time>2022-02-13T12:56:20Z</time>
      </trkpt>
      <trkpt lat="3.3731260" lon="-76.6053990">
        <ele>1730.2</ele>
        <time>2022-02-13T12:56:29Z</time>
      </trkpt>
      <trkpt lat="3.3730920" lon="-76.6054170">
        <ele>1730.8</ele>
        <time>2022-02-13T12:56:33Z</time>
      </trkpt>
      <trkpt lat="3.3730830" lon="-76.6054170">
        <ele>1731.0</ele>
        <time>2022-02-13T12:56:35Z</time>
      </trkpt>
      <trkpt lat="3.3730670" lon="-76.6054270">
        <ele>1731.3</ele>
        <time>2022-02-13T12:56:37Z</time>
      </trkpt>
      <trkpt lat="3.3730470" lon="-76.6054390">
        <ele>1731.6</ele>
        <time>2022-02-13T12:56:39Z</time>
      </trkpt>
      <trkpt lat="3.3730130" lon="-76.6054540">
        <ele>1732.2</ele>
        <time>2022-02-13T12:56:43Z</time>
      </trkpt>
      <trkpt lat="3.3729930" lon="-76.6054600">
        <ele>1732.4</ele>
        <time>2022-02-13T12:56:45Z</time>
      </trkpt>
      <trkpt lat="3.3729810" lon="-76.6054650">
        <ele>1732.6</ele>
        <time>2022-02-13T12:56:46Z</time>
      </trkpt>
      <trkpt lat="3.3729730" lon="-76.6054660">
        <ele>1732.7</ele>
        <time>2022-02-13T12:56:47Z</time>
      </trkpt>
      <trkpt lat="3.3729100" lon="-76.6055070">
        <ele>1733.5</ele>
        <time>2022-02-13T12:56:54Z</time>
      </trkpt>
      <trkpt lat="3.3728950" lon="-76.6055390">
        <ele>1733.8</ele>
        <time>2022-02-13T12:56:57Z</time>
      </trkpt>
      <trkpt lat="3.3728900" lon="-76.6055580">
        <ele>1733.9</ele>
        <time>2022-02-13T12:56:59Z</time>
      </trkpt>
      <trkpt lat="3.3728570" lon="-76.6056220">
        <ele>1734.3</ele>
        <time>2022-02-13T12:57:05Z</time>
      </trkpt>
      <trkpt lat="3.3728530" lon="-76.6056280">
        <ele>1734.4</ele>
        <time>2022-02-13T12:57:06Z</time>
      </trkpt>
      <trkpt lat="3.3728550" lon="-76.6056350">
        <ele>1734.4</ele>
        <time>2022-02-13T12:57:07Z</time>
      </trkpt>
      <trkpt lat="3.3728500" lon="-76.6056510">
        <ele>1734.5</ele>
        <time>2022-02-13T12:57:09Z</time>
      </trkpt>
      <trkpt lat="3.3728420" lon="-76.6056620">
        <ele>1734.5</ele>
        <time>2022-02-13T12:57:10Z</time>
      </trkpt>
      <trkpt lat="3.3728280" lon="-76.6056820">
        <ele>1734.7</ele>
        <time>2022-02-13T12:57:12Z</time>
      </trkpt>
      <trkpt lat="3.3727980" lon="-76.6057250">
        <ele>1734.9</ele>
        <time>2022-02-13T12:57:18Z</time>
      </trkpt>
      <trkpt lat="3.3727820" lon="-76.6057460">
        <ele>1735.1</ele>
        <time>2022-02-13T12:57:20Z</time>
      </trkpt>
      <trkpt lat="3.3727490" lon="-76.6058020">
        <ele>1735.5</ele>
        <time>2022-02-13T12:57:26Z</time>
      </trkpt>
      <trkpt lat="3.3727180" lon="-76.6058400">
        <ele>1736.0</ele>
        <time>2022-02-13T12:57:31Z</time>
      </trkpt>
      <trkpt lat="3.3726950" lon="-76.6058500">
        <ele>1736.2</ele>
        <time>2022-02-13T12:57:34Z</time>
      </trkpt>
      <trkpt lat="3.3726730" lon="-76.6058810">
        <ele>1736.7</ele>
        <time>2022-02-13T12:57:37Z</time>
      </trkpt>
      <trkpt lat="3.3726390" lon="-76.6059260">
        <ele>1737.5</ele>
        <time>2022-02-13T12:57:41Z</time>
      </trkpt>
      <trkpt lat="3.3725960" lon="-76.6060120">
        <ele>1739.0</ele>
        <time>2022-02-13T12:57:48Z</time>
      </trkpt>
      <trkpt lat="3.3725910" lon="-76.6060160">
        <ele>1739.2</ele>
        <time>2022-02-13T12:57:49Z</time>
      </trkpt>
      <trkpt lat="3.3725810" lon="-76.6060260">
        <ele>1739.4</ele>
        <time>2022-02-13T12:57:51Z</time>
      </trkpt>
      <trkpt lat="3.3725700" lon="-76.6060390">
        <ele>1739.7</ele>
        <time>2022-02-13T12:57:53Z</time>
      </trkpt>
      <trkpt lat="3.3725490" lon="-76.6060640">
        <ele>1740.2</ele>
        <time>2022-02-13T12:57:56Z</time>
      </trkpt>
      <trkpt lat="3.3725240" lon="-76.6060840">
        <ele>1740.7</ele>
        <time>2022-02-13T12:58:00Z</time>
      </trkpt>
      <trkpt lat="3.3725090" lon="-76.6060910">
        <ele>1740.9</ele>
        <time>2022-02-13T12:58:02Z</time>
      </trkpt>
      <trkpt lat="3.3725010" lon="-76.6060980">
        <ele>1741.1</ele>
        <time>2022-02-13T12:58:03Z</time>
      </trkpt>
      <trkpt lat="3.3724750" lon="-76.6061250">
        <ele>1741.6</ele>
        <time>2022-02-13T12:58:07Z</time>
      </trkpt>
      <trkpt lat="3.3724470" lon="-76.6061800">
        <ele>1742.4</ele>
        <time>2022-02-13T12:58:14Z</time>
      </trkpt>
      <trkpt lat="3.3724220" lon="-76.6062450">
        <ele>1743.1</ele>
        <time>2022-02-13T12:58:20Z</time>
      </trkpt>
      <trkpt lat="3.3724150" lon="-76.6062550">
        <ele>1743.2</ele>
        <time>2022-02-13T12:58:22Z</time>
      </trkpt>
      <trkpt lat="3.3724130" lon="-76.6062560">
        <ele>1743.2</ele>
        <time>2022-02-13T12:58:23Z</time>
      </trkpt>
      <trkpt lat="3.3724160" lon="-76.6062580">
        <ele>1743.2</ele>
        <time>2022-02-13T12:58:28Z</time>
      </trkpt>
      <trkpt lat="3.3724150" lon="-76.6062560">
        <ele>1743.3</ele>
        <time>2022-02-13T12:58:34Z</time>
      </trkpt>
      <trkpt lat="3.3724150" lon="-76.6062560">
        <ele>1743.3</ele>
        <time>2022-02-13T12:58:40Z</time>
      </trkpt>
      <trkpt lat="3.3724160" lon="-76.6062560">
        <ele>1743.3</ele>
        <time>2022-02-13T12:58:50Z</time>
      </trkpt>
      <trkpt lat="3.3724160" lon="-76.6062570">
        <ele>1743.3</ele>
        <time>2022-02-13T12:58:52Z</time>
      </trkpt>
      <trkpt lat="3.3723700" lon="-76.6062770">
        <ele>1743.7</ele>
        <time>2022-02-13T12:58:57Z</time>
      </trkpt>
      <trkpt lat="3.3722660" lon="-76.6063410">
        <ele>1744.6</ele>
        <time>2022-02-13T12:59:05Z</time>
      </trkpt>
      <trkpt lat="3.3722550" lon="-76.6063470">
        <ele>1744.7</ele>
        <time>2022-02-13T12:59:06Z</time>
      </trkpt>
      <trkpt lat="3.3722090" lon="-76.6064140">
        <ele>1744.9</ele>
        <time>2022-02-13T12:59:13Z</time>
      </trkpt>
      <trkpt lat="3.3721830" lon="-76.6064330">
        <ele>1744.9</ele>
        <time>2022-02-13T12:59:16Z</time>
      </trkpt>
      <trkpt lat="3.3721570" lon="-76.6064670">
        <ele>1744.9</ele>
        <time>2022-02-13T12:59:20Z</time>
      </trkpt>
      <trkpt lat="3.3721520" lon="-76.6064760">
        <ele>1744.9</ele>
        <time>2022-02-13T12:59:21Z</time>
      </trkpt>
      <trkpt lat="3.3721430" lon="-76.6064910">
        <ele>1744.9</ele>
        <time>2022-02-13T12:59:23Z</time>
      </trkpt>
      <trkpt lat="3.3721110" lon="-76.6065130">
        <ele>1744.9</ele>
        <time>2022-02-13T12:59:26Z</time>
      </trkpt>
      <trkpt lat="3.3720220" lon="-76.6065700">
        <ele>1745.0</ele>
        <time>2022-02-13T12:59:32Z</time>
      </trkpt>
      <trkpt lat="3.3720070" lon="-76.6065730">
        <ele>1745.0</ele>
        <time>2022-02-13T12:59:33Z</time>
      </trkpt>
      <trkpt lat="3.3719440" lon="-76.6066250">
        <ele>1745.3</ele>
        <time>2022-02-13T12:59:39Z</time>
      </trkpt>
      <trkpt lat="3.3718620" lon="-76.6066880">
        <ele>1745.8</ele>
        <time>2022-02-13T12:59:48Z</time>
      </trkpt>
      <trkpt lat="3.3718090" lon="-76.6067300">
        <ele>1746.3</ele>
        <time>2022-02-13T12:59:54Z</time>
      </trkpt>
      <trkpt lat="3.3717740" lon="-76.6067490">
        <ele>1746.7</ele>
        <time>2022-02-13T12:59:57Z</time>
      </trkpt>
      <trkpt lat="3.3717170" lon="-76.6068030">
        <ele>1747.6</ele>
        <time>2022-02-13T13:00:04Z</time>
      </trkpt>
      <trkpt lat="3.3716960" lon="-76.6068270">
        <ele>1748.0</ele>
        <time>2022-02-13T13:00:07Z</time>
      </trkpt>
      <trkpt lat="3.3716770" lon="-76.6068580">
        <ele>1748.5</ele>
        <time>2022-02-13T13:00:10Z</time>
      </trkpt>
      <trkpt lat="3.3716220" lon="-76.6069220">
        <ele>1749.6</ele>
        <time>2022-02-13T13:00:19Z</time>
      </trkpt>
      <trkpt lat="3.3715380" lon="-76.6069660">
        <ele>1751.0</ele>
        <time>2022-02-13T13:00:27Z</time>
      </trkpt>
      <trkpt lat="3.3715040" lon="-76.6069850">
        <ele>1751.6</ele>
        <time>2022-02-13T13:00:31Z</time>
      </trkpt>
      <trkpt lat="3.3714680" lon="-76.6070140">
        <ele>1752.2</ele>
        <time>2022-02-13T13:00:34Z</time>
      </trkpt>
      <trkpt lat="3.3714370" lon="-76.6070340">
        <ele>1752.7</ele>
        <time>2022-02-13T13:00:38Z</time>
      </trkpt>
      <trkpt lat="3.3714140" lon="-76.6070520">
        <ele>1753.0</ele>
        <time>2022-02-13T13:00:41Z</time>
      </trkpt>
      <trkpt lat="3.3713570" lon="-76.6070820">
        <ele>1753.6</ele>
        <time>2022-02-13T13:00:47Z</time>
      </trkpt>
      <trkpt lat="3.3713500" lon="-76.6070940">
        <ele>1753.7</ele>
        <time>2022-02-13T13:00:48Z</time>
      </trkpt>
      <trkpt lat="3.3713370" lon="-76.6071090">
        <ele>1753.8</ele>
        <time>2022-02-13T13:00:50Z</time>
      </trkpt>
      <trkpt lat="3.3712640" lon="-76.6071500">
        <ele>1754.0</ele>
        <time>2022-02-13T13:00:57Z</time>
      </trkpt>
      <trkpt lat="3.3712060" lon="-76.6072100">
        <ele>1753.9</ele>
        <time>2022-02-13T13:01:04Z</time>
      </trkpt>
      <trkpt lat="3.3711960" lon="-76.6072160">
        <ele>1753.9</ele>
        <time>2022-02-13T13:01:05Z</time>
      </trkpt>
      <trkpt lat="3.3711370" lon="-76.6072400">
        <ele>1753.7</ele>
        <time>2022-02-13T13:01:11Z</time>
      </trkpt>
      <trkpt lat="3.3711250" lon="-76.6072440">
        <ele>1753.6</ele>
        <time>2022-02-13T13:01:12Z</time>
      </trkpt>
      <trkpt lat="3.3711000" lon="-76.6072640">
        <ele>1753.4</ele>
        <time>2022-02-13T13:01:14Z</time>
      </trkpt>
      <trkpt lat="3.3710600" lon="-76.6073010">
        <ele>1753.1</ele>
        <time>2022-02-13T13:01:18Z</time>
      </trkpt>
      <trkpt lat="3.3710480" lon="-76.6073080">
        <ele>1753.1</ele>
        <time>2022-02-13T13:01:19Z</time>
      </trkpt>
      <trkpt lat="3.3710200" lon="-76.6073210">
        <ele>1752.9</ele>
        <time>2022-02-13T13:01:22Z</time>
      </trkpt>
      <trkpt lat="3.3709820" lon="-76.6073410">
        <ele>1752.8</ele>
        <time>2022-02-13T13:01:25Z</time>
      </trkpt>
      <trkpt lat="3.3709500" lon="-76.6073410">
        <ele>1752.7</ele>
        <time>2022-02-13T13:01:27Z</time>
      </trkpt>
      <trkpt lat="3.3709220" lon="-76.6073450">
        <ele>1752.7</ele>
        <time>2022-02-13T13:01:29Z</time>
      </trkpt>
      <trkpt lat="3.3709030" lon="-76.6073480">
        <ele>1752.7</ele>
        <time>2022-02-13T13:01:31Z</time>
      </trkpt>
      <trkpt lat="3.3708880" lon="-76.6073550">
        <ele>1752.7</ele>
        <time>2022-02-13T13:01:32Z</time>
      </trkpt>
      <trkpt lat="3.3708290" lon="-76.6073740">
        <ele>1752.9</ele>
        <time>2022-02-13T13:01:38Z</time>
      </trkpt>
      <trkpt lat="3.3707750" lon="-76.6073780">
        <ele>1753.1</ele>
        <time>2022-02-13T13:01:42Z</time>
      </trkpt>
      <trkpt lat="3.3707540" lon="-76.6073900">
        <ele>1753.3</ele>
        <time>2022-02-13T13:01:44Z</time>
      </trkpt>
      <trkpt lat="3.3707470" lon="-76.6073980">
        <ele>1753.4</ele>
        <time>2022-02-13T13:01:45Z</time>
      </trkpt>
      <trkpt lat="3.3706990" lon="-76.6074000">
        <ele>1753.8</ele>
        <time>2022-02-13T13:01:49Z</time>
      </trkpt>
      <trkpt lat="3.3706770" lon="-76.6074080">
        <ele>1754.0</ele>
        <time>2022-02-13T13:01:51Z</time>
      </trkpt>
      <trkpt lat="3.3706000" lon="-76.6074340">
        <ele>1754.6</ele>
        <time>2022-02-13T13:01:57Z</time>
      </trkpt>
      <trkpt lat="3.3705790" lon="-76.6074500">
        <ele>1754.9</ele>
        <time>2022-02-13T13:01:59Z</time>
      </trkpt>
      <trkpt lat="3.3705720" lon="-76.6074560">
        <ele>1754.9</ele>
        <time>2022-02-13T13:02:00Z</time>
      </trkpt>
      <trkpt lat="3.3705340" lon="-76.6074710">
        <ele>1755.3</ele>
        <time>2022-02-13T13:02:04Z</time>
      </trkpt>
      <trkpt lat="3.3705000" lon="-76.6074870">
        <ele>1755.6</ele>
        <time>2022-02-13T13:02:08Z</time>
      </trkpt>
      <trkpt lat="3.3704850" lon="-76.6075020">
        <ele>1755.8</ele>
        <time>2022-02-13T13:02:10Z</time>
      </trkpt>
      <trkpt lat="3.3704690" lon="-76.6075270">
        <ele>1756.0</ele>
        <time>2022-02-13T13:02:13Z</time>
      </trkpt>
      <trkpt lat="3.3704170" lon="-76.6075330">
        <ele>1756.4</ele>
        <time>2022-02-13T13:02:16Z</time>
      </trkpt>
      <trkpt lat="3.3703780" lon="-76.6075620">
        <ele>1756.8</ele>
        <time>2022-02-13T13:02:20Z</time>
      </trkpt>
      <trkpt lat="3.3703550" lon="-76.6075810">
        <ele>1757.0</ele>
        <time>2022-02-13T13:02:22Z</time>
      </trkpt>
      <trkpt lat="3.3702730" lon="-76.6076110">
        <ele>1757.5</ele>
        <time>2022-02-13T13:02:29Z</time>
      </trkpt>
      <trkpt lat="3.3702370" lon="-76.6076700">
        <ele>1757.7</ele>
        <time>2022-02-13T13:02:34Z</time>
      </trkpt>
      <trkpt lat="3.3702260" lon="-76.6076790">
        <ele>1757.7</ele>
        <time>2022-02-13T13:02:35Z</time>
      </trkpt>
      <trkpt lat="3.3701720" lon="-76.6077350">
        <ele>1757.8</ele>
        <time>2022-02-13T13:02:41Z</time>
      </trkpt>
      <trkpt lat="3.3701610" lon="-76.6077390">
        <ele>1757.8</ele>
        <time>2022-02-13T13:02:42Z</time>
      </trkpt>
      <trkpt lat="3.3701240" lon="-76.6077460">
        <ele>1757.8</ele>
        <time>2022-02-13T13:02:45Z</time>
      </trkpt>
      <trkpt lat="3.3700840" lon="-76.6077600">
        <ele>1757.8</ele>
        <time>2022-02-13T13:02:48Z</time>
      </trkpt>
      <trkpt lat="3.3700710" lon="-76.6077680">
        <ele>1757.8</ele>
        <time>2022-02-13T13:02:49Z</time>
      </trkpt>
      <trkpt lat="3.3700310" lon="-76.6078040">
        <ele>1757.8</ele>
        <time>2022-02-13T13:02:53Z</time>
      </trkpt>
      <trkpt lat="3.3700200" lon="-76.6078060">
        <ele>1757.8</ele>
        <time>2022-02-13T13:02:54Z</time>
      </trkpt>
      <trkpt lat="3.3700140" lon="-76.6078150">
        <ele>1757.7</ele>
        <time>2022-02-13T13:02:55Z</time>
      </trkpt>
      <trkpt lat="3.3699750" lon="-76.6078460">
        <ele>1757.7</ele>
        <time>2022-02-13T13:02:59Z</time>
      </trkpt>
      <trkpt lat="3.3699470" lon="-76.6078630">
        <ele>1757.7</ele>
        <time>2022-02-13T13:03:01Z</time>
      </trkpt>
      <trkpt lat="3.3698950" lon="-76.6079020">
        <ele>1757.7</ele>
        <time>2022-02-13T13:03:06Z</time>
      </trkpt>
      <trkpt lat="3.3698110" lon="-76.6079940">
        <ele>1757.9</ele>
        <time>2022-02-13T13:03:16Z</time>
      </trkpt>
      <trkpt lat="3.3697980" lon="-76.6079970">
        <ele>1757.9</ele>
        <time>2022-02-13T13:03:17Z</time>
      </trkpt>
      <trkpt lat="3.3697510" lon="-76.6080140">
        <ele>1757.9</ele>
        <time>2022-02-13T13:03:21Z</time>
      </trkpt>
      <trkpt lat="3.3696970" lon="-76.6080540">
        <ele>1758.0</ele>
        <time>2022-02-13T13:03:26Z</time>
      </trkpt>
      <trkpt lat="3.3696820" lon="-76.6080740">
        <ele>1758.1</ele>
        <time>2022-02-13T13:03:29Z</time>
      </trkpt>
      <trkpt lat="3.3696410" lon="-76.6081180">
        <ele>1758.1</ele>
        <time>2022-02-13T13:03:35Z</time>
      </trkpt>
      <trkpt lat="3.3696240" lon="-76.6081340">
        <ele>1758.2</ele>
        <time>2022-02-13T13:03:37Z</time>
      </trkpt>
      <trkpt lat="3.3695930" lon="-76.6081810">
        <ele>1758.2</ele>
        <time>2022-02-13T13:03:41Z</time>
      </trkpt>
      <trkpt lat="3.3695880" lon="-76.6081900">
        <ele>1758.3</ele>
        <time>2022-02-13T13:03:42Z</time>
      </trkpt>
      <trkpt lat="3.3695870" lon="-76.6082040">
        <ele>1758.3</ele>
        <time>2022-02-13T13:03:43Z</time>
      </trkpt>
      <trkpt lat="3.3695690" lon="-76.6082220">
        <ele>1758.4</ele>
        <time>2022-02-13T13:03:46Z</time>
      </trkpt>
      <trkpt lat="3.3695630" lon="-76.6082290">
        <ele>1758.4</ele>
        <time>2022-02-13T13:03:47Z</time>
      </trkpt>
      <trkpt lat="3.3695480" lon="-76.6082570">
        <ele>1758.5</ele>
        <time>2022-02-13T13:03:49Z</time>
      </trkpt>
      <trkpt lat="3.3695210" lon="-76.6082770">
        <ele>1758.6</ele>
        <time>2022-02-13T13:03:52Z</time>
      </trkpt>
      <trkpt lat="3.3694920" lon="-76.6082420">
        <ele>1758.7</ele>
        <time>2022-02-13T13:03:55Z</time>
      </trkpt>
      <trkpt lat="3.3694770" lon="-76.6082260">
        <ele>1758.8</ele>
        <time>2022-02-13T13:03:57Z</time>
      </trkpt>
      <trkpt lat="3.3694480" lon="-76.6081980">
        <ele>1759.0</ele>
        <time>2022-02-13T13:04:02Z</time>
      </trkpt>
      <trkpt lat="3.3694400" lon="-76.6081750">
        <ele>1759.2</ele>
        <time>2022-02-13T13:04:04Z</time>
      </trkpt>
      <trkpt lat="3.3693790" lon="-76.6080820">
        <ele>1760.0</ele>
        <time>2022-02-13T13:04:14Z</time>
      </trkpt>
      <trkpt lat="3.3693290" lon="-76.6079950">
        <ele>1760.9</ele>
        <time>2022-02-13T13:04:22Z</time>
      </trkpt>
      <trkpt lat="3.3693040" lon="-76.6079160">
        <ele>1761.7</ele>
        <time>2022-02-13T13:04:29Z</time>
      </trkpt>
      <trkpt lat="3.3692910" lon="-76.6078960">
        <ele>1761.9</ele>
        <time>2022-02-13T13:04:31Z</time>
      </trkpt>
      <trkpt lat="3.3692260" lon="-76.6078220">
        <ele>1762.7</ele>
        <time>2022-02-13T13:04:40Z</time>
      </trkpt>
      <trkpt lat="3.3691580" lon="-76.6077320">
        <ele>1763.4</ele>
        <time>2022-02-13T13:04:49Z</time>
      </trkpt>
      <trkpt lat="3.3690820" lon="-76.6076570">
        <ele>1764.3</ele>
        <time>2022-02-13T13:04:58Z</time>
      </trkpt>
      <trkpt lat="3.3690280" lon="-76.6075980">
        <ele>1765.2</ele>
        <time>2022-02-13T13:05:05Z</time>
      </trkpt>
      <trkpt lat="3.3689820" lon="-76.6075590">
        <ele>1766.0</ele>
        <time>2022-02-13T13:05:11Z</time>
      </trkpt>
      <trkpt lat="3.3688950" lon="-76.6075110">
        <ele>1767.5</ele>
        <time>2022-02-13T13:05:21Z</time>
      </trkpt>
      <trkpt lat="3.3688410" lon="-76.6074810">
        <ele>1768.5</ele>
        <time>2022-02-13T13:05:27Z</time>
      </trkpt>
      <trkpt lat="3.3688350" lon="-76.6074720">
        <ele>1768.7</ele>
        <time>2022-02-13T13:05:28Z</time>
      </trkpt>
      <trkpt lat="3.3688230" lon="-76.6074570">
        <ele>1769.0</ele>
        <time>2022-02-13T13:05:30Z</time>
      </trkpt>
      <trkpt lat="3.3688100" lon="-76.6074420">
        <ele>1769.3</ele>
        <time>2022-02-13T13:05:32Z</time>
      </trkpt>
      <trkpt lat="3.3687810" lon="-76.6074160">
        <ele>1769.9</ele>
        <time>2022-02-13T13:05:37Z</time>
      </trkpt>
      <trkpt lat="3.3687350" lon="-76.6073770">
        <ele>1770.9</ele>
        <time>2022-02-13T13:05:44Z</time>
      </trkpt>
      <trkpt lat="3.3687260" lon="-76.6073620">
        <ele>1771.2</ele>
        <time>2022-02-13T13:05:46Z</time>
      </trkpt>
      <trkpt lat="3.3686920" lon="-76.6073320">
        <ele>1771.9</ele>
        <time>2022-02-13T13:05:51Z</time>
      </trkpt>
      <trkpt lat="3.3686740" lon="-76.6073070">
        <ele>1772.4</ele>
        <time>2022-02-13T13:05:54Z</time>
      </trkpt>
      <trkpt lat="3.3686150" lon="-76.6072340">
        <ele>1773.8</ele>
        <time>2022-02-13T13:06:04Z</time>
      </trkpt>
      <trkpt lat="3.3685740" lon="-76.6072070">
        <ele>1774.6</ele>
        <time>2022-02-13T13:06:09Z</time>
      </trkpt>
      <trkpt lat="3.3685700" lon="-76.6072040">
        <ele>1774.7</ele>
        <time>2022-02-13T13:06:11Z</time>
      </trkpt>
      <trkpt lat="3.3685710" lon="-76.6072010">
        <ele>1774.7</ele>
        <time>2022-02-13T13:06:12Z</time>
      </trkpt>
      <trkpt lat="3.3685830" lon="-76.6071920">
        <ele>1774.9</ele>
        <time>2022-02-13T13:06:14Z</time>
      </trkpt>
      <trkpt lat="3.3686050" lon="-76.6071750">
        <ele>1775.3</ele>
        <time>2022-02-13T13:06:18Z</time>
      </trkpt>
      <trkpt lat="3.3686190" lon="-76.6071630">
        <ele>1775.6</ele>
        <time>2022-02-13T13:06:27Z</time>
      </trkpt>
      <trkpt lat="3.3686190" lon="-76.6071630">
        <ele>1775.6</ele>
        <time>2022-02-13T13:06:31Z</time>
      </trkpt>
      <trkpt lat="3.3686180" lon="-76.6071640">
        <ele>1775.6</ele>
        <time>2022-02-13T13:06:35Z</time>
      </trkpt>
      <trkpt lat="3.3686170" lon="-76.6071650">
        <ele>1775.6</ele>
        <time>2022-02-13T13:06:40Z</time>
      </trkpt>
      <trkpt lat="3.3686160" lon="-76.6071680">
        <ele>1775.7</ele>
        <time>2022-02-13T13:06:46Z</time>
      </trkpt>
      <trkpt lat="3.3686160" lon="-76.6071680">
        <ele>1775.7</ele>
        <time>2022-02-13T13:06:50Z</time>
      </trkpt>
      <trkpt lat="3.3686150" lon="-76.6071690">
        <ele>1775.7</ele>
        <time>2022-02-13T13:06:53Z</time>
      </trkpt>
      <trkpt lat="3.3686150" lon="-76.6071690">
        <ele>1775.7</ele>
        <time>2022-02-13T13:06:55Z</time>
      </trkpt>
      <trkpt lat="3.3686150" lon="-76.6071690">
        <ele>1775.7</ele>
        <time>2022-02-13T13:06:59Z</time>
      </trkpt>
      <trkpt lat="3.3686140" lon="-76.6071670">
        <ele>1775.7</ele>
        <time>2022-02-13T13:07:09Z</time>
      </trkpt>
      <trkpt lat="3.3686160" lon="-76.6071630">
        <ele>1775.8</ele>
        <time>2022-02-13T13:07:21Z</time>
      </trkpt>
      <trkpt lat="3.3686160" lon="-76.6071620">
        <ele>1775.8</ele>
        <time>2022-02-13T13:07:24Z</time>
      </trkpt>
      <trkpt lat="3.3686200" lon="-76.6071540">
        <ele>1775.9</ele>
        <time>2022-02-13T13:07:50Z</time>
      </trkpt>
      <trkpt lat="3.3686130" lon="-76.6071500">
        <ele>1776.0</ele>
        <time>2022-02-13T13:08:03Z</time>
      </trkpt>
      <trkpt lat="3.3686100" lon="-76.6071520">
        <ele>1776.1</ele>
        <time>2022-02-13T13:08:20Z</time>
      </trkpt>
      <trkpt lat="3.3685810" lon="-76.6071540">
        <ele>1776.5</ele>
        <time>2022-02-13T13:08:30Z</time>
      </trkpt>
      <trkpt lat="3.3685690" lon="-76.6071540">
        <ele>1776.7</ele>
        <time>2022-02-13T13:08:45Z</time>
      </trkpt>
      <trkpt lat="3.3685690" lon="-76.6071540">
        <ele>1776.7</ele>
        <time>2022-02-13T13:08:48Z</time>
      </trkpt>
      <trkpt lat="3.3685830" lon="-76.6071660">
        <ele>1776.9</ele>
        <time>2022-02-13T13:09:06Z</time>
      </trkpt>
      <trkpt lat="3.3686180" lon="-76.6071650">
        <ele>1777.4</ele>
        <time>2022-02-13T13:10:50Z</time>
      </trkpt>
      <trkpt lat="3.3686180" lon="-76.6071650">
        <ele>1777.4</ele>
        <time>2022-02-13T13:10:51Z</time>
      </trkpt>
      <trkpt lat="3.3686170" lon="-76.6071650">
        <ele>1777.4</ele>
        <time>2022-02-13T13:10:57Z</time>
      </trkpt>
      <trkpt lat="3.3685690" lon="-76.6071750">
        <ele>1778.1</ele>
        <time>2022-02-13T13:11:04Z</time>
      </trkpt>
      <trkpt lat="3.3685560" lon="-76.6071810">
        <ele>1778.3</ele>
        <time>2022-02-13T13:11:05Z</time>
      </trkpt>
      <trkpt lat="3.3684490" lon="-76.6072180">
        <ele>1780.0</ele>
        <time>2022-02-13T13:11:13Z</time>
      </trkpt>
      <trkpt lat="3.3684280" lon="-76.6072290">
        <ele>1780.4</ele>
        <time>2022-02-13T13:11:15Z</time>
      </trkpt>
      <trkpt lat="3.3683830" lon="-76.6072850">
        <ele>1781.7</ele>
        <time>2022-02-13T13:11:21Z</time>
      </trkpt>
      <trkpt lat="3.3683770" lon="-76.6072930">
        <ele>1781.8</ele>
        <time>2022-02-13T13:11:22Z</time>
      </trkpt>
      <trkpt lat="3.3683680" lon="-76.6073090">
        <ele>1782.2</ele>
        <time>2022-02-13T13:11:24Z</time>
      </trkpt>
      <trkpt lat="3.3683320" lon="-76.6073740">
        <ele>1783.5</ele>
        <time>2022-02-13T13:11:32Z</time>
      </trkpt>
      <trkpt lat="3.3683240" lon="-76.6073980">
        <ele>1784.0</ele>
        <time>2022-02-13T13:11:35Z</time>
      </trkpt>
      <trkpt lat="3.3683170" lon="-76.6074350">
        <ele>1784.7</ele>
        <time>2022-02-13T13:11:39Z</time>
      </trkpt>
      <trkpt lat="3.3683170" lon="-76.6074700">
        <ele>1785.4</ele>
        <time>2022-02-13T13:11:43Z</time>
      </trkpt>
      <trkpt lat="3.3683210" lon="-76.6074990">
        <ele>1786.0</ele>
        <time>2022-02-13T13:11:46Z</time>
      </trkpt>
      <trkpt lat="3.3683270" lon="-76.6075250">
        <ele>1786.5</ele>
        <time>2022-02-13T13:11:49Z</time>
      </trkpt>
      <trkpt lat="3.3683390" lon="-76.6075540">
        <ele>1787.1</ele>
        <time>2022-02-13T13:11:52Z</time>
      </trkpt>
      <trkpt lat="3.3683450" lon="-76.6075700">
        <ele>1787.4</ele>
        <time>2022-02-13T13:11:54Z</time>
      </trkpt>
      <trkpt lat="3.3683620" lon="-76.6076080">
        <ele>1788.2</ele>
        <time>2022-02-13T13:11:58Z</time>
      </trkpt>
      <trkpt lat="3.3683870" lon="-76.6076600">
        <ele>1789.3</ele>
        <time>2022-02-13T13:12:05Z</time>
      </trkpt>
      <trkpt lat="3.3684230" lon="-76.6077330">
        <ele>1790.9</ele>
        <time>2022-02-13T13:12:15Z</time>
      </trkpt>
      <trkpt lat="3.3684450" lon="-76.6077810">
        <ele>1792.0</ele>
        <time>2022-02-13T13:12:24Z</time>
      </trkpt>
      <trkpt lat="3.3684470" lon="-76.6077870">
        <ele>1792.1</ele>
        <time>2022-02-13T13:12:25Z</time>
      </trkpt>
      <trkpt lat="3.3684510" lon="-76.6078380">
        <ele>1793.0</ele>
        <time>2022-02-13T13:12:32Z</time>
      </trkpt>
      <trkpt lat="3.3684520" lon="-76.6078470">
        <ele>1793.2</ele>
        <time>2022-02-13T13:12:33Z</time>
      </trkpt>
      <trkpt lat="3.3684590" lon="-76.6078580">
        <ele>1793.5</ele>
        <time>2022-02-13T13:12:35Z</time>
      </trkpt>
      <trkpt lat="3.3684630" lon="-76.6078810">
        <ele>1793.9</ele>
        <time>2022-02-13T13:12:38Z</time>
      </trkpt>
      <trkpt lat="3.3684680" lon="-76.6079370">
        <ele>1794.9</ele>
        <time>2022-02-13T13:12:44Z</time>
      </trkpt>
      <trkpt lat="3.3684750" lon="-76.6079470">
        <ele>1795.1</ele>
        <time>2022-02-13T13:12:47Z</time>
      </trkpt>
      <trkpt lat="3.3684800" lon="-76.6079670">
        <ele>1795.5</ele>
        <time>2022-02-13T13:12:49Z</time>
      </trkpt>
      <trkpt lat="3.3684840" lon="-76.6079750">
        <ele>1795.6</ele>
        <time>2022-02-13T13:12:50Z</time>
      </trkpt>
      <trkpt lat="3.3684900" lon="-76.6080250">
        <ele>1796.5</ele>
        <time>2022-02-13T13:12:55Z</time>
      </trkpt>
      <trkpt lat="3.3685060" lon="-76.6080850">
        <ele>1797.5</ele>
        <time>2022-02-13T13:13:02Z</time>
      </trkpt>
      <trkpt lat="3.3685150" lon="-76.6080980">
        <ele>1797.7</ele>
        <time>2022-02-13T13:13:04Z</time>
      </trkpt>
      <trkpt lat="3.3685300" lon="-76.6081280">
        <ele>1798.2</ele>
        <time>2022-02-13T13:13:08Z</time>
      </trkpt>
      <trkpt lat="3.3685350" lon="-76.6081340">
        <ele>1798.4</ele>
        <time>2022-02-13T13:13:09Z</time>
      </trkpt>
      <trkpt lat="3.3686120" lon="-76.6082140">
        <ele>1799.9</ele>
        <time>2022-02-13T13:13:19Z</time>
      </trkpt>
      <trkpt lat="3.3686380" lon="-76.6082500">
        <ele>1800.5</ele>
        <time>2022-02-13T13:13:24Z</time>
      </trkpt>
      <trkpt lat="3.3686440" lon="-76.6082580">
        <ele>1800.7</ele>
        <time>2022-02-13T13:13:26Z</time>
      </trkpt>
      <trkpt lat="3.3686520" lon="-76.6082710">
        <ele>1801.0</ele>
        <time>2022-02-13T13:13:28Z</time>
      </trkpt>
      <trkpt lat="3.3686730" lon="-76.6083560">
        <ele>1802.2</ele>
        <time>2022-02-13T13:13:38Z</time>
      </trkpt>
      <trkpt lat="3.3686830" lon="-76.6083770">
        <ele>1802.6</ele>
        <time>2022-02-13T13:13:40Z</time>
      </trkpt>
      <trkpt lat="3.3686910" lon="-76.6084050">
        <ele>1803.0</ele>
        <time>2022-02-13T13:13:43Z</time>
      </trkpt>
      <trkpt lat="3.3687050" lon="-76.6084400">
        <ele>1803.5</ele>
        <time>2022-02-13T13:13:47Z</time>
      </trkpt>
      <trkpt lat="3.3686950" lon="-76.6084960">
        <ele>1804.4</ele>
        <time>2022-02-13T13:13:53Z</time>
      </trkpt>
      <trkpt lat="3.3686910" lon="-76.6085170">
        <ele>1804.7</ele>
        <time>2022-02-13T13:13:55Z</time>
      </trkpt>
      <trkpt lat="3.3686970" lon="-76.6085740">
        <ele>1805.6</ele>
        <time>2022-02-13T13:14:02Z</time>
      </trkpt>
      <trkpt lat="3.3686970" lon="-76.6085810">
        <ele>1805.7</ele>
        <time>2022-02-13T13:14:03Z</time>
      </trkpt>
      <trkpt lat="3.3686940" lon="-76.6086250">
        <ele>1806.5</ele>
        <time>2022-02-13T13:14:08Z</time>
      </trkpt>
      <trkpt lat="3.3687050" lon="-76.6086530">
        <ele>1807.0</ele>
        <time>2022-02-13T13:14:11Z</time>
      </trkpt>
      <trkpt lat="3.3687110" lon="-76.6086690">
        <ele>1807.3</ele>
        <time>2022-02-13T13:14:14Z</time>
      </trkpt>
      <trkpt lat="3.3687100" lon="-76.6086840">
        <ele>1807.6</ele>
        <time>2022-02-13T13:14:16Z</time>
      </trkpt>
      <trkpt lat="3.3687140" lon="-76.6087030">
        <ele>1807.9</ele>
        <time>2022-02-13T13:14:18Z</time>
      </trkpt>
      <trkpt lat="3.3687270" lon="-76.6087260">
        <ele>1808.4</ele>
        <time>2022-02-13T13:14:21Z</time>
      </trkpt>
      <trkpt lat="3.3687340" lon="-76.6087510">
        <ele>1808.8</ele>
        <time>2022-02-13T13:14:24Z</time>
      </trkpt>
      <trkpt lat="3.3687410" lon="-76.6087700">
        <ele>1809.2</ele>
        <time>2022-02-13T13:14:26Z</time>
      </trkpt>
      <trkpt lat="3.3687810" lon="-76.6088590">
        <ele>1810.9</ele>
        <time>2022-02-13T13:14:35Z</time>
      </trkpt>
      <trkpt lat="3.3688020" lon="-76.6089610">
        <ele>1812.7</ele>
        <time>2022-02-13T13:14:46Z</time>
      </trkpt>
      <trkpt lat="3.3688130" lon="-76.6090390">
        <ele>1814.0</ele>
        <time>2022-02-13T13:14:55Z</time>
      </trkpt>
      <trkpt lat="3.3688130" lon="-76.6090490">
        <ele>1814.1</ele>
        <time>2022-02-13T13:14:56Z</time>
      </trkpt>
      <trkpt lat="3.3688000" lon="-76.6091630">
        <ele>1815.8</ele>
        <time>2022-02-13T13:15:06Z</time>
      </trkpt>
      <trkpt lat="3.3687980" lon="-76.6092650">
        <ele>1817.0</ele>
        <time>2022-02-13T13:15:15Z</time>
      </trkpt>
      <trkpt lat="3.3687870" lon="-76.6093650">
        <ele>1818.0</ele>
        <time>2022-02-13T13:15:25Z</time>
      </trkpt>
      <trkpt lat="3.3687830" lon="-76.6093850">
        <ele>1818.1</ele>
        <time>2022-02-13T13:15:29Z</time>
      </trkpt>
      <trkpt lat="3.3687820" lon="-76.6093810">
        <ele>1818.2</ele>
        <time>2022-02-13T13:15:31Z</time>
      </trkpt>
      <trkpt lat="3.3687860" lon="-76.6093820">
        <ele>1818.2</ele>
        <time>2022-02-13T13:15:40Z</time>
      </trkpt>
      <trkpt lat="3.3687860" lon="-76.6093840">
        <ele>1818.2</ele>
        <time>2022-02-13T13:15:44Z</time>
      </trkpt>
      <trkpt lat="3.3687860" lon="-76.6093840">
        <ele>1818.2</ele>
        <time>2022-02-13T13:15:47Z</time>
      </trkpt>
      <trkpt lat="3.3687860" lon="-76.6093840">
        <ele>1818.2</ele>
        <time>2022-02-13T13:15:50Z</time>
      </trkpt>
      <trkpt lat="3.3687860" lon="-76.6093840">
        <ele>1818.2</ele>
        <time>2022-02-13T13:15:52Z</time>
      </trkpt>
      <trkpt lat="3.3687860" lon="-76.6093840">
        <ele>1818.2</ele>
        <time>2022-02-13T13:15:59Z</time>
      </trkpt>
      <trkpt lat="3.3687410" lon="-76.6094260">
        <ele>1818.6</ele>
        <time>2022-02-13T13:16:04Z</time>
      </trkpt>
      <trkpt lat="3.3686910" lon="-76.6095160">
        <ele>1818.6</ele>
        <time>2022-02-13T13:16:11Z</time>
      </trkpt>
      <trkpt lat="3.3686900" lon="-76.6095250">
        <ele>1818.6</ele>
        <time>2022-02-13T13:16:12Z</time>
      </trkpt>
      <trkpt lat="3.3686860" lon="-76.6095630">
        <ele>1818.6</ele>
        <time>2022-02-13T13:16:15Z</time>
      </trkpt>
      <trkpt lat="3.3686920" lon="-76.6095650">
        <ele>1818.6</ele>
        <time>2022-02-13T13:16:18Z</time>
      </trkpt>
      <trkpt lat="3.3686930" lon="-76.6095630">
        <ele>1818.6</ele>
        <time>2022-02-13T13:16:19Z</time>
      </trkpt>
      <trkpt lat="3.3686910" lon="-76.6095630">
        <ele>1818.6</ele>
        <time>2022-02-13T13:16:20Z</time>
      </trkpt>
      <trkpt lat="3.3688440" lon="-76.6093820">
        <ele>1825.6</ele>
        <time>2022-02-13T13:22:21Z</time>
      </trkpt>
      <trkpt lat="3.3688430" lon="-76.6093820">
        <ele>1825.6</ele>
        <time>2022-02-13T13:22:22Z</time>
      </trkpt>
      <trkpt lat="3.3688430" lon="-76.6093820">
        <ele>1825.6</ele>
        <time>2022-02-13T13:22:24Z</time>
      </trkpt>
      <trkpt lat="3.3688370" lon="-76.6093790">
        <ele>1825.6</ele>
        <time>2022-02-13T13:22:31Z</time>
      </trkpt>
      <trkpt lat="3.3688710" lon="-76.6093970">
        <ele>1825.9</ele>
        <time>2022-02-13T13:22:37Z</time>
      </trkpt>
      <trkpt lat="3.3688800" lon="-76.6094020">
        <ele>1826.0</ele>
        <time>2022-02-13T13:22:38Z</time>
      </trkpt>
      <trkpt lat="3.3689400" lon="-76.6094380">
        <ele>1826.4</ele>
        <time>2022-02-13T13:22:45Z</time>
      </trkpt>
      <trkpt lat="3.3689750" lon="-76.6094270">
        <ele>1827.5</ele>
        <time>2022-02-13T13:22:53Z</time>
      </trkpt>
      <trkpt lat="3.3689760" lon="-76.6094290">
        <ele>1827.5</ele>
        <time>2022-02-13T13:22:54Z</time>
      </trkpt>
      <trkpt lat="3.3689780" lon="-76.6094340">
        <ele>1827.5</ele>
        <time>2022-02-13T13:22:55Z</time>
      </trkpt>
      <trkpt lat="3.3689810" lon="-76.6094420">
        <ele>1827.5</ele>
        <time>2022-02-13T13:22:56Z</time>
      </trkpt>
      <trkpt lat="3.3689870" lon="-76.6094570">
        <ele>1827.5</ele>
        <time>2022-02-13T13:22:58Z</time>
      </trkpt>
      <trkpt lat="3.3690060" lon="-76.6094740">
        <ele>1827.5</ele>
        <time>2022-02-13T13:23:01Z</time>
      </trkpt>
      <trkpt lat="3.3690230" lon="-76.6094860">
        <ele>1827.6</ele>
        <time>2022-02-13T13:23:03Z</time>
      </trkpt>
      <trkpt lat="3.3690380" lon="-76.6095210">
        <ele>1827.6</ele>
        <time>2022-02-13T13:24:06Z</time>
      </trkpt>
      <trkpt lat="3.3690360" lon="-76.6095250">
        <ele>1827.7</ele>
        <time>2022-02-13T13:24:09Z</time>
      </trkpt>
      <trkpt lat="3.3690200" lon="-76.6095240">
        <ele>1827.7</ele>
        <time>2022-02-13T13:24:12Z</time>
      </trkpt>
      <trkpt lat="3.3689980" lon="-76.6095150">
        <ele>1827.7</ele>
        <time>2022-02-13T13:24:18Z</time>
      </trkpt>
      <trkpt lat="3.3689810" lon="-76.6095000">
        <ele>1827.8</ele>
        <time>2022-02-13T13:24:29Z</time>
      </trkpt>
      <trkpt lat="3.3689070" lon="-76.6094340">
        <ele>1824.8</ele>
        <time>2022-02-13T13:24:36Z</time>
      </trkpt>
      <trkpt lat="3.3688040" lon="-76.6094340">
        <ele>1820.2</ele>
        <time>2022-02-13T13:24:44Z</time>
      </trkpt>
      <trkpt lat="3.3687970" lon="-76.6094370">
        <ele>1819.8</ele>
        <time>2022-02-13T13:24:45Z</time>
      </trkpt>
      <trkpt lat="3.3687820" lon="-76.6094370">
        <ele>1819.1</ele>
        <time>2022-02-13T13:24:50Z</time>
      </trkpt>
      <trkpt lat="3.3687590" lon="-76.6094490">
        <ele>1818.8</ele>
        <time>2022-02-13T13:24:54Z</time>
      </trkpt>
      <trkpt lat="3.3687440" lon="-76.6094630">
        <ele>1819.0</ele>
        <time>2022-02-13T13:24:56Z</time>
      </trkpt>
      <trkpt lat="3.3687150" lon="-76.6095130">
        <ele>1819.6</ele>
        <time>2022-02-13T13:25:02Z</time>
      </trkpt>
      <trkpt lat="3.3686790" lon="-76.6096070">
        <ele>1820.5</ele>
        <time>2022-02-13T13:25:11Z</time>
      </trkpt>
      <trkpt lat="3.3686710" lon="-76.6096560">
        <ele>1820.9</ele>
        <time>2022-02-13T13:25:15Z</time>
      </trkpt>
      <trkpt lat="3.3686620" lon="-76.6097080">
        <ele>1821.3</ele>
        <time>2022-02-13T13:25:21Z</time>
      </trkpt>
      <trkpt lat="3.3686500" lon="-76.6097330">
        <ele>1821.7</ele>
        <time>2022-02-13T13:25:23Z</time>
      </trkpt>
      <trkpt lat="3.3686070" lon="-76.6098170">
        <ele>1822.2</ele>
        <time>2022-02-13T13:25:32Z</time>
      </trkpt>
      <trkpt lat="3.3685890" lon="-76.6098650">
        <ele>1822.5</ele>
        <time>2022-02-13T13:25:37Z</time>
      </trkpt>
      <trkpt lat="3.3685720" lon="-76.6098780">
        <ele>1822.7</ele>
        <time>2022-02-13T13:25:39Z</time>
      </trkpt>
      <trkpt lat="3.3685580" lon="-76.6098910">
        <ele>1822.8</ele>
        <time>2022-02-13T13:25:41Z</time>
      </trkpt>
      <trkpt lat="3.3684940" lon="-76.6100140">
        <ele>1823.7</ele>
        <time>2022-02-13T13:25:52Z</time>
      </trkpt>
      <trkpt lat="3.3684830" lon="-76.6100510">
        <ele>1824.0</ele>
        <time>2022-02-13T13:25:55Z</time>
      </trkpt>
      <trkpt lat="3.3684810" lon="-76.6100610">
        <ele>1824.1</ele>
        <time>2022-02-13T13:25:56Z</time>
      </trkpt>
      <trkpt lat="3.3684630" lon="-76.6100910">
        <ele>1824.3</ele>
        <time>2022-02-13T13:25:59Z</time>
      </trkpt>
      <trkpt lat="3.3684530" lon="-76.6101130">
        <ele>1824.5</ele>
        <time>2022-02-13T13:26:01Z</time>
      </trkpt>
      <trkpt lat="3.3684450" lon="-76.6101350">
        <ele>1824.7</ele>
        <time>2022-02-13T13:26:03Z</time>
      </trkpt>
      <trkpt lat="3.3684360" lon="-76.6101470">
        <ele>1824.8</ele>
        <time>2022-02-13T13:26:05Z</time>
      </trkpt>
      <trkpt lat="3.3684210" lon="-76.6101640">
        <ele>1825.0</ele>
        <time>2022-02-13T13:26:07Z</time>
      </trkpt>
      <trkpt lat="3.3684140" lon="-76.6101760">
        <ele>1825.1</ele>
        <time>2022-02-13T13:26:08Z</time>
      </trkpt>
      <trkpt lat="3.3684060" lon="-76.6101930">
        <ele>1825.3</ele>
        <time>2022-02-13T13:26:10Z</time>
      </trkpt>
      <trkpt lat="3.3684010" lon="-76.6101990">
        <ele>1825.4</ele>
        <time>2022-02-13T13:26:11Z</time>
      </trkpt>
      <trkpt lat="3.3683870" lon="-76.6102320">
        <ele>1825.7</ele>
        <time>2022-02-13T13:26:14Z</time>
      </trkpt>
      <trkpt lat="3.3683690" lon="-76.6102820">
        <ele>1826.2</ele>
        <time>2022-02-13T13:26:19Z</time>
      </trkpt>
      <trkpt lat="3.3683480" lon="-76.6103330">
        <ele>1826.7</ele>
        <time>2022-02-13T13:26:24Z</time>
      </trkpt>
      <trkpt lat="3.3683360" lon="-76.6103630">
        <ele>1827.0</ele>
        <time>2022-02-13T13:26:27Z</time>
      </trkpt>
      <trkpt lat="3.3683310" lon="-76.6103820">
        <ele>1827.2</ele>
        <time>2022-02-13T13:26:29Z</time>
      </trkpt>
      <trkpt lat="3.3683190" lon="-76.6104160">
        <ele>1827.6</ele>
        <time>2022-02-13T13:26:32Z</time>
      </trkpt>
      <trkpt lat="3.3683020" lon="-76.6104540">
        <ele>1828.0</ele>
        <time>2022-02-13T13:26:36Z</time>
      </trkpt>
      <trkpt lat="3.3682440" lon="-76.6105090">
        <ele>1828.9</ele>
        <time>2022-02-13T13:26:43Z</time>
      </trkpt>
      <trkpt lat="3.3681500" lon="-76.6105830">
        <ele>1830.1</ele>
        <time>2022-02-13T13:26:53Z</time>
      </trkpt>
      <trkpt lat="3.3681250" lon="-76.6106090">
        <ele>1830.5</ele>
        <time>2022-02-13T13:26:56Z</time>
      </trkpt>
      <trkpt lat="3.3680870" lon="-76.6106210">
        <ele>1830.9</ele>
        <time>2022-02-13T13:26:59Z</time>
      </trkpt>
      <trkpt lat="3.3680310" lon="-76.6106840">
        <ele>1831.7</ele>
        <time>2022-02-13T13:27:06Z</time>
      </trkpt>
      <trkpt lat="3.3679850" lon="-76.6107270">
        <ele>1832.2</ele>
        <time>2022-02-13T13:27:11Z</time>
      </trkpt>
      <trkpt lat="3.3679670" lon="-76.6107330">
        <ele>1832.4</ele>
        <time>2022-02-13T13:27:13Z</time>
      </trkpt>
      <trkpt lat="3.3679360" lon="-76.6107490">
        <ele>1832.7</ele>
        <time>2022-02-13T13:27:16Z</time>
      </trkpt>
      <trkpt lat="3.3679050" lon="-76.6107850">
        <ele>1833.0</ele>
        <time>2022-02-13T13:27:20Z</time>
      </trkpt>
      <trkpt lat="3.3678880" lon="-76.6108130">
        <ele>1833.3</ele>
        <time>2022-02-13T13:27:23Z</time>
      </trkpt>
      <trkpt lat="3.3678820" lon="-76.6108280">
        <ele>1833.4</ele>
        <time>2022-02-13T13:27:24Z</time>
      </trkpt>
      <trkpt lat="3.3678660" lon="-76.6108490">
        <ele>1833.5</ele>
        <time>2022-02-13T13:27:26Z</time>
      </trkpt>
      <trkpt lat="3.3678470" lon="-76.6108930">
        <ele>1833.8</ele>
        <time>2022-02-13T13:27:30Z</time>
      </trkpt>
      <trkpt lat="3.3677970" lon="-76.6109540">
        <ele>1834.3</ele>
        <time>2022-02-13T13:27:38Z</time>
      </trkpt>
      <trkpt lat="3.3677830" lon="-76.6109730">
        <ele>1834.4</ele>
        <time>2022-02-13T13:27:43Z</time>
      </trkpt>
      <trkpt lat="3.3677820" lon="-76.6109720">
        <ele>1834.4</ele>
        <time>2022-02-13T13:27:45Z</time>
      </trkpt>
      <trkpt lat="3.3677800" lon="-76.6109710">
        <ele>1834.4</ele>
        <time>2022-02-13T13:27:49Z</time>
      </trkpt>
      <trkpt lat="3.3677810" lon="-76.6109720">
        <ele>1834.4</ele>
        <time>2022-02-13T13:27:50Z</time>
      </trkpt>
      <trkpt lat="3.3677820" lon="-76.6109720">
        <ele>1834.4</ele>
        <time>2022-02-13T13:27:51Z</time>
      </trkpt>
      <trkpt lat="3.3677820" lon="-76.6109720">
        <ele>1834.4</ele>
        <time>2022-02-13T13:27:54Z</time>
      </trkpt>
      <trkpt lat="3.3677820" lon="-76.6109720">
        <ele>1834.4</ele>
        <time>2022-02-13T13:27:55Z</time>
      </trkpt>
      <trkpt lat="3.3677730" lon="-76.6109650">
        <ele>1834.5</ele>
        <time>2022-02-13T13:28:23Z</time>
      </trkpt>
      <trkpt lat="3.3677720" lon="-76.6109630">
        <ele>1834.5</ele>
        <time>2022-02-13T13:28:26Z</time>
      </trkpt>
      <trkpt lat="3.3677720" lon="-76.6109630">
        <ele>1834.5</ele>
        <time>2022-02-13T13:28:27Z</time>
      </trkpt>
      <trkpt lat="3.3677720" lon="-76.6109630">
        <ele>1834.5</ele>
        <time>2022-02-13T13:28:30Z</time>
      </trkpt>
      <trkpt lat="3.3677720" lon="-76.6109630">
        <ele>1834.5</ele>
        <time>2022-02-13T13:28:34Z</time>
      </trkpt>
      <trkpt lat="3.3677720" lon="-76.6109630">
        <ele>1834.5</ele>
        <time>2022-02-13T13:28:35Z</time>
      </trkpt>
      <trkpt lat="3.3677560" lon="-76.6109740">
        <ele>1834.6</ele>
        <time>2022-02-13T13:30:08Z</time>
      </trkpt>
      <trkpt lat="3.3677630" lon="-76.6109610">
        <ele>1834.7</ele>
        <time>2022-02-13T13:30:12Z</time>
      </trkpt>
      <trkpt lat="3.3677760" lon="-76.6109330">
        <ele>1834.8</ele>
        <time>2022-02-13T13:30:15Z</time>
      </trkpt>
      <trkpt lat="3.3678130" lon="-76.6108890">
        <ele>1834.9</ele>
        <time>2022-02-13T13:30:21Z</time>
      </trkpt>
      <trkpt lat="3.3678200" lon="-76.6108810">
        <ele>1835.0</ele>
        <time>2022-02-13T13:30:22Z</time>
      </trkpt>
      <trkpt lat="3.3678860" lon="-76.6108190">
        <ele>1834.7</ele>
        <time>2022-02-13T13:30:31Z</time>
      </trkpt>
      <trkpt lat="3.3679500" lon="-76.6107470">
        <ele>1834.1</ele>
        <time>2022-02-13T13:30:39Z</time>
      </trkpt>
      <trkpt lat="3.3679610" lon="-76.6107430">
        <ele>1834.0</ele>
        <time>2022-02-13T13:30:40Z</time>
      </trkpt>
      <trkpt lat="3.3680060" lon="-76.6107260">
        <ele>1833.7</ele>
        <time>2022-02-13T13:30:45Z</time>
      </trkpt>
      <trkpt lat="3.3680130" lon="-76.6107250">
        <ele>1833.7</ele>
        <time>2022-02-13T13:30:46Z</time>
      </trkpt>
      <trkpt lat="3.3680390" lon="-76.6107070">
        <ele>1833.4</ele>
        <time>2022-02-13T13:30:49Z</time>
      </trkpt>
      <trkpt lat="3.3680650" lon="-76.6106820">
        <ele>1833.1</ele>
        <time>2022-02-13T13:30:52Z</time>
      </trkpt>
      <trkpt lat="3.3680810" lon="-76.6106650">
        <ele>1833.0</ele>
        <time>2022-02-13T13:30:54Z</time>
      </trkpt>
      <trkpt lat="3.3681380" lon="-76.6106090">
        <ele>1832.2</ele>
        <time>2022-02-13T13:31:04Z</time>
      </trkpt>
      <trkpt lat="3.3681190" lon="-76.6106070">
        <ele>1832.1</ele>
        <time>2022-02-13T13:31:08Z</time>
      </trkpt>
      <trkpt lat="3.3681210" lon="-76.6106070">
        <ele>1832.0</ele>
        <time>2022-02-13T13:31:12Z</time>
      </trkpt>
      <trkpt lat="3.3681270" lon="-76.6106030">
        <ele>1832.0</ele>
        <time>2022-02-13T13:31:15Z</time>
      </trkpt>
      <trkpt lat="3.3681550" lon="-76.6105760">
        <ele>1831.5</ele>
        <time>2022-02-13T13:31:21Z</time>
      </trkpt>
      <trkpt lat="3.3681850" lon="-76.6105570">
        <ele>1831.2</ele>
        <time>2022-02-13T13:31:24Z</time>
      </trkpt>
      <trkpt lat="3.3681940" lon="-76.6105510">
        <ele>1831.1</ele>
        <time>2022-02-13T13:31:25Z</time>
      </trkpt>
      <trkpt lat="3.3682090" lon="-76.6105360">
        <ele>1830.8</ele>
        <time>2022-02-13T13:31:27Z</time>
      </trkpt>
      <trkpt lat="3.3682490" lon="-76.6105130">
        <ele>1830.3</ele>
        <time>2022-02-13T13:31:31Z</time>
      </trkpt>
      <trkpt lat="3.3682740" lon="-76.6105000">
        <ele>1830.0</ele>
        <time>2022-02-13T13:31:34Z</time>
      </trkpt>
      <trkpt lat="3.3682870" lon="-76.6104970">
        <ele>1829.8</ele>
        <time>2022-02-13T13:31:35Z</time>
      </trkpt>
      <trkpt lat="3.3683100" lon="-76.6105020">
        <ele>1829.5</ele>
        <time>2022-02-13T13:31:38Z</time>
      </trkpt>
      <trkpt lat="3.3683120" lon="-76.6105000">
        <ele>1829.5</ele>
        <time>2022-02-13T13:31:39Z</time>
      </trkpt>
      <trkpt lat="3.3683110" lon="-76.6104960">
        <ele>1829.4</ele>
        <time>2022-02-13T13:31:41Z</time>
      </trkpt>
      <trkpt lat="3.3683140" lon="-76.6104870">
        <ele>1829.3</ele>
        <time>2022-02-13T13:31:45Z</time>
      </trkpt>
      <trkpt lat="3.3683240" lon="-76.6104610">
        <ele>1829.0</ele>
        <time>2022-02-13T13:31:53Z</time>
      </trkpt>
      <trkpt lat="3.3683560" lon="-76.6104030">
        <ele>1828.2</ele>
        <time>2022-02-13T13:32:02Z</time>
      </trkpt>
      <trkpt lat="3.3683860" lon="-76.6103020">
        <ele>1827.0</ele>
        <time>2022-02-13T13:32:12Z</time>
      </trkpt>
      <trkpt lat="3.3684260" lon="-76.6102010">
        <ele>1825.8</ele>
        <time>2022-02-13T13:32:21Z</time>
      </trkpt>
      <trkpt lat="3.3684750" lon="-76.6100900">
        <ele>1824.6</ele>
        <time>2022-02-13T13:32:34Z</time>
      </trkpt>
      <trkpt lat="3.3684880" lon="-76.6100600">
        <ele>1824.3</ele>
        <time>2022-02-13T13:32:37Z</time>
      </trkpt>
      <trkpt lat="3.3685230" lon="-76.6100130">
        <ele>1823.8</ele>
        <time>2022-02-13T13:32:44Z</time>
      </trkpt>
      <trkpt lat="3.3685390" lon="-76.6099780">
        <ele>1823.5</ele>
        <time>2022-02-13T13:32:47Z</time>
      </trkpt>
      <trkpt lat="3.3685650" lon="-76.6099410">
        <ele>1823.2</ele>
        <time>2022-02-13T13:32:52Z</time>
      </trkpt>
      <trkpt lat="3.3686120" lon="-76.6098860">
        <ele>1822.6</ele>
        <time>2022-02-13T13:32:59Z</time>
      </trkpt>
      <trkpt lat="3.3686760" lon="-76.6097810">
        <ele>1821.8</ele>
        <time>2022-02-13T13:33:10Z</time>
      </trkpt>
      <trkpt lat="3.3687200" lon="-76.6096540">
        <ele>1820.8</ele>
        <time>2022-02-13T13:33:21Z</time>
      </trkpt>
      <trkpt lat="3.3687450" lon="-76.6095970">
        <ele>1820.3</ele>
        <time>2022-02-13T13:33:27Z</time>
      </trkpt>
      <trkpt lat="3.3687570" lon="-76.6095690">
        <ele>1820.0</ele>
        <time>2022-02-13T13:33:30Z</time>
      </trkpt>
      <trkpt lat="3.3688030" lon="-76.6094570">
        <ele>1818.9</ele>
        <time>2022-02-13T13:33:41Z</time>
      </trkpt>
      <trkpt lat="3.3688750" lon="-76.6094040">
        <ele>1823.5</ele>
        <time>2022-02-13T13:33:50Z</time>
      </trkpt>
      <trkpt lat="3.3689140" lon="-76.6093990">
        <ele>1825.2</ele>
        <time>2022-02-13T13:33:55Z</time>
      </trkpt>
      <trkpt lat="3.3689250" lon="-76.6094000">
        <ele>1825.9</ele>
        <time>2022-02-13T13:33:57Z</time>
      </trkpt>
      <trkpt lat="3.3689500" lon="-76.6094070">
        <ele>1826.7</ele>
        <time>2022-02-13T13:34:01Z</time>
      </trkpt>
      <trkpt lat="3.3689580" lon="-76.6094120">
        <ele>1827.0</ele>
        <time>2022-02-13T13:34:02Z</time>
      </trkpt>
      <trkpt lat="3.3689930" lon="-76.6094270">
        <ele>1828.1</ele>
        <time>2022-02-13T13:34:06Z</time>
      </trkpt>
      <trkpt lat="3.3690360" lon="-76.6094280">
        <ele>1829.4</ele>
        <time>2022-02-13T13:34:10Z</time>
      </trkpt>
      <trkpt lat="3.3690610" lon="-76.6094210">
        <ele>1830.1</ele>
        <time>2022-02-13T13:34:13Z</time>
      </trkpt>
      <trkpt lat="3.3690970" lon="-76.6094100">
        <ele>1831.1</ele>
        <time>2022-02-13T13:34:17Z</time>
      </trkpt>
      <trkpt lat="3.3691280" lon="-76.6093970">
        <ele>1831.9</ele>
        <time>2022-02-13T13:34:21Z</time>
      </trkpt>
      <trkpt lat="3.3691300" lon="-76.6093980">
        <ele>1832.0</ele>
        <time>2022-02-13T13:34:23Z</time>
      </trkpt>
      <trkpt lat="3.3691300" lon="-76.6093990">
        <ele>1832.0</ele>
        <time>2022-02-13T13:34:24Z</time>
      </trkpt>
      <trkpt lat="3.3691320" lon="-76.6093970">
        <ele>1832.0</ele>
        <time>2022-02-13T13:34:25Z</time>
      </trkpt>
      <trkpt lat="3.3691330" lon="-76.6093860">
        <ele>1832.3</ele>
        <time>2022-02-13T13:34:32Z</time>
      </trkpt>
      <trkpt lat="3.3689520" lon="-76.6094250">
        <ele>1826.7</ele>
        <time>2022-02-13T14:02:17Z</time>
      </trkpt>
      <trkpt lat="3.3689440" lon="-76.6094230">
        <ele>1826.4</ele>
        <time>2022-02-13T14:02:18Z</time>
      </trkpt>
      <trkpt lat="3.3689200" lon="-76.6094050">
        <ele>1825.6</ele>
        <time>2022-02-13T14:02:21Z</time>
      </trkpt>
      <trkpt lat="3.3688900" lon="-76.6093870">
        <ele>1824.4</ele>
        <time>2022-02-13T14:02:25Z</time>
      </trkpt>
      <trkpt lat="3.3688610" lon="-76.6093980">
        <ele>1823.2</ele>
        <time>2022-02-13T14:02:29Z</time>
      </trkpt>
      <trkpt lat="3.3688400" lon="-76.6094010">
        <ele>1822.4</ele>
        <time>2022-02-13T14:02:31Z</time>
      </trkpt>
      <trkpt lat="3.3687490" lon="-76.6094270">
        <ele>1818.7</ele>
        <time>2022-02-13T14:02:38Z</time>
      </trkpt>
      <trkpt lat="3.3686970" lon="-76.6094920">
        <ele>1819.3</ele>
        <time>2022-02-13T14:02:47Z</time>
      </trkpt>
      <trkpt lat="3.3686800" lon="-76.6095440">
        <ele>1819.8</ele>
        <time>2022-02-13T14:02:55Z</time>
      </trkpt>
      <trkpt lat="3.3686720" lon="-76.6096000">
        <ele>1820.3</ele>
        <time>2022-02-13T14:03:02Z</time>
      </trkpt>
      <trkpt lat="3.3686680" lon="-76.6096220">
        <ele>1820.5</ele>
        <time>2022-02-13T14:03:05Z</time>
      </trkpt>
      <trkpt lat="3.3686690" lon="-76.6096440">
        <ele>1820.7</ele>
        <time>2022-02-13T14:03:07Z</time>
      </trkpt>
      <trkpt lat="3.3686780" lon="-76.6096710">
        <ele>1820.9</ele>
        <time>2022-02-13T14:03:12Z</time>
      </trkpt>
      <trkpt lat="3.3686840" lon="-76.6096730">
        <ele>1820.9</ele>
        <time>2022-02-13T14:03:17Z</time>
      </trkpt>
      <trkpt lat="3.3686860" lon="-76.6096690">
        <ele>1821.0</ele>
        <time>2022-02-13T14:03:19Z</time>
      </trkpt>
      <trkpt lat="3.3686880" lon="-76.6096710">
        <ele>1821.0</ele>
        <time>2022-02-13T14:03:22Z</time>
      </trkpt>
      <trkpt lat="3.3686870" lon="-76.6096710">
        <ele>1821.0</ele>
        <time>2022-02-13T14:03:31Z</time>
      </trkpt>
      <trkpt lat="3.3686630" lon="-76.6097070">
        <ele>1821.3</ele>
        <time>2022-02-13T14:03:39Z</time>
      </trkpt>
      <trkpt lat="3.3686400" lon="-76.6097500">
        <ele>1821.8</ele>
        <time>2022-02-13T14:03:42Z</time>
      </trkpt>
      <trkpt lat="3.3686360" lon="-76.6097660">
        <ele>1821.9</ele>
        <time>2022-02-13T14:03:43Z</time>
      </trkpt>
      <trkpt lat="3.3686180" lon="-76.6098280">
        <ele>1822.4</ele>
        <time>2022-02-13T14:03:47Z</time>
      </trkpt>
      <trkpt lat="3.3685670" lon="-76.6099190">
        <ele>1823.1</ele>
        <time>2022-02-13T14:03:57Z</time>
      </trkpt>
      <trkpt lat="3.3685140" lon="-76.6100110">
        <ele>1824.0</ele>
        <time>2022-02-13T14:04:08Z</time>
      </trkpt>
      <trkpt lat="3.3684790" lon="-76.6100790">
        <ele>1824.7</ele>
        <time>2022-02-13T14:04:16Z</time>
      </trkpt>
      <trkpt lat="3.3684480" lon="-76.6101480">
        <ele>1825.4</ele>
        <time>2022-02-13T14:04:24Z</time>
      </trkpt>
      <trkpt lat="3.3684170" lon="-76.6102160">
        <ele>1826.2</ele>
        <time>2022-02-13T14:04:31Z</time>
      </trkpt>
      <trkpt lat="3.3684070" lon="-76.6102360">
        <ele>1826.5</ele>
        <time>2022-02-13T14:04:33Z</time>
      </trkpt>
      <trkpt lat="3.3684000" lon="-76.6102670">
        <ele>1826.8</ele>
        <time>2022-02-13T14:04:36Z</time>
      </trkpt>
      <trkpt lat="3.3683650" lon="-76.6103410">
        <ele>1827.8</ele>
        <time>2022-02-13T14:04:45Z</time>
      </trkpt>
      <trkpt lat="3.3683620" lon="-76.6103490">
        <ele>1827.9</ele>
        <time>2022-02-13T14:04:46Z</time>
      </trkpt>
      <trkpt lat="3.3683310" lon="-76.6104160">
        <ele>1828.8</ele>
        <time>2022-02-13T14:04:54Z</time>
      </trkpt>
      <trkpt lat="3.3683200" lon="-76.6104330">
        <ele>1829.1</ele>
        <time>2022-02-13T14:04:56Z</time>
      </trkpt>
      <trkpt lat="3.3682960" lon="-76.6104750">
        <ele>1829.7</ele>
        <time>2022-02-13T14:05:01Z</time>
      </trkpt>
      <trkpt lat="3.3682880" lon="-76.6104790">
        <ele>1829.8</ele>
        <time>2022-02-13T14:05:02Z</time>
      </trkpt>
      <trkpt lat="3.3682670" lon="-76.6104980">
        <ele>1830.1</ele>
        <time>2022-02-13T14:05:05Z</time>
      </trkpt>
      <trkpt lat="3.3682610" lon="-76.6105050">
        <ele>1830.2</ele>
        <time>2022-02-13T14:05:06Z</time>
      </trkpt>
      <trkpt lat="3.3682550" lon="-76.6105130">
        <ele>1830.4</ele>
        <time>2022-02-13T14:05:07Z</time>
      </trkpt>
      <trkpt lat="3.3682090" lon="-76.6105490">
        <ele>1831.1</ele>
        <time>2022-02-13T14:05:13Z</time>
      </trkpt>
      <trkpt lat="3.3681860" lon="-76.6105720">
        <ele>1831.4</ele>
        <time>2022-02-13T14:05:16Z</time>
      </trkpt>
      <trkpt lat="3.3681710" lon="-76.6105850">
        <ele>1831.6</ele>
        <time>2022-02-13T14:05:18Z</time>
      </trkpt>
      <trkpt lat="3.3681540" lon="-76.6105960">
        <ele>1831.8</ele>
        <time>2022-02-13T14:05:20Z</time>
      </trkpt>
      <trkpt lat="3.3681470" lon="-76.6106020">
        <ele>1831.9</ele>
        <time>2022-02-13T14:05:21Z</time>
      </trkpt>
      <trkpt lat="3.3680880" lon="-76.6106650">
        <ele>1832.8</ele>
        <time>2022-02-13T14:05:29Z</time>
      </trkpt>
      <trkpt lat="3.3680820" lon="-76.6106730">
        <ele>1832.9</ele>
        <time>2022-02-13T14:05:30Z</time>
      </trkpt>
      <trkpt lat="3.3680670" lon="-76.6106850">
        <ele>1833.0</ele>
        <time>2022-02-13T14:05:32Z</time>
      </trkpt>
      <trkpt lat="3.3680270" lon="-76.6107010">
        <ele>1833.4</ele>
        <time>2022-02-13T14:05:36Z</time>
      </trkpt>
      <trkpt lat="3.3680060" lon="-76.6107120">
        <ele>1833.6</ele>
        <time>2022-02-13T14:05:38Z</time>
      </trkpt>
      <trkpt lat="3.3679950" lon="-76.6107170">
        <ele>1833.7</ele>
        <time>2022-02-13T14:05:39Z</time>
      </trkpt>
      <trkpt lat="3.3679660" lon="-76.6107350">
        <ele>1833.9</ele>
        <time>2022-02-13T14:05:42Z</time>
      </trkpt>
      <trkpt lat="3.3679470" lon="-76.6107450">
        <ele>1834.1</ele>
        <time>2022-02-13T14:05:44Z</time>
      </trkpt>
      <trkpt lat="3.3679360" lon="-76.6107500">
        <ele>1834.1</ele>
        <time>2022-02-13T14:05:45Z</time>
      </trkpt>
      <trkpt lat="3.3679270" lon="-76.6107580">
        <ele>1834.2</ele>
        <time>2022-02-13T14:05:46Z</time>
      </trkpt>
      <trkpt lat="3.3679140" lon="-76.6107750">
        <ele>1834.3</ele>
        <time>2022-02-13T14:05:48Z</time>
      </trkpt>
      <trkpt lat="3.3678930" lon="-76.6107970">
        <ele>1834.5</ele>
        <time>2022-02-13T14:05:51Z</time>
      </trkpt>
      <trkpt lat="3.3678590" lon="-76.6108400">
        <ele>1834.8</ele>
        <time>2022-02-13T14:05:56Z</time>
      </trkpt>
      <trkpt lat="3.3678550" lon="-76.6108490">
        <ele>1834.8</ele>
        <time>2022-02-13T14:05:57Z</time>
      </trkpt>
      <trkpt lat="3.3678410" lon="-76.6108760">
        <ele>1834.9</ele>
        <time>2022-02-13T14:06:00Z</time>
      </trkpt>
      <trkpt lat="3.3678110" lon="-76.6109130">
        <ele>1835.1</ele>
        <time>2022-02-13T14:06:04Z</time>
      </trkpt>
      <trkpt lat="3.3678070" lon="-76.6109200">
        <ele>1835.1</ele>
        <time>2022-02-13T14:06:05Z</time>
      </trkpt>
      <trkpt lat="3.3678030" lon="-76.6109260">
        <ele>1835.1</ele>
        <time>2022-02-13T14:06:06Z</time>
      </trkpt>
      <trkpt lat="3.3677780" lon="-76.6109820">
        <ele>1835.2</ele>
        <time>2022-02-13T14:06:12Z</time>
      </trkpt>
      <trkpt lat="3.3677570" lon="-76.6110400">
        <ele>1835.2</ele>
        <time>2022-02-13T14:06:19Z</time>
      </trkpt>
      <trkpt lat="3.3677180" lon="-76.6111470">
        <ele>1835.2</ele>
        <time>2022-02-13T14:06:30Z</time>
      </trkpt>
      <trkpt lat="3.3676970" lon="-76.6112170">
        <ele>1835.4</ele>
        <time>2022-02-13T14:06:37Z</time>
      </trkpt>
      <trkpt lat="3.3676690" lon="-76.6112660">
        <ele>1835.5</ele>
        <time>2022-02-13T14:06:42Z</time>
      </trkpt>
      <trkpt lat="3.3676030" lon="-76.6113390">
        <ele>1835.8</ele>
        <time>2022-02-13T14:06:51Z</time>
      </trkpt>
      <trkpt lat="3.3675240" lon="-76.6113960">
        <ele>1836.2</ele>
        <time>2022-02-13T14:06:59Z</time>
      </trkpt>
      <trkpt lat="3.3674400" lon="-76.6114980">
        <ele>1837.0</ele>
        <time>2022-02-13T14:07:09Z</time>
      </trkpt>
      <trkpt lat="3.3674300" lon="-76.6115050">
        <ele>1837.1</ele>
        <time>2022-02-13T14:07:10Z</time>
      </trkpt>
      <trkpt lat="3.3673220" lon="-76.6115760">
        <ele>1838.0</ele>
        <time>2022-02-13T14:07:21Z</time>
      </trkpt>
      <trkpt lat="3.3672690" lon="-76.6116210">
        <ele>1838.5</ele>
        <time>2022-02-13T14:07:27Z</time>
      </trkpt>
      <trkpt lat="3.3672470" lon="-76.6116410">
        <ele>1838.7</ele>
        <time>2022-02-13T14:07:29Z</time>
      </trkpt>
      <trkpt lat="3.3672140" lon="-76.6116830">
        <ele>1839.1</ele>
        <time>2022-02-13T14:07:33Z</time>
      </trkpt>
      <trkpt lat="3.3671780" lon="-76.6117070">
        <ele>1839.4</ele>
        <time>2022-02-13T14:07:37Z</time>
      </trkpt>
      <trkpt lat="3.3670930" lon="-76.6117790">
        <ele>1840.1</ele>
        <time>2022-02-13T14:07:46Z</time>
      </trkpt>
      <trkpt lat="3.3670130" lon="-76.6118240">
        <ele>1840.6</ele>
        <time>2022-02-13T14:07:52Z</time>
      </trkpt>
      <trkpt lat="3.3669950" lon="-76.6118400">
        <ele>1840.8</ele>
        <time>2022-02-13T14:07:54Z</time>
      </trkpt>
      <trkpt lat="3.3669630" lon="-76.6118640">
        <ele>1841.0</ele>
        <time>2022-02-13T14:07:58Z</time>
      </trkpt>
      <trkpt lat="3.3669550" lon="-76.6118650">
        <ele>1841.1</ele>
        <time>2022-02-13T14:07:59Z</time>
      </trkpt>
      <trkpt lat="3.3669390" lon="-76.6118640">
        <ele>1841.2</ele>
        <time>2022-02-13T14:08:01Z</time>
      </trkpt>
      <trkpt lat="3.3669100" lon="-76.6118670">
        <ele>1841.3</ele>
        <time>2022-02-13T14:08:04Z</time>
      </trkpt>
      <trkpt lat="3.3668740" lon="-76.6118650">
        <ele>1841.4</ele>
        <time>2022-02-13T14:08:07Z</time>
      </trkpt>
      <trkpt lat="3.3668610" lon="-76.6118690">
        <ele>1841.4</ele>
        <time>2022-02-13T14:08:08Z</time>
      </trkpt>
      <trkpt lat="3.3668340" lon="-76.6118870">
        <ele>1841.5</ele>
        <time>2022-02-13T14:08:11Z</time>
      </trkpt>
      <trkpt lat="3.3668010" lon="-76.6118950">
        <ele>1841.6</ele>
        <time>2022-02-13T14:08:14Z</time>
      </trkpt>
      <trkpt lat="3.3667850" lon="-76.6119010">
        <ele>1841.7</ele>
        <time>2022-02-13T14:08:15Z</time>
      </trkpt>
      <trkpt lat="3.3667580" lon="-76.6119200">
        <ele>1841.8</ele>
        <time>2022-02-13T14:08:18Z</time>
      </trkpt>
      <trkpt lat="3.3667510" lon="-76.6119260">
        <ele>1841.8</ele>
        <time>2022-02-13T14:08:19Z</time>
      </trkpt>
      <trkpt lat="3.3667200" lon="-76.6119500">
        <ele>1842.8</ele>
        <time>2022-02-13T14:08:23Z</time>
      </trkpt>
      <trkpt lat="3.3667110" lon="-76.6119560">
        <ele>1843.0</ele>
        <time>2022-02-13T14:08:25Z</time>
      </trkpt>
      <trkpt lat="3.3667000" lon="-76.6119600">
        <ele>1843.3</ele>
        <time>2022-02-13T14:08:27Z</time>
      </trkpt>
      <trkpt lat="3.3666860" lon="-76.6119690">
        <ele>1843.7</ele>
        <time>2022-02-13T14:08:29Z</time>
      </trkpt>
      <trkpt lat="3.3666670" lon="-76.6119760">
        <ele>1844.1</ele>
        <time>2022-02-13T14:08:32Z</time>
      </trkpt>
      <trkpt lat="3.3666430" lon="-76.6119900">
        <ele>1844.8</ele>
        <time>2022-02-13T14:08:36Z</time>
      </trkpt>
      <trkpt lat="3.3666290" lon="-76.6120130">
        <ele>1845.4</ele>
        <time>2022-02-13T14:08:39Z</time>
      </trkpt>
      <trkpt lat="3.3666180" lon="-76.6120200">
        <ele>1845.7</ele>
        <time>2022-02-13T14:08:41Z</time>
      </trkpt>
      <trkpt lat="3.3666010" lon="-76.6120320">
        <ele>1846.1</ele>
        <time>2022-02-13T14:08:44Z</time>
      </trkpt>
      <trkpt lat="3.3665660" lon="-76.6120470">
        <ele>1847.0</ele>
        <time>2022-02-13T14:08:50Z</time>
      </trkpt>
      <trkpt lat="3.3665400" lon="-76.6120670">
        <ele>1847.8</ele>
        <time>2022-02-13T14:08:55Z</time>
      </trkpt>
      <trkpt lat="3.3665220" lon="-76.6120900">
        <ele>1848.4</ele>
        <time>2022-02-13T14:08:59Z</time>
      </trkpt>
      <trkpt lat="3.3665180" lon="-76.6120920">
        <ele>1848.6</ele>
        <time>2022-02-13T14:09:00Z</time>
      </trkpt>
      <trkpt lat="3.3665160" lon="-76.6120960">
        <ele>1848.7</ele>
        <time>2022-02-13T14:09:01Z</time>
      </trkpt>
      <trkpt lat="3.3665110" lon="-76.6120980">
        <ele>1848.8</ele>
        <time>2022-02-13T14:09:02Z</time>
      </trkpt>
      <trkpt lat="3.3664910" lon="-76.6121140">
        <ele>1849.4</ele>
        <time>2022-02-13T14:09:07Z</time>
      </trkpt>
      <trkpt lat="3.3664810" lon="-76.6121300">
        <ele>1849.9</ele>
        <time>2022-02-13T14:09:10Z</time>
      </trkpt>
      <trkpt lat="3.3664730" lon="-76.6121610">
        <ele>1850.7</ele>
        <time>2022-02-13T14:09:17Z</time>
      </trkpt>
      <trkpt lat="3.3664710" lon="-76.6121660">
        <ele>1850.8</ele>
        <time>2022-02-13T14:09:18Z</time>
      </trkpt>
      <trkpt lat="3.3664650" lon="-76.6121640">
        <ele>1851.0</ele>
        <time>2022-02-13T14:09:19Z</time>
      </trkpt>
      <trkpt lat="3.3664630" lon="-76.6121770">
        <ele>1851.3</ele>
        <time>2022-02-13T14:09:21Z</time>
      </trkpt>
      <trkpt lat="3.3664600" lon="-76.6121820">
        <ele>1851.5</ele>
        <time>2022-02-13T14:09:22Z</time>
      </trkpt>
      <trkpt lat="3.3664480" lon="-76.6121980">
        <ele>1852.0</ele>
        <time>2022-02-13T14:09:27Z</time>
      </trkpt>
      <trkpt lat="3.3664460" lon="-76.6122010">
        <ele>1852.1</ele>
        <time>2022-02-13T14:09:28Z</time>
      </trkpt>
      <trkpt lat="3.3664390" lon="-76.6122200">
        <ele>1852.6</ele>
        <time>2022-02-13T14:09:31Z</time>
      </trkpt>
      <trkpt lat="3.3664310" lon="-76.6122350">
        <ele>1853.1</ele>
        <time>2022-02-13T14:09:33Z</time>
      </trkpt>
      <trkpt lat="3.3664210" lon="-76.6122590">
        <ele>1853.8</ele>
        <time>2022-02-13T14:09:38Z</time>
      </trkpt>
      <trkpt lat="3.3664150" lon="-76.6122800">
        <ele>1854.4</ele>
        <time>2022-02-13T14:09:41Z</time>
      </trkpt>
      <trkpt lat="3.3664090" lon="-76.6122840">
        <ele>1854.7</ele>
        <time>2022-02-13T14:09:42Z</time>
      </trkpt>
      <trkpt lat="3.3663880" lon="-76.6123060">
        <ele>1855.5</ele>
        <time>2022-02-13T14:09:46Z</time>
      </trkpt>
      <trkpt lat="3.3663830" lon="-76.6123170">
        <ele>1855.8</ele>
        <time>2022-02-13T14:09:47Z</time>
      </trkpt>
      <trkpt lat="3.3663560" lon="-76.6123620">
        <ele>1857.3</ele>
        <time>2022-02-13T14:09:53Z</time>
      </trkpt>
      <trkpt lat="3.3663320" lon="-76.6123930">
        <ele>1858.4</ele>
        <time>2022-02-13T14:09:57Z</time>
      </trkpt>
      <trkpt lat="3.3663280" lon="-76.6123970">
        <ele>1858.5</ele>
        <time>2022-02-13T14:09:59Z</time>
      </trkpt>
      <trkpt lat="3.3663160" lon="-76.6124020">
        <ele>1858.8</ele>
        <time>2022-02-13T14:10:02Z</time>
      </trkpt>
      <trkpt lat="3.3663050" lon="-76.6124150">
        <ele>1859.3</ele>
        <time>2022-02-13T14:10:04Z</time>
      </trkpt>
      <trkpt lat="3.3662610" lon="-76.6124470">
        <ele>1860.6</ele>
        <time>2022-02-13T14:10:12Z</time>
      </trkpt>
      <trkpt lat="3.3662510" lon="-76.6124570">
        <ele>1860.9</ele>
        <time>2022-02-13T14:10:14Z</time>
      </trkpt>
      <trkpt lat="3.3662200" lon="-76.6125080">
        <ele>1862.3</ele>
        <time>2022-02-13T14:10:21Z</time>
      </trkpt>
      <trkpt lat="3.3662180" lon="-76.6125210">
        <ele>1862.7</ele>
        <time>2022-02-13T14:10:23Z</time>
      </trkpt>
      <trkpt lat="3.3662180" lon="-76.6125230">
        <ele>1862.7</ele>
        <time>2022-02-13T14:10:25Z</time>
      </trkpt>
      <trkpt lat="3.3662180" lon="-76.6125230">
        <ele>1862.7</ele>
        <time>2022-02-13T14:10:27Z</time>
      </trkpt>
      <trkpt lat="3.3662170" lon="-76.6125220">
        <ele>1862.7</ele>
        <time>2022-02-13T14:10:28Z</time>
      </trkpt>
      <trkpt lat="3.3662020" lon="-76.6125570">
        <ele>1863.6</ele>
        <time>2022-02-13T14:10:34Z</time>
      </trkpt>
      <trkpt lat="3.3661970" lon="-76.6125860">
        <ele>1864.4</ele>
        <time>2022-02-13T14:10:38Z</time>
      </trkpt>
      <trkpt lat="3.3661850" lon="-76.6126210">
        <ele>1865.3</ele>
        <time>2022-02-13T14:10:43Z</time>
      </trkpt>
      <trkpt lat="3.3661880" lon="-76.6126910">
        <ele>1867.5</ele>
        <time>2022-02-13T14:10:52Z</time>
      </trkpt>
      <trkpt lat="3.3661890" lon="-76.6127090">
        <ele>1868.1</ele>
        <time>2022-02-13T14:10:55Z</time>
      </trkpt>
      <trkpt lat="3.3661830" lon="-76.6127480">
        <ele>1869.4</ele>
        <time>2022-02-13T14:11:00Z</time>
      </trkpt>
      <trkpt lat="3.3661860" lon="-76.6127910">
        <ele>1870.9</ele>
        <time>2022-02-13T14:11:05Z</time>
      </trkpt>
      <trkpt lat="3.3661900" lon="-76.6128100">
        <ele>1871.6</ele>
        <time>2022-02-13T14:11:11Z</time>
      </trkpt>
      <trkpt lat="3.3661820" lon="-76.6128360">
        <ele>1872.5</ele>
        <time>2022-02-13T14:11:18Z</time>
      </trkpt>
      <trkpt lat="3.3661790" lon="-76.6128360">
        <ele>1872.6</ele>
        <time>2022-02-13T14:11:22Z</time>
      </trkpt>
      <trkpt lat="3.3661770" lon="-76.6128350">
        <ele>1872.7</ele>
        <time>2022-02-13T14:11:25Z</time>
      </trkpt>
      <trkpt lat="3.3661770" lon="-76.6128350">
        <ele>1872.7</ele>
        <time>2022-02-13T14:11:28Z</time>
      </trkpt>
      <trkpt lat="3.3661770" lon="-76.6128350">
        <ele>1872.7</ele>
        <time>2022-02-13T14:11:30Z</time>
      </trkpt>
      <trkpt lat="3.3661770" lon="-76.6128350">
        <ele>1872.7</ele>
        <time>2022-02-13T14:11:31Z</time>
      </trkpt>
      <trkpt lat="3.3661770" lon="-76.6128350">
        <ele>1872.7</ele>
        <time>2022-02-13T14:11:32Z</time>
      </trkpt>
      <trkpt lat="3.3661770" lon="-76.6128360">
        <ele>1872.7</ele>
        <time>2022-02-13T14:11:35Z</time>
      </trkpt>
      <trkpt lat="3.3661770" lon="-76.6128360">
        <ele>1872.7</ele>
        <time>2022-02-13T14:11:40Z</time>
      </trkpt>
      <trkpt lat="3.3661770" lon="-76.6128390">
        <ele>1872.8</ele>
        <time>2022-02-13T14:11:52Z</time>
      </trkpt>
      <trkpt lat="3.3661810" lon="-76.6129280">
        <ele>1875.8</ele>
        <time>2022-02-13T14:12:00Z</time>
      </trkpt>
      <trkpt lat="3.3661950" lon="-76.6130120">
        <ele>1878.6</ele>
        <time>2022-02-13T14:12:07Z</time>
      </trkpt>
      <trkpt lat="3.3661990" lon="-76.6130220">
        <ele>1879.0</ele>
        <time>2022-02-13T14:12:09Z</time>
      </trkpt>
      <trkpt lat="3.3661970" lon="-76.6130290">
        <ele>1879.2</ele>
        <time>2022-02-13T14:12:11Z</time>
      </trkpt>
      <trkpt lat="3.3662100" lon="-76.6130530">
        <ele>1880.0</ele>
        <time>2022-02-13T14:12:17Z</time>
      </trkpt>
      <trkpt lat="3.3662230" lon="-76.6131000">
        <ele>1881.5</ele>
        <time>2022-02-13T14:12:26Z</time>
      </trkpt>
      <trkpt lat="3.3662210" lon="-76.6131100">
        <ele>1881.8</ele>
        <time>2022-02-13T14:12:31Z</time>
      </trkpt>
      <trkpt lat="3.3662240" lon="-76.6131190">
        <ele>1882.1</ele>
        <time>2022-02-13T14:12:33Z</time>
      </trkpt>
      <trkpt lat="3.3662310" lon="-76.6131620">
        <ele>1883.3</ele>
        <time>2022-02-13T14:12:39Z</time>
      </trkpt>
      <trkpt lat="3.3662330" lon="-76.6131780">
        <ele>1883.8</ele>
        <time>2022-02-13T14:12:42Z</time>
      </trkpt>
      <trkpt lat="3.3662420" lon="-76.6131950">
        <ele>1884.3</ele>
        <time>2022-02-13T14:12:45Z</time>
      </trkpt>
      <trkpt lat="3.3662370" lon="-76.6132440">
        <ele>1885.7</ele>
        <time>2022-02-13T14:12:51Z</time>
      </trkpt>
      <trkpt lat="3.3662320" lon="-76.6133030">
        <ele>1887.4</ele>
        <time>2022-02-13T14:13:00Z</time>
      </trkpt>
      <trkpt lat="3.3662450" lon="-76.6133700">
        <ele>1889.3</ele>
        <time>2022-02-13T14:13:06Z</time>
      </trkpt>
      <trkpt lat="3.3662510" lon="-76.6134030">
        <ele>1890.2</ele>
        <time>2022-02-13T14:13:12Z</time>
      </trkpt>
      <trkpt lat="3.3662520" lon="-76.6134350">
        <ele>1891.1</ele>
        <time>2022-02-13T14:13:16Z</time>
      </trkpt>
      <trkpt lat="3.3662520" lon="-76.6134420">
        <ele>1891.3</ele>
        <time>2022-02-13T14:13:17Z</time>
      </trkpt>
      <trkpt lat="3.3662570" lon="-76.6134550">
        <ele>1891.7</ele>
        <time>2022-02-13T14:13:19Z</time>
      </trkpt>
      <trkpt lat="3.3662610" lon="-76.6134760">
        <ele>1892.3</ele>
        <time>2022-02-13T14:13:22Z</time>
      </trkpt>
      <trkpt lat="3.3662730" lon="-76.6134970">
        <ele>1893.0</ele>
        <time>2022-02-13T14:13:25Z</time>
      </trkpt>
      <trkpt lat="3.3662820" lon="-76.6135230">
        <ele>1893.8</ele>
        <time>2022-02-13T14:13:28Z</time>
      </trkpt>
      <trkpt lat="3.3663010" lon="-76.6135620">
        <ele>1895.1</ele>
        <time>2022-02-13T14:13:36Z</time>
      </trkpt>
      <trkpt lat="3.3663100" lon="-76.6135860">
        <ele>1895.9</ele>
        <time>2022-02-13T14:13:42Z</time>
      </trkpt>
      <trkpt lat="3.3663320" lon="-76.6136050">
        <ele>1896.7</ele>
        <time>2022-02-13T14:13:53Z</time>
      </trkpt>
      <trkpt lat="3.3663520" lon="-76.6136620">
        <ele>1898.5</ele>
        <time>2022-02-13T14:14:01Z</time>
      </trkpt>
      <trkpt lat="3.3663510" lon="-76.6136960">
        <ele>1899.5</ele>
        <time>2022-02-13T14:14:08Z</time>
      </trkpt>
      <trkpt lat="3.3663610" lon="-76.6137560">
        <ele>1901.3</ele>
        <time>2022-02-13T14:14:16Z</time>
      </trkpt>
      <trkpt lat="3.3663600" lon="-76.6137560">
        <ele>1901.3</ele>
        <time>2022-02-13T14:14:17Z</time>
      </trkpt>
      <trkpt lat="3.3663600" lon="-76.6137640">
        <ele>1901.5</ele>
        <time>2022-02-13T14:14:18Z</time>
      </trkpt>
      <trkpt lat="3.3663440" lon="-76.6137840">
        <ele>1902.2</ele>
        <time>2022-02-13T14:14:20Z</time>
      </trkpt>
      <trkpt lat="3.3663380" lon="-76.6137960">
        <ele>1902.6</ele>
        <time>2022-02-13T14:14:21Z</time>
      </trkpt>
      <trkpt lat="3.3663270" lon="-76.6138150">
        <ele>1903.2</ele>
        <time>2022-02-13T14:14:23Z</time>
      </trkpt>
      <trkpt lat="3.3663170" lon="-76.6138270">
        <ele>1903.7</ele>
        <time>2022-02-13T14:14:25Z</time>
      </trkpt>
      <trkpt lat="3.3663070" lon="-76.6138360">
        <ele>1904.0</ele>
        <time>2022-02-13T14:14:27Z</time>
      </trkpt>
      <trkpt lat="3.3663050" lon="-76.6138510">
        <ele>1904.4</ele>
        <time>2022-02-13T14:14:29Z</time>
      </trkpt>
      <trkpt lat="3.3663190" lon="-76.6138840">
        <ele>1905.4</ele>
        <time>2022-02-13T14:14:36Z</time>
      </trkpt>
      <trkpt lat="3.3663200" lon="-76.6138850">
        <ele>1905.4</ele>
        <time>2022-02-13T14:14:37Z</time>
      </trkpt>
      <trkpt lat="3.3663190" lon="-76.6138830">
        <ele>1905.5</ele>
        <time>2022-02-13T14:14:43Z</time>
      </trkpt>
      <trkpt lat="3.3663200" lon="-76.6138830">
        <ele>1905.5</ele>
        <time>2022-02-13T14:14:45Z</time>
      </trkpt>
      <trkpt lat="3.3663190" lon="-76.6138840">
        <ele>1905.5</ele>
        <time>2022-02-13T14:14:49Z</time>
      </trkpt>
      <trkpt lat="3.3663190" lon="-76.6138840">
        <ele>1905.5</ele>
        <time>2022-02-13T14:14:51Z</time>
      </trkpt>
      <trkpt lat="3.3663190" lon="-76.6138840">
        <ele>1905.5</ele>
        <time>2022-02-13T14:14:54Z</time>
      </trkpt>
      <trkpt lat="3.3663190" lon="-76.6138840">
        <ele>1905.5</ele>
        <time>2022-02-13T14:14:55Z</time>
      </trkpt>
      <trkpt lat="3.3663190" lon="-76.6138830">
        <ele>1905.5</ele>
        <time>2022-02-13T14:14:57Z</time>
      </trkpt>
      <trkpt lat="3.3663190" lon="-76.6138830">
        <ele>1905.5</ele>
        <time>2022-02-13T14:15:01Z</time>
      </trkpt>
      <trkpt lat="3.3663190" lon="-76.6138820">
        <ele>1905.6</ele>
        <time>2022-02-13T14:15:03Z</time>
      </trkpt>
      <trkpt lat="3.3663190" lon="-76.6138820">
        <ele>1905.6</ele>
        <time>2022-02-13T14:15:04Z</time>
      </trkpt>
      <trkpt lat="3.3663190" lon="-76.6138820">
        <ele>1905.6</ele>
        <time>2022-02-13T14:15:05Z</time>
      </trkpt>
      <trkpt lat="3.3663210" lon="-76.6138810">
        <ele>1905.6</ele>
        <time>2022-02-13T14:15:08Z</time>
      </trkpt>
      <trkpt lat="3.3663310" lon="-76.6138730">
        <ele>1905.9</ele>
        <time>2022-02-13T14:15:21Z</time>
      </trkpt>
      <trkpt lat="3.3663290" lon="-76.6139190">
        <ele>1907.0</ele>
        <time>2022-02-13T14:15:29Z</time>
      </trkpt>
      <trkpt lat="3.3663120" lon="-76.6139700">
        <ele>1908.2</ele>
        <time>2022-02-13T14:15:34Z</time>
      </trkpt>
      <trkpt lat="3.3662920" lon="-76.6140130">
        <ele>1909.2</ele>
        <time>2022-02-13T14:15:41Z</time>
      </trkpt>
      <trkpt lat="3.3662920" lon="-76.6140620">
        <ele>1910.3</ele>
        <time>2022-02-13T14:15:47Z</time>
      </trkpt>
      <trkpt lat="3.3662840" lon="-76.6140920">
        <ele>1911.0</ele>
        <time>2022-02-13T14:15:54Z</time>
      </trkpt>
      <trkpt lat="3.3662940" lon="-76.6141350">
        <ele>1912.0</ele>
        <time>2022-02-13T14:16:00Z</time>
      </trkpt>
      <trkpt lat="3.3662920" lon="-76.6141440">
        <ele>1912.2</ele>
        <time>2022-02-13T14:16:04Z</time>
      </trkpt>
      <trkpt lat="3.3662590" lon="-76.6141630">
        <ele>1913.2</ele>
        <time>2022-02-13T14:16:09Z</time>
      </trkpt>
      <trkpt lat="3.3662490" lon="-76.6141760">
        <ele>1913.6</ele>
        <time>2022-02-13T14:16:11Z</time>
      </trkpt>
      <trkpt lat="3.3662240" lon="-76.6142230">
        <ele>1914.9</ele>
        <time>2022-02-13T14:16:17Z</time>
      </trkpt>
      <trkpt lat="3.3662110" lon="-76.6142250">
        <ele>1915.2</ele>
        <time>2022-02-13T14:16:21Z</time>
      </trkpt>
      <trkpt lat="3.3662040" lon="-76.6142260">
        <ele>1915.4</ele>
        <time>2022-02-13T14:16:23Z</time>
      </trkpt>
      <trkpt lat="3.3661950" lon="-76.6143160">
        <ele>1917.6</ele>
        <time>2022-02-13T14:16:32Z</time>
      </trkpt>
      <trkpt lat="3.3661910" lon="-76.6143290">
        <ele>1918.0</ele>
        <time>2022-02-13T14:16:33Z</time>
      </trkpt>
      <trkpt lat="3.3661750" lon="-76.6143540">
        <ele>1918.7</ele>
        <time>2022-02-13T14:16:38Z</time>
      </trkpt>
      <trkpt lat="3.3661560" lon="-76.6143800">
        <ele>1919.4</ele>
        <time>2022-02-13T14:16:43Z</time>
      </trkpt>
      <trkpt lat="3.3661390" lon="-76.6144280">
        <ele>1920.6</ele>
        <time>2022-02-13T14:16:49Z</time>
      </trkpt>
      <trkpt lat="3.3661350" lon="-76.6144560">
        <ele>1921.2</ele>
        <time>2022-02-13T14:16:52Z</time>
      </trkpt>
      <trkpt lat="3.3661320" lon="-76.6144610">
        <ele>1921.4</ele>
        <time>2022-02-13T14:16:53Z</time>
      </trkpt>
      <trkpt lat="3.3661310" lon="-76.6144660">
        <ele>1921.5</ele>
        <time>2022-02-13T14:16:55Z</time>
      </trkpt>
      <trkpt lat="3.3661190" lon="-76.6144900">
        <ele>1922.2</ele>
        <time>2022-02-13T14:17:00Z</time>
      </trkpt>
      <trkpt lat="3.3661200" lon="-76.6145060">
        <ele>1922.6</ele>
        <time>2022-02-13T14:17:04Z</time>
      </trkpt>
      <trkpt lat="3.3661220" lon="-76.6145230">
        <ele>1923.0</ele>
        <time>2022-02-13T14:17:06Z</time>
      </trkpt>
      <trkpt lat="3.3661420" lon="-76.6145400">
        <ele>1923.7</ele>
        <time>2022-02-13T14:17:08Z</time>
      </trkpt>
      <trkpt lat="3.3661440" lon="-76.6145620">
        <ele>1924.3</ele>
        <time>2022-02-13T14:17:10Z</time>
      </trkpt>
      <trkpt lat="3.3661470" lon="-76.6145550">
        <ele>1924.5</ele>
        <time>2022-02-13T14:17:11Z</time>
      </trkpt>
      <trkpt lat="3.3661430" lon="-76.6145710">
        <ele>1924.9</ele>
        <time>2022-02-13T14:17:15Z</time>
      </trkpt>
      <trkpt lat="3.3661460" lon="-76.6145760">
        <ele>1925.1</ele>
        <time>2022-02-13T14:17:16Z</time>
      </trkpt>
      <trkpt lat="3.3661530" lon="-76.6145830">
        <ele>1925.4</ele>
        <time>2022-02-13T14:17:18Z</time>
      </trkpt>
      <trkpt lat="3.3661500" lon="-76.6145850">
        <ele>1925.5</ele>
        <time>2022-02-13T14:17:21Z</time>
      </trkpt>
      <trkpt lat="3.3661470" lon="-76.6145830">
        <ele>1925.5</ele>
        <time>2022-02-13T14:17:22Z</time>
      </trkpt>
      <trkpt lat="3.3661280" lon="-76.6145980">
        <ele>1926.2</ele>
        <time>2022-02-13T14:17:25Z</time>
      </trkpt>
      <trkpt lat="3.3661230" lon="-76.6146030">
        <ele>1926.4</ele>
        <time>2022-02-13T14:17:26Z</time>
      </trkpt>
      <trkpt lat="3.3661220" lon="-76.6146050">
        <ele>1926.4</ele>
        <time>2022-02-13T14:17:28Z</time>
      </trkpt>
      <trkpt lat="3.3661260" lon="-76.6146190">
        <ele>1926.8</ele>
        <time>2022-02-13T14:17:31Z</time>
      </trkpt>
      <trkpt lat="3.3661180" lon="-76.6146310">
        <ele>1927.1</ele>
        <time>2022-02-13T14:17:36Z</time>
      </trkpt>
      <trkpt lat="3.3661130" lon="-76.6146600">
        <ele>1927.8</ele>
        <time>2022-02-13T14:17:40Z</time>
      </trkpt>
      <trkpt lat="3.3660990" lon="-76.6146930">
        <ele>1928.7</ele>
        <time>2022-02-13T14:17:44Z</time>
      </trkpt>
      <trkpt lat="3.3661010" lon="-76.6147140">
        <ele>1929.2</ele>
        <time>2022-02-13T14:17:48Z</time>
      </trkpt>
      <trkpt lat="3.3660970" lon="-76.6147230">
        <ele>1929.4</ele>
        <time>2022-02-13T14:17:49Z</time>
      </trkpt>
      <trkpt lat="3.3660970" lon="-76.6147270">
        <ele>1929.5</ele>
        <time>2022-02-13T14:17:50Z</time>
      </trkpt>
      <trkpt lat="3.3661040" lon="-76.6147330">
        <ele>1929.7</ele>
        <time>2022-02-13T14:17:51Z</time>
      </trkpt>
      <trkpt lat="3.3661060" lon="-76.6147480">
        <ele>1930.1</ele>
        <time>2022-02-13T14:17:53Z</time>
      </trkpt>
      <trkpt lat="3.3661070" lon="-76.6147570">
        <ele>1930.3</ele>
        <time>2022-02-13T14:17:54Z</time>
      </trkpt>
      <trkpt lat="3.3661140" lon="-76.6147810">
        <ele>1930.9</ele>
        <time>2022-02-13T14:17:58Z</time>
      </trkpt>
      <trkpt lat="3.3661110" lon="-76.6148240">
        <ele>1931.9</ele>
        <time>2022-02-13T14:18:01Z</time>
      </trkpt>
      <trkpt lat="3.3661260" lon="-76.6148340">
        <ele>1932.3</ele>
        <time>2022-02-13T14:18:04Z</time>
      </trkpt>
      <trkpt lat="3.3661350" lon="-76.6148380">
        <ele>1932.5</ele>
        <time>2022-02-13T14:18:07Z</time>
      </trkpt>
      <trkpt lat="3.3661340" lon="-76.6148540">
        <ele>1932.8</ele>
        <time>2022-02-13T14:18:09Z</time>
      </trkpt>
      <trkpt lat="3.3661530" lon="-76.6149040">
        <ele>1934.0</ele>
        <time>2022-02-13T14:18:12Z</time>
      </trkpt>
      <trkpt lat="3.3661520" lon="-76.6149090">
        <ele>1934.1</ele>
        <time>2022-02-13T14:18:14Z</time>
      </trkpt>
      <trkpt lat="3.3661480" lon="-76.6149130">
        <ele>1934.3</ele>
        <time>2022-02-13T14:18:16Z</time>
      </trkpt>
      <trkpt lat="3.3661580" lon="-76.6149350">
        <ele>1934.8</ele>
        <time>2022-02-13T14:18:21Z</time>
      </trkpt>
      <trkpt lat="3.3661550" lon="-76.6149410">
        <ele>1934.9</ele>
        <time>2022-02-13T14:18:22Z</time>
      </trkpt>
      <trkpt lat="3.3661470" lon="-76.6149450">
        <ele>1935.1</ele>
        <time>2022-02-13T14:18:24Z</time>
      </trkpt>
      <trkpt lat="3.3661550" lon="-76.6149560">
        <ele>1935.4</ele>
        <time>2022-02-13T14:18:26Z</time>
      </trkpt>
      <trkpt lat="3.3661860" lon="-76.6149820">
        <ele>1936.2</ele>
        <time>2022-02-13T14:18:29Z</time>
      </trkpt>
      <trkpt lat="3.3662100" lon="-76.6149860">
        <ele>1936.7</ele>
        <time>2022-02-13T14:18:31Z</time>
      </trkpt>
      <trkpt lat="3.3662260" lon="-76.6149870">
        <ele>1937.0</ele>
        <time>2022-02-13T14:18:32Z</time>
      </trkpt>
      <trkpt lat="3.3662530" lon="-76.6150170">
        <ele>1937.6</ele>
        <time>2022-02-13T14:18:36Z</time>
      </trkpt>
      <trkpt lat="3.3662630" lon="-76.6150230">
        <ele>1937.8</ele>
        <time>2022-02-13T14:18:37Z</time>
      </trkpt>
      <trkpt lat="3.3662690" lon="-76.6150520">
        <ele>1938.2</ele>
        <time>2022-02-13T14:18:39Z</time>
      </trkpt>
      <trkpt lat="3.3662720" lon="-76.6150640">
        <ele>1938.4</ele>
        <time>2022-02-13T14:18:40Z</time>
      </trkpt>
      <trkpt lat="3.3662960" lon="-76.6150880">
        <ele>1938.7</ele>
        <time>2022-02-13T14:18:45Z</time>
      </trkpt>
      <trkpt lat="3.3663320" lon="-76.6150540">
        <ele>1939.2</ele>
        <time>2022-02-13T14:18:47Z</time>
      </trkpt>
      <trkpt lat="3.3663920" lon="-76.6150680">
        <ele>1939.7</ele>
        <time>2022-02-13T14:18:51Z</time>
      </trkpt>
      <trkpt lat="3.3664270" lon="-76.6150890">
        <ele>1940.1</ele>
        <time>2022-02-13T14:18:54Z</time>
      </trkpt>
      <trkpt lat="3.3664670" lon="-76.6150820">
        <ele>1940.4</ele>
        <time>2022-02-13T14:19:00Z</time>
      </trkpt>
      <trkpt lat="3.3664820" lon="-76.6151020">
        <ele>1940.6</ele>
        <time>2022-02-13T14:19:04Z</time>
      </trkpt>
      <trkpt lat="3.3665090" lon="-76.6151110">
        <ele>1940.9</ele>
        <time>2022-02-13T14:19:09Z</time>
      </trkpt>
      <trkpt lat="3.3665110" lon="-76.6151190">
        <ele>1941.0</ele>
        <time>2022-02-13T14:19:10Z</time>
      </trkpt>
      <trkpt lat="3.3665280" lon="-76.6151670">
        <ele>1941.6</ele>
        <time>2022-02-13T14:19:13Z</time>
      </trkpt>
      <trkpt lat="3.3665400" lon="-76.6151940">
        <ele>1942.0</ele>
        <time>2022-02-13T14:19:15Z</time>
      </trkpt>
      <trkpt lat="3.3665480" lon="-76.6151870">
        <ele>1942.1</ele>
        <time>2022-02-13T14:19:17Z</time>
      </trkpt>
      <trkpt lat="3.3665920" lon="-76.6152180">
        <ele>1942.9</ele>
        <time>2022-02-13T14:19:25Z</time>
      </trkpt>
      <trkpt lat="3.3666110" lon="-76.6152640">
        <ele>1943.7</ele>
        <time>2022-02-13T14:19:31Z</time>
      </trkpt>
      <trkpt lat="3.3666630" lon="-76.6153130">
        <ele>1944.9</ele>
        <time>2022-02-13T14:19:37Z</time>
      </trkpt>
      <trkpt lat="3.3667060" lon="-76.6153520">
        <ele>1945.9</ele>
        <time>2022-02-13T14:19:43Z</time>
      </trkpt>
      <trkpt lat="3.3667490" lon="-76.6154080">
        <ele>1947.2</ele>
        <time>2022-02-13T14:19:48Z</time>
      </trkpt>
      <trkpt lat="3.3667980" lon="-76.6154440">
        <ele>1948.4</ele>
        <time>2022-02-13T14:19:56Z</time>
      </trkpt>
      <trkpt lat="3.3668060" lon="-76.6154450">
        <ele>1948.5</ele>
        <time>2022-02-13T14:20:01Z</time>
      </trkpt>
      <trkpt lat="3.3668100" lon="-76.6154470">
        <ele>1948.6</ele>
        <time>2022-02-13T14:20:02Z</time>
      </trkpt>
      <trkpt lat="3.3668160" lon="-76.6154520">
        <ele>1948.7</ele>
        <time>2022-02-13T14:20:04Z</time>
      </trkpt>
      <trkpt lat="3.3668270" lon="-76.6154480">
        <ele>1949.0</ele>
        <time>2022-02-13T14:20:07Z</time>
      </trkpt>
      <trkpt lat="3.3668320" lon="-76.6154540">
        <ele>1949.1</ele>
        <time>2022-02-13T14:20:08Z</time>
      </trkpt>
      <trkpt lat="3.3668330" lon="-76.6154570">
        <ele>1949.2</ele>
        <time>2022-02-13T14:20:09Z</time>
      </trkpt>
      <trkpt lat="3.3668350" lon="-76.6154590">
        <ele>1949.2</ele>
        <time>2022-02-13T14:20:10Z</time>
      </trkpt>
      <trkpt lat="3.3668350" lon="-76.6154590">
        <ele>1949.2</ele>
        <time>2022-02-13T14:20:13Z</time>
      </trkpt>
      <trkpt lat="3.3668410" lon="-76.6154600">
        <ele>1949.3</ele>
        <time>2022-02-13T14:20:15Z</time>
      </trkpt>
      <trkpt lat="3.3668560" lon="-76.6154670">
        <ele>1949.6</ele>
        <time>2022-02-13T14:20:18Z</time>
      </trkpt>
      <trkpt lat="3.3668560" lon="-76.6154670">
        <ele>1949.6</ele>
        <time>2022-02-13T14:20:21Z</time>
      </trkpt>
      <trkpt lat="3.3668560" lon="-76.6154670">
        <ele>1949.6</ele>
        <time>2022-02-13T14:20:22Z</time>
      </trkpt>
      <trkpt lat="3.3668560" lon="-76.6154670">
        <ele>1949.6</ele>
        <time>2022-02-13T14:20:24Z</time>
      </trkpt>
      <trkpt lat="3.3668560" lon="-76.6154670">
        <ele>1949.6</ele>
        <time>2022-02-13T14:20:25Z</time>
      </trkpt>
      <trkpt lat="3.3668380" lon="-76.6155300">
        <ele>1950.8</ele>
        <time>2022-02-13T14:20:39Z</time>
      </trkpt>
      <trkpt lat="3.3667960" lon="-76.6156440">
        <ele>1952.7</ele>
        <time>2022-02-13T14:20:45Z</time>
      </trkpt>
      <trkpt lat="3.3667370" lon="-76.6157050">
        <ele>1953.8</ele>
        <time>2022-02-13T14:20:53Z</time>
      </trkpt>
      <trkpt lat="3.3666960" lon="-76.6157450">
        <ele>1954.3</ele>
        <time>2022-02-13T14:20:58Z</time>
      </trkpt>
      <trkpt lat="3.3666750" lon="-76.6157640">
        <ele>1954.6</ele>
        <time>2022-02-13T14:21:01Z</time>
      </trkpt>
      <trkpt lat="3.3666540" lon="-76.6157870">
        <ele>1954.8</ele>
        <time>2022-02-13T14:21:06Z</time>
      </trkpt>
      <trkpt lat="3.3666290" lon="-76.6158060">
        <ele>1955.1</ele>
        <time>2022-02-13T14:21:09Z</time>
      </trkpt>
      <trkpt lat="3.3666250" lon="-76.6158130">
        <ele>1955.2</ele>
        <time>2022-02-13T14:21:10Z</time>
      </trkpt>
      <trkpt lat="3.3666070" lon="-76.6158270">
        <ele>1955.3</ele>
        <time>2022-02-13T14:21:14Z</time>
      </trkpt>
      <trkpt lat="3.3665990" lon="-76.6158200">
        <ele>1955.4</ele>
        <time>2022-02-13T14:21:16Z</time>
      </trkpt>
      <trkpt lat="3.3665640" lon="-76.6158270">
        <ele>1955.7</ele>
        <time>2022-02-13T14:21:21Z</time>
      </trkpt>
      <trkpt lat="3.3665560" lon="-76.6158620">
        <ele>1956.1</ele>
        <time>2022-02-13T14:21:26Z</time>
      </trkpt>
      <trkpt lat="3.3665230" lon="-76.6159120">
        <ele>1956.8</ele>
        <time>2022-02-13T14:21:32Z</time>
      </trkpt>
      <trkpt lat="3.3665170" lon="-76.6159170">
        <ele>1957.0</ele>
        <time>2022-02-13T14:21:33Z</time>
      </trkpt>
      <trkpt lat="3.3665410" lon="-76.6159480">
        <ele>1957.6</ele>
        <time>2022-02-13T14:21:47Z</time>
      </trkpt>
      <trkpt lat="3.3665430" lon="-76.6159560">
        <ele>1957.7</ele>
        <time>2022-02-13T14:21:49Z</time>
      </trkpt>
      <trkpt lat="3.3665300" lon="-76.6159820">
        <ele>1958.3</ele>
        <time>2022-02-13T14:21:54Z</time>
      </trkpt>
      <trkpt lat="3.3665460" lon="-76.6160220">
        <ele>1959.1</ele>
        <time>2022-02-13T14:22:00Z</time>
      </trkpt>
      <trkpt lat="3.3665600" lon="-76.6160440">
        <ele>1959.7</ele>
        <time>2022-02-13T14:22:07Z</time>
      </trkpt>
      <trkpt lat="3.3665740" lon="-76.6160560">
        <ele>1960.2</ele>
        <time>2022-02-13T14:22:10Z</time>
      </trkpt>
      <trkpt lat="3.3666040" lon="-76.6161010">
        <ele>1961.5</ele>
        <time>2022-02-13T14:22:14Z</time>
      </trkpt>
      <trkpt lat="3.3666190" lon="-76.6161340">
        <ele>1962.4</ele>
        <time>2022-02-13T14:22:19Z</time>
      </trkpt>
      <trkpt lat="3.3666200" lon="-76.6161460">
        <ele>1962.7</ele>
        <time>2022-02-13T14:22:22Z</time>
      </trkpt>
      <trkpt lat="3.3665970" lon="-76.6161900">
        <ele>1963.2</ele>
        <time>2022-02-13T14:22:28Z</time>
      </trkpt>
      <trkpt lat="3.3665800" lon="-76.6161970">
        <ele>1963.5</ele>
        <time>2022-02-13T14:22:31Z</time>
      </trkpt>
      <trkpt lat="3.3665490" lon="-76.6162100">
        <ele>1963.9</ele>
        <time>2022-02-13T14:22:34Z</time>
      </trkpt>
      <trkpt lat="3.3665460" lon="-76.6162560">
        <ele>1964.6</ele>
        <time>2022-02-13T14:22:38Z</time>
      </trkpt>
      <trkpt lat="3.3665280" lon="-76.6163160">
        <ele>1965.4</ele>
        <time>2022-02-13T14:22:42Z</time>
      </trkpt>
      <trkpt lat="3.3664860" lon="-76.6163440">
        <ele>1966.1</ele>
        <time>2022-02-13T14:22:45Z</time>
      </trkpt>
      <trkpt lat="3.3664560" lon="-76.6163440">
        <ele>1966.5</ele>
        <time>2022-02-13T14:22:49Z</time>
      </trkpt>
      <trkpt lat="3.3664050" lon="-76.6163860">
        <ele>1967.3</ele>
        <time>2022-02-13T14:22:55Z</time>
      </trkpt>
      <trkpt lat="3.3663790" lon="-76.6163800">
        <ele>1967.6</ele>
        <time>2022-02-13T14:22:57Z</time>
      </trkpt>
      <trkpt lat="3.3663210" lon="-76.6163630">
        <ele>1968.4</ele>
        <time>2022-02-13T14:23:02Z</time>
      </trkpt>
      <trkpt lat="3.3662470" lon="-76.6163580">
        <ele>1969.3</ele>
        <time>2022-02-13T14:23:10Z</time>
      </trkpt>
      <trkpt lat="3.3662400" lon="-76.6163600">
        <ele>1969.4</ele>
        <time>2022-02-13T14:23:11Z</time>
      </trkpt>
      <trkpt lat="3.3662280" lon="-76.6163670">
        <ele>1969.6</ele>
        <time>2022-02-13T14:23:12Z</time>
      </trkpt>
      <trkpt lat="3.3661760" lon="-76.6163870">
        <ele>1970.3</ele>
        <time>2022-02-13T14:23:17Z</time>
      </trkpt>
      <trkpt lat="3.3661590" lon="-76.6164150">
        <ele>1970.8</ele>
        <time>2022-02-13T14:23:20Z</time>
      </trkpt>
      <trkpt lat="3.3661480" lon="-76.6164360">
        <ele>1971.1</ele>
        <time>2022-02-13T14:23:22Z</time>
      </trkpt>
      <trkpt lat="3.3661440" lon="-76.6164530">
        <ele>1971.4</ele>
        <time>2022-02-13T14:23:24Z</time>
      </trkpt>
      <trkpt lat="3.3660850" lon="-76.6164790">
        <ele>1972.3</ele>
        <time>2022-02-13T14:23:30Z</time>
      </trkpt>
      <trkpt lat="3.3660750" lon="-76.6164830">
        <ele>1972.5</ele>
        <time>2022-02-13T14:23:31Z</time>
      </trkpt>
      <trkpt lat="3.3660610" lon="-76.6164880">
        <ele>1972.7</ele>
        <time>2022-02-13T14:23:33Z</time>
      </trkpt>
      <trkpt lat="3.3660380" lon="-76.6165020">
        <ele>1973.1</ele>
        <time>2022-02-13T14:23:37Z</time>
      </trkpt>
      <trkpt lat="3.3660240" lon="-76.6165040">
        <ele>1973.3</ele>
        <time>2022-02-13T14:23:39Z</time>
      </trkpt>
      <trkpt lat="3.3660240" lon="-76.6165050">
        <ele>1973.3</ele>
        <time>2022-02-13T14:23:41Z</time>
      </trkpt>
      <trkpt lat="3.3660250" lon="-76.6165060">
        <ele>1973.4</ele>
        <time>2022-02-13T14:23:43Z</time>
      </trkpt>
      <trkpt lat="3.3660130" lon="-76.6164930">
        <ele>1973.6</ele>
        <time>2022-02-13T14:23:52Z</time>
      </trkpt>
      <trkpt lat="3.3660080" lon="-76.6164950">
        <ele>1973.7</ele>
        <time>2022-02-13T14:24:20Z</time>
      </trkpt>
      <trkpt lat="3.3660080" lon="-76.6164980">
        <ele>1973.8</ele>
        <time>2022-02-13T14:24:21Z</time>
      </trkpt>
      <trkpt lat="3.3660060" lon="-76.6165060">
        <ele>1973.9</ele>
        <time>2022-02-13T14:24:23Z</time>
      </trkpt>
      <trkpt lat="3.3659630" lon="-76.6165330">
        <ele>1974.6</ele>
        <time>2022-02-13T14:24:33Z</time>
      </trkpt>
      <trkpt lat="3.3659510" lon="-76.6165380">
        <ele>1974.8</ele>
        <time>2022-02-13T14:24:45Z</time>
      </trkpt>
      <trkpt lat="3.3658850" lon="-76.6164980">
        <ele>1975.8</ele>
        <time>2022-02-13T14:24:48Z</time>
      </trkpt>
      <trkpt lat="3.3657700" lon="-76.6164460">
        <ele>1976.1</ele>
        <time>2022-02-13T14:24:54Z</time>
      </trkpt>
      <trkpt lat="3.3657590" lon="-76.6164460">
        <ele>1976.2</ele>
        <time>2022-02-13T14:24:55Z</time>
      </trkpt>
      <trkpt lat="3.3657490" lon="-76.6164460">
        <ele>1976.2</ele>
        <time>2022-02-13T14:24:56Z</time>
      </trkpt>
      <trkpt lat="3.3657450" lon="-76.6164450">
        <ele>1976.2</ele>
        <time>2022-02-13T14:24:57Z</time>
      </trkpt>
      <trkpt lat="3.3657440" lon="-76.6164470">
        <ele>1976.2</ele>
        <time>2022-02-13T14:24:58Z</time>
      </trkpt>
      <trkpt lat="3.3657340" lon="-76.6164350">
        <ele>1976.3</ele>
        <time>2022-02-13T14:25:00Z</time>
      </trkpt>
      <trkpt lat="3.3657210" lon="-76.6164190">
        <ele>1976.4</ele>
        <time>2022-02-13T14:25:03Z</time>
      </trkpt>
      <trkpt lat="3.3657200" lon="-76.6164270">
        <ele>1976.4</ele>
        <time>2022-02-13T14:25:05Z</time>
      </trkpt>
      <trkpt lat="3.3657130" lon="-76.6164280">
        <ele>1976.4</ele>
        <time>2022-02-13T14:25:07Z</time>
      </trkpt>
      <trkpt lat="3.3656930" lon="-76.6164250">
        <ele>1976.5</ele>
        <time>2022-02-13T14:25:09Z</time>
      </trkpt>
      <trkpt lat="3.3656560" lon="-76.6164060">
        <ele>1976.8</ele>
        <time>2022-02-13T14:25:11Z</time>
      </trkpt>
      <trkpt lat="3.3656360" lon="-76.6163880">
        <ele>1977.0</ele>
        <time>2022-02-13T14:25:13Z</time>
      </trkpt>
      <trkpt lat="3.3656280" lon="-76.6163860">
        <ele>1977.1</ele>
        <time>2022-02-13T14:25:15Z</time>
      </trkpt>
      <trkpt lat="3.3656260" lon="-76.6163870">
        <ele>1977.1</ele>
        <time>2022-02-13T14:25:16Z</time>
      </trkpt>
      <trkpt lat="3.3656240" lon="-76.6163870">
        <ele>1977.1</ele>
        <time>2022-02-13T14:25:17Z</time>
      </trkpt>
      <trkpt lat="3.3655980" lon="-76.6163350">
        <ele>1977.7</ele>
        <time>2022-02-13T14:25:21Z</time>
      </trkpt>
      <trkpt lat="3.3655890" lon="-76.6163230">
        <ele>1977.9</ele>
        <time>2022-02-13T14:25:22Z</time>
      </trkpt>
      <trkpt lat="3.3655650" lon="-76.6163100">
        <ele>1978.2</ele>
        <time>2022-02-13T14:25:25Z</time>
      </trkpt>
      <trkpt lat="3.3655620" lon="-76.6163110">
        <ele>1978.2</ele>
        <time>2022-02-13T14:25:26Z</time>
      </trkpt>
      <trkpt lat="3.3655450" lon="-76.6163030">
        <ele>1978.4</ele>
        <time>2022-02-13T14:25:28Z</time>
      </trkpt>
      <trkpt lat="3.3655370" lon="-76.6163040">
        <ele>1978.5</ele>
        <time>2022-02-13T14:25:29Z</time>
      </trkpt>
      <trkpt lat="3.3655290" lon="-76.6162970">
        <ele>1978.6</ele>
        <time>2022-02-13T14:25:31Z</time>
      </trkpt>
      <trkpt lat="3.3655150" lon="-76.6162780">
        <ele>1978.9</ele>
        <time>2022-02-13T14:25:34Z</time>
      </trkpt>
      <trkpt lat="3.3654920" lon="-76.6162570">
        <ele>1979.3</ele>
        <time>2022-02-13T14:25:36Z</time>
      </trkpt>
      <trkpt lat="3.3654760" lon="-76.6162580">
        <ele>1979.5</ele>
        <time>2022-02-13T14:25:39Z</time>
      </trkpt>
      <trkpt lat="3.3654730" lon="-76.6162610">
        <ele>1979.5</ele>
        <time>2022-02-13T14:25:40Z</time>
      </trkpt>
      <trkpt lat="3.3654480" lon="-76.6162420">
        <ele>1979.9</ele>
        <time>2022-02-13T14:25:42Z</time>
      </trkpt>
      <trkpt lat="3.3654210" lon="-76.6162330">
        <ele>1980.2</ele>
        <time>2022-02-13T14:25:44Z</time>
      </trkpt>
      <trkpt lat="3.3654110" lon="-76.6162260">
        <ele>1980.4</ele>
        <time>2022-02-13T14:25:45Z</time>
      </trkpt>
      <trkpt lat="3.3653860" lon="-76.6162330">
        <ele>1980.7</ele>
        <time>2022-02-13T14:25:48Z</time>
      </trkpt>
      <trkpt lat="3.3653200" lon="-76.6162340">
        <ele>1981.4</ele>
        <time>2022-02-13T14:25:53Z</time>
      </trkpt>
      <trkpt lat="3.3653110" lon="-76.6162410">
        <ele>1981.6</ele>
        <time>2022-02-13T14:25:55Z</time>
      </trkpt>
      <trkpt lat="3.3653000" lon="-76.6162400">
        <ele>1981.7</ele>
        <time>2022-02-13T14:25:57Z</time>
      </trkpt>
      <trkpt lat="3.3653020" lon="-76.6162660">
        <ele>1982.1</ele>
        <time>2022-02-13T14:26:00Z</time>
      </trkpt>
      <trkpt lat="3.3652970" lon="-76.6162590">
        <ele>1982.2</ele>
        <time>2022-02-13T14:26:02Z</time>
      </trkpt>
      <trkpt lat="3.3652850" lon="-76.6162530">
        <ele>1982.4</ele>
        <time>2022-02-13T14:26:03Z</time>
      </trkpt>
      <trkpt lat="3.3652660" lon="-76.6162490">
        <ele>1982.6</ele>
        <time>2022-02-13T14:26:05Z</time>
      </trkpt>
      <trkpt lat="3.3652540" lon="-76.6162370">
        <ele>1982.9</ele>
        <time>2022-02-13T14:26:06Z</time>
      </trkpt>
      <trkpt lat="3.3652460" lon="-76.6162330">
        <ele>1983.0</ele>
        <time>2022-02-13T14:26:07Z</time>
      </trkpt>
      <trkpt lat="3.3652350" lon="-76.6162270">
        <ele>1983.2</ele>
        <time>2022-02-13T14:26:08Z</time>
      </trkpt>
      <trkpt lat="3.3652010" lon="-76.6162210">
        <ele>1983.7</ele>
        <time>2022-02-13T14:26:11Z</time>
      </trkpt>
      <trkpt lat="3.3651840" lon="-76.6162290">
        <ele>1983.9</ele>
        <time>2022-02-13T14:26:13Z</time>
      </trkpt>
      <trkpt lat="3.3651560" lon="-76.6162010">
        <ele>1984.5</ele>
        <time>2022-02-13T14:26:15Z</time>
      </trkpt>
      <trkpt lat="3.3651450" lon="-76.6162030">
        <ele>1984.7</ele>
        <time>2022-02-13T14:26:17Z</time>
      </trkpt>
      <trkpt lat="3.3651310" lon="-76.6162050">
        <ele>1984.9</ele>
        <time>2022-02-13T14:26:20Z</time>
      </trkpt>
      <trkpt lat="3.3651280" lon="-76.6162050">
        <ele>1985.0</ele>
        <time>2022-02-13T14:26:21Z</time>
      </trkpt>
      <trkpt lat="3.3650970" lon="-76.6162260">
        <ele>1985.5</ele>
        <time>2022-02-13T14:26:26Z</time>
      </trkpt>
      <trkpt lat="3.3650920" lon="-76.6162240">
        <ele>1985.6</ele>
        <time>2022-02-13T14:26:27Z</time>
      </trkpt>
      <trkpt lat="3.3650860" lon="-76.6162220">
        <ele>1985.7</ele>
        <time>2022-02-13T14:26:29Z</time>
      </trkpt>
      <trkpt lat="3.3650790" lon="-76.6162170">
        <ele>1985.8</ele>
        <time>2022-02-13T14:26:33Z</time>
      </trkpt>
      <trkpt lat="3.3650730" lon="-76.6162200">
        <ele>1985.9</ele>
        <time>2022-02-13T14:26:39Z</time>
      </trkpt>
      <trkpt lat="3.3650750" lon="-76.6162200">
        <ele>1986.0</ele>
        <time>2022-02-13T14:26:48Z</time>
      </trkpt>
      <trkpt lat="3.3650770" lon="-76.6162210">
        <ele>1986.0</ele>
        <time>2022-02-13T14:26:55Z</time>
      </trkpt>
      <trkpt lat="3.3650780" lon="-76.6162230">
        <ele>1986.0</ele>
        <time>2022-02-13T14:26:59Z</time>
      </trkpt>
      <trkpt lat="3.3650780" lon="-76.6162250">
        <ele>1986.1</ele>
        <time>2022-02-13T14:27:03Z</time>
      </trkpt>
      <trkpt lat="3.3650780" lon="-76.6162260">
        <ele>1986.1</ele>
        <time>2022-02-13T14:27:13Z</time>
      </trkpt>
      <trkpt lat="3.3650330" lon="-76.6161950">
        <ele>1986.9</ele>
        <time>2022-02-13T14:27:20Z</time>
      </trkpt>
      <trkpt lat="3.3650210" lon="-76.6161900">
        <ele>1987.1</ele>
        <time>2022-02-13T14:27:21Z</time>
      </trkpt>
      <trkpt lat="3.3649660" lon="-76.6161670">
        <ele>1987.9</ele>
        <time>2022-02-13T14:27:24Z</time>
      </trkpt>
      <trkpt lat="3.3649210" lon="-76.6161550">
        <ele>1988.5</ele>
        <time>2022-02-13T14:27:26Z</time>
      </trkpt>
      <trkpt lat="3.3648960" lon="-76.6161520">
        <ele>1988.8</ele>
        <time>2022-02-13T14:27:27Z</time>
      </trkpt>
      <trkpt lat="3.3648740" lon="-76.6161840">
        <ele>1989.3</ele>
        <time>2022-02-13T14:27:31Z</time>
      </trkpt>
      <trkpt lat="3.3648500" lon="-76.6161930">
        <ele>1989.6</ele>
        <time>2022-02-13T14:27:33Z</time>
      </trkpt>
      <trkpt lat="3.3648520" lon="-76.6162050">
        <ele>1989.8</ele>
        <time>2022-02-13T14:27:34Z</time>
      </trkpt>
      <trkpt lat="3.3648350" lon="-76.6162360">
        <ele>1990.3</ele>
        <time>2022-02-13T14:27:37Z</time>
      </trkpt>
      <trkpt lat="3.3648250" lon="-76.6162360">
        <ele>1990.4</ele>
        <time>2022-02-13T14:27:38Z</time>
      </trkpt>
      <trkpt lat="3.3648180" lon="-76.6162810">
        <ele>1991.1</ele>
        <time>2022-02-13T14:27:42Z</time>
      </trkpt>
      <trkpt lat="3.3648180" lon="-76.6162970">
        <ele>1991.3</ele>
        <time>2022-02-13T14:27:43Z</time>
      </trkpt>
      <trkpt lat="3.3648000" lon="-76.6163040">
        <ele>1991.7</ele>
        <time>2022-02-13T14:27:46Z</time>
      </trkpt>
      <trkpt lat="3.3647950" lon="-76.6163030">
        <ele>1991.7</ele>
        <time>2022-02-13T14:27:47Z</time>
      </trkpt>
      <trkpt lat="3.3647910" lon="-76.6162940">
        <ele>1991.9</ele>
        <time>2022-02-13T14:27:48Z</time>
      </trkpt>
      <trkpt lat="3.3647920" lon="-76.6162850">
        <ele>1992.1</ele>
        <time>2022-02-13T14:27:49Z</time>
      </trkpt>
      <trkpt lat="3.3647860" lon="-76.6162670">
        <ele>1992.4</ele>
        <time>2022-02-13T14:27:52Z</time>
      </trkpt>
      <trkpt lat="3.3647660" lon="-76.6162660">
        <ele>1992.7</ele>
        <time>2022-02-13T14:27:55Z</time>
      </trkpt>
      <trkpt lat="3.3647470" lon="-76.6162780">
        <ele>1993.1</ele>
        <time>2022-02-13T14:28:00Z</time>
      </trkpt>
      <trkpt lat="3.3647170" lon="-76.6162800">
        <ele>1993.7</ele>
        <time>2022-02-13T14:28:03Z</time>
      </trkpt>
      <trkpt lat="3.3646920" lon="-76.6162840">
        <ele>1994.2</ele>
        <time>2022-02-13T14:28:05Z</time>
      </trkpt>
      <trkpt lat="3.3646320" lon="-76.6162640">
        <ele>1995.4</ele>
        <time>2022-02-13T14:28:11Z</time>
      </trkpt>
      <trkpt lat="3.3646270" lon="-76.6162680">
        <ele>1995.5</ele>
        <time>2022-02-13T14:28:12Z</time>
      </trkpt>
      <trkpt lat="3.3645990" lon="-76.6162570">
        <ele>1996.1</ele>
        <time>2022-02-13T14:28:16Z</time>
      </trkpt>
      <trkpt lat="3.3645860" lon="-76.6162560">
        <ele>1996.4</ele>
        <time>2022-02-13T14:28:18Z</time>
      </trkpt>
      <trkpt lat="3.3645690" lon="-76.6162790">
        <ele>1997.0</ele>
        <time>2022-02-13T14:28:24Z</time>
      </trkpt>
      <trkpt lat="3.3645700" lon="-76.6162880">
        <ele>1997.2</ele>
        <time>2022-02-13T14:28:30Z</time>
      </trkpt>
      <trkpt lat="3.3645670" lon="-76.6163010">
        <ele>1997.4</ele>
        <time>2022-02-13T14:28:35Z</time>
      </trkpt>
      <trkpt lat="3.3645580" lon="-76.6163090">
        <ele>1997.7</ele>
        <time>2022-02-13T14:28:38Z</time>
      </trkpt>
      <trkpt lat="3.3645330" lon="-76.6163090">
        <ele>1998.2</ele>
        <time>2022-02-13T14:28:44Z</time>
      </trkpt>
      <trkpt lat="3.3645300" lon="-76.6163070">
        <ele>1998.3</ele>
        <time>2022-02-13T14:28:49Z</time>
      </trkpt>
      <trkpt lat="3.3645300" lon="-76.6163070">
        <ele>1998.3</ele>
        <time>2022-02-13T14:28:50Z</time>
      </trkpt>
      <trkpt lat="3.3645300" lon="-76.6163070">
        <ele>1998.3</ele>
        <time>2022-02-13T14:28:54Z</time>
      </trkpt>
      <trkpt lat="3.3645300" lon="-76.6163070">
        <ele>1998.3</ele>
        <time>2022-02-13T14:28:56Z</time>
      </trkpt>
      <trkpt lat="3.3645060" lon="-76.6163170">
        <ele>1998.8</ele>
        <time>2022-02-13T14:29:08Z</time>
      </trkpt>
      <trkpt lat="3.3644940" lon="-76.6163190">
        <ele>1999.0</ele>
        <time>2022-02-13T14:29:09Z</time>
      </trkpt>
      <trkpt lat="3.3644630" lon="-76.6163450">
        <ele>1999.8</ele>
        <time>2022-02-13T14:29:15Z</time>
      </trkpt>
      <trkpt lat="3.3644450" lon="-76.6163390">
        <ele>2000.1</ele>
        <time>2022-02-13T14:29:20Z</time>
      </trkpt>
      <trkpt lat="3.3644080" lon="-76.6163200">
        <ele>2001.0</ele>
        <time>2022-02-13T14:29:26Z</time>
      </trkpt>
      <trkpt lat="3.3643750" lon="-76.6162930">
        <ele>2001.8</ele>
        <time>2022-02-13T14:29:32Z</time>
      </trkpt>
      <trkpt lat="3.3643830" lon="-76.6162970">
        <ele>2001.9</ele>
        <time>2022-02-13T14:29:37Z</time>
      </trkpt>
      <trkpt lat="3.3643420" lon="-76.6163010">
        <ele>2002.7</ele>
        <time>2022-02-13T14:29:42Z</time>
      </trkpt>
      <trkpt lat="3.3643250" lon="-76.6163130">
        <ele>2003.1</ele>
        <time>2022-02-13T14:29:45Z</time>
      </trkpt>
      <trkpt lat="3.3642920" lon="-76.6163000">
        <ele>2003.7</ele>
        <time>2022-02-13T14:29:47Z</time>
      </trkpt>
      <trkpt lat="3.3642710" lon="-76.6162900">
        <ele>2004.2</ele>
        <time>2022-02-13T14:29:48Z</time>
      </trkpt>
      <trkpt lat="3.3642530" lon="-76.6162770">
        <ele>2004.5</ele>
        <time>2022-02-13T14:29:50Z</time>
      </trkpt>
      <trkpt lat="3.3642260" lon="-76.6162700">
        <ele>2005.0</ele>
        <time>2022-02-13T14:29:54Z</time>
      </trkpt>
      <trkpt lat="3.3641970" lon="-76.6162630">
        <ele>2005.5</ele>
        <time>2022-02-13T14:29:56Z</time>
      </trkpt>
      <trkpt lat="3.3641740" lon="-76.6162630">
        <ele>2005.8</ele>
        <time>2022-02-13T14:29:58Z</time>
      </trkpt>
      <trkpt lat="3.3641420" lon="-76.6162610">
        <ele>2006.3</ele>
        <time>2022-02-13T14:30:02Z</time>
      </trkpt>
      <trkpt lat="3.3641330" lon="-76.6162620">
        <ele>2006.4</ele>
        <time>2022-02-13T14:30:04Z</time>
      </trkpt>
      <trkpt lat="3.3641150" lon="-76.6162590">
        <ele>2006.6</ele>
        <time>2022-02-13T14:30:06Z</time>
      </trkpt>
      <trkpt lat="3.3641020" lon="-76.6162240">
        <ele>2007.1</ele>
        <time>2022-02-13T14:30:10Z</time>
      </trkpt>
      <trkpt lat="3.3640910" lon="-76.6162190">
        <ele>2007.2</ele>
        <time>2022-02-13T14:30:11Z</time>
      </trkpt>
      <trkpt lat="3.3640720" lon="-76.6162220">
        <ele>2007.4</ele>
        <time>2022-02-13T14:30:12Z</time>
      </trkpt>
      <trkpt lat="3.3640580" lon="-76.6162270">
        <ele>2007.5</ele>
        <time>2022-02-13T14:30:14Z</time>
      </trkpt>
      <trkpt lat="3.3640500" lon="-76.6162300">
        <ele>2007.6</ele>
        <time>2022-02-13T14:30:15Z</time>
      </trkpt>
      <trkpt lat="3.3640350" lon="-76.6162390">
        <ele>2007.8</ele>
        <time>2022-02-13T14:30:17Z</time>
      </trkpt>
      <trkpt lat="3.3640160" lon="-76.6162430">
        <ele>2007.9</ele>
        <time>2022-02-13T14:30:19Z</time>
      </trkpt>
      <trkpt lat="3.3640010" lon="-76.6162550">
        <ele>2008.0</ele>
        <time>2022-02-13T14:30:21Z</time>
      </trkpt>
      <trkpt lat="3.3639710" lon="-76.6162730">
        <ele>2008.2</ele>
        <time>2022-02-13T14:30:25Z</time>
      </trkpt>
      <trkpt lat="3.3639680" lon="-76.6162730">
        <ele>2008.3</ele>
        <time>2022-02-13T14:30:27Z</time>
      </trkpt>
      <trkpt lat="3.3639720" lon="-76.6162870">
        <ele>2008.3</ele>
        <time>2022-02-13T14:30:31Z</time>
      </trkpt>
      <trkpt lat="3.3639400" lon="-76.6163050">
        <ele>2008.5</ele>
        <time>2022-02-13T14:30:38Z</time>
      </trkpt>
      <trkpt lat="3.3638890" lon="-76.6163090">
        <ele>2008.6</ele>
        <time>2022-02-13T14:30:44Z</time>
      </trkpt>
      <trkpt lat="3.3638580" lon="-76.6162980">
        <ele>2008.6</ele>
        <time>2022-02-13T14:30:49Z</time>
      </trkpt>
      <trkpt lat="3.3638520" lon="-76.6162960">
        <ele>2008.6</ele>
        <time>2022-02-13T14:30:51Z</time>
      </trkpt>
      <trkpt lat="3.3638470" lon="-76.6162880">
        <ele>2008.6</ele>
        <time>2022-02-13T14:30:54Z</time>
      </trkpt>
      <trkpt lat="3.3638420" lon="-76.6163060">
        <ele>2008.7</ele>
        <time>2022-02-13T14:30:58Z</time>
      </trkpt>
      <trkpt lat="3.3638450" lon="-76.6163230">
        <ele>2008.7</ele>
        <time>2022-02-13T14:31:02Z</time>
      </trkpt>
      <trkpt lat="3.3638400" lon="-76.6163550">
        <ele>2008.7</ele>
        <time>2022-02-13T14:31:06Z</time>
      </trkpt>
      <trkpt lat="3.3638050" lon="-76.6164120">
        <ele>2008.6</ele>
        <time>2022-02-13T14:31:12Z</time>
      </trkpt>
      <trkpt lat="3.3638040" lon="-76.6164160">
        <ele>2008.6</ele>
        <time>2022-02-13T14:31:16Z</time>
      </trkpt>
      <trkpt lat="3.3638120" lon="-76.6164320">
        <ele>2008.6</ele>
        <time>2022-02-13T14:31:21Z</time>
      </trkpt>
      <trkpt lat="3.3638110" lon="-76.6164490">
        <ele>2008.6</ele>
        <time>2022-02-13T14:31:27Z</time>
      </trkpt>
      <trkpt lat="3.3638100" lon="-76.6164480">
        <ele>2008.6</ele>
        <time>2022-02-13T14:31:28Z</time>
      </trkpt>
      <trkpt lat="3.3638700" lon="-76.6164800">
        <ele>2008.6</ele>
        <time>2022-02-13T14:35:16Z</time>
      </trkpt>
      <trkpt lat="3.3638700" lon="-76.6164800">
        <ele>2008.6</ele>
        <time>2022-02-13T14:35:17Z</time>
      </trkpt>
      <trkpt lat="3.3638640" lon="-76.6164960">
        <ele>2008.6</ele>
        <time>2022-02-13T14:35:20Z</time>
      </trkpt>
      <trkpt lat="3.3638540" lon="-76.6165070">
        <ele>2008.6</ele>
        <time>2022-02-13T14:35:23Z</time>
      </trkpt>
      <trkpt lat="3.3638490" lon="-76.6165160">
        <ele>2008.6</ele>
        <time>2022-02-13T14:35:27Z</time>
      </trkpt>
      <trkpt lat="3.3638270" lon="-76.6165320">
        <ele>2008.6</ele>
        <time>2022-02-13T14:35:32Z</time>
      </trkpt>
      <trkpt lat="3.3638230" lon="-76.6165350">
        <ele>2008.6</ele>
        <time>2022-02-13T14:35:33Z</time>
      </trkpt>
      <trkpt lat="3.3637720" lon="-76.6165750">
        <ele>2008.8</ele>
        <time>2022-02-13T14:35:37Z</time>
      </trkpt>
      <trkpt lat="3.3637580" lon="-76.6165890">
        <ele>2008.8</ele>
        <time>2022-02-13T14:35:39Z</time>
      </trkpt>
      <trkpt lat="3.3636820" lon="-76.6166020">
        <ele>2009.2</ele>
        <time>2022-02-13T14:35:46Z</time>
      </trkpt>
      <trkpt lat="3.3636360" lon="-76.6166080">
        <ele>2009.4</ele>
        <time>2022-02-13T14:35:50Z</time>
      </trkpt>
      <trkpt lat="3.3636330" lon="-76.6166120">
        <ele>2009.5</ele>
        <time>2022-02-13T14:35:51Z</time>
      </trkpt>
      <trkpt lat="3.3636250" lon="-76.6166140">
        <ele>2009.5</ele>
        <time>2022-02-13T14:35:52Z</time>
      </trkpt>
      <trkpt lat="3.3636340" lon="-76.6166320">
        <ele>2009.7</ele>
        <time>2022-02-13T14:35:55Z</time>
      </trkpt>
      <trkpt lat="3.3636220" lon="-76.6166410">
        <ele>2009.8</ele>
        <time>2022-02-13T14:35:56Z</time>
      </trkpt>
      <trkpt lat="3.3636190" lon="-76.6166530">
        <ele>2009.9</ele>
        <time>2022-02-13T14:35:58Z</time>
      </trkpt>
      <trkpt lat="3.3636130" lon="-76.6166780">
        <ele>2010.1</ele>
        <time>2022-02-13T14:36:00Z</time>
      </trkpt>
      <trkpt lat="3.3635990" lon="-76.6167280">
        <ele>2010.5</ele>
        <time>2022-02-13T14:36:05Z</time>
      </trkpt>
      <trkpt lat="3.3636060" lon="-76.6167680">
        <ele>2010.8</ele>
        <time>2022-02-13T14:36:07Z</time>
      </trkpt>
      <trkpt lat="3.3635660" lon="-76.6167770">
        <ele>2011.1</ele>
        <time>2022-02-13T14:36:09Z</time>
      </trkpt>
      <trkpt lat="3.3635490" lon="-76.6167850">
        <ele>2011.2</ele>
        <time>2022-02-13T14:36:11Z</time>
      </trkpt>
      <trkpt lat="3.3635600" lon="-76.6168100">
        <ele>2011.4</ele>
        <time>2022-02-13T14:36:15Z</time>
      </trkpt>
      <trkpt lat="3.3635570" lon="-76.6168250">
        <ele>2011.5</ele>
        <time>2022-02-13T14:36:17Z</time>
      </trkpt>
      <trkpt lat="3.3635360" lon="-76.6168680">
        <ele>2011.7</ele>
        <time>2022-02-13T14:36:23Z</time>
      </trkpt>
      <trkpt lat="3.3635240" lon="-76.6169390">
        <ele>2012.0</ele>
        <time>2022-02-13T14:36:29Z</time>
      </trkpt>
      <trkpt lat="3.3634940" lon="-76.6169840">
        <ele>2012.1</ele>
        <time>2022-02-13T14:36:35Z</time>
      </trkpt>
      <trkpt lat="3.3635070" lon="-76.6170040">
        <ele>2012.1</ele>
        <time>2022-02-13T14:36:37Z</time>
      </trkpt>
      <trkpt lat="3.3635160" lon="-76.6170390">
        <ele>2012.1</ele>
        <time>2022-02-13T14:36:40Z</time>
      </trkpt>
      <trkpt lat="3.3634910" lon="-76.6170420">
        <ele>2012.0</ele>
        <time>2022-02-13T14:36:41Z</time>
      </trkpt>
      <trkpt lat="3.3634750" lon="-76.6170490">
        <ele>2011.9</ele>
        <time>2022-02-13T14:36:42Z</time>
      </trkpt>
      <trkpt lat="3.3634460" lon="-76.6170880">
        <ele>2011.7</ele>
        <time>2022-02-13T14:36:47Z</time>
      </trkpt>
      <trkpt lat="3.3634170" lon="-76.6171520">
        <ele>2011.2</ele>
        <time>2022-02-13T14:36:53Z</time>
      </trkpt>
      <trkpt lat="3.3633990" lon="-76.6171950">
        <ele>2010.8</ele>
        <time>2022-02-13T14:36:56Z</time>
      </trkpt>
      <trkpt lat="3.3633910" lon="-76.6172130">
        <ele>2010.6</ele>
        <time>2022-02-13T14:36:58Z</time>
      </trkpt>
      <trkpt lat="3.3633870" lon="-76.6172210">
        <ele>2010.5</ele>
        <time>2022-02-13T14:36:59Z</time>
      </trkpt>
      <trkpt lat="3.3633750" lon="-76.6172400">
        <ele>2010.3</ele>
        <time>2022-02-13T14:37:01Z</time>
      </trkpt>
      <trkpt lat="3.3633720" lon="-76.6172620">
        <ele>2010.0</ele>
        <time>2022-02-13T14:37:04Z</time>
      </trkpt>
      <trkpt lat="3.3633640" lon="-76.6172660">
        <ele>2009.9</ele>
        <time>2022-02-13T14:37:06Z</time>
      </trkpt>
      <trkpt lat="3.3633820" lon="-76.6172720">
        <ele>2009.7</ele>
        <time>2022-02-13T14:37:08Z</time>
      </trkpt>
      <trkpt lat="3.3633830" lon="-76.6172730">
        <ele>2009.7</ele>
        <time>2022-02-13T14:37:09Z</time>
      </trkpt>
      <trkpt lat="3.3633820" lon="-76.6172740">
        <ele>2009.7</ele>
        <time>2022-02-13T14:37:11Z</time>
      </trkpt>
      <trkpt lat="3.3633750" lon="-76.6172830">
        <ele>2009.5</ele>
        <time>2022-02-13T14:37:16Z</time>
      </trkpt>
      <trkpt lat="3.3633740" lon="-76.6172870">
        <ele>2009.5</ele>
        <time>2022-02-13T14:37:19Z</time>
      </trkpt>
      <trkpt lat="3.3633720" lon="-76.6172850">
        <ele>2009.5</ele>
        <time>2022-02-13T14:37:21Z</time>
      </trkpt>
      <trkpt lat="3.3633650" lon="-76.6172810">
        <ele>2009.4</ele>
        <time>2022-02-13T14:37:28Z</time>
      </trkpt>
      <trkpt lat="3.3633650" lon="-76.6172810">
        <ele>2009.4</ele>
        <time>2022-02-13T14:37:30Z</time>
      </trkpt>
      <trkpt lat="3.3634300" lon="-76.6173780">
        <ele>2007.9</ele>
        <time>2022-02-13T14:39:28Z</time>
      </trkpt>
      <trkpt lat="3.3634300" lon="-76.6173780">
        <ele>2007.9</ele>
        <time>2022-02-13T14:39:29Z</time>
      </trkpt>
      <trkpt lat="3.3634070" lon="-76.6173320">
        <ele>2007.2</ele>
        <time>2022-02-13T14:39:32Z</time>
      </trkpt>
      <trkpt lat="3.3634100" lon="-76.6173250">
        <ele>2007.1</ele>
        <time>2022-02-13T14:39:36Z</time>
      </trkpt>
      <trkpt lat="3.3634140" lon="-76.6173240">
        <ele>2007.0</ele>
        <time>2022-02-13T14:39:37Z</time>
      </trkpt>
      <trkpt lat="3.3634150" lon="-76.6173270">
        <ele>2007.0</ele>
        <time>2022-02-13T14:39:44Z</time>
      </trkpt>
      <trkpt lat="3.3633490" lon="-76.6173340">
        <ele>2006.2</ele>
        <time>2022-02-13T14:39:52Z</time>
      </trkpt>
      <trkpt lat="3.3633360" lon="-76.6173340">
        <ele>2006.0</ele>
        <time>2022-02-13T14:39:56Z</time>
      </trkpt>
      <trkpt lat="3.3633060" lon="-76.6173330">
        <ele>2005.7</ele>
        <time>2022-02-13T14:40:01Z</time>
      </trkpt>
      <trkpt lat="3.3632710" lon="-76.6173230">
        <ele>2005.3</ele>
        <time>2022-02-13T14:40:06Z</time>
      </trkpt>
      <trkpt lat="3.3632380" lon="-76.6173410">
        <ele>2004.9</ele>
        <time>2022-02-13T14:40:12Z</time>
      </trkpt>
      <trkpt lat="3.3632210" lon="-76.6173580">
        <ele>2004.7</ele>
        <time>2022-02-13T14:40:16Z</time>
      </trkpt>
      <trkpt lat="3.3632010" lon="-76.6173700">
        <ele>2004.4</ele>
        <time>2022-02-13T14:40:18Z</time>
      </trkpt>
      <trkpt lat="3.3631300" lon="-76.6173970">
        <ele>2003.8</ele>
        <time>2022-02-13T14:40:25Z</time>
      </trkpt>
      <trkpt lat="3.3630830" lon="-76.6173970">
        <ele>2003.4</ele>
        <time>2022-02-13T14:40:32Z</time>
      </trkpt>
      <trkpt lat="3.3630390" lon="-76.6174000">
        <ele>2003.1</ele>
        <time>2022-02-13T14:40:40Z</time>
      </trkpt>
      <trkpt lat="3.3630220" lon="-76.6174090">
        <ele>2003.0</ele>
        <time>2022-02-13T14:40:46Z</time>
      </trkpt>
      <trkpt lat="3.3629980" lon="-76.6174040">
        <ele>2002.8</ele>
        <time>2022-02-13T14:40:50Z</time>
      </trkpt>
      <trkpt lat="3.3629900" lon="-76.6174010">
        <ele>2002.8</ele>
        <time>2022-02-13T14:40:53Z</time>
      </trkpt>
      <trkpt lat="3.3629810" lon="-76.6173980">
        <ele>2002.8</ele>
        <time>2022-02-13T14:40:55Z</time>
      </trkpt>
      <trkpt lat="3.3629450" lon="-76.6174260">
        <ele>2002.6</ele>
        <time>2022-02-13T14:40:59Z</time>
      </trkpt>
      <trkpt lat="3.3629200" lon="-76.6174300">
        <ele>2002.5</ele>
        <time>2022-02-13T14:41:02Z</time>
      </trkpt>
      <trkpt lat="3.3628900" lon="-76.6174270">
        <ele>2002.4</ele>
        <time>2022-02-13T14:41:04Z</time>
      </trkpt>
      <trkpt lat="3.3628130" lon="-76.6174250">
        <ele>2002.4</ele>
        <time>2022-02-13T14:41:10Z</time>
      </trkpt>
      <trkpt lat="3.3628000" lon="-76.6174170">
        <ele>2002.4</ele>
        <time>2022-02-13T14:41:11Z</time>
      </trkpt>
      <trkpt lat="3.3627450" lon="-76.6174130">
        <ele>2002.4</ele>
        <time>2022-02-13T14:41:15Z</time>
      </trkpt>
      <trkpt lat="3.3627330" lon="-76.6174160">
        <ele>2002.4</ele>
        <time>2022-02-13T14:41:16Z</time>
      </trkpt>
      <trkpt lat="3.3627290" lon="-76.6174140">
        <ele>2002.4</ele>
        <time>2022-02-13T14:41:18Z</time>
      </trkpt>
      <trkpt lat="3.3627130" lon="-76.6174060">
        <ele>2002.5</ele>
        <time>2022-02-13T14:41:20Z</time>
      </trkpt>
      <trkpt lat="3.3627090" lon="-76.6174030">
        <ele>2002.5</ele>
        <time>2022-02-13T14:41:22Z</time>
      </trkpt>
      <trkpt lat="3.3627090" lon="-76.6173940">
        <ele>2002.5</ele>
        <time>2022-02-13T14:41:24Z</time>
      </trkpt>
      <trkpt lat="3.3626950" lon="-76.6173900">
        <ele>2002.5</ele>
        <time>2022-02-13T14:41:26Z</time>
      </trkpt>
      <trkpt lat="3.3626680" lon="-76.6173700">
        <ele>2002.6</ele>
        <time>2022-02-13T14:41:28Z</time>
      </trkpt>
      <trkpt lat="3.3626440" lon="-76.6173780">
        <ele>2002.7</ele>
        <time>2022-02-13T14:41:30Z</time>
      </trkpt>
      <trkpt lat="3.3626320" lon="-76.6173990">
        <ele>2002.8</ele>
        <time>2022-02-13T14:41:32Z</time>
      </trkpt>
      <trkpt lat="3.3626190" lon="-76.6174180">
        <ele>2002.8</ele>
        <time>2022-02-13T14:41:35Z</time>
      </trkpt>
      <trkpt lat="3.3625810" lon="-76.6174080">
        <ele>2003.0</ele>
        <time>2022-02-13T14:41:38Z</time>
      </trkpt>
      <trkpt lat="3.3625400" lon="-76.6173750">
        <ele>2003.1</ele>
        <time>2022-02-13T14:41:42Z</time>
      </trkpt>
      <trkpt lat="3.3624820" lon="-76.6173080">
        <ele>2003.3</ele>
        <time>2022-02-13T14:41:47Z</time>
      </trkpt>
      <trkpt lat="3.3624760" lon="-76.6173030">
        <ele>2003.3</ele>
        <time>2022-02-13T14:41:48Z</time>
      </trkpt>
      <trkpt lat="3.3624590" lon="-76.6173010">
        <ele>2003.4</ele>
        <time>2022-02-13T14:41:50Z</time>
      </trkpt>
      <trkpt lat="3.3624440" lon="-76.6172890">
        <ele>2003.4</ele>
        <time>2022-02-13T14:41:52Z</time>
      </trkpt>
      <trkpt lat="3.3624340" lon="-76.6172860">
        <ele>2003.4</ele>
        <time>2022-02-13T14:41:53Z</time>
      </trkpt>
      <trkpt lat="3.3623770" lon="-76.6172830">
        <ele>2003.4</ele>
        <time>2022-02-13T14:41:57Z</time>
      </trkpt>
      <trkpt lat="3.3623370" lon="-76.6172910">
        <ele>2003.4</ele>
        <time>2022-02-13T14:41:59Z</time>
      </trkpt>
      <trkpt lat="3.3622880" lon="-76.6172720">
        <ele>2003.3</ele>
        <time>2022-02-13T14:42:04Z</time>
      </trkpt>
      <trkpt lat="3.3622820" lon="-76.6172680">
        <ele>2003.3</ele>
        <time>2022-02-13T14:42:06Z</time>
      </trkpt>
      <trkpt lat="3.3622760" lon="-76.6172750">
        <ele>2003.3</ele>
        <time>2022-02-13T14:42:09Z</time>
      </trkpt>
      <trkpt lat="3.3622710" lon="-76.6172790">
        <ele>2003.3</ele>
        <time>2022-02-13T14:42:10Z</time>
      </trkpt>
      <trkpt lat="3.3622690" lon="-76.6172810">
        <ele>2003.3</ele>
        <time>2022-02-13T14:42:11Z</time>
      </trkpt>
      <trkpt lat="3.3622680" lon="-76.6172830">
        <ele>2003.3</ele>
        <time>2022-02-13T14:42:12Z</time>
      </trkpt>
      <trkpt lat="3.3622730" lon="-76.6173130">
        <ele>2003.2</ele>
        <time>2022-02-13T14:42:15Z</time>
      </trkpt>
      <trkpt lat="3.3622700" lon="-76.6172940">
        <ele>2003.1</ele>
        <time>2022-02-13T14:42:19Z</time>
      </trkpt>
      <trkpt lat="3.3622580" lon="-76.6172670">
        <ele>2003.1</ele>
        <time>2022-02-13T14:42:25Z</time>
      </trkpt>
      <trkpt lat="3.3622550" lon="-76.6172580">
        <ele>2003.0</ele>
        <time>2022-02-13T14:42:27Z</time>
      </trkpt>
      <trkpt lat="3.3622180" lon="-76.6172790">
        <ele>2002.9</ele>
        <time>2022-02-13T14:43:39Z</time>
      </trkpt>
      <trkpt lat="3.3622090" lon="-76.6172670">
        <ele>2002.9</ele>
        <time>2022-02-13T14:43:43Z</time>
      </trkpt>
      <trkpt lat="3.3621910" lon="-76.6172650">
        <ele>2002.8</ele>
        <time>2022-02-13T14:43:48Z</time>
      </trkpt>
      <trkpt lat="3.3621910" lon="-76.6172650">
        <ele>2002.8</ele>
        <time>2022-02-13T14:43:53Z</time>
      </trkpt>
      <trkpt lat="3.3621910" lon="-76.6172650">
        <ele>2002.8</ele>
        <time>2022-02-13T14:43:58Z</time>
      </trkpt>
      <trkpt lat="3.3621910" lon="-76.6172650">
        <ele>2002.8</ele>
        <time>2022-02-13T14:44:00Z</time>
      </trkpt>
      <trkpt lat="3.3621890" lon="-76.6172650">
        <ele>2002.8</ele>
        <time>2022-02-13T14:44:05Z</time>
      </trkpt>
      <trkpt lat="3.3621870" lon="-76.6172650">
        <ele>2002.8</ele>
        <time>2022-02-13T14:44:06Z</time>
      </trkpt>
      <trkpt lat="3.3621830" lon="-76.6172660">
        <ele>2002.8</ele>
        <time>2022-02-13T14:44:07Z</time>
      </trkpt>
      <trkpt lat="3.3621770" lon="-76.6172670">
        <ele>2002.8</ele>
        <time>2022-02-13T14:44:09Z</time>
      </trkpt>
      <trkpt lat="3.3621600" lon="-76.6172620">
        <ele>2002.8</ele>
        <time>2022-02-13T14:44:13Z</time>
      </trkpt>
      <trkpt lat="3.3621500" lon="-76.6172570">
        <ele>2002.7</ele>
        <time>2022-02-13T14:44:14Z</time>
      </trkpt>
      <trkpt lat="3.3620780" lon="-76.6172040">
        <ele>2002.5</ele>
        <time>2022-02-13T14:44:18Z</time>
      </trkpt>
      <trkpt lat="3.3620550" lon="-76.6171910">
        <ele>2002.4</ele>
        <time>2022-02-13T14:44:19Z</time>
      </trkpt>
      <trkpt lat="3.3620420" lon="-76.6171950">
        <ele>2002.4</ele>
        <time>2022-02-13T14:44:22Z</time>
      </trkpt>
      <trkpt lat="3.3620430" lon="-76.6172280">
        <ele>2002.3</ele>
        <time>2022-02-13T14:44:24Z</time>
      </trkpt>
      <trkpt lat="3.3620090" lon="-76.6172600">
        <ele>2002.1</ele>
        <time>2022-02-13T14:44:29Z</time>
      </trkpt>
      <trkpt lat="3.3620030" lon="-76.6172780">
        <ele>2002.0</ele>
        <time>2022-02-13T14:44:32Z</time>
      </trkpt>
      <trkpt lat="3.3620080" lon="-76.6172810">
        <ele>2002.0</ele>
        <time>2022-02-13T14:44:33Z</time>
      </trkpt>
      <trkpt lat="3.3620120" lon="-76.6172770">
        <ele>2002.0</ele>
        <time>2022-02-13T14:44:35Z</time>
      </trkpt>
      <trkpt lat="3.3620060" lon="-76.6172780">
        <ele>2002.0</ele>
        <time>2022-02-13T14:44:37Z</time>
      </trkpt>
      <trkpt lat="3.3619900" lon="-76.6172890">
        <ele>2001.9</ele>
        <time>2022-02-13T14:44:39Z</time>
      </trkpt>
      <trkpt lat="3.3619770" lon="-76.6173620">
        <ele>2001.6</ele>
        <time>2022-02-13T14:44:43Z</time>
      </trkpt>
      <trkpt lat="3.3619950" lon="-76.6174040">
        <ele>2001.5</ele>
        <time>2022-02-13T14:44:47Z</time>
      </trkpt>
      <trkpt lat="3.3619770" lon="-76.6174150">
        <ele>2001.4</ele>
        <time>2022-02-13T14:44:51Z</time>
      </trkpt>
      <trkpt lat="3.3619640" lon="-76.6174260">
        <ele>2001.3</ele>
        <time>2022-02-13T14:44:53Z</time>
      </trkpt>
      <trkpt lat="3.3619260" lon="-76.6174270">
        <ele>2001.1</ele>
        <time>2022-02-13T14:44:56Z</time>
      </trkpt>
      <trkpt lat="3.3619100" lon="-76.6174290">
        <ele>2001.1</ele>
        <time>2022-02-13T14:44:58Z</time>
      </trkpt>
      <trkpt lat="3.3618850" lon="-76.6174400">
        <ele>2000.9</ele>
        <time>2022-02-13T14:45:01Z</time>
      </trkpt>
      <trkpt lat="3.3618550" lon="-76.6174450">
        <ele>2000.8</ele>
        <time>2022-02-13T14:45:03Z</time>
      </trkpt>
      <trkpt lat="3.3618170" lon="-76.6174570">
        <ele>2000.5</ele>
        <time>2022-02-13T14:45:06Z</time>
      </trkpt>
      <trkpt lat="3.3618040" lon="-76.6174610">
        <ele>2000.4</ele>
        <time>2022-02-13T14:45:07Z</time>
      </trkpt>
      <trkpt lat="3.3617890" lon="-76.6174660">
        <ele>2000.3</ele>
        <time>2022-02-13T14:45:09Z</time>
      </trkpt>
      <trkpt lat="3.3617930" lon="-76.6174780">
        <ele>2000.3</ele>
        <time>2022-02-13T14:45:13Z</time>
      </trkpt>
      <trkpt lat="3.3617880" lon="-76.6174840">
        <ele>2000.2</ele>
        <time>2022-02-13T14:45:14Z</time>
      </trkpt>
      <trkpt lat="3.3617870" lon="-76.6175240">
        <ele>1999.9</ele>
        <time>2022-02-13T14:45:17Z</time>
      </trkpt>
      <trkpt lat="3.3617850" lon="-76.6175360">
        <ele>1999.9</ele>
        <time>2022-02-13T14:45:18Z</time>
      </trkpt>
      <trkpt lat="3.3617750" lon="-76.6175400">
        <ele>1999.8</ele>
        <time>2022-02-13T14:45:19Z</time>
      </trkpt>
      <trkpt lat="3.3617370" lon="-76.6175490">
        <ele>1999.5</ele>
        <time>2022-02-13T14:45:23Z</time>
      </trkpt>
      <trkpt lat="3.3617270" lon="-76.6175570">
        <ele>1999.4</ele>
        <time>2022-02-13T14:45:24Z</time>
      </trkpt>
      <trkpt lat="3.3617200" lon="-76.6175760">
        <ele>1999.3</ele>
        <time>2022-02-13T14:45:27Z</time>
      </trkpt>
      <trkpt lat="3.3617130" lon="-76.6175770">
        <ele>1999.3</ele>
        <time>2022-02-13T14:45:28Z</time>
      </trkpt>
      <trkpt lat="3.3616300" lon="-76.6175690">
        <ele>1998.8</ele>
        <time>2022-02-13T14:45:33Z</time>
      </trkpt>
      <trkpt lat="3.3616190" lon="-76.6175920">
        <ele>1998.6</ele>
        <time>2022-02-13T14:45:36Z</time>
      </trkpt>
      <trkpt lat="3.3616040" lon="-76.6175930">
        <ele>1998.6</ele>
        <time>2022-02-13T14:45:38Z</time>
      </trkpt>
      <trkpt lat="3.3615930" lon="-76.6175940">
        <ele>1998.5</ele>
        <time>2022-02-13T14:45:39Z</time>
      </trkpt>
      <trkpt lat="3.3615880" lon="-76.6176020">
        <ele>1998.5</ele>
        <time>2022-02-13T14:45:40Z</time>
      </trkpt>
      <trkpt lat="3.3615740" lon="-76.6176220">
        <ele>1998.4</ele>
        <time>2022-02-13T14:45:43Z</time>
      </trkpt>
      <trkpt lat="3.3615510" lon="-76.6176470">
        <ele>1998.2</ele>
        <time>2022-02-13T14:45:47Z</time>
      </trkpt>
      <trkpt lat="3.3615460" lon="-76.6176610">
        <ele>1998.2</ele>
        <time>2022-02-13T14:45:49Z</time>
      </trkpt>
      <trkpt lat="3.3615420" lon="-76.6176980">
        <ele>1998.0</ele>
        <time>2022-02-13T14:45:55Z</time>
      </trkpt>
      <trkpt lat="3.3615490" lon="-76.6177210">
        <ele>1997.9</ele>
        <time>2022-02-13T14:45:58Z</time>
      </trkpt>
      <trkpt lat="3.3615610" lon="-76.6177320">
        <ele>1997.9</ele>
        <time>2022-02-13T14:46:01Z</time>
      </trkpt>
      <trkpt lat="3.3615630" lon="-76.6177350">
        <ele>1997.9</ele>
        <time>2022-02-13T14:46:02Z</time>
      </trkpt>
      <trkpt lat="3.3615710" lon="-76.6177780">
        <ele>1997.7</ele>
        <time>2022-02-13T14:46:05Z</time>
      </trkpt>
      <trkpt lat="3.3615440" lon="-76.6178160">
        <ele>1997.5</ele>
        <time>2022-02-13T14:46:10Z</time>
      </trkpt>
      <trkpt lat="3.3615320" lon="-76.6178340">
        <ele>1997.4</ele>
        <time>2022-02-13T14:46:12Z</time>
      </trkpt>
      <trkpt lat="3.3615350" lon="-76.6178910">
        <ele>1997.2</ele>
        <time>2022-02-13T14:46:16Z</time>
      </trkpt>
      <trkpt lat="3.3615250" lon="-76.6179310">
        <ele>1997.1</ele>
        <time>2022-02-13T14:46:20Z</time>
      </trkpt>
      <trkpt lat="3.3615300" lon="-76.6179610">
        <ele>1996.9</ele>
        <time>2022-02-13T14:46:23Z</time>
      </trkpt>
      <trkpt lat="3.3615290" lon="-76.6179930">
        <ele>1996.8</ele>
        <time>2022-02-13T14:46:25Z</time>
      </trkpt>
      <trkpt lat="3.3615280" lon="-76.6180360">
        <ele>1996.5</ele>
        <time>2022-02-13T14:46:29Z</time>
      </trkpt>
      <trkpt lat="3.3615230" lon="-76.6180420">
        <ele>1996.5</ele>
        <time>2022-02-13T14:46:30Z</time>
      </trkpt>
      <trkpt lat="3.3615100" lon="-76.6180640">
        <ele>1996.3</ele>
        <time>2022-02-13T14:46:33Z</time>
      </trkpt>
      <trkpt lat="3.3614900" lon="-76.6180830">
        <ele>1996.1</ele>
        <time>2022-02-13T14:46:35Z</time>
      </trkpt>
      <trkpt lat="3.3614760" lon="-76.6181180">
        <ele>1995.8</ele>
        <time>2022-02-13T14:46:38Z</time>
      </trkpt>
      <trkpt lat="3.3614720" lon="-76.6181320">
        <ele>1995.7</ele>
        <time>2022-02-13T14:46:39Z</time>
      </trkpt>
      <trkpt lat="3.3614240" lon="-76.6181870">
        <ele>1995.1</ele>
        <time>2022-02-13T14:46:47Z</time>
      </trkpt>
      <trkpt lat="3.3613540" lon="-76.6181930">
        <ele>1994.3</ele>
        <time>2022-02-13T14:46:55Z</time>
      </trkpt>
      <trkpt lat="3.3613440" lon="-76.6181910">
        <ele>1994.2</ele>
        <time>2022-02-13T14:46:56Z</time>
      </trkpt>
      <trkpt lat="3.3612730" lon="-76.6181920">
        <ele>1993.5</ele>
        <time>2022-02-13T14:47:02Z</time>
      </trkpt>
      <trkpt lat="3.3612390" lon="-76.6182050">
        <ele>1993.1</ele>
        <time>2022-02-13T14:47:05Z</time>
      </trkpt>
      <trkpt lat="3.3612290" lon="-76.6182190">
        <ele>1993.0</ele>
        <time>2022-02-13T14:47:07Z</time>
      </trkpt>
      <trkpt lat="3.3612110" lon="-76.6182360">
        <ele>1992.7</ele>
        <time>2022-02-13T14:47:09Z</time>
      </trkpt>
      <trkpt lat="3.3611980" lon="-76.6182360">
        <ele>1992.6</ele>
        <time>2022-02-13T14:47:10Z</time>
      </trkpt>
      <trkpt lat="3.3611770" lon="-76.6182350">
        <ele>1992.4</ele>
        <time>2022-02-13T14:47:12Z</time>
      </trkpt>
      <trkpt lat="3.3611610" lon="-76.6182350">
        <ele>1992.2</ele>
        <time>2022-02-13T14:47:14Z</time>
      </trkpt>
      <trkpt lat="3.3611050" lon="-76.6182280">
        <ele>1991.7</ele>
        <time>2022-02-13T14:47:20Z</time>
      </trkpt>
      <trkpt lat="3.3610750" lon="-76.6182380">
        <ele>1991.4</ele>
        <time>2022-02-13T14:47:23Z</time>
      </trkpt>
      <trkpt lat="3.3610540" lon="-76.6182500">
        <ele>1991.2</ele>
        <time>2022-02-13T14:47:25Z</time>
      </trkpt>
      <trkpt lat="3.3610300" lon="-76.6182690">
        <ele>1990.9</ele>
        <time>2022-02-13T14:47:27Z</time>
      </trkpt>
      <trkpt lat="3.3610260" lon="-76.6182850">
        <ele>1990.8</ele>
        <time>2022-02-13T14:47:28Z</time>
      </trkpt>
      <trkpt lat="3.3609960" lon="-76.6183080">
        <ele>1990.5</ele>
        <time>2022-02-13T14:47:31Z</time>
      </trkpt>
      <trkpt lat="3.3609830" lon="-76.6183070">
        <ele>1990.4</ele>
        <time>2022-02-13T14:47:32Z</time>
      </trkpt>
      <trkpt lat="3.3609520" lon="-76.6182960">
        <ele>1990.1</ele>
        <time>2022-02-13T14:47:34Z</time>
      </trkpt>
      <trkpt lat="3.3609130" lon="-76.6182950">
        <ele>1989.8</ele>
        <time>2022-02-13T14:47:38Z</time>
      </trkpt>
      <trkpt lat="3.3608580" lon="-76.6183260">
        <ele>1989.4</ele>
        <time>2022-02-13T14:47:44Z</time>
      </trkpt>
      <trkpt lat="3.3608510" lon="-76.6183360">
        <ele>1989.3</ele>
        <time>2022-02-13T14:47:45Z</time>
      </trkpt>
      <trkpt lat="3.3608360" lon="-76.6183430">
        <ele>1989.2</ele>
        <time>2022-02-13T14:47:46Z</time>
      </trkpt>
      <trkpt lat="3.3607680" lon="-76.6183470">
        <ele>1988.9</ele>
        <time>2022-02-13T14:47:51Z</time>
      </trkpt>
      <trkpt lat="3.3607550" lon="-76.6183550">
        <ele>1988.8</ele>
        <time>2022-02-13T14:47:53Z</time>
      </trkpt>
      <trkpt lat="3.3607330" lon="-76.6183690">
        <ele>1988.7</ele>
        <time>2022-02-13T14:47:55Z</time>
      </trkpt>
      <trkpt lat="3.3606890" lon="-76.6183760">
        <ele>1988.6</ele>
        <time>2022-02-13T14:47:59Z</time>
      </trkpt>
      <trkpt lat="3.3606500" lon="-76.6183900">
        <ele>1988.5</ele>
        <time>2022-02-13T14:48:02Z</time>
      </trkpt>
      <trkpt lat="3.3606330" lon="-76.6184000">
        <ele>1988.4</ele>
        <time>2022-02-13T14:48:04Z</time>
      </trkpt>
      <trkpt lat="3.3606240" lon="-76.6184040">
        <ele>1988.4</ele>
        <time>2022-02-13T14:48:05Z</time>
      </trkpt>
      <trkpt lat="3.3605920" lon="-76.6184320">
        <ele>1988.3</ele>
        <time>2022-02-13T14:48:11Z</time>
      </trkpt>
      <trkpt lat="3.3605930" lon="-76.6184330">
        <ele>1988.3</ele>
        <time>2022-02-13T14:48:12Z</time>
      </trkpt>
      <trkpt lat="3.3605960" lon="-76.6184430">
        <ele>1988.3</ele>
        <time>2022-02-13T14:48:19Z</time>
      </trkpt>
      <trkpt lat="3.3606010" lon="-76.6184440">
        <ele>1988.3</ele>
        <time>2022-02-13T14:48:23Z</time>
      </trkpt>
      <trkpt lat="3.3606030" lon="-76.6184460">
        <ele>1988.3</ele>
        <time>2022-02-13T14:48:27Z</time>
      </trkpt>
      <trkpt lat="3.3606030" lon="-76.6184460">
        <ele>1988.3</ele>
        <time>2022-02-13T14:48:34Z</time>
      </trkpt>
      <trkpt lat="3.3606030" lon="-76.6184460">
        <ele>1988.3</ele>
        <time>2022-02-13T14:48:39Z</time>
      </trkpt>
      <trkpt lat="3.3605920" lon="-76.6184440">
        <ele>1988.2</ele>
        <time>2022-02-13T14:48:58Z</time>
      </trkpt>
      <trkpt lat="3.3605880" lon="-76.6184440">
        <ele>1988.2</ele>
        <time>2022-02-13T14:49:08Z</time>
      </trkpt>
      <trkpt lat="3.3605880" lon="-76.6184440">
        <ele>1988.2</ele>
        <time>2022-02-13T14:49:11Z</time>
      </trkpt>
      <trkpt lat="3.3606140" lon="-76.6184580">
        <ele>1988.1</ele>
        <time>2022-02-13T14:50:07Z</time>
      </trkpt>
      <trkpt lat="3.3606140" lon="-76.6184580">
        <ele>1988.1</ele>
        <time>2022-02-13T14:50:08Z</time>
      </trkpt>
      <trkpt lat="3.3606110" lon="-76.6184600">
        <ele>1988.1</ele>
        <time>2022-02-13T14:50:11Z</time>
      </trkpt>
      <trkpt lat="3.3605600" lon="-76.6184840">
        <ele>1988.0</ele>
        <time>2022-02-13T14:50:18Z</time>
      </trkpt>
      <trkpt lat="3.3605440" lon="-76.6185290">
        <ele>1987.8</ele>
        <time>2022-02-13T14:50:25Z</time>
      </trkpt>
      <trkpt lat="3.3605500" lon="-76.6185390">
        <ele>1987.8</ele>
        <time>2022-02-13T14:50:32Z</time>
      </trkpt>
      <trkpt lat="3.3605360" lon="-76.6185890">
        <ele>1987.6</ele>
        <time>2022-02-13T14:50:38Z</time>
      </trkpt>
      <trkpt lat="3.3605000" lon="-76.6186440">
        <ele>1987.2</ele>
        <time>2022-02-13T14:50:44Z</time>
      </trkpt>
      <trkpt lat="3.3604200" lon="-76.6187030">
        <ele>1986.6</ele>
        <time>2022-02-13T14:50:51Z</time>
      </trkpt>
      <trkpt lat="3.3603810" lon="-76.6187290">
        <ele>1986.3</ele>
        <time>2022-02-13T14:50:56Z</time>
      </trkpt>
      <trkpt lat="3.3603730" lon="-76.6187300">
        <ele>1986.3</ele>
        <time>2022-02-13T14:50:57Z</time>
      </trkpt>
      <trkpt lat="3.3603570" lon="-76.6187350">
        <ele>1986.1</ele>
        <time>2022-02-13T14:50:59Z</time>
      </trkpt>
      <trkpt lat="3.3603160" lon="-76.6187420">
        <ele>1985.8</ele>
        <time>2022-02-13T14:51:03Z</time>
      </trkpt>
      <trkpt lat="3.3603080" lon="-76.6187430">
        <ele>1985.8</ele>
        <time>2022-02-13T14:51:04Z</time>
      </trkpt>
      <trkpt lat="3.3603080" lon="-76.6187430">
        <ele>1985.8</ele>
        <time>2022-02-13T14:51:06Z</time>
      </trkpt>
      <trkpt lat="3.3603010" lon="-76.6187410">
        <ele>1985.7</ele>
        <time>2022-02-13T14:51:07Z</time>
      </trkpt>
      <trkpt lat="3.3602950" lon="-76.6187370">
        <ele>1985.6</ele>
        <time>2022-02-13T14:51:09Z</time>
      </trkpt>
      <trkpt lat="3.3602940" lon="-76.6187420">
        <ele>1985.6</ele>
        <time>2022-02-13T14:51:11Z</time>
      </trkpt>
      <trkpt lat="3.3602390" lon="-76.6187910">
        <ele>1984.8</ele>
        <time>2022-02-13T14:51:17Z</time>
      </trkpt>
      <trkpt lat="3.3601970" lon="-76.6188110">
        <ele>1984.3</ele>
        <time>2022-02-13T14:51:23Z</time>
      </trkpt>
      <trkpt lat="3.3601910" lon="-76.6188160">
        <ele>1984.2</ele>
        <time>2022-02-13T14:51:24Z</time>
      </trkpt>
      <trkpt lat="3.3601710" lon="-76.6188150">
        <ele>1983.9</ele>
        <time>2022-02-13T14:51:27Z</time>
      </trkpt>
      <trkpt lat="3.3601500" lon="-76.6188250">
        <ele>1983.6</ele>
        <time>2022-02-13T14:51:30Z</time>
      </trkpt>
      <trkpt lat="3.3601460" lon="-76.6188300">
        <ele>1983.5</ele>
        <time>2022-02-13T14:51:31Z</time>
      </trkpt>
      <trkpt lat="3.3601430" lon="-76.6188380">
        <ele>1983.3</ele>
        <time>2022-02-13T14:51:32Z</time>
      </trkpt>
      <trkpt lat="3.3601500" lon="-76.6188730">
        <ele>1982.8</ele>
        <time>2022-02-13T14:51:35Z</time>
      </trkpt>
      <trkpt lat="3.3601560" lon="-76.6189090">
        <ele>1982.2</ele>
        <time>2022-02-13T14:51:37Z</time>
      </trkpt>
      <trkpt lat="3.3601610" lon="-76.6189410">
        <ele>1981.6</ele>
        <time>2022-02-13T14:51:39Z</time>
      </trkpt>
      <trkpt lat="3.3601540" lon="-76.6190050">
        <ele>1980.5</ele>
        <time>2022-02-13T14:51:43Z</time>
      </trkpt>
      <trkpt lat="3.3601420" lon="-76.6190560">
        <ele>1979.7</ele>
        <time>2022-02-13T14:51:49Z</time>
      </trkpt>
      <trkpt lat="3.3601410" lon="-76.6190580">
        <ele>1979.6</ele>
        <time>2022-02-13T14:51:51Z</time>
      </trkpt>
      <trkpt lat="3.3601320" lon="-76.6190580">
        <ele>1979.5</ele>
        <time>2022-02-13T14:51:59Z</time>
      </trkpt>
      <trkpt lat="3.3601280" lon="-76.6190620">
        <ele>1979.4</ele>
        <time>2022-02-13T14:52:02Z</time>
      </trkpt>
      <trkpt lat="3.3601290" lon="-76.6190660">
        <ele>1979.3</ele>
        <time>2022-02-13T14:52:03Z</time>
      </trkpt>
      <trkpt lat="3.3601110" lon="-76.6191090">
        <ele>1978.6</ele>
        <time>2022-02-13T14:52:09Z</time>
      </trkpt>
      <trkpt lat="3.3601040" lon="-76.6191740">
        <ele>1977.8</ele>
        <time>2022-02-13T14:52:15Z</time>
      </trkpt>
      <trkpt lat="3.3600690" lon="-76.6192390">
        <ele>1977.2</ele>
        <time>2022-02-13T14:52:22Z</time>
      </trkpt>
      <trkpt lat="3.3600620" lon="-76.6193140">
        <ele>1977.0</ele>
        <time>2022-02-13T14:52:29Z</time>
      </trkpt>
      <trkpt lat="3.3600550" lon="-76.6193390">
        <ele>1976.9</ele>
        <time>2022-02-13T14:52:32Z</time>
      </trkpt>
      <trkpt lat="3.3600410" lon="-76.6193610">
        <ele>1977.0</ele>
        <time>2022-02-13T14:52:34Z</time>
      </trkpt>
      <trkpt lat="3.3600320" lon="-76.6193920">
        <ele>1977.1</ele>
        <time>2022-02-13T14:52:37Z</time>
      </trkpt>
      <trkpt lat="3.3600280" lon="-76.6194130">
        <ele>1977.2</ele>
        <time>2022-02-13T14:52:39Z</time>
      </trkpt>
      <trkpt lat="3.3600280" lon="-76.6194130">
        <ele>1977.2</ele>
        <time>2022-02-13T14:52:40Z</time>
      </trkpt>
      <trkpt lat="3.3599840" lon="-76.6194900">
        <ele>1977.8</ele>
        <time>2022-02-13T14:52:48Z</time>
      </trkpt>
      <trkpt lat="3.3599500" lon="-76.6196020">
        <ele>1978.4</ele>
        <time>2022-02-13T14:52:58Z</time>
      </trkpt>
      <trkpt lat="3.3599460" lon="-76.6196110">
        <ele>1978.1</ele>
        <time>2022-02-13T14:52:59Z</time>
      </trkpt>
      <trkpt lat="3.3599350" lon="-76.6196530">
        <ele>1977.1</ele>
        <time>2022-02-13T14:53:04Z</time>
      </trkpt>
      <trkpt lat="3.3599410" lon="-76.6196680">
        <ele>1976.7</ele>
        <time>2022-02-13T14:53:06Z</time>
      </trkpt>
      <trkpt lat="3.3599420" lon="-76.6196700">
        <ele>1976.6</ele>
        <time>2022-02-13T14:53:08Z</time>
      </trkpt>
      <trkpt lat="3.3599440" lon="-76.6196710">
        <ele>1976.6</ele>
        <time>2022-02-13T14:53:10Z</time>
      </trkpt>
      <trkpt lat="3.3599530" lon="-76.6196730">
        <ele>1976.4</ele>
        <time>2022-02-13T14:53:18Z</time>
      </trkpt>
      <trkpt lat="3.3599570" lon="-76.6196740">
        <ele>1976.3</ele>
        <time>2022-02-13T14:53:28Z</time>
      </trkpt>
      <trkpt lat="3.3599540" lon="-76.6196730">
        <ele>1976.2</ele>
        <time>2022-02-13T14:53:40Z</time>
      </trkpt>
      <trkpt lat="3.3599530" lon="-76.6196730">
        <ele>1976.2</ele>
        <time>2022-02-13T14:53:47Z</time>
      </trkpt>
      <trkpt lat="3.3599510" lon="-76.6196740">
        <ele>1976.1</ele>
        <time>2022-02-13T14:53:54Z</time>
      </trkpt>
      <trkpt lat="3.3599510" lon="-76.6196740">
        <ele>1976.1</ele>
        <time>2022-02-13T14:53:55Z</time>
      </trkpt>
      <trkpt lat="3.3599500" lon="-76.6196750">
        <ele>1976.1</ele>
        <time>2022-02-13T14:54:04Z</time>
      </trkpt>
      <trkpt lat="3.3599710" lon="-76.6197210">
        <ele>1974.8</ele>
        <time>2022-02-13T14:54:10Z</time>
      </trkpt>
      <trkpt lat="3.3599800" lon="-76.6197340">
        <ele>1974.5</ele>
        <time>2022-02-13T14:54:11Z</time>
      </trkpt>
      <trkpt lat="3.3599870" lon="-76.6197470">
        <ele>1974.1</ele>
        <time>2022-02-13T14:54:12Z</time>
      </trkpt>
      <trkpt lat="3.3599910" lon="-76.6197630">
        <ele>1973.7</ele>
        <time>2022-02-13T14:54:13Z</time>
      </trkpt>
      <trkpt lat="3.3600030" lon="-76.6197970">
        <ele>1972.8</ele>
        <time>2022-02-13T14:54:15Z</time>
      </trkpt>
      <trkpt lat="3.3600280" lon="-76.6198510">
        <ele>1971.4</ele>
        <time>2022-02-13T14:54:21Z</time>
      </trkpt>
      <trkpt lat="3.3600240" lon="-76.6198550">
        <ele>1971.2</ele>
        <time>2022-02-13T14:54:22Z</time>
      </trkpt>
      <trkpt lat="3.3600480" lon="-76.6198870">
        <ele>1970.3</ele>
        <time>2022-02-13T14:54:26Z</time>
      </trkpt>
      <trkpt lat="3.3600640" lon="-76.6198980">
        <ele>1969.8</ele>
        <time>2022-02-13T14:54:28Z</time>
      </trkpt>
      <trkpt lat="3.3601080" lon="-76.6199550">
        <ele>1968.1</ele>
        <time>2022-02-13T14:54:35Z</time>
      </trkpt>
      <trkpt lat="3.3601460" lon="-76.6199890">
        <ele>1966.8</ele>
        <time>2022-02-13T14:54:41Z</time>
      </trkpt>
      <trkpt lat="3.3601640" lon="-76.6200090">
        <ele>1966.2</ele>
        <time>2022-02-13T14:54:46Z</time>
      </trkpt>
      <trkpt lat="3.3601630" lon="-76.6200110">
        <ele>1966.1</ele>
        <time>2022-02-13T14:54:47Z</time>
      </trkpt>
      <trkpt lat="3.3601610" lon="-76.6200220">
        <ele>1965.8</ele>
        <time>2022-02-13T14:54:49Z</time>
      </trkpt>
      <trkpt lat="3.3601750" lon="-76.6200410">
        <ele>1965.3</ele>
        <time>2022-02-13T14:54:54Z</time>
      </trkpt>
      <trkpt lat="3.3602070" lon="-76.6200370">
        <ele>1964.5</ele>
        <time>2022-02-13T14:54:57Z</time>
      </trkpt>
      <trkpt lat="3.3602120" lon="-76.6200430">
        <ele>1964.3</ele>
        <time>2022-02-13T14:54:59Z</time>
      </trkpt>
      <trkpt lat="3.3602220" lon="-76.6200540">
        <ele>1963.9</ele>
        <time>2022-02-13T14:55:01Z</time>
      </trkpt>
      <trkpt lat="3.3602470" lon="-76.6200730">
        <ele>1963.2</ele>
        <time>2022-02-13T14:55:04Z</time>
      </trkpt>
      <trkpt lat="3.3602620" lon="-76.6201070">
        <ele>1962.3</ele>
        <time>2022-02-13T14:55:09Z</time>
      </trkpt>
      <trkpt lat="3.3602740" lon="-76.6201150">
        <ele>1961.9</ele>
        <time>2022-02-13T14:55:12Z</time>
      </trkpt>
      <trkpt lat="3.3602800" lon="-76.6201180">
        <ele>1961.7</ele>
        <time>2022-02-13T14:55:13Z</time>
      </trkpt>
      <trkpt lat="3.3602970" lon="-76.6201320">
        <ele>1961.2</ele>
        <time>2022-02-13T14:55:20Z</time>
      </trkpt>
      <trkpt lat="3.3603150" lon="-76.6201380">
        <ele>1960.7</ele>
        <time>2022-02-13T14:55:27Z</time>
      </trkpt>
      <trkpt lat="3.3603150" lon="-76.6201380">
        <ele>1960.7</ele>
        <time>2022-02-13T14:55:38Z</time>
      </trkpt>
      <trkpt lat="3.3603020" lon="-76.6201360">
        <ele>1960.4</ele>
        <time>2022-02-13T14:55:57Z</time>
      </trkpt>
      <trkpt lat="3.3603020" lon="-76.6201360">
        <ele>1960.4</ele>
        <time>2022-02-13T14:56:15Z</time>
      </trkpt>
      <trkpt lat="3.3603020" lon="-76.6201400">
        <ele>1960.3</ele>
        <time>2022-02-13T14:56:26Z</time>
      </trkpt>
      <trkpt lat="3.3603000" lon="-76.6201450">
        <ele>1960.2</ele>
        <time>2022-02-13T14:56:48Z</time>
      </trkpt>
      <trkpt lat="3.3603000" lon="-76.6201470">
        <ele>1960.1</ele>
        <time>2022-02-13T14:56:58Z</time>
      </trkpt>
      <trkpt lat="3.3603180" lon="-76.6201700">
        <ele>1959.4</ele>
        <time>2022-02-13T14:57:06Z</time>
      </trkpt>
      <trkpt lat="3.3603630" lon="-76.6202060">
        <ele>1958.0</ele>
        <time>2022-02-13T14:57:13Z</time>
      </trkpt>
      <trkpt lat="3.3603650" lon="-76.6202110">
        <ele>1957.9</ele>
        <time>2022-02-13T14:57:17Z</time>
      </trkpt>
      <trkpt lat="3.3603660" lon="-76.6202120">
        <ele>1957.9</ele>
        <time>2022-02-13T14:57:18Z</time>
      </trkpt>
      <trkpt lat="3.3603690" lon="-76.6202150">
        <ele>1957.8</ele>
        <time>2022-02-13T14:57:19Z</time>
      </trkpt>
      <trkpt lat="3.3603910" lon="-76.6202280">
        <ele>1957.1</ele>
        <time>2022-02-13T14:57:21Z</time>
      </trkpt>
      <trkpt lat="3.3603990" lon="-76.6202360">
        <ele>1956.9</ele>
        <time>2022-02-13T14:57:22Z</time>
      </trkpt>
      <trkpt lat="3.3604060" lon="-76.6202550">
        <ele>1956.4</ele>
        <time>2022-02-13T14:57:24Z</time>
      </trkpt>
      <trkpt lat="3.3604280" lon="-76.6202760">
        <ele>1955.6</ele>
        <time>2022-02-13T14:57:27Z</time>
      </trkpt>
      <trkpt lat="3.3604330" lon="-76.6202830">
        <ele>1955.4</ele>
        <time>2022-02-13T14:57:28Z</time>
      </trkpt>
      <trkpt lat="3.3604410" lon="-76.6202950">
        <ele>1955.1</ele>
        <time>2022-02-13T14:57:31Z</time>
      </trkpt>
      <trkpt lat="3.3604480" lon="-76.6203390">
        <ele>1954.0</ele>
        <time>2022-02-13T14:57:37Z</time>
      </trkpt>
      <trkpt lat="3.3604650" lon="-76.6203700">
        <ele>1953.1</ele>
        <time>2022-02-13T14:57:44Z</time>
      </trkpt>
      <trkpt lat="3.3604670" lon="-76.6203760">
        <ele>1953.0</ele>
        <time>2022-02-13T14:57:46Z</time>
      </trkpt>
      <trkpt lat="3.3604730" lon="-76.6203790">
        <ele>1952.8</ele>
        <time>2022-02-13T14:57:47Z</time>
      </trkpt>
      <trkpt lat="3.3604900" lon="-76.6203870">
        <ele>1952.4</ele>
        <time>2022-02-13T14:57:51Z</time>
      </trkpt>
      <trkpt lat="3.3605020" lon="-76.6204000">
        <ele>1951.9</ele>
        <time>2022-02-13T14:57:55Z</time>
      </trkpt>
      <trkpt lat="3.3605110" lon="-76.6204070">
        <ele>1951.7</ele>
        <time>2022-02-13T14:57:57Z</time>
      </trkpt>
      <trkpt lat="3.3605320" lon="-76.6204070">
        <ele>1951.1</ele>
        <time>2022-02-13T14:57:59Z</time>
      </trkpt>
      <trkpt lat="3.3605350" lon="-76.6204090">
        <ele>1951.1</ele>
        <time>2022-02-13T14:58:00Z</time>
      </trkpt>
      <trkpt lat="3.3605450" lon="-76.6204180">
        <ele>1950.7</ele>
        <time>2022-02-13T14:58:02Z</time>
      </trkpt>
      <trkpt lat="3.3605690" lon="-76.6204280">
        <ele>1950.1</ele>
        <time>2022-02-13T14:58:05Z</time>
      </trkpt>
      <trkpt lat="3.3605660" lon="-76.6204280">
        <ele>1950.0</ele>
        <time>2022-02-13T14:58:07Z</time>
      </trkpt>
      <trkpt lat="3.3605790" lon="-76.6204440">
        <ele>1949.5</ele>
        <time>2022-02-13T14:58:10Z</time>
      </trkpt>
      <trkpt lat="3.3606530" lon="-76.6204760">
        <ele>1947.6</ele>
        <time>2022-02-13T14:58:15Z</time>
      </trkpt>
      <trkpt lat="3.3606860" lon="-76.6204840">
        <ele>1946.7</ele>
        <time>2022-02-13T14:58:19Z</time>
      </trkpt>
      <trkpt lat="3.3607000" lon="-76.6204870">
        <ele>1946.4</ele>
        <time>2022-02-13T14:58:21Z</time>
      </trkpt>
      <trkpt lat="3.3607190" lon="-76.6204980">
        <ele>1945.9</ele>
        <time>2022-02-13T14:58:23Z</time>
      </trkpt>
      <trkpt lat="3.3607410" lon="-76.6205050">
        <ele>1945.3</ele>
        <time>2022-02-13T14:58:25Z</time>
      </trkpt>
      <trkpt lat="3.3607480" lon="-76.6205150">
        <ele>1945.0</ele>
        <time>2022-02-13T14:58:26Z</time>
      </trkpt>
      <trkpt lat="3.3607470" lon="-76.6205240">
        <ele>1944.8</ele>
        <time>2022-02-13T14:58:33Z</time>
      </trkpt>
      <trkpt lat="3.3607500" lon="-76.6205270">
        <ele>1944.7</ele>
        <time>2022-02-13T14:58:41Z</time>
      </trkpt>
      <trkpt lat="3.3607500" lon="-76.6205270">
        <ele>1944.7</ele>
        <time>2022-02-13T14:58:58Z</time>
      </trkpt>
      <trkpt lat="3.3607510" lon="-76.6205270">
        <ele>1944.7</ele>
        <time>2022-02-13T14:58:59Z</time>
      </trkpt>
      <trkpt lat="3.3607650" lon="-76.6205440">
        <ele>1944.1</ele>
        <time>2022-02-13T14:59:03Z</time>
      </trkpt>
      <trkpt lat="3.3608050" lon="-76.6205970">
        <ele>1942.5</ele>
        <time>2022-02-13T14:59:09Z</time>
      </trkpt>
      <trkpt lat="3.3608060" lon="-76.6206430">
        <ele>1941.4</ele>
        <time>2022-02-13T14:59:15Z</time>
      </trkpt>
      <trkpt lat="3.3608300" lon="-76.6207060">
        <ele>1939.7</ele>
        <time>2022-02-13T14:59:22Z</time>
      </trkpt>
      <trkpt lat="3.3608410" lon="-76.6207550">
        <ele>1938.5</ele>
        <time>2022-02-13T14:59:28Z</time>
      </trkpt>
      <trkpt lat="3.3608580" lon="-76.6207710">
        <ele>1938.0</ele>
        <time>2022-02-13T14:59:30Z</time>
      </trkpt>
      <trkpt lat="3.3608740" lon="-76.6207770">
        <ele>1937.5</ele>
        <time>2022-02-13T14:59:33Z</time>
      </trkpt>
      <trkpt lat="3.3608830" lon="-76.6207570">
        <ele>1937.0</ele>
        <time>2022-02-13T14:59:35Z</time>
      </trkpt>
      <trkpt lat="3.3608890" lon="-76.6206830">
        <ele>1935.2</ele>
        <time>2022-02-13T14:59:45Z</time>
      </trkpt>
      <trkpt lat="3.3608940" lon="-76.6206360">
        <ele>1934.1</ele>
        <time>2022-02-13T14:59:51Z</time>
      </trkpt>
      <trkpt lat="3.3608740" lon="-76.6205700">
        <ele>1932.4</ele>
        <time>2022-02-13T14:59:58Z</time>
      </trkpt>
      <trkpt lat="3.3608690" lon="-76.6205570">
        <ele>1932.0</ele>
        <time>2022-02-13T14:59:59Z</time>
      </trkpt>
      <trkpt lat="3.3608470" lon="-76.6205130">
        <ele>1930.9</ele>
        <time>2022-02-13T15:00:04Z</time>
      </trkpt>
      <trkpt lat="3.3608430" lon="-76.6205050">
        <ele>1930.6</ele>
        <time>2022-02-13T15:00:05Z</time>
      </trkpt>
      <trkpt lat="3.3608390" lon="-76.6204820">
        <ele>1930.1</ele>
        <time>2022-02-13T15:00:08Z</time>
      </trkpt>
      <trkpt lat="3.3608500" lon="-76.6204680">
        <ele>1929.6</ele>
        <time>2022-02-13T15:00:11Z</time>
      </trkpt>
      <trkpt lat="3.3608520" lon="-76.6204670">
        <ele>1929.6</ele>
        <time>2022-02-13T15:00:12Z</time>
      </trkpt>
      <trkpt lat="3.3608520" lon="-76.6204610">
        <ele>1929.4</ele>
        <time>2022-02-13T15:00:15Z</time>
      </trkpt>
      <trkpt lat="3.3608460" lon="-76.6204570">
        <ele>1929.3</ele>
        <time>2022-02-13T15:00:16Z</time>
      </trkpt>
      <trkpt lat="3.3608350" lon="-76.6204490">
        <ele>1928.9</ele>
        <time>2022-02-13T15:00:17Z</time>
      </trkpt>
      <trkpt lat="3.3608300" lon="-76.6204400">
        <ele>1928.7</ele>
        <time>2022-02-13T15:00:18Z</time>
      </trkpt>
      <trkpt lat="3.3608220" lon="-76.6204290">
        <ele>1928.3</ele>
        <time>2022-02-13T15:00:19Z</time>
      </trkpt>
      <trkpt lat="3.3608130" lon="-76.6203760">
        <ele>1927.0</ele>
        <time>2022-02-13T15:00:23Z</time>
      </trkpt>
      <trkpt lat="3.3608020" lon="-76.6203200">
        <ele>1925.7</ele>
        <time>2022-02-13T15:00:30Z</time>
      </trkpt>
      <trkpt lat="3.3608030" lon="-76.6202970">
        <ele>1925.1</ele>
        <time>2022-02-13T15:00:35Z</time>
      </trkpt>
      <trkpt lat="3.3608060" lon="-76.6202810">
        <ele>1924.7</ele>
        <time>2022-02-13T15:00:38Z</time>
      </trkpt>
      <trkpt lat="3.3608050" lon="-76.6202770">
        <ele>1924.6</ele>
        <time>2022-02-13T15:00:39Z</time>
      </trkpt>
      <trkpt lat="3.3608100" lon="-76.6202640">
        <ele>1924.3</ele>
        <time>2022-02-13T15:00:43Z</time>
      </trkpt>
      <trkpt lat="3.3608250" lon="-76.6202390">
        <ele>1923.6</ele>
        <time>2022-02-13T15:00:46Z</time>
      </trkpt>
      <trkpt lat="3.3608260" lon="-76.6202160">
        <ele>1923.0</ele>
        <time>2022-02-13T15:00:50Z</time>
      </trkpt>
      <trkpt lat="3.3608270" lon="-76.6202120">
        <ele>1922.9</ele>
        <time>2022-02-13T15:00:51Z</time>
      </trkpt>
      <trkpt lat="3.3608230" lon="-76.6201760">
        <ele>1922.0</ele>
        <time>2022-02-13T15:00:55Z</time>
      </trkpt>
      <trkpt lat="3.3608330" lon="-76.6201350">
        <ele>1921.0</ele>
        <time>2022-02-13T15:01:01Z</time>
      </trkpt>
      <trkpt lat="3.3608360" lon="-76.6201310">
        <ele>1920.9</ele>
        <time>2022-02-13T15:01:03Z</time>
      </trkpt>
      <trkpt lat="3.3608370" lon="-76.6201270">
        <ele>1920.8</ele>
        <time>2022-02-13T15:01:04Z</time>
      </trkpt>
      <trkpt lat="3.3608430" lon="-76.6201080">
        <ele>1920.3</ele>
        <time>2022-02-13T15:01:08Z</time>
      </trkpt>
      <trkpt lat="3.3608470" lon="-76.6200660">
        <ele>1919.3</ele>
        <time>2022-02-13T15:01:15Z</time>
      </trkpt>
      <trkpt lat="3.3608530" lon="-76.6200500">
        <ele>1918.8</ele>
        <time>2022-02-13T15:01:17Z</time>
      </trkpt>
      <trkpt lat="3.3608560" lon="-76.6200060">
        <ele>1917.8</ele>
        <time>2022-02-13T15:01:23Z</time>
      </trkpt>
      <trkpt lat="3.3608550" lon="-76.6199980">
        <ele>1917.6</ele>
        <time>2022-02-13T15:01:24Z</time>
      </trkpt>
      <trkpt lat="3.3608390" lon="-76.6199790">
        <ele>1917.0</ele>
        <time>2022-02-13T15:01:27Z</time>
      </trkpt>
      <trkpt lat="3.3608330" lon="-76.6199640">
        <ele>1916.6</ele>
        <time>2022-02-13T15:01:29Z</time>
      </trkpt>
      <trkpt lat="3.3608260" lon="-76.6199480">
        <ele>1916.2</ele>
        <time>2022-02-13T15:01:31Z</time>
      </trkpt>
      <trkpt lat="3.3608280" lon="-76.6199340">
        <ele>1915.8</ele>
        <time>2022-02-13T15:01:33Z</time>
      </trkpt>
      <trkpt lat="3.3608350" lon="-76.6199280">
        <ele>1915.6</ele>
        <time>2022-02-13T15:01:34Z</time>
      </trkpt>
      <trkpt lat="3.3608380" lon="-76.6199200">
        <ele>1915.4</ele>
        <time>2022-02-13T15:01:36Z</time>
      </trkpt>
      <trkpt lat="3.3608410" lon="-76.6199100">
        <ele>1915.1</ele>
        <time>2022-02-13T15:01:39Z</time>
      </trkpt>
      <trkpt lat="3.3608360" lon="-76.6199070">
        <ele>1915.0</ele>
        <time>2022-02-13T15:01:40Z</time>
      </trkpt>
      <trkpt lat="3.3608320" lon="-76.6198930">
        <ele>1914.6</ele>
        <time>2022-02-13T15:01:42Z</time>
      </trkpt>
      <trkpt lat="3.3608530" lon="-76.6198880">
        <ele>1914.1</ele>
        <time>2022-02-13T15:01:44Z</time>
      </trkpt>
      <trkpt lat="3.3609030" lon="-76.6198990">
        <ele>1912.9</ele>
        <time>2022-02-13T15:01:48Z</time>
      </trkpt>
      <trkpt lat="3.3609210" lon="-76.6199020">
        <ele>1912.4</ele>
        <time>2022-02-13T15:01:50Z</time>
      </trkpt>
      <trkpt lat="3.3609520" lon="-76.6199160">
        <ele>1911.6</ele>
        <time>2022-02-13T15:01:54Z</time>
      </trkpt>
      <trkpt lat="3.3609530" lon="-76.6199160">
        <ele>1911.6</ele>
        <time>2022-02-13T15:01:56Z</time>
      </trkpt>
      <trkpt lat="3.3609540" lon="-76.6199170">
        <ele>1911.5</ele>
        <time>2022-02-13T15:01:57Z</time>
      </trkpt>
      <trkpt lat="3.3609560" lon="-76.6199420">
        <ele>1910.9</ele>
        <time>2022-02-13T15:02:04Z</time>
      </trkpt>
      <trkpt lat="3.3609890" lon="-76.6199770">
        <ele>1909.8</ele>
        <time>2022-02-13T15:02:09Z</time>
      </trkpt>
      <trkpt lat="3.3609840" lon="-76.6199850">
        <ele>1909.5</ele>
        <time>2022-02-13T15:02:10Z</time>
      </trkpt>
      <trkpt lat="3.3610020" lon="-76.6200480">
        <ele>1907.9</ele>
        <time>2022-02-13T15:02:16Z</time>
      </trkpt>
      <trkpt lat="3.3610110" lon="-76.6200670">
        <ele>1907.4</ele>
        <time>2022-02-13T15:02:18Z</time>
      </trkpt>
      <trkpt lat="3.3610270" lon="-76.6200890">
        <ele>1906.8</ele>
        <time>2022-02-13T15:02:21Z</time>
      </trkpt>
      <trkpt lat="3.3610310" lon="-76.6200960">
        <ele>1906.6</ele>
        <time>2022-02-13T15:02:22Z</time>
      </trkpt>
      <trkpt lat="3.3610500" lon="-76.6201290">
        <ele>1905.6</ele>
        <time>2022-02-13T15:02:28Z</time>
      </trkpt>
      <trkpt lat="3.3610490" lon="-76.6201320">
        <ele>1905.6</ele>
        <time>2022-02-13T15:02:30Z</time>
      </trkpt>
      <trkpt lat="3.3610740" lon="-76.6201390">
        <ele>1904.9</ele>
        <time>2022-02-13T15:02:34Z</time>
      </trkpt>
      <trkpt lat="3.3611170" lon="-76.6201620">
        <ele>1903.7</ele>
        <time>2022-02-13T15:02:41Z</time>
      </trkpt>
      <trkpt lat="3.3611150" lon="-76.6201860">
        <ele>1903.2</ele>
        <time>2022-02-13T15:02:49Z</time>
      </trkpt>
      <trkpt lat="3.3611400" lon="-76.6202010">
        <ele>1902.5</ele>
        <time>2022-02-13T15:02:56Z</time>
      </trkpt>
      <trkpt lat="3.3611610" lon="-76.6201520">
        <ele>1901.2</ele>
        <time>2022-02-13T15:03:01Z</time>
      </trkpt>
      <trkpt lat="3.3611470" lon="-76.6201360">
        <ele>1900.6</ele>
        <time>2022-02-13T15:03:03Z</time>
      </trkpt>
      <trkpt lat="3.3611270" lon="-76.6201060">
        <ele>1899.8</ele>
        <time>2022-02-13T15:05:37Z</time>
      </trkpt>
      <trkpt lat="3.3611270" lon="-76.6201060">
        <ele>1899.8</ele>
        <time>2022-02-13T15:05:38Z</time>
      </trkpt>
      <trkpt lat="3.3611260" lon="-76.6201130">
        <ele>1899.6</ele>
        <time>2022-02-13T15:05:42Z</time>
      </trkpt>
      <trkpt lat="3.3611570" lon="-76.6201510">
        <ele>1898.4</ele>
        <time>2022-02-13T15:05:47Z</time>
      </trkpt>
      <trkpt lat="3.3611500" lon="-76.6201890">
        <ele>1897.5</ele>
        <time>2022-02-13T15:05:52Z</time>
      </trkpt>
      <trkpt lat="3.3611340" lon="-76.6202070">
        <ele>1896.9</ele>
        <time>2022-02-13T15:05:55Z</time>
      </trkpt>
      <trkpt lat="3.3611280" lon="-76.6202140">
        <ele>1896.7</ele>
        <time>2022-02-13T15:05:59Z</time>
      </trkpt>
      <trkpt lat="3.3611380" lon="-76.6202280">
        <ele>1896.2</ele>
        <time>2022-02-13T15:06:08Z</time>
      </trkpt>
      <trkpt lat="3.3611620" lon="-76.6202270">
        <ele>1895.6</ele>
        <time>2022-02-13T15:06:13Z</time>
      </trkpt>
      <trkpt lat="3.3612190" lon="-76.6201990">
        <ele>1894.1</ele>
        <time>2022-02-13T15:06:23Z</time>
      </trkpt>
      <trkpt lat="3.3612620" lon="-76.6201520">
        <ele>1892.6</ele>
        <time>2022-02-13T15:06:34Z</time>
      </trkpt>
      <trkpt lat="3.3612820" lon="-76.6201220">
        <ele>1891.7</ele>
        <time>2022-02-13T15:06:41Z</time>
      </trkpt>
      <trkpt lat="3.3612880" lon="-76.6200920">
        <ele>1890.9</ele>
        <time>2022-02-13T15:06:49Z</time>
      </trkpt>
      <trkpt lat="3.3613120" lon="-76.6200910">
        <ele>1890.4</ele>
        <time>2022-02-13T15:06:56Z</time>
      </trkpt>
      <trkpt lat="3.3613290" lon="-76.6201010">
        <ele>1889.9</ele>
        <time>2022-02-13T15:07:02Z</time>
      </trkpt>
      <trkpt lat="3.3613430" lon="-76.6201060">
        <ele>1889.5</ele>
        <time>2022-02-13T15:07:06Z</time>
      </trkpt>
      <trkpt lat="3.3613890" lon="-76.6201450">
        <ele>1888.0</ele>
        <time>2022-02-13T15:07:14Z</time>
      </trkpt>
      <trkpt lat="3.3614350" lon="-76.6201560">
        <ele>1886.9</ele>
        <time>2022-02-13T15:07:20Z</time>
      </trkpt>
      <trkpt lat="3.3614910" lon="-76.6201730">
        <ele>1885.5</ele>
        <time>2022-02-13T15:07:26Z</time>
      </trkpt>
      <trkpt lat="3.3615010" lon="-76.6201800">
        <ele>1885.2</ele>
        <time>2022-02-13T15:07:27Z</time>
      </trkpt>
      <trkpt lat="3.3615330" lon="-76.6201860">
        <ele>1884.4</ele>
        <time>2022-02-13T15:07:33Z</time>
      </trkpt>
      <trkpt lat="3.3615360" lon="-76.6201890">
        <ele>1884.3</ele>
        <time>2022-02-13T15:07:34Z</time>
      </trkpt>
      <trkpt lat="3.3615510" lon="-76.6202240">
        <ele>1883.4</ele>
        <time>2022-02-13T15:07:39Z</time>
      </trkpt>
      <trkpt lat="3.3615620" lon="-76.6202350">
        <ele>1883.0</ele>
        <time>2022-02-13T15:07:41Z</time>
      </trkpt>
      <trkpt lat="3.3615950" lon="-76.6202370">
        <ele>1882.2</ele>
        <time>2022-02-13T15:07:45Z</time>
      </trkpt>
      <trkpt lat="3.3615990" lon="-76.6202370">
        <ele>1882.1</ele>
        <time>2022-02-13T15:07:46Z</time>
      </trkpt>
      <trkpt lat="3.3616030" lon="-76.6202360">
        <ele>1882.0</ele>
        <time>2022-02-13T15:07:47Z</time>
      </trkpt>
      <trkpt lat="3.3616040" lon="-76.6202380">
        <ele>1881.9</ele>
        <time>2022-02-13T15:07:51Z</time>
      </trkpt>
      <trkpt lat="3.3616050" lon="-76.6202380">
        <ele>1881.9</ele>
        <time>2022-02-13T15:07:52Z</time>
      </trkpt>
      <trkpt lat="3.3616060" lon="-76.6202390">
        <ele>1881.9</ele>
        <time>2022-02-13T15:07:53Z</time>
      </trkpt>
      <trkpt lat="3.3616030" lon="-76.6202410">
        <ele>1881.8</ele>
        <time>2022-02-13T15:08:05Z</time>
      </trkpt>
      <trkpt lat="3.3616050" lon="-76.6202420">
        <ele>1881.7</ele>
        <time>2022-02-13T15:08:16Z</time>
      </trkpt>
      <trkpt lat="3.3616050" lon="-76.6202420">
        <ele>1881.7</ele>
        <time>2022-02-13T15:08:17Z</time>
      </trkpt>
      <trkpt lat="3.3616360" lon="-76.6202430">
        <ele>1881.0</ele>
        <time>2022-02-13T15:08:28Z</time>
      </trkpt>
      <trkpt lat="3.3616390" lon="-76.6202430">
        <ele>1880.9</ele>
        <time>2022-02-13T15:08:31Z</time>
      </trkpt>
      <trkpt lat="3.3616400" lon="-76.6202430">
        <ele>1880.9</ele>
        <time>2022-02-13T15:08:34Z</time>
      </trkpt>
      <trkpt lat="3.3616420" lon="-76.6202380">
        <ele>1880.7</ele>
        <time>2022-02-13T15:08:37Z</time>
      </trkpt>
      <trkpt lat="3.3616460" lon="-76.6202330">
        <ele>1880.6</ele>
        <time>2022-02-13T15:08:40Z</time>
      </trkpt>
      <trkpt lat="3.3616680" lon="-76.6202100">
        <ele>1879.8</ele>
        <time>2022-02-13T15:08:48Z</time>
      </trkpt>
      <trkpt lat="3.3616730" lon="-76.6202100">
        <ele>1879.7</ele>
        <time>2022-02-13T15:08:49Z</time>
      </trkpt>
      <trkpt lat="3.3616990" lon="-76.6202570">
        <ele>1878.4</ele>
        <time>2022-02-13T15:09:00Z</time>
      </trkpt>
      <trkpt lat="3.3617010" lon="-76.6202640">
        <ele>1878.2</ele>
        <time>2022-02-13T15:09:01Z</time>
      </trkpt>
      <trkpt lat="3.3616870" lon="-76.6202890">
        <ele>1877.5</ele>
        <time>2022-02-13T15:09:06Z</time>
      </trkpt>
      <trkpt lat="3.3616330" lon="-76.6203150">
        <ele>1876.0</ele>
        <time>2022-02-13T15:09:12Z</time>
      </trkpt>
      <trkpt lat="3.3616190" lon="-76.6203330">
        <ele>1875.0</ele>
        <time>2022-02-13T15:09:18Z</time>
      </trkpt>
      <trkpt lat="3.3615990" lon="-76.6203560">
        <ele>1874.4</ele>
        <time>2022-02-13T15:09:25Z</time>
      </trkpt>
      <trkpt lat="3.3615970" lon="-76.6203660">
        <ele>1874.2</ele>
        <time>2022-02-13T15:09:27Z</time>
      </trkpt>
      <trkpt lat="3.3616080" lon="-76.6203870">
        <ele>1873.7</ele>
        <time>2022-02-13T15:09:31Z</time>
      </trkpt>
      <trkpt lat="3.3616460" lon="-76.6204140">
        <ele>1872.9</ele>
        <time>2022-02-13T15:09:39Z</time>
      </trkpt>
      <trkpt lat="3.3616550" lon="-76.6204100">
        <ele>1872.7</ele>
        <time>2022-02-13T15:09:45Z</time>
      </trkpt>
      <trkpt lat="3.3616810" lon="-76.6204190">
        <ele>1872.2</ele>
        <time>2022-02-13T15:09:57Z</time>
      </trkpt>
      <trkpt lat="3.3617200" lon="-76.6204300">
        <ele>1871.6</ele>
        <time>2022-02-13T15:10:01Z</time>
      </trkpt>
      <trkpt lat="3.3617430" lon="-76.6204420">
        <ele>1871.2</ele>
        <time>2022-02-13T15:10:04Z</time>
      </trkpt>
      <trkpt lat="3.3617620" lon="-76.6204570">
        <ele>1870.7</ele>
        <time>2022-02-13T15:10:06Z</time>
      </trkpt>
      <trkpt lat="3.3617750" lon="-76.6204640">
        <ele>1870.5</ele>
        <time>2022-02-13T15:10:07Z</time>
      </trkpt>
      <trkpt lat="3.3618170" lon="-76.6204800">
        <ele>1869.7</ele>
        <time>2022-02-13T15:10:10Z</time>
      </trkpt>
      <trkpt lat="3.3618380" lon="-76.6205250">
        <ele>1868.7</ele>
        <time>2022-02-13T15:10:16Z</time>
      </trkpt>
      <trkpt lat="3.3618340" lon="-76.6205380">
        <ele>1868.5</ele>
        <time>2022-02-13T15:10:18Z</time>
      </trkpt>
      <trkpt lat="3.3618340" lon="-76.6205410">
        <ele>1868.4</ele>
        <time>2022-02-13T15:10:20Z</time>
      </trkpt>
      <trkpt lat="3.3618280" lon="-76.6205620">
        <ele>1868.0</ele>
        <time>2022-02-13T15:10:23Z</time>
      </trkpt>
      <trkpt lat="3.3618320" lon="-76.6205810">
        <ele>1867.6</ele>
        <time>2022-02-13T15:10:26Z</time>
      </trkpt>
      <trkpt lat="3.3618370" lon="-76.6206040">
        <ele>1867.1</ele>
        <time>2022-02-13T15:10:29Z</time>
      </trkpt>
      <trkpt lat="3.3618580" lon="-76.6206130">
        <ele>1866.5</ele>
        <time>2022-02-13T15:10:32Z</time>
      </trkpt>
      <trkpt lat="3.3618600" lon="-76.6206230">
        <ele>1866.3</ele>
        <time>2022-02-13T15:10:34Z</time>
      </trkpt>
      <trkpt lat="3.3618620" lon="-76.6206270">
        <ele>1866.2</ele>
        <time>2022-02-13T15:10:35Z</time>
      </trkpt>
      <trkpt lat="3.3618800" lon="-76.6206550">
        <ele>1865.3</ele>
        <time>2022-02-13T15:10:39Z</time>
      </trkpt>
      <trkpt lat="3.3618840" lon="-76.6206620">
        <ele>1865.1</ele>
        <time>2022-02-13T15:10:41Z</time>
      </trkpt>
      <trkpt lat="3.3618810" lon="-76.6206700">
        <ele>1864.9</ele>
        <time>2022-02-13T15:10:42Z</time>
      </trkpt>
      <trkpt lat="3.3618810" lon="-76.6207020">
        <ele>1864.0</ele>
        <time>2022-02-13T15:10:46Z</time>
      </trkpt>
      <trkpt lat="3.3619130" lon="-76.6207090">
        <ele>1863.1</ele>
        <time>2022-02-13T15:10:50Z</time>
      </trkpt>
      <trkpt lat="3.3619650" lon="-76.6207160">
        <ele>1861.5</ele>
        <time>2022-02-13T15:10:53Z</time>
      </trkpt>
      <trkpt lat="3.3619860" lon="-76.6207100">
        <ele>1860.8</ele>
        <time>2022-02-13T15:10:57Z</time>
      </trkpt>
      <trkpt lat="3.3619900" lon="-76.6206870">
        <ele>1860.1</ele>
        <time>2022-02-13T15:10:59Z</time>
      </trkpt>
      <trkpt lat="3.3620020" lon="-76.6206730">
        <ele>1859.6</ele>
        <time>2022-02-13T15:11:01Z</time>
      </trkpt>
      <trkpt lat="3.3620050" lon="-76.6206680">
        <ele>1859.4</ele>
        <time>2022-02-13T15:11:03Z</time>
      </trkpt>
      <trkpt lat="3.3620000" lon="-76.6206650">
        <ele>1859.3</ele>
        <time>2022-02-13T15:11:04Z</time>
      </trkpt>
      <trkpt lat="3.3620050" lon="-76.6206670">
        <ele>1859.1</ele>
        <time>2022-02-13T15:11:06Z</time>
      </trkpt>
      <trkpt lat="3.3620180" lon="-76.6206690">
        <ele>1858.7</ele>
        <time>2022-02-13T15:11:09Z</time>
      </trkpt>
      <trkpt lat="3.3620240" lon="-76.6206690">
        <ele>1858.6</ele>
        <time>2022-02-13T15:11:10Z</time>
      </trkpt>
      <trkpt lat="3.3620310" lon="-76.6206710">
        <ele>1858.4</ele>
        <time>2022-02-13T15:11:15Z</time>
      </trkpt>
      <trkpt lat="3.3620310" lon="-76.6206710">
        <ele>1858.4</ele>
        <time>2022-02-13T15:11:17Z</time>
      </trkpt>
      <trkpt lat="3.3620310" lon="-76.6206710">
        <ele>1858.4</ele>
        <time>2022-02-13T15:11:20Z</time>
      </trkpt>
      <trkpt lat="3.3620310" lon="-76.6206710">
        <ele>1858.4</ele>
        <time>2022-02-13T15:11:21Z</time>
      </trkpt>
      <trkpt lat="3.3620310" lon="-76.6206710">
        <ele>1858.4</ele>
        <time>2022-02-13T15:11:22Z</time>
      </trkpt>
      <trkpt lat="3.3620290" lon="-76.6206700">
        <ele>1858.3</ele>
        <time>2022-02-13T15:11:30Z</time>
      </trkpt>
      <trkpt lat="3.3620000" lon="-76.6206830">
        <ele>1857.5</ele>
        <time>2022-02-13T15:11:34Z</time>
      </trkpt>
      <trkpt lat="3.3619800" lon="-76.6206780">
        <ele>1857.0</ele>
        <time>2022-02-13T15:11:38Z</time>
      </trkpt>
      <trkpt lat="3.3619760" lon="-76.6206780">
        <ele>1856.9</ele>
        <time>2022-02-13T15:11:39Z</time>
      </trkpt>
      <trkpt lat="3.3619740" lon="-76.6206720">
        <ele>1856.8</ele>
        <time>2022-02-13T15:11:44Z</time>
      </trkpt>
      <trkpt lat="3.3619680" lon="-76.6206650">
        <ele>1856.6</ele>
        <time>2022-02-13T15:11:51Z</time>
      </trkpt>
      <trkpt lat="3.3619690" lon="-76.6206630">
        <ele>1856.6</ele>
        <time>2022-02-13T15:11:56Z</time>
      </trkpt>
      <trkpt lat="3.3619690" lon="-76.6206630">
        <ele>1856.6</ele>
        <time>2022-02-13T15:11:58Z</time>
      </trkpt>
      <trkpt lat="3.3619700" lon="-76.6206630">
        <ele>1856.5</ele>
        <time>2022-02-13T15:12:07Z</time>
      </trkpt>
      <trkpt lat="3.3619710" lon="-76.6206630">
        <ele>1856.5</ele>
        <time>2022-02-13T15:12:21Z</time>
      </trkpt>
      <trkpt lat="3.3619710" lon="-76.6206630">
        <ele>1856.5</ele>
        <time>2022-02-13T15:12:25Z</time>
      </trkpt>
      <trkpt lat="3.3619640" lon="-76.6206620">
        <ele>1856.4</ele>
        <time>2022-02-13T15:12:29Z</time>
      </trkpt>
      <trkpt lat="3.3619440" lon="-76.6206620">
        <ele>1856.0</ele>
        <time>2022-02-13T15:12:35Z</time>
      </trkpt>
      <trkpt lat="3.3619380" lon="-76.6206400">
        <ele>1855.6</ele>
        <time>2022-02-13T15:12:51Z</time>
      </trkpt>
      <trkpt lat="3.3619380" lon="-76.6206380">
        <ele>1855.6</ele>
        <time>2022-02-13T15:12:58Z</time>
      </trkpt>
      <trkpt lat="3.3619300" lon="-76.6206340">
        <ele>1855.4</ele>
        <time>2022-02-13T15:13:11Z</time>
      </trkpt>
      <trkpt lat="3.3619220" lon="-76.6206320">
        <ele>1855.3</ele>
        <time>2022-02-13T15:13:17Z</time>
      </trkpt>
      <trkpt lat="3.3619210" lon="-76.6206320">
        <ele>1855.3</ele>
        <time>2022-02-13T15:13:27Z</time>
      </trkpt>
      <trkpt lat="3.3619220" lon="-76.6206370">
        <ele>1855.2</ele>
        <time>2022-02-13T15:13:34Z</time>
      </trkpt>
      <trkpt lat="3.3619300" lon="-76.6206400">
        <ele>1855.1</ele>
        <time>2022-02-13T15:13:47Z</time>
      </trkpt>
      <trkpt lat="3.3619360" lon="-76.6206430">
        <ele>1855.0</ele>
        <time>2022-02-13T15:14:00Z</time>
      </trkpt>
      <trkpt lat="3.3619680" lon="-76.6206490">
        <ele>1854.6</ele>
        <time>2022-02-13T15:14:04Z</time>
      </trkpt>
      <trkpt lat="3.3619740" lon="-76.6206510">
        <ele>1854.5</ele>
        <time>2022-02-13T15:14:05Z</time>
      </trkpt>
      <trkpt lat="3.3620140" lon="-76.6206580">
        <ele>1854.2</ele>
        <time>2022-02-13T15:14:12Z</time>
      </trkpt>
      <trkpt lat="3.3620140" lon="-76.6206580">
        <ele>1854.2</ele>
        <time>2022-02-13T15:14:15Z</time>
      </trkpt>
      <trkpt lat="3.3620140" lon="-76.6206580">
        <ele>1854.2</ele>
        <time>2022-02-13T15:14:19Z</time>
      </trkpt>
      <trkpt lat="3.3620140" lon="-76.6206580">
        <ele>1854.2</ele>
        <time>2022-02-13T15:14:24Z</time>
      </trkpt>
      <trkpt lat="3.3620440" lon="-76.6206670">
        <ele>1853.9</ele>
        <time>2022-02-13T15:14:40Z</time>
      </trkpt>
      <trkpt lat="3.3620560" lon="-76.6206710">
        <ele>1853.8</ele>
        <time>2022-02-13T15:14:43Z</time>
      </trkpt>
      <trkpt lat="3.3620830" lon="-76.6206830">
        <ele>1853.7</ele>
        <time>2022-02-13T15:14:51Z</time>
      </trkpt>
      <trkpt lat="3.3621690" lon="-76.6207080">
        <ele>1853.2</ele>
        <time>2022-02-13T15:15:26Z</time>
      </trkpt>
      <trkpt lat="3.3622480" lon="-76.6206710">
        <ele>1852.8</ele>
        <time>2022-02-13T15:15:35Z</time>
      </trkpt>
      <trkpt lat="3.3622770" lon="-76.6206550">
        <ele>1852.6</ele>
        <time>2022-02-13T15:15:37Z</time>
      </trkpt>
      <trkpt lat="3.3623200" lon="-76.6206380">
        <ele>1852.3</ele>
        <time>2022-02-13T15:15:39Z</time>
      </trkpt>
      <trkpt lat="3.3623440" lon="-76.6206400">
        <ele>1852.0</ele>
        <time>2022-02-13T15:15:41Z</time>
      </trkpt>
      <trkpt lat="3.3623550" lon="-76.6206430">
        <ele>1851.9</ele>
        <time>2022-02-13T15:15:42Z</time>
      </trkpt>
      <trkpt lat="3.3623810" lon="-76.6206460">
        <ele>1851.5</ele>
        <time>2022-02-13T15:15:44Z</time>
      </trkpt>
      <trkpt lat="3.3624230" lon="-76.6206580">
        <ele>1850.8</ele>
        <time>2022-02-13T15:15:48Z</time>
      </trkpt>
      <trkpt lat="3.3624600" lon="-76.6206480">
        <ele>1850.0</ele>
        <time>2022-02-13T15:15:53Z</time>
      </trkpt>
      <trkpt lat="3.3624690" lon="-76.6206460">
        <ele>1849.8</ele>
        <time>2022-02-13T15:15:54Z</time>
      </trkpt>
      <trkpt lat="3.3624800" lon="-76.6206500">
        <ele>1849.6</ele>
        <time>2022-02-13T15:15:55Z</time>
      </trkpt>
      <trkpt lat="3.3625600" lon="-76.6206620">
        <ele>1847.7</ele>
        <time>2022-02-13T15:16:02Z</time>
      </trkpt>
      <trkpt lat="3.3625650" lon="-76.6206620">
        <ele>1847.6</ele>
        <time>2022-02-13T15:16:03Z</time>
      </trkpt>
      <trkpt lat="3.3625880" lon="-76.6206790">
        <ele>1847.0</ele>
        <time>2022-02-13T15:16:08Z</time>
      </trkpt>
      <trkpt lat="3.3625810" lon="-76.6207110">
        <ele>1846.4</ele>
        <time>2022-02-13T15:16:11Z</time>
      </trkpt>
      <trkpt lat="3.3625790" lon="-76.6207340">
        <ele>1846.0</ele>
        <time>2022-02-13T15:16:14Z</time>
      </trkpt>
      <trkpt lat="3.3625860" lon="-76.6207750">
        <ele>1845.2</ele>
        <time>2022-02-13T15:16:19Z</time>
      </trkpt>
      <trkpt lat="3.3625990" lon="-76.6207840">
        <ele>1844.9</ele>
        <time>2022-02-13T15:16:21Z</time>
      </trkpt>
      <trkpt lat="3.3625960" lon="-76.6207970">
        <ele>1844.7</ele>
        <time>2022-02-13T15:16:23Z</time>
      </trkpt>
      <trkpt lat="3.3625930" lon="-76.6208170">
        <ele>1844.3</ele>
        <time>2022-02-13T15:16:27Z</time>
      </trkpt>
      <trkpt lat="3.3625940" lon="-76.6208220">
        <ele>1844.2</ele>
        <time>2022-02-13T15:16:29Z</time>
      </trkpt>
      <trkpt lat="3.3625870" lon="-76.6208270">
        <ele>1844.1</ele>
        <time>2022-02-13T15:16:31Z</time>
      </trkpt>
      <trkpt lat="3.3625820" lon="-76.6208370">
        <ele>1843.8</ele>
        <time>2022-02-13T15:16:33Z</time>
      </trkpt>
      <trkpt lat="3.3625930" lon="-76.6208500">
        <ele>1843.5</ele>
        <time>2022-02-13T15:16:39Z</time>
      </trkpt>
      <trkpt lat="3.3626010" lon="-76.6208510">
        <ele>1843.4</ele>
        <time>2022-02-13T15:16:44Z</time>
      </trkpt>
      <trkpt lat="3.3626370" lon="-76.6208750">
        <ele>1842.6</ele>
        <time>2022-02-13T15:16:49Z</time>
      </trkpt>
      <trkpt lat="3.3626660" lon="-76.6208850">
        <ele>1842.0</ele>
        <time>2022-02-13T15:16:53Z</time>
      </trkpt>
      <trkpt lat="3.3626790" lon="-76.6208710">
        <ele>1841.6</ele>
        <time>2022-02-13T15:16:57Z</time>
      </trkpt>
      <trkpt lat="3.3626800" lon="-76.6208690">
        <ele>1841.6</ele>
        <time>2022-02-13T15:17:00Z</time>
      </trkpt>
      <trkpt lat="3.3626940" lon="-76.6208600">
        <ele>1841.3</ele>
        <time>2022-02-13T15:17:04Z</time>
      </trkpt>
      <trkpt lat="3.3626940" lon="-76.6208580">
        <ele>1841.3</ele>
        <time>2022-02-13T15:17:09Z</time>
      </trkpt>
      <trkpt lat="3.3626940" lon="-76.6208580">
        <ele>1841.3</ele>
        <time>2022-02-13T15:17:13Z</time>
      </trkpt>
      <trkpt lat="3.3626940" lon="-76.6208580">
        <ele>1841.3</ele>
        <time>2022-02-13T15:17:16Z</time>
      </trkpt>
      <trkpt lat="3.3627690" lon="-76.6208680">
        <ele>1839.9</ele>
        <time>2022-02-13T15:17:28Z</time>
      </trkpt>
      <trkpt lat="3.3628030" lon="-76.6208730">
        <ele>1839.3</ele>
        <time>2022-02-13T15:17:32Z</time>
      </trkpt>
      <trkpt lat="3.3628000" lon="-76.6208830">
        <ele>1839.2</ele>
        <time>2022-02-13T15:17:33Z</time>
      </trkpt>
      <trkpt lat="3.3627980" lon="-76.6208920">
        <ele>1839.0</ele>
        <time>2022-02-13T15:17:35Z</time>
      </trkpt>
      <trkpt lat="3.3628120" lon="-76.6209040">
        <ele>1838.7</ele>
        <time>2022-02-13T15:17:38Z</time>
      </trkpt>
      <trkpt lat="3.3628210" lon="-76.6209090">
        <ele>1838.6</ele>
        <time>2022-02-13T15:17:40Z</time>
      </trkpt>
      <trkpt lat="3.3628260" lon="-76.6209170">
        <ele>1838.4</ele>
        <time>2022-02-13T15:17:41Z</time>
      </trkpt>
      <trkpt lat="3.3628440" lon="-76.6209370">
        <ele>1838.0</ele>
        <time>2022-02-13T15:17:44Z</time>
      </trkpt>
      <trkpt lat="3.3628690" lon="-76.6209420">
        <ele>1837.7</ele>
        <time>2022-02-13T15:17:46Z</time>
      </trkpt>
      <trkpt lat="3.3629000" lon="-76.6209510">
        <ele>1837.3</ele>
        <time>2022-02-13T15:17:51Z</time>
      </trkpt>
      <trkpt lat="3.3629160" lon="-76.6209630">
        <ele>1837.0</ele>
        <time>2022-02-13T15:17:54Z</time>
      </trkpt>
      <trkpt lat="3.3629280" lon="-76.6209900">
        <ele>1836.6</ele>
        <time>2022-02-13T15:17:57Z</time>
      </trkpt>
      <trkpt lat="3.3629310" lon="-76.6209980">
        <ele>1836.5</ele>
        <time>2022-02-13T15:17:58Z</time>
      </trkpt>
      <trkpt lat="3.3629330" lon="-76.6210340">
        <ele>1836.0</ele>
        <time>2022-02-13T15:18:02Z</time>
      </trkpt>
      <trkpt lat="3.3629570" lon="-76.6210330">
        <ele>1835.6</ele>
        <time>2022-02-13T15:18:04Z</time>
      </trkpt>
      <trkpt lat="3.3629710" lon="-76.6210220">
        <ele>1835.3</ele>
        <time>2022-02-13T15:18:06Z</time>
      </trkpt>
      <trkpt lat="3.3629850" lon="-76.6210210">
        <ele>1835.0</ele>
        <time>2022-02-13T15:18:08Z</time>
      </trkpt>
      <trkpt lat="3.3629880" lon="-76.6210220">
        <ele>1835.0</ele>
        <time>2022-02-13T15:18:09Z</time>
      </trkpt>
      <trkpt lat="3.3629900" lon="-76.6210240">
        <ele>1834.9</ele>
        <time>2022-02-13T15:18:10Z</time>
      </trkpt>
      <trkpt lat="3.3630080" lon="-76.6210490">
        <ele>1834.3</ele>
        <time>2022-02-13T15:18:13Z</time>
      </trkpt>
      <trkpt lat="3.3630450" lon="-76.6210660">
        <ele>1833.4</ele>
        <time>2022-02-13T15:18:16Z</time>
      </trkpt>
      <trkpt lat="3.3630640" lon="-76.6210640">
        <ele>1833.0</ele>
        <time>2022-02-13T15:18:20Z</time>
      </trkpt>
      <trkpt lat="3.3630870" lon="-76.6210650">
        <ele>1832.4</ele>
        <time>2022-02-13T15:18:22Z</time>
      </trkpt>
      <trkpt lat="3.3631140" lon="-76.6210630">
        <ele>1831.8</ele>
        <time>2022-02-13T15:18:24Z</time>
      </trkpt>
      <trkpt lat="3.3631290" lon="-76.6210660">
        <ele>1831.4</ele>
        <time>2022-02-13T15:18:25Z</time>
      </trkpt>
      <trkpt lat="3.3631680" lon="-76.6210610">
        <ele>1830.5</ele>
        <time>2022-02-13T15:18:28Z</time>
      </trkpt>
      <trkpt lat="3.3631780" lon="-76.6210640">
        <ele>1830.3</ele>
        <time>2022-02-13T15:18:29Z</time>
      </trkpt>
      <trkpt lat="3.3632030" lon="-76.6210720">
        <ele>1829.7</ele>
        <time>2022-02-13T15:18:32Z</time>
      </trkpt>
      <trkpt lat="3.3632150" lon="-76.6210710">
        <ele>1829.4</ele>
        <time>2022-02-13T15:18:35Z</time>
      </trkpt>
      <trkpt lat="3.3632470" lon="-76.6210490">
        <ele>1828.7</ele>
        <time>2022-02-13T15:18:38Z</time>
      </trkpt>
      <trkpt lat="3.3632560" lon="-76.6210470">
        <ele>1828.5</ele>
        <time>2022-02-13T15:18:39Z</time>
      </trkpt>
      <trkpt lat="3.3632640" lon="-76.6210450">
        <ele>1828.3</ele>
        <time>2022-02-13T15:18:40Z</time>
      </trkpt>
      <trkpt lat="3.3632990" lon="-76.6210550">
        <ele>1827.6</ele>
        <time>2022-02-13T15:18:45Z</time>
      </trkpt>
      <trkpt lat="3.3633000" lon="-76.6210530">
        <ele>1827.5</ele>
        <time>2022-02-13T15:18:46Z</time>
      </trkpt>
      <trkpt lat="3.3633030" lon="-76.6210510">
        <ele>1827.4</ele>
        <time>2022-02-13T15:18:47Z</time>
      </trkpt>
      <trkpt lat="3.3633080" lon="-76.6210570">
        <ele>1827.3</ele>
        <time>2022-02-13T15:18:49Z</time>
      </trkpt>
      <trkpt lat="3.3633080" lon="-76.6210640">
        <ele>1827.1</ele>
        <time>2022-02-13T15:18:51Z</time>
      </trkpt>
      <trkpt lat="3.3633240" lon="-76.6210720">
        <ele>1826.7</ele>
        <time>2022-02-13T15:18:54Z</time>
      </trkpt>
      <trkpt lat="3.3633260" lon="-76.6210740">
        <ele>1826.6</ele>
        <time>2022-02-13T15:18:55Z</time>
      </trkpt>
      <trkpt lat="3.3633310" lon="-76.6210800">
        <ele>1826.4</ele>
        <time>2022-02-13T15:18:56Z</time>
      </trkpt>
      <trkpt lat="3.3633440" lon="-76.6211000">
        <ele>1825.8</ele>
        <time>2022-02-13T15:18:59Z</time>
      </trkpt>
      <trkpt lat="3.3633420" lon="-76.6211020">
        <ele>1825.7</ele>
        <time>2022-02-13T15:19:00Z</time>
      </trkpt>
      <trkpt lat="3.3633410" lon="-76.6211090">
        <ele>1825.5</ele>
        <time>2022-02-13T15:19:03Z</time>
      </trkpt>
      <trkpt lat="3.3633900" lon="-76.6211010">
        <ele>1824.1</ele>
        <time>2022-02-13T15:19:09Z</time>
      </trkpt>
      <trkpt lat="3.3634470" lon="-76.6211030">
        <ele>1822.3</ele>
        <time>2022-02-13T15:19:15Z</time>
      </trkpt>
      <trkpt lat="3.3634940" lon="-76.6210990">
        <ele>1820.8</ele>
        <time>2022-02-13T15:19:22Z</time>
      </trkpt>
      <trkpt lat="3.3635400" lon="-76.6210940">
        <ele>1819.3</ele>
        <time>2022-02-13T15:19:27Z</time>
      </trkpt>
      <trkpt lat="3.3635530" lon="-76.6210930">
        <ele>1818.9</ele>
        <time>2022-02-13T15:19:29Z</time>
      </trkpt>
      <trkpt lat="3.3635550" lon="-76.6210920">
        <ele>1818.9</ele>
        <time>2022-02-13T15:19:30Z</time>
      </trkpt>
      <trkpt lat="3.3635720" lon="-76.6210920">
        <ele>1818.4</ele>
        <time>2022-02-13T15:19:34Z</time>
      </trkpt>
      <trkpt lat="3.3635760" lon="-76.6210880">
        <ele>1818.2</ele>
        <time>2022-02-13T15:19:35Z</time>
      </trkpt>
      <trkpt lat="3.3636170" lon="-76.6210870">
        <ele>1817.1</ele>
        <time>2022-02-13T15:19:43Z</time>
      </trkpt>
      <trkpt lat="3.3636230" lon="-76.6210890">
        <ele>1817.0</ele>
        <time>2022-02-13T15:19:44Z</time>
      </trkpt>
      <trkpt lat="3.3636600" lon="-76.6210920">
        <ele>1816.1</ele>
        <time>2022-02-13T15:19:49Z</time>
      </trkpt>
      <trkpt lat="3.3636850" lon="-76.6210760">
        <ele>1815.5</ele>
        <time>2022-02-13T15:19:55Z</time>
      </trkpt>
      <trkpt lat="3.3637020" lon="-76.6210810">
        <ele>1815.1</ele>
        <time>2022-02-13T15:20:00Z</time>
      </trkpt>
      <trkpt lat="3.3637530" lon="-76.6210950">
        <ele>1814.2</ele>
        <time>2022-02-13T15:20:07Z</time>
      </trkpt>
      <trkpt lat="3.3637720" lon="-76.6210960">
        <ele>1813.8</ele>
        <time>2022-02-13T15:20:13Z</time>
      </trkpt>
      <trkpt lat="3.3637920" lon="-76.6210940">
        <ele>1813.5</ele>
        <time>2022-02-13T15:20:17Z</time>
      </trkpt>
      <trkpt lat="3.3637960" lon="-76.6210990">
        <ele>1813.4</ele>
        <time>2022-02-13T15:20:18Z</time>
      </trkpt>
      <trkpt lat="3.3638020" lon="-76.6211070">
        <ele>1813.2</ele>
        <time>2022-02-13T15:20:20Z</time>
      </trkpt>
      <trkpt lat="3.3638340" lon="-76.6211020">
        <ele>1812.7</ele>
        <time>2022-02-13T15:20:26Z</time>
      </trkpt>
      <trkpt lat="3.3638570" lon="-76.6211090">
        <ele>1812.3</ele>
        <time>2022-02-13T15:20:32Z</time>
      </trkpt>
      <trkpt lat="3.3638810" lon="-76.6211220">
        <ele>1811.8</ele>
        <time>2022-02-13T15:20:37Z</time>
      </trkpt>
      <trkpt lat="3.3638980" lon="-76.6211270">
        <ele>1811.5</ele>
        <time>2022-02-13T15:20:40Z</time>
      </trkpt>
      <trkpt lat="3.3639420" lon="-76.6211370">
        <ele>1810.8</ele>
        <time>2022-02-13T15:20:46Z</time>
      </trkpt>
      <trkpt lat="3.3639680" lon="-76.6211490">
        <ele>1810.4</ele>
        <time>2022-02-13T15:20:49Z</time>
      </trkpt>
      <trkpt lat="3.3639760" lon="-76.6211590">
        <ele>1810.2</ele>
        <time>2022-02-13T15:20:52Z</time>
      </trkpt>
      <trkpt lat="3.3639950" lon="-76.6211570">
        <ele>1810.0</ele>
        <time>2022-02-13T15:20:54Z</time>
      </trkpt>
      <trkpt lat="3.3640230" lon="-76.6211650">
        <ele>1809.6</ele>
        <time>2022-02-13T15:20:59Z</time>
      </trkpt>
      <trkpt lat="3.3640770" lon="-76.6211290">
        <ele>1808.9</ele>
        <time>2022-02-13T15:21:05Z</time>
      </trkpt>
      <trkpt lat="3.3641300" lon="-76.6211510">
        <ele>1808.4</ele>
        <time>2022-02-13T15:21:11Z</time>
      </trkpt>
      <trkpt lat="3.3641980" lon="-76.6211830">
        <ele>1807.7</ele>
        <time>2022-02-13T15:21:18Z</time>
      </trkpt>
      <trkpt lat="3.3642040" lon="-76.6211870">
        <ele>1807.6</ele>
        <time>2022-02-13T15:21:20Z</time>
      </trkpt>
      <trkpt lat="3.3642330" lon="-76.6211960">
        <ele>1807.2</ele>
        <time>2022-02-13T15:21:24Z</time>
      </trkpt>
      <trkpt lat="3.3642890" lon="-76.6212330">
        <ele>1806.3</ele>
        <time>2022-02-13T15:21:29Z</time>
      </trkpt>
      <trkpt lat="3.3642950" lon="-76.6212440">
        <ele>1806.1</ele>
        <time>2022-02-13T15:21:30Z</time>
      </trkpt>
      <trkpt lat="3.3643070" lon="-76.6212520">
        <ele>1805.8</ele>
        <time>2022-02-13T15:21:32Z</time>
      </trkpt>
      <trkpt lat="3.3643410" lon="-76.6212820">
        <ele>1804.9</ele>
        <time>2022-02-13T15:21:36Z</time>
      </trkpt>
      <trkpt lat="3.3643570" lon="-76.6212860">
        <ele>1804.5</ele>
        <time>2022-02-13T15:21:38Z</time>
      </trkpt>
      <trkpt lat="3.3643690" lon="-76.6212770">
        <ele>1804.1</ele>
        <time>2022-02-13T15:21:40Z</time>
      </trkpt>
      <trkpt lat="3.3643720" lon="-76.6212720">
        <ele>1804.0</ele>
        <time>2022-02-13T15:21:41Z</time>
      </trkpt>
      <trkpt lat="3.3644120" lon="-76.6212780">
        <ele>1802.9</ele>
        <time>2022-02-13T15:21:47Z</time>
      </trkpt>
      <trkpt lat="3.3644260" lon="-76.6212830">
        <ele>1802.5</ele>
        <time>2022-02-13T15:21:49Z</time>
      </trkpt>
      <trkpt lat="3.3644360" lon="-76.6212850">
        <ele>1802.2</ele>
        <time>2022-02-13T15:21:51Z</time>
      </trkpt>
      <trkpt lat="3.3644470" lon="-76.6212770">
        <ele>1801.9</ele>
        <time>2022-02-13T15:21:54Z</time>
      </trkpt>
      <trkpt lat="3.3644510" lon="-76.6212820">
        <ele>1801.7</ele>
        <time>2022-02-13T15:21:56Z</time>
      </trkpt>
      <trkpt lat="3.3644560" lon="-76.6212850">
        <ele>1801.5</ele>
        <time>2022-02-13T15:21:58Z</time>
      </trkpt>
      <trkpt lat="3.3644600" lon="-76.6212840">
        <ele>1801.4</ele>
        <time>2022-02-13T15:22:00Z</time>
      </trkpt>
      <trkpt lat="3.3644800" lon="-76.6212750">
        <ele>1800.8</ele>
        <time>2022-02-13T15:22:07Z</time>
      </trkpt>
      <trkpt lat="3.3644830" lon="-76.6212730">
        <ele>1800.7</ele>
        <time>2022-02-13T15:22:08Z</time>
      </trkpt>
      <trkpt lat="3.3645020" lon="-76.6213080">
        <ele>1799.6</ele>
        <time>2022-02-13T15:22:13Z</time>
      </trkpt>
      <trkpt lat="3.3645020" lon="-76.6213070">
        <ele>1799.6</ele>
        <time>2022-02-13T15:22:14Z</time>
      </trkpt>
      <trkpt lat="3.3645170" lon="-76.6213090">
        <ele>1799.2</ele>
        <time>2022-02-13T15:22:16Z</time>
      </trkpt>
      <trkpt lat="3.3645520" lon="-76.6213260">
        <ele>1798.3</ele>
        <time>2022-02-13T15:22:22Z</time>
      </trkpt>
      <trkpt lat="3.3645590" lon="-76.6213280">
        <ele>1798.1</ele>
        <time>2022-02-13T15:22:23Z</time>
      </trkpt>
      <trkpt lat="3.3645630" lon="-76.6213300">
        <ele>1798.0</ele>
        <time>2022-02-13T15:22:24Z</time>
      </trkpt>
      <trkpt lat="3.3645760" lon="-76.6213390">
        <ele>1797.7</ele>
        <time>2022-02-13T15:22:26Z</time>
      </trkpt>
      <trkpt lat="3.3645950" lon="-76.6213460">
        <ele>1797.3</ele>
        <time>2022-02-13T15:22:30Z</time>
      </trkpt>
      <trkpt lat="3.3646080" lon="-76.6213510">
        <ele>1797.0</ele>
        <time>2022-02-13T15:22:32Z</time>
      </trkpt>
      <trkpt lat="3.3646170" lon="-76.6213590">
        <ele>1796.8</ele>
        <time>2022-02-13T15:22:34Z</time>
      </trkpt>
      <trkpt lat="3.3646230" lon="-76.6213660">
        <ele>1796.7</ele>
        <time>2022-02-13T15:22:37Z</time>
      </trkpt>
      <trkpt lat="3.3646370" lon="-76.6213740">
        <ele>1796.4</ele>
        <time>2022-02-13T15:22:41Z</time>
      </trkpt>
      <trkpt lat="3.3646500" lon="-76.6213760">
        <ele>1796.2</ele>
        <time>2022-02-13T15:22:42Z</time>
      </trkpt>
      <trkpt lat="3.3646700" lon="-76.6213850">
        <ele>1795.9</ele>
        <time>2022-02-13T15:22:46Z</time>
      </trkpt>
      <trkpt lat="3.3646720" lon="-76.6213970">
        <ele>1795.7</ele>
        <time>2022-02-13T15:22:48Z</time>
      </trkpt>
      <trkpt lat="3.3646990" lon="-76.6214140">
        <ele>1795.3</ele>
        <time>2022-02-13T15:22:52Z</time>
      </trkpt>
      <trkpt lat="3.3647530" lon="-76.6214470">
        <ele>1794.5</ele>
        <time>2022-02-13T15:22:58Z</time>
      </trkpt>
      <trkpt lat="3.3647920" lon="-76.6214680">
        <ele>1793.9</ele>
        <time>2022-02-13T15:23:04Z</time>
      </trkpt>
      <trkpt lat="3.3648170" lon="-76.6214780">
        <ele>1793.6</ele>
        <time>2022-02-13T15:23:10Z</time>
      </trkpt>
      <trkpt lat="3.3648310" lon="-76.6214450">
        <ele>1793.1</ele>
        <time>2022-02-13T15:23:13Z</time>
      </trkpt>
      <trkpt lat="3.3648390" lon="-76.6214170">
        <ele>1792.8</ele>
        <time>2022-02-13T15:23:16Z</time>
      </trkpt>
      <trkpt lat="3.3648300" lon="-76.6214170">
        <ele>1792.7</ele>
        <time>2022-02-13T15:23:17Z</time>
      </trkpt>
      <trkpt lat="3.3648640" lon="-76.6214320">
        <ele>1792.2</ele>
        <time>2022-02-13T15:28:32Z</time>
      </trkpt>
      <trkpt lat="3.3648620" lon="-76.6214430">
        <ele>1792.1</ele>
        <time>2022-02-13T15:28:33Z</time>
      </trkpt>
      <trkpt lat="3.3648900" lon="-76.6214200">
        <ele>1791.6</ele>
        <time>2022-02-13T15:28:36Z</time>
      </trkpt>
      <trkpt lat="3.3648900" lon="-76.6214030">
        <ele>1791.4</ele>
        <time>2022-02-13T15:28:41Z</time>
      </trkpt>
      <trkpt lat="3.3648660" lon="-76.6214000">
        <ele>1791.1</ele>
        <time>2022-02-13T15:28:46Z</time>
      </trkpt>
      <trkpt lat="3.3648780" lon="-76.6213920">
        <ele>1791.0</ele>
        <time>2022-02-13T15:28:52Z</time>
      </trkpt>
      <trkpt lat="3.3648890" lon="-76.6213930">
        <ele>1790.8</ele>
        <time>2022-02-13T15:29:03Z</time>
      </trkpt>
      <trkpt lat="3.3648920" lon="-76.6213890">
        <ele>1790.8</ele>
        <time>2022-02-13T15:29:10Z</time>
      </trkpt>
      <trkpt lat="3.3648920" lon="-76.6213890">
        <ele>1790.8</ele>
        <time>2022-02-13T15:29:19Z</time>
      </trkpt>
      <trkpt lat="3.3648920" lon="-76.6213870">
        <ele>1790.8</ele>
        <time>2022-02-13T15:29:21Z</time>
      </trkpt>
      <trkpt lat="3.3648820" lon="-76.6213890">
        <ele>1790.6</ele>
        <time>2022-02-13T15:29:34Z</time>
      </trkpt>
      <trkpt lat="3.3648490" lon="-76.6214480">
        <ele>1789.9</ele>
        <time>2022-02-13T15:29:51Z</time>
      </trkpt>
      <trkpt lat="3.3648500" lon="-76.6215210">
        <ele>1789.2</ele>
        <time>2022-02-13T15:29:57Z</time>
      </trkpt>
      <trkpt lat="3.3648290" lon="-76.6215660">
        <ele>1788.9</ele>
        <time>2022-02-13T15:30:02Z</time>
      </trkpt>
      <trkpt lat="3.3648160" lon="-76.6215870">
        <ele>1788.8</ele>
        <time>2022-02-13T15:30:05Z</time>
      </trkpt>
      <trkpt lat="3.3648190" lon="-76.6215900">
        <ele>1788.8</ele>
        <time>2022-02-13T15:30:07Z</time>
      </trkpt>
      <trkpt lat="3.3648210" lon="-76.6215900">
        <ele>1788.8</ele>
        <time>2022-02-13T15:30:09Z</time>
      </trkpt>
      <trkpt lat="3.3648560" lon="-76.6216060">
        <ele>1788.7</ele>
        <time>2022-02-13T15:30:12Z</time>
      </trkpt>
      <trkpt lat="3.3648810" lon="-76.6215880">
        <ele>1788.7</ele>
        <time>2022-02-13T15:30:19Z</time>
      </trkpt>
      <trkpt lat="3.3648970" lon="-76.6215830">
        <ele>1788.7</ele>
        <time>2022-02-13T15:30:21Z</time>
      </trkpt>
      <trkpt lat="3.3649080" lon="-76.6215770">
        <ele>1788.7</ele>
        <time>2022-02-13T15:30:22Z</time>
      </trkpt>
      <trkpt lat="3.3649120" lon="-76.6215740">
        <ele>1788.7</ele>
        <time>2022-02-13T15:30:24Z</time>
      </trkpt>
      <trkpt lat="3.3649160" lon="-76.6215710">
        <ele>1788.7</ele>
        <time>2022-02-13T15:30:30Z</time>
      </trkpt>
      <trkpt lat="3.3649190" lon="-76.6215710">
        <ele>1788.7</ele>
        <time>2022-02-13T15:30:36Z</time>
      </trkpt>
      <trkpt lat="3.3649430" lon="-76.6215470">
        <ele>1788.8</ele>
        <time>2022-02-13T15:30:42Z</time>
      </trkpt>
      <trkpt lat="3.3649770" lon="-76.6215430">
        <ele>1788.8</ele>
        <time>2022-02-13T15:30:48Z</time>
      </trkpt>
      <trkpt lat="3.3650000" lon="-76.6215480">
        <ele>1788.9</ele>
        <time>2022-02-13T15:30:54Z</time>
      </trkpt>
      <trkpt lat="3.3650380" lon="-76.6215810">
        <ele>1789.0</ele>
        <time>2022-02-13T15:31:00Z</time>
      </trkpt>
      <trkpt lat="3.3650480" lon="-76.6215820">
        <ele>1789.0</ele>
        <time>2022-02-13T15:31:01Z</time>
      </trkpt>
      <trkpt lat="3.3650860" lon="-76.6215960">
        <ele>1789.1</ele>
        <time>2022-02-13T15:31:05Z</time>
      </trkpt>
      <trkpt lat="3.3650880" lon="-76.6215980">
        <ele>1789.1</ele>
        <time>2022-02-13T15:31:07Z</time>
      </trkpt>
      <trkpt lat="3.3650860" lon="-76.6216010">
        <ele>1789.1</ele>
        <time>2022-02-13T15:31:08Z</time>
      </trkpt>
      <trkpt lat="3.3650950" lon="-76.6216040">
        <ele>1789.2</ele>
        <time>2022-02-13T15:31:10Z</time>
      </trkpt>
      <trkpt lat="3.3651020" lon="-76.6216130">
        <ele>1789.2</ele>
        <time>2022-02-13T15:31:13Z</time>
      </trkpt>
      <trkpt lat="3.3651300" lon="-76.6216240">
        <ele>1789.3</ele>
        <time>2022-02-13T15:31:17Z</time>
      </trkpt>
      <trkpt lat="3.3651390" lon="-76.6216400">
        <ele>1789.4</ele>
        <time>2022-02-13T15:31:22Z</time>
      </trkpt>
      <trkpt lat="3.3651410" lon="-76.6216440">
        <ele>1789.5</ele>
        <time>2022-02-13T15:31:23Z</time>
      </trkpt>
      <trkpt lat="3.3651980" lon="-76.6216370">
        <ele>1789.9</ele>
        <time>2022-02-13T15:31:29Z</time>
      </trkpt>
      <trkpt lat="3.3652170" lon="-76.6216300">
        <ele>1790.1</ele>
        <time>2022-02-13T15:31:31Z</time>
      </trkpt>
      <trkpt lat="3.3652240" lon="-76.6216260">
        <ele>1790.1</ele>
        <time>2022-02-13T15:31:33Z</time>
      </trkpt>
      <trkpt lat="3.3652240" lon="-76.6216370">
        <ele>1790.2</ele>
        <time>2022-02-13T15:31:34Z</time>
      </trkpt>
      <trkpt lat="3.3652290" lon="-76.6216390">
        <ele>1790.3</ele>
        <time>2022-02-13T15:31:35Z</time>
      </trkpt>
      <trkpt lat="3.3652480" lon="-76.6216440">
        <ele>1790.5</ele>
        <time>2022-02-13T15:31:39Z</time>
      </trkpt>
      <trkpt lat="3.3652520" lon="-76.6216440">
        <ele>1790.5</ele>
        <time>2022-02-13T15:31:40Z</time>
      </trkpt>
      <trkpt lat="3.3652710" lon="-76.6216670">
        <ele>1790.8</ele>
        <time>2022-02-13T15:31:43Z</time>
      </trkpt>
      <trkpt lat="3.3652810" lon="-76.6216750">
        <ele>1790.9</ele>
        <time>2022-02-13T15:31:44Z</time>
      </trkpt>
      <trkpt lat="3.3653700" lon="-76.6217490">
        <ele>1791.4</ele>
        <time>2022-02-13T15:31:52Z</time>
      </trkpt>
      <trkpt lat="3.3653730" lon="-76.6217520">
        <ele>1791.5</ele>
        <time>2022-02-13T15:31:53Z</time>
      </trkpt>
      <trkpt lat="3.3653830" lon="-76.6217740">
        <ele>1791.5</ele>
        <time>2022-02-13T15:31:56Z</time>
      </trkpt>
      <trkpt lat="3.3653970" lon="-76.6217970">
        <ele>1791.6</ele>
        <time>2022-02-13T15:31:59Z</time>
      </trkpt>
      <trkpt lat="3.3654270" lon="-76.6218290">
        <ele>1791.6</ele>
        <time>2022-02-13T15:32:02Z</time>
      </trkpt>
      <trkpt lat="3.3654520" lon="-76.6218200">
        <ele>1791.5</ele>
        <time>2022-02-13T15:32:05Z</time>
      </trkpt>
      <trkpt lat="3.3654620" lon="-76.6218170">
        <ele>1791.5</ele>
        <time>2022-02-13T15:32:07Z</time>
      </trkpt>
      <trkpt lat="3.3654720" lon="-76.6218110">
        <ele>1791.4</ele>
        <time>2022-02-13T15:32:08Z</time>
      </trkpt>
      <trkpt lat="3.3655110" lon="-76.6218050">
        <ele>1791.2</ele>
        <time>2022-02-13T15:32:12Z</time>
      </trkpt>
      <trkpt lat="3.3655210" lon="-76.6218030">
        <ele>1791.2</ele>
        <time>2022-02-13T15:32:13Z</time>
      </trkpt>
      <trkpt lat="3.3655280" lon="-76.6218090">
        <ele>1791.1</ele>
        <time>2022-02-13T15:32:15Z</time>
      </trkpt>
      <trkpt lat="3.3655470" lon="-76.6218290">
        <ele>1791.0</ele>
        <time>2022-02-13T15:32:17Z</time>
      </trkpt>
      <trkpt lat="3.3655500" lon="-76.6218300">
        <ele>1791.0</ele>
        <time>2022-02-13T15:32:18Z</time>
      </trkpt>
      <trkpt lat="3.3655570" lon="-76.6218350">
        <ele>1790.9</ele>
        <time>2022-02-13T15:32:20Z</time>
      </trkpt>
      <trkpt lat="3.3655740" lon="-76.6218730">
        <ele>1790.8</ele>
        <time>2022-02-13T15:32:23Z</time>
      </trkpt>
      <trkpt lat="3.3655800" lon="-76.6218900">
        <ele>1790.7</ele>
        <time>2022-02-13T15:32:24Z</time>
      </trkpt>
      <trkpt lat="3.3656280" lon="-76.6219100">
        <ele>1790.6</ele>
        <time>2022-02-13T15:32:29Z</time>
      </trkpt>
      <trkpt lat="3.3656550" lon="-76.6219280">
        <ele>1790.6</ele>
        <time>2022-02-13T15:32:32Z</time>
      </trkpt>
      <trkpt lat="3.3656590" lon="-76.6219430">
        <ele>1790.6</ele>
        <time>2022-02-13T15:32:34Z</time>
      </trkpt>
      <trkpt lat="3.3656920" lon="-76.6219520">
        <ele>1790.6</ele>
        <time>2022-02-13T15:32:36Z</time>
      </trkpt>
      <trkpt lat="3.3657320" lon="-76.6219640">
        <ele>1790.6</ele>
        <time>2022-02-13T15:32:39Z</time>
      </trkpt>
      <trkpt lat="3.3657810" lon="-76.6219790">
        <ele>1790.6</ele>
        <time>2022-02-13T15:32:42Z</time>
      </trkpt>
      <trkpt lat="3.3657980" lon="-76.6219900">
        <ele>1790.6</ele>
        <time>2022-02-13T15:32:44Z</time>
      </trkpt>
      <trkpt lat="3.3658470" lon="-76.6219960">
        <ele>1790.5</ele>
        <time>2022-02-13T15:32:48Z</time>
      </trkpt>
      <trkpt lat="3.3658750" lon="-76.6219820">
        <ele>1790.5</ele>
        <time>2022-02-13T15:32:51Z</time>
      </trkpt>
      <trkpt lat="3.3658820" lon="-76.6219730">
        <ele>1790.5</ele>
        <time>2022-02-13T15:32:52Z</time>
      </trkpt>
      <trkpt lat="3.3659010" lon="-76.6219630">
        <ele>1790.4</ele>
        <time>2022-02-13T15:32:54Z</time>
      </trkpt>
      <trkpt lat="3.3659160" lon="-76.6219690">
        <ele>1790.4</ele>
        <time>2022-02-13T15:32:56Z</time>
      </trkpt>
      <trkpt lat="3.3659400" lon="-76.6219720">
        <ele>1790.4</ele>
        <time>2022-02-13T15:32:58Z</time>
      </trkpt>
      <trkpt lat="3.3659800" lon="-76.6219810">
        <ele>1790.3</ele>
        <time>2022-02-13T15:33:03Z</time>
      </trkpt>
      <trkpt lat="3.3660370" lon="-76.6219990">
        <ele>1790.1</ele>
        <time>2022-02-13T15:33:08Z</time>
      </trkpt>
      <trkpt lat="3.3660460" lon="-76.6220030">
        <ele>1790.0</ele>
        <time>2022-02-13T15:33:09Z</time>
      </trkpt>
      <trkpt lat="3.3660550" lon="-76.6220090">
        <ele>1790.0</ele>
        <time>2022-02-13T15:33:10Z</time>
      </trkpt>
      <trkpt lat="3.3660810" lon="-76.6220180">
        <ele>1789.8</ele>
        <time>2022-02-13T15:33:13Z</time>
      </trkpt>
      <trkpt lat="3.3661050" lon="-76.6220070">
        <ele>1789.7</ele>
        <time>2022-02-13T15:33:15Z</time>
      </trkpt>
      <trkpt lat="3.3661150" lon="-76.6220090">
        <ele>1789.6</ele>
        <time>2022-02-13T15:33:16Z</time>
      </trkpt>
      <trkpt lat="3.3661750" lon="-76.6220270">
        <ele>1789.2</ele>
        <time>2022-02-13T15:33:22Z</time>
      </trkpt>
      <trkpt lat="3.3662070" lon="-76.6220400">
        <ele>1789.0</ele>
        <time>2022-02-13T15:33:25Z</time>
      </trkpt>
      <trkpt lat="3.3662480" lon="-76.6220480">
        <ele>1788.8</ele>
        <time>2022-02-13T15:33:30Z</time>
      </trkpt>
      <trkpt lat="3.3663270" lon="-76.6220700">
        <ele>1788.5</ele>
        <time>2022-02-13T15:33:38Z</time>
      </trkpt>
      <trkpt lat="3.3663370" lon="-76.6220660">
        <ele>1788.5</ele>
        <time>2022-02-13T15:33:39Z</time>
      </trkpt>
      <trkpt lat="3.3663750" lon="-76.6220690">
        <ele>1788.4</ele>
        <time>2022-02-13T15:33:42Z</time>
      </trkpt>
      <trkpt lat="3.3664700" lon="-76.6220640">
        <ele>1788.0</ele>
        <time>2022-02-13T15:33:49Z</time>
      </trkpt>
      <trkpt lat="3.3664890" lon="-76.6220680">
        <ele>1787.9</ele>
        <time>2022-02-13T15:33:51Z</time>
      </trkpt>
      <trkpt lat="3.3664990" lon="-76.6220660">
        <ele>1787.9</ele>
        <time>2022-02-13T15:33:53Z</time>
      </trkpt>
      <trkpt lat="3.3665050" lon="-76.6220700">
        <ele>1787.8</ele>
        <time>2022-02-13T15:33:54Z</time>
      </trkpt>
      <trkpt lat="3.3665160" lon="-76.6220690">
        <ele>1787.7</ele>
        <time>2022-02-13T15:33:55Z</time>
      </trkpt>
      <trkpt lat="3.3665360" lon="-76.6220730">
        <ele>1787.6</ele>
        <time>2022-02-13T15:33:57Z</time>
      </trkpt>
      <trkpt lat="3.3665640" lon="-76.6220890">
        <ele>1787.4</ele>
        <time>2022-02-13T15:33:59Z</time>
      </trkpt>
      <trkpt lat="3.3666000" lon="-76.6220740">
        <ele>1787.2</ele>
        <time>2022-02-13T15:34:02Z</time>
      </trkpt>
      <trkpt lat="3.3666040" lon="-76.6220740">
        <ele>1787.2</ele>
        <time>2022-02-13T15:34:03Z</time>
      </trkpt>
      <trkpt lat="3.3666060" lon="-76.6220750">
        <ele>1787.2</ele>
        <time>2022-02-13T15:34:04Z</time>
      </trkpt>
      <trkpt lat="3.3666270" lon="-76.6220870">
        <ele>1787.0</ele>
        <time>2022-02-13T15:34:09Z</time>
      </trkpt>
      <trkpt lat="3.3667120" lon="-76.6220780">
        <ele>1786.3</ele>
        <time>2022-02-13T15:34:15Z</time>
      </trkpt>
      <trkpt lat="3.3667710" lon="-76.6220760">
        <ele>1785.7</ele>
        <time>2022-02-13T15:34:20Z</time>
      </trkpt>
      <trkpt lat="3.3667880" lon="-76.6220820">
        <ele>1785.5</ele>
        <time>2022-02-13T15:34:22Z</time>
      </trkpt>
      <trkpt lat="3.3668100" lon="-76.6220850">
        <ele>1785.3</ele>
        <time>2022-02-13T15:34:25Z</time>
      </trkpt>
      <trkpt lat="3.3668300" lon="-76.6220890">
        <ele>1785.1</ele>
        <time>2022-02-13T15:34:28Z</time>
      </trkpt>
      <trkpt lat="3.3668680" lon="-76.6220900">
        <ele>1784.6</ele>
        <time>2022-02-13T15:34:31Z</time>
      </trkpt>
      <trkpt lat="3.3668950" lon="-76.6220920">
        <ele>1784.3</ele>
        <time>2022-02-13T15:34:33Z</time>
      </trkpt>
      <trkpt lat="3.3669040" lon="-76.6220970">
        <ele>1784.2</ele>
        <time>2022-02-13T15:34:34Z</time>
      </trkpt>
      <trkpt lat="3.3669330" lon="-76.6221140">
        <ele>1783.7</ele>
        <time>2022-02-13T15:34:37Z</time>
      </trkpt>
      <trkpt lat="3.3669390" lon="-76.6221370">
        <ele>1783.5</ele>
        <time>2022-02-13T15:34:39Z</time>
      </trkpt>
      <trkpt lat="3.3669420" lon="-76.6221430">
        <ele>1783.4</ele>
        <time>2022-02-13T15:34:40Z</time>
      </trkpt>
      <trkpt lat="3.3669580" lon="-76.6221560">
        <ele>1783.1</ele>
        <time>2022-02-13T15:34:43Z</time>
      </trkpt>
      <trkpt lat="3.3669700" lon="-76.6221700">
        <ele>1782.9</ele>
        <time>2022-02-13T15:34:45Z</time>
      </trkpt>
      <trkpt lat="3.3669740" lon="-76.6221900">
        <ele>1782.6</ele>
        <time>2022-02-13T15:34:47Z</time>
      </trkpt>
      <trkpt lat="3.3669770" lon="-76.6222010">
        <ele>1782.5</ele>
        <time>2022-02-13T15:34:48Z</time>
      </trkpt>
      <trkpt lat="3.3670060" lon="-76.6222400">
        <ele>1781.8</ele>
        <time>2022-02-13T15:34:52Z</time>
      </trkpt>
      <trkpt lat="3.3670500" lon="-76.6222610">
        <ele>1781.0</ele>
        <time>2022-02-13T15:34:57Z</time>
      </trkpt>
      <trkpt lat="3.3670710" lon="-76.6222630">
        <ele>1780.6</ele>
        <time>2022-02-13T15:34:59Z</time>
      </trkpt>
      <trkpt lat="3.3670880" lon="-76.6222580">
        <ele>1780.3</ele>
        <time>2022-02-13T15:35:00Z</time>
      </trkpt>
      <trkpt lat="3.3671220" lon="-76.6222550">
        <ele>1779.6</ele>
        <time>2022-02-13T15:35:03Z</time>
      </trkpt>
      <trkpt lat="3.3671330" lon="-76.6222520">
        <ele>1779.3</ele>
        <time>2022-02-13T15:35:04Z</time>
      </trkpt>
      <trkpt lat="3.3671600" lon="-76.6222500">
        <ele>1778.7</ele>
        <time>2022-02-13T15:35:07Z</time>
      </trkpt>
      <trkpt lat="3.3671700" lon="-76.6222580">
        <ele>1778.4</ele>
        <time>2022-02-13T15:35:08Z</time>
      </trkpt>
      <trkpt lat="3.3671810" lon="-76.6222560">
        <ele>1778.1</ele>
        <time>2022-02-13T15:35:09Z</time>
      </trkpt>
      <trkpt lat="3.3672250" lon="-76.6222580">
        <ele>1777.0</ele>
        <time>2022-02-13T15:35:13Z</time>
      </trkpt>
      <trkpt lat="3.3672730" lon="-76.6222700">
        <ele>1775.8</ele>
        <time>2022-02-13T15:35:20Z</time>
      </trkpt>
      <trkpt lat="3.3673210" lon="-76.6222670">
        <ele>1774.8</ele>
        <time>2022-02-13T15:35:27Z</time>
      </trkpt>
      <trkpt lat="3.3673280" lon="-76.6222640">
        <ele>1774.6</ele>
        <time>2022-02-13T15:35:28Z</time>
      </trkpt>
      <trkpt lat="3.3673390" lon="-76.6222680">
        <ele>1774.4</ele>
        <time>2022-02-13T15:35:31Z</time>
      </trkpt>
      <trkpt lat="3.3673480" lon="-76.6222730">
        <ele>1774.2</ele>
        <time>2022-02-13T15:35:33Z</time>
      </trkpt>
      <trkpt lat="3.3673660" lon="-76.6222830">
        <ele>1773.7</ele>
        <time>2022-02-13T15:35:35Z</time>
      </trkpt>
      <trkpt lat="3.3673840" lon="-76.6222900">
        <ele>1773.3</ele>
        <time>2022-02-13T15:35:38Z</time>
      </trkpt>
      <trkpt lat="3.3673930" lon="-76.6222910">
        <ele>1773.2</ele>
        <time>2022-02-13T15:35:40Z</time>
      </trkpt>
      <trkpt lat="3.3674580" lon="-76.6223090">
        <ele>1771.9</ele>
        <time>2022-02-13T15:35:47Z</time>
      </trkpt>
      <trkpt lat="3.3675120" lon="-76.6223190">
        <ele>1771.0</ele>
        <time>2022-02-13T15:35:53Z</time>
      </trkpt>
      <trkpt lat="3.3675210" lon="-76.6223120">
        <ele>1770.9</ele>
        <time>2022-02-13T15:35:54Z</time>
      </trkpt>
      <trkpt lat="3.3675390" lon="-76.6223180">
        <ele>1770.6</ele>
        <time>2022-02-13T15:35:57Z</time>
      </trkpt>
      <trkpt lat="3.3675560" lon="-76.6223230">
        <ele>1770.4</ele>
        <time>2022-02-13T15:35:59Z</time>
      </trkpt>
      <trkpt lat="3.3675820" lon="-76.6223200">
        <ele>1770.0</ele>
        <time>2022-02-13T15:36:02Z</time>
      </trkpt>
      <trkpt lat="3.3675910" lon="-76.6223250">
        <ele>1769.9</ele>
        <time>2022-02-13T15:36:03Z</time>
      </trkpt>
      <trkpt lat="3.3675920" lon="-76.6223360">
        <ele>1769.8</ele>
        <time>2022-02-13T15:36:04Z</time>
      </trkpt>
      <trkpt lat="3.3675970" lon="-76.6223350">
        <ele>1769.7</ele>
        <time>2022-02-13T15:36:05Z</time>
      </trkpt>
      <trkpt lat="3.3676280" lon="-76.6223470">
        <ele>1769.2</ele>
        <time>2022-02-13T15:36:09Z</time>
      </trkpt>
      <trkpt lat="3.3676390" lon="-76.6223480">
        <ele>1769.1</ele>
        <time>2022-02-13T15:36:10Z</time>
      </trkpt>
      <trkpt lat="3.3676630" lon="-76.6223540">
        <ele>1768.7</ele>
        <time>2022-02-13T15:36:12Z</time>
      </trkpt>
      <trkpt lat="3.3677090" lon="-76.6223450">
        <ele>1768.0</ele>
        <time>2022-02-13T15:36:16Z</time>
      </trkpt>
      <trkpt lat="3.3677310" lon="-76.6223480">
        <ele>1767.6</ele>
        <time>2022-02-13T15:36:18Z</time>
      </trkpt>
      <trkpt lat="3.3677690" lon="-76.6223490">
        <ele>1767.1</ele>
        <time>2022-02-13T15:36:21Z</time>
      </trkpt>
      <trkpt lat="3.3677950" lon="-76.6223480">
        <ele>1766.7</ele>
        <time>2022-02-13T15:36:23Z</time>
      </trkpt>
      <trkpt lat="3.3678050" lon="-76.6223510">
        <ele>1766.5</ele>
        <time>2022-02-13T15:36:24Z</time>
      </trkpt>
      <trkpt lat="3.3678330" lon="-76.6223460">
        <ele>1766.1</ele>
        <time>2022-02-13T15:36:26Z</time>
      </trkpt>
      <trkpt lat="3.3678770" lon="-76.6223600">
        <ele>1765.6</ele>
        <time>2022-02-13T15:36:31Z</time>
      </trkpt>
      <trkpt lat="3.3678940" lon="-76.6223680">
        <ele>1765.4</ele>
        <time>2022-02-13T15:36:32Z</time>
      </trkpt>
      <trkpt lat="3.3679330" lon="-76.6223760">
        <ele>1765.1</ele>
        <time>2022-02-13T15:36:36Z</time>
      </trkpt>
      <trkpt lat="3.3679690" lon="-76.6223740">
        <ele>1764.8</ele>
        <time>2022-02-13T15:36:38Z</time>
      </trkpt>
      <trkpt lat="3.3680190" lon="-76.6224070">
        <ele>1764.4</ele>
        <time>2022-02-13T15:36:44Z</time>
      </trkpt>
      <trkpt lat="3.3680300" lon="-76.6224080">
        <ele>1764.3</ele>
        <time>2022-02-13T15:36:45Z</time>
      </trkpt>
      <trkpt lat="3.3680510" lon="-76.6224280">
        <ele>1764.1</ele>
        <time>2022-02-13T15:36:48Z</time>
      </trkpt>
      <trkpt lat="3.3680530" lon="-76.6224400">
        <ele>1764.0</ele>
        <time>2022-02-13T15:36:49Z</time>
      </trkpt>
      <trkpt lat="3.3680540" lon="-76.6224420">
        <ele>1764.0</ele>
        <time>2022-02-13T15:36:50Z</time>
      </trkpt>
      <trkpt lat="3.3680610" lon="-76.6224460">
        <ele>1763.9</ele>
        <time>2022-02-13T15:36:52Z</time>
      </trkpt>
      <trkpt lat="3.3680760" lon="-76.6224650">
        <ele>1763.8</ele>
        <time>2022-02-13T15:36:54Z</time>
      </trkpt>
      <trkpt lat="3.3680790" lon="-76.6224680">
        <ele>1763.7</ele>
        <time>2022-02-13T15:36:55Z</time>
      </trkpt>
      <trkpt lat="3.3681070" lon="-76.6224830">
        <ele>1763.5</ele>
        <time>2022-02-13T15:36:58Z</time>
      </trkpt>
      <trkpt lat="3.3681140" lon="-76.6224870">
        <ele>1763.4</ele>
        <time>2022-02-13T15:37:00Z</time>
      </trkpt>
      <trkpt lat="3.3681500" lon="-76.6224750">
        <ele>1763.1</ele>
        <time>2022-02-13T15:37:03Z</time>
      </trkpt>
      <trkpt lat="3.3682090" lon="-76.6224730">
        <ele>1762.7</ele>
        <time>2022-02-13T15:37:06Z</time>
      </trkpt>
      <trkpt lat="3.3682330" lon="-76.6224730">
        <ele>1762.5</ele>
        <time>2022-02-13T15:37:07Z</time>
      </trkpt>
      <trkpt lat="3.3682550" lon="-76.6224640">
        <ele>1762.4</ele>
        <time>2022-02-13T15:37:08Z</time>
      </trkpt>
      <trkpt lat="3.3683440" lon="-76.6224750">
        <ele>1762.1</ele>
        <time>2022-02-13T15:37:16Z</time>
      </trkpt>
      <trkpt lat="3.3683980" lon="-76.6224740">
        <ele>1761.9</ele>
        <time>2022-02-13T15:37:23Z</time>
      </trkpt>
      <trkpt lat="3.3684500" lon="-76.6224640">
        <ele>1761.8</ele>
        <time>2022-02-13T15:37:27Z</time>
      </trkpt>
      <trkpt lat="3.3684550" lon="-76.6224610">
        <ele>1761.7</ele>
        <time>2022-02-13T15:37:28Z</time>
      </trkpt>
      <trkpt lat="3.3685190" lon="-76.6224460">
        <ele>1761.5</ele>
        <time>2022-02-13T15:37:34Z</time>
      </trkpt>
      <trkpt lat="3.3685390" lon="-76.6224450">
        <ele>1761.4</ele>
        <time>2022-02-13T15:37:36Z</time>
      </trkpt>
      <trkpt lat="3.3685780" lon="-76.6224430">
        <ele>1761.3</ele>
        <time>2022-02-13T15:37:39Z</time>
      </trkpt>
      <trkpt lat="3.3685880" lon="-76.6224420">
        <ele>1761.2</ele>
        <time>2022-02-13T15:37:40Z</time>
      </trkpt>
      <trkpt lat="3.3686610" lon="-76.6224520">
        <ele>1761.0</ele>
        <time>2022-02-13T15:37:46Z</time>
      </trkpt>
      <trkpt lat="3.3686950" lon="-76.6224530">
        <ele>1760.9</ele>
        <time>2022-02-13T15:37:49Z</time>
      </trkpt>
      <trkpt lat="3.3687130" lon="-76.6224610">
        <ele>1760.8</ele>
        <time>2022-02-13T15:37:52Z</time>
      </trkpt>
      <trkpt lat="3.3687440" lon="-76.6224750">
        <ele>1760.6</ele>
        <time>2022-02-13T15:37:55Z</time>
      </trkpt>
      <trkpt lat="3.3687780" lon="-76.6224840">
        <ele>1760.4</ele>
        <time>2022-02-13T15:37:58Z</time>
      </trkpt>
      <trkpt lat="3.3688330" lon="-76.6224940">
        <ele>1759.9</ele>
        <time>2022-02-13T15:38:04Z</time>
      </trkpt>
      <trkpt lat="3.3688440" lon="-76.6224990">
        <ele>1759.8</ele>
        <time>2022-02-13T15:38:05Z</time>
      </trkpt>
      <trkpt lat="3.3688710" lon="-76.6225070">
        <ele>1759.5</ele>
        <time>2022-02-13T15:38:07Z</time>
      </trkpt>
      <trkpt lat="3.3688860" lon="-76.6225060">
        <ele>1759.3</ele>
        <time>2022-02-13T15:38:08Z</time>
      </trkpt>
      <trkpt lat="3.3689020" lon="-76.6225120">
        <ele>1759.1</ele>
        <time>2022-02-13T15:38:09Z</time>
      </trkpt>
      <trkpt lat="3.3689290" lon="-76.6225070">
        <ele>1758.8</ele>
        <time>2022-02-13T15:38:11Z</time>
      </trkpt>
      <trkpt lat="3.3689470" lon="-76.6225130">
        <ele>1758.6</ele>
        <time>2022-02-13T15:38:13Z</time>
      </trkpt>
      <trkpt lat="3.3689570" lon="-76.6225190">
        <ele>1758.4</ele>
        <time>2022-02-13T15:38:14Z</time>
      </trkpt>
      <trkpt lat="3.3689770" lon="-76.6225230">
        <ele>1758.1</ele>
        <time>2022-02-13T15:38:16Z</time>
      </trkpt>
      <trkpt lat="3.3690000" lon="-76.6225230">
        <ele>1757.8</ele>
        <time>2022-02-13T15:38:18Z</time>
      </trkpt>
      <trkpt lat="3.3690090" lon="-76.6225250">
        <ele>1757.7</ele>
        <time>2022-02-13T15:38:19Z</time>
      </trkpt>
      <trkpt lat="3.3690310" lon="-76.6225410">
        <ele>1757.4</ele>
        <time>2022-02-13T15:38:21Z</time>
      </trkpt>
      <trkpt lat="3.3690720" lon="-76.6225700">
        <ele>1756.7</ele>
        <time>2022-02-13T15:38:24Z</time>
      </trkpt>
      <trkpt lat="3.3690860" lon="-76.6225790">
        <ele>1756.4</ele>
        <time>2022-02-13T15:38:25Z</time>
      </trkpt>
      <trkpt lat="3.3691120" lon="-76.6226050">
        <ele>1755.8</ele>
        <time>2022-02-13T15:38:28Z</time>
      </trkpt>
      <trkpt lat="3.3691490" lon="-76.6226170">
        <ele>1755.2</ele>
        <time>2022-02-13T15:38:31Z</time>
      </trkpt>
      <trkpt lat="3.3691780" lon="-76.6226120">
        <ele>1754.6</ele>
        <time>2022-02-13T15:38:34Z</time>
      </trkpt>
      <trkpt lat="3.3692100" lon="-76.6226310">
        <ele>1754.0</ele>
        <time>2022-02-13T15:38:37Z</time>
      </trkpt>
      <trkpt lat="3.3692230" lon="-76.6226390">
        <ele>1753.7</ele>
        <time>2022-02-13T15:38:41Z</time>
      </trkpt>
      <trkpt lat="3.3692230" lon="-76.6226370">
        <ele>1753.7</ele>
        <time>2022-02-13T15:38:42Z</time>
      </trkpt>
      <trkpt lat="3.3692400" lon="-76.6226610">
        <ele>1753.2</ele>
        <time>2022-02-13T15:38:45Z</time>
      </trkpt>
      <trkpt lat="3.3692850" lon="-76.6226870">
        <ele>1752.4</ele>
        <time>2022-02-13T15:38:50Z</time>
      </trkpt>
      <trkpt lat="3.3693120" lon="-76.6227040">
        <ele>1752.0</ele>
        <time>2022-02-13T15:38:52Z</time>
      </trkpt>
      <trkpt lat="3.3693350" lon="-76.6227210">
        <ele>1751.8</ele>
        <time>2022-02-13T15:38:55Z</time>
      </trkpt>
      <trkpt lat="3.3693540" lon="-76.6227420">
        <ele>1751.5</ele>
        <time>2022-02-13T15:38:57Z</time>
      </trkpt>
      <trkpt lat="3.3693830" lon="-76.6227700">
        <ele>1751.3</ele>
        <time>2022-02-13T15:38:59Z</time>
      </trkpt>
      <trkpt lat="3.3693920" lon="-76.6227840">
        <ele>1751.2</ele>
        <time>2022-02-13T15:39:00Z</time>
      </trkpt>
      <trkpt lat="3.3693970" lon="-76.6227970">
        <ele>1751.1</ele>
        <time>2022-02-13T15:39:01Z</time>
      </trkpt>
      <trkpt lat="3.3694040" lon="-76.6228120">
        <ele>1751.1</ele>
        <time>2022-02-13T15:39:02Z</time>
      </trkpt>
      <trkpt lat="3.3694160" lon="-76.6228280">
        <ele>1751.0</ele>
        <time>2022-02-13T15:39:03Z</time>
      </trkpt>
      <trkpt lat="3.3694410" lon="-76.6228520">
        <ele>1750.9</ele>
        <time>2022-02-13T15:39:05Z</time>
      </trkpt>
      <trkpt lat="3.3694490" lon="-76.6228670">
        <ele>1750.9</ele>
        <time>2022-02-13T15:39:08Z</time>
      </trkpt>
      <trkpt lat="3.3694870" lon="-76.6229120">
        <ele>1750.8</ele>
        <time>2022-02-13T15:39:11Z</time>
      </trkpt>
      <trkpt lat="3.3696080" lon="-76.6229430">
        <ele>1750.3</ele>
        <time>2022-02-13T15:39:18Z</time>
      </trkpt>
      <trkpt lat="3.3696210" lon="-76.6229480">
        <ele>1750.3</ele>
        <time>2022-02-13T15:39:21Z</time>
      </trkpt>
      <trkpt lat="3.3696280" lon="-76.6229570">
        <ele>1750.2</ele>
        <time>2022-02-13T15:39:23Z</time>
      </trkpt>
      <trkpt lat="3.3696440" lon="-76.6229550">
        <ele>1750.1</ele>
        <time>2022-02-13T15:39:29Z</time>
      </trkpt>
      <trkpt lat="3.3696420" lon="-76.6229460">
        <ele>1750.0</ele>
        <time>2022-02-13T15:39:36Z</time>
      </trkpt>
      <trkpt lat="3.3696470" lon="-76.6229430">
        <ele>1750.0</ele>
        <time>2022-02-13T15:39:43Z</time>
      </trkpt>
      <trkpt lat="3.3696450" lon="-76.6229410">
        <ele>1750.0</ele>
        <time>2022-02-13T15:39:47Z</time>
      </trkpt>
      <trkpt lat="3.3696630" lon="-76.6229380">
        <ele>1749.8</ele>
        <time>2022-02-13T15:39:51Z</time>
      </trkpt>
      <trkpt lat="3.3696650" lon="-76.6229430">
        <ele>1749.8</ele>
        <time>2022-02-13T15:39:52Z</time>
      </trkpt>
      <trkpt lat="3.3696720" lon="-76.6229470">
        <ele>1749.7</ele>
        <time>2022-02-13T15:39:53Z</time>
      </trkpt>
      <trkpt lat="3.3696910" lon="-76.6229730">
        <ele>1748.4</ele>
        <time>2022-02-13T15:39:57Z</time>
      </trkpt>
      <trkpt lat="3.3697000" lon="-76.6229770">
        <ele>1748.3</ele>
        <time>2022-02-13T15:39:59Z</time>
      </trkpt>
      <trkpt lat="3.3696960" lon="-76.6230290">
        <ele>1747.6</ele>
        <time>2022-02-13T15:43:38Z</time>
      </trkpt>
      <trkpt lat="3.3696960" lon="-76.6230290">
        <ele>1747.6</ele>
        <time>2022-02-13T15:43:39Z</time>
      </trkpt>
      <trkpt lat="3.3696960" lon="-76.6230290">
        <ele>1747.6</ele>
        <time>2022-02-13T15:43:43Z</time>
      </trkpt>
      <trkpt lat="3.3697380" lon="-76.6230110">
        <ele>1747.1</ele>
        <time>2022-02-13T15:44:05Z</time>
      </trkpt>
      <trkpt lat="3.3697770" lon="-76.6229730">
        <ele>1746.5</ele>
        <time>2022-02-13T15:44:12Z</time>
      </trkpt>
      <trkpt lat="3.3697990" lon="-76.6229670">
        <ele>1746.2</ele>
        <time>2022-02-13T15:44:18Z</time>
      </trkpt>
      <trkpt lat="3.3698740" lon="-76.6229620">
        <ele>1745.5</ele>
        <time>2022-02-13T15:44:26Z</time>
      </trkpt>
      <trkpt lat="3.3699560" lon="-76.6229410">
        <ele>1744.7</ele>
        <time>2022-02-13T15:44:33Z</time>
      </trkpt>
      <trkpt lat="3.3700040" lon="-76.6229220">
        <ele>1744.3</ele>
        <time>2022-02-13T15:44:36Z</time>
      </trkpt>
      <trkpt lat="3.3700280" lon="-76.6229090">
        <ele>1744.0</ele>
        <time>2022-02-13T15:44:38Z</time>
      </trkpt>
      <trkpt lat="3.3700600" lon="-76.6229010">
        <ele>1743.7</ele>
        <time>2022-02-13T15:44:42Z</time>
      </trkpt>
      <trkpt lat="3.3700890" lon="-76.6228880">
        <ele>1743.4</ele>
        <time>2022-02-13T15:44:45Z</time>
      </trkpt>
      <trkpt lat="3.3700970" lon="-76.6228780">
        <ele>1743.2</ele>
        <time>2022-02-13T15:44:46Z</time>
      </trkpt>
      <trkpt lat="3.3701080" lon="-76.6228720">
        <ele>1743.1</ele>
        <time>2022-02-13T15:44:47Z</time>
      </trkpt>
      <trkpt lat="3.3701310" lon="-76.6228670">
        <ele>1742.8</ele>
        <time>2022-02-13T15:44:49Z</time>
      </trkpt>
      <trkpt lat="3.3701520" lon="-76.6228600">
        <ele>1742.6</ele>
        <time>2022-02-13T15:44:51Z</time>
      </trkpt>
      <trkpt lat="3.3701660" lon="-76.6228480">
        <ele>1742.4</ele>
        <time>2022-02-13T15:44:55Z</time>
      </trkpt>
      <trkpt lat="3.3702060" lon="-76.6228380">
        <ele>1741.9</ele>
        <time>2022-02-13T15:45:01Z</time>
      </trkpt>
      <trkpt lat="3.3702850" lon="-76.6228180">
        <ele>1740.8</ele>
        <time>2022-02-13T15:45:08Z</time>
      </trkpt>
      <trkpt lat="3.3703390" lon="-76.6227980">
        <ele>1739.9</ele>
        <time>2022-02-13T15:45:16Z</time>
      </trkpt>
      <trkpt lat="3.3704290" lon="-76.6227340">
        <ele>1738.0</ele>
        <time>2022-02-13T15:45:29Z</time>
      </trkpt>
      <trkpt lat="3.3704310" lon="-76.6227300">
        <ele>1737.9</ele>
        <time>2022-02-13T15:45:30Z</time>
      </trkpt>
      <trkpt lat="3.3704460" lon="-76.6227170">
        <ele>1737.6</ele>
        <time>2022-02-13T15:45:32Z</time>
      </trkpt>
      <trkpt lat="3.3704590" lon="-76.6227050">
        <ele>1737.3</ele>
        <time>2022-02-13T15:45:34Z</time>
      </trkpt>
      <trkpt lat="3.3704860" lon="-76.6226890">
        <ele>1736.9</ele>
        <time>2022-02-13T15:45:37Z</time>
      </trkpt>
      <trkpt lat="3.3705350" lon="-76.6226750">
        <ele>1736.3</ele>
        <time>2022-02-13T15:45:43Z</time>
      </trkpt>
      <trkpt lat="3.3705480" lon="-76.6226740">
        <ele>1736.1</ele>
        <time>2022-02-13T15:45:45Z</time>
      </trkpt>
      <trkpt lat="3.3705570" lon="-76.6226750">
        <ele>1736.0</ele>
        <time>2022-02-13T15:45:46Z</time>
      </trkpt>
      <trkpt lat="3.3705800" lon="-76.6226740">
        <ele>1735.8</ele>
        <time>2022-02-13T15:45:49Z</time>
      </trkpt>
      <trkpt lat="3.3705940" lon="-76.6226820">
        <ele>1735.7</ele>
        <time>2022-02-13T15:45:51Z</time>
      </trkpt>
      <trkpt lat="3.3706180" lon="-76.6226940">
        <ele>1735.5</ele>
        <time>2022-02-13T15:45:54Z</time>
      </trkpt>
      <trkpt lat="3.3706820" lon="-76.6227160">
        <ele>1735.2</ele>
        <time>2022-02-13T15:46:02Z</time>
      </trkpt>
      <trkpt lat="3.3706830" lon="-76.6227160">
        <ele>1735.2</ele>
        <time>2022-02-13T15:46:03Z</time>
      </trkpt>
      <trkpt lat="3.3706960" lon="-76.6227110">
        <ele>1735.1</ele>
        <time>2022-02-13T15:46:12Z</time>
      </trkpt>
      <trkpt lat="3.3707430" lon="-76.6227300">
        <ele>1734.8</ele>
        <time>2022-02-13T15:46:18Z</time>
      </trkpt>
      <trkpt lat="3.3708310" lon="-76.6227190">
        <ele>1733.9</ele>
        <time>2022-02-13T15:46:27Z</time>
      </trkpt>
      <trkpt lat="3.3708590" lon="-76.6227220">
        <ele>1733.5</ele>
        <time>2022-02-13T15:46:32Z</time>
      </trkpt>
      <trkpt lat="3.3708630" lon="-76.6227260">
        <ele>1733.5</ele>
        <time>2022-02-13T15:46:33Z</time>
      </trkpt>
      <trkpt lat="3.3708690" lon="-76.6227270">
        <ele>1733.4</ele>
        <time>2022-02-13T15:46:35Z</time>
      </trkpt>
      <trkpt lat="3.3708620" lon="-76.6227360">
        <ele>1733.3</ele>
        <time>2022-02-13T15:46:40Z</time>
      </trkpt>
      <trkpt lat="3.3708630" lon="-76.6227340">
        <ele>1733.2</ele>
        <time>2022-02-13T15:46:50Z</time>
      </trkpt>
      <trkpt lat="3.3708630" lon="-76.6227340">
        <ele>1733.2</ele>
        <time>2022-02-13T15:46:55Z</time>
      </trkpt>
      <trkpt lat="3.3708520" lon="-76.6227380">
        <ele>1733.1</ele>
        <time>2022-02-13T15:47:10Z</time>
      </trkpt>
      <trkpt lat="3.3708420" lon="-76.6227490">
        <ele>1732.9</ele>
        <time>2022-02-13T15:47:18Z</time>
      </trkpt>
      <trkpt lat="3.3708370" lon="-76.6227550">
        <ele>1732.8</ele>
        <time>2022-02-13T15:47:24Z</time>
      </trkpt>
      <trkpt lat="3.3708380" lon="-76.6227500">
        <ele>1732.7</ele>
        <time>2022-02-13T15:47:43Z</time>
      </trkpt>
      <trkpt lat="3.3708410" lon="-76.6227470">
        <ele>1732.7</ele>
        <time>2022-02-13T15:47:47Z</time>
      </trkpt>
      <trkpt lat="3.3708810" lon="-76.6227390">
        <ele>1732.1</ele>
        <time>2022-02-13T15:47:56Z</time>
      </trkpt>
      <trkpt lat="3.3708990" lon="-76.6227310">
        <ele>1731.9</ele>
        <time>2022-02-13T15:47:57Z</time>
      </trkpt>
      <trkpt lat="3.3709160" lon="-76.6227250">
        <ele>1731.7</ele>
        <time>2022-02-13T15:47:58Z</time>
      </trkpt>
      <trkpt lat="3.3710260" lon="-76.6226700">
        <ele>1730.2</ele>
        <time>2022-02-13T15:48:04Z</time>
      </trkpt>
      <trkpt lat="3.3710400" lon="-76.6226650">
        <ele>1730.0</ele>
        <time>2022-02-13T15:48:05Z</time>
      </trkpt>
      <trkpt lat="3.3710550" lon="-76.6226650">
        <ele>1729.9</ele>
        <time>2022-02-13T15:48:06Z</time>
      </trkpt>
      <trkpt lat="3.3711340" lon="-76.6226390">
        <ele>1729.1</ele>
        <time>2022-02-13T15:48:14Z</time>
      </trkpt>
      <trkpt lat="3.3712010" lon="-76.6226160">
        <ele>1728.5</ele>
        <time>2022-02-13T15:48:21Z</time>
      </trkpt>
      <trkpt lat="3.3712130" lon="-76.6226130">
        <ele>1728.4</ele>
        <time>2022-02-13T15:48:22Z</time>
      </trkpt>
      <trkpt lat="3.3712340" lon="-76.6226020">
        <ele>1728.2</ele>
        <time>2022-02-13T15:48:24Z</time>
      </trkpt>
      <trkpt lat="3.3712650" lon="-76.6225920">
        <ele>1727.9</ele>
        <time>2022-02-13T15:48:27Z</time>
      </trkpt>
      <trkpt lat="3.3713090" lon="-76.6225710">
        <ele>1727.5</ele>
        <time>2022-02-13T15:48:32Z</time>
      </trkpt>
      <trkpt lat="3.3713470" lon="-76.6225680">
        <ele>1727.0</ele>
        <time>2022-02-13T15:48:36Z</time>
      </trkpt>
      <trkpt lat="3.3713550" lon="-76.6225650">
        <ele>1727.0</ele>
        <time>2022-02-13T15:48:37Z</time>
      </trkpt>
      <trkpt lat="3.3713710" lon="-76.6225560">
        <ele>1726.7</ele>
        <time>2022-02-13T15:48:39Z</time>
      </trkpt>
      <trkpt lat="3.3714090" lon="-76.6225530">
        <ele>1726.3</ele>
        <time>2022-02-13T15:48:45Z</time>
      </trkpt>
      <trkpt lat="3.3714150" lon="-76.6225500">
        <ele>1726.2</ele>
        <time>2022-02-13T15:48:46Z</time>
      </trkpt>
      <trkpt lat="3.3714290" lon="-76.6225410">
        <ele>1726.1</ele>
        <time>2022-02-13T15:48:49Z</time>
      </trkpt>
      <trkpt lat="3.3714470" lon="-76.6225390">
        <ele>1725.8</ele>
        <time>2022-02-13T15:48:54Z</time>
      </trkpt>
      <trkpt lat="3.3714660" lon="-76.6225300">
        <ele>1725.6</ele>
        <time>2022-02-13T15:48:57Z</time>
      </trkpt>
      <trkpt lat="3.3714820" lon="-76.6225210">
        <ele>1725.4</ele>
        <time>2022-02-13T15:49:00Z</time>
      </trkpt>
      <trkpt lat="3.3715400" lon="-76.6225200">
        <ele>1724.7</ele>
        <time>2022-02-13T15:49:12Z</time>
      </trkpt>
      <trkpt lat="3.3715890" lon="-76.6225200">
        <ele>1724.2</ele>
        <time>2022-02-13T15:49:18Z</time>
      </trkpt>
      <trkpt lat="3.3716240" lon="-76.6225210">
        <ele>1723.8</ele>
        <time>2022-02-13T15:49:25Z</time>
      </trkpt>
      <trkpt lat="3.3716290" lon="-76.6225170">
        <ele>1723.7</ele>
        <time>2022-02-13T15:49:26Z</time>
      </trkpt>
      <trkpt lat="3.3716360" lon="-76.6225150">
        <ele>1723.6</ele>
        <time>2022-02-13T15:49:27Z</time>
      </trkpt>
      <trkpt lat="3.3717040" lon="-76.6224910">
        <ele>1722.9</ele>
        <time>2022-02-13T15:49:34Z</time>
      </trkpt>
      <trkpt lat="3.3717290" lon="-76.6224650">
        <ele>1722.5</ele>
        <time>2022-02-13T15:49:37Z</time>
      </trkpt>
      <trkpt lat="3.3717460" lon="-76.6224490">
        <ele>1722.3</ele>
        <time>2022-02-13T15:49:39Z</time>
      </trkpt>
      <trkpt lat="3.3717590" lon="-76.6224420">
        <ele>1722.1</ele>
        <time>2022-02-13T15:49:40Z</time>
      </trkpt>
      <trkpt lat="3.3717720" lon="-76.6224350">
        <ele>1721.9</ele>
        <time>2022-02-13T15:49:41Z</time>
      </trkpt>
      <trkpt lat="3.3718720" lon="-76.6223830">
        <ele>1720.7</ele>
        <time>2022-02-13T15:49:49Z</time>
      </trkpt>
      <trkpt lat="3.3718990" lon="-76.6223640">
        <ele>1720.4</ele>
        <time>2022-02-13T15:49:52Z</time>
      </trkpt>
      <trkpt lat="3.3719510" lon="-76.6223340">
        <ele>1719.8</ele>
        <time>2022-02-13T15:49:58Z</time>
      </trkpt>
      <trkpt lat="3.3720070" lon="-76.6223090">
        <ele>1719.1</ele>
        <time>2022-02-13T15:50:04Z</time>
      </trkpt>
      <trkpt lat="3.3720210" lon="-76.6223080">
        <ele>1719.0</ele>
        <time>2022-02-13T15:50:06Z</time>
      </trkpt>
      <trkpt lat="3.3720460" lon="-76.6223040">
        <ele>1718.7</ele>
        <time>2022-02-13T15:50:08Z</time>
      </trkpt>
      <trkpt lat="3.3721040" lon="-76.6222840">
        <ele>1718.0</ele>
        <time>2022-02-13T15:50:12Z</time>
      </trkpt>
      <trkpt lat="3.3721730" lon="-76.6222650">
        <ele>1717.2</ele>
        <time>2022-02-13T15:50:19Z</time>
      </trkpt>
      <trkpt lat="3.3721780" lon="-76.6222590">
        <ele>1717.1</ele>
        <time>2022-02-13T15:50:20Z</time>
      </trkpt>
      <trkpt lat="3.3721860" lon="-76.6222550">
        <ele>1717.0</ele>
        <time>2022-02-13T15:50:21Z</time>
      </trkpt>
      <trkpt lat="3.3722230" lon="-76.6222250">
        <ele>1716.5</ele>
        <time>2022-02-13T15:50:25Z</time>
      </trkpt>
      <trkpt lat="3.3722420" lon="-76.6222160">
        <ele>1716.3</ele>
        <time>2022-02-13T15:50:27Z</time>
      </trkpt>
      <trkpt lat="3.3722740" lon="-76.6222040">
        <ele>1715.9</ele>
        <time>2022-02-13T15:50:30Z</time>
      </trkpt>
      <trkpt lat="3.3722830" lon="-76.6221990">
        <ele>1715.8</ele>
        <time>2022-02-13T15:50:31Z</time>
      </trkpt>
      <trkpt lat="3.3723080" lon="-76.6221900">
        <ele>1715.5</ele>
        <time>2022-02-13T15:50:35Z</time>
      </trkpt>
      <trkpt lat="3.3723880" lon="-76.6221630">
        <ele>1714.7</ele>
        <time>2022-02-13T15:50:43Z</time>
      </trkpt>
      <trkpt lat="3.3724180" lon="-76.6221510">
        <ele>1714.5</ele>
        <time>2022-02-13T15:50:46Z</time>
      </trkpt>
      <trkpt lat="3.3724420" lon="-76.6221310">
        <ele>1714.1</ele>
        <time>2022-02-13T15:50:50Z</time>
      </trkpt>
      <trkpt lat="3.3724690" lon="-76.6221160">
        <ele>1713.8</ele>
        <time>2022-02-13T15:50:52Z</time>
      </trkpt>
      <trkpt lat="3.3724780" lon="-76.6221120">
        <ele>1713.7</ele>
        <time>2022-02-13T15:50:53Z</time>
      </trkpt>
      <trkpt lat="3.3725190" lon="-76.6220860">
        <ele>1713.0</ele>
        <time>2022-02-13T15:50:57Z</time>
      </trkpt>
      <trkpt lat="3.3725840" lon="-76.6220380">
        <ele>1711.6</ele>
        <time>2022-02-13T15:51:04Z</time>
      </trkpt>
      <trkpt lat="3.3725980" lon="-76.6220240">
        <ele>1711.2</ele>
        <time>2022-02-13T15:51:07Z</time>
      </trkpt>
      <trkpt lat="3.3726120" lon="-76.6220180">
        <ele>1710.9</ele>
        <time>2022-02-13T15:51:10Z</time>
      </trkpt>
      <trkpt lat="3.3726280" lon="-76.6220110">
        <ele>1710.6</ele>
        <time>2022-02-13T15:51:12Z</time>
      </trkpt>
      <trkpt lat="3.3726360" lon="-76.6220040">
        <ele>1710.3</ele>
        <time>2022-02-13T15:51:14Z</time>
      </trkpt>
      <trkpt lat="3.3726710" lon="-76.6219830">
        <ele>1709.5</ele>
        <time>2022-02-13T15:51:20Z</time>
      </trkpt>
      <trkpt lat="3.3726880" lon="-76.6219650">
        <ele>1709.0</ele>
        <time>2022-02-13T15:51:23Z</time>
      </trkpt>
      <trkpt lat="3.3727420" lon="-76.6219230">
        <ele>1707.7</ele>
        <time>2022-02-13T15:51:30Z</time>
      </trkpt>
      <trkpt lat="3.3727930" lon="-76.6219270">
        <ele>1706.6</ele>
        <time>2022-02-13T15:51:38Z</time>
      </trkpt>
      <trkpt lat="3.3728010" lon="-76.6219330">
        <ele>1706.4</ele>
        <time>2022-02-13T15:51:39Z</time>
      </trkpt>
      <trkpt lat="3.3728200" lon="-76.6219730">
        <ele>1705.6</ele>
        <time>2022-02-13T15:51:45Z</time>
      </trkpt>
      <trkpt lat="3.3728300" lon="-76.6219890">
        <ele>1705.3</ele>
        <time>2022-02-13T15:51:48Z</time>
      </trkpt>
      <trkpt lat="3.3728310" lon="-76.6219960">
        <ele>1705.2</ele>
        <time>2022-02-13T15:51:49Z</time>
      </trkpt>
      <trkpt lat="3.3728500" lon="-76.6220280">
        <ele>1704.6</ele>
        <time>2022-02-13T15:51:53Z</time>
      </trkpt>
      <trkpt lat="3.3728640" lon="-76.6220760">
        <ele>1703.7</ele>
        <time>2022-02-13T15:52:00Z</time>
      </trkpt>
      <trkpt lat="3.3728630" lon="-76.6220890">
        <ele>1703.5</ele>
        <time>2022-02-13T15:52:02Z</time>
      </trkpt>
      <trkpt lat="3.3728500" lon="-76.6221290">
        <ele>1702.8</ele>
        <time>2022-02-13T15:52:07Z</time>
      </trkpt>
      <trkpt lat="3.3728510" lon="-76.6221560">
        <ele>1702.2</ele>
        <time>2022-02-13T15:52:11Z</time>
      </trkpt>
      <trkpt lat="3.3728370" lon="-76.6221730">
        <ele>1701.8</ele>
        <time>2022-02-13T15:52:14Z</time>
      </trkpt>
      <trkpt lat="3.3728250" lon="-76.6221950">
        <ele>1701.2</ele>
        <time>2022-02-13T15:52:17Z</time>
      </trkpt>
      <trkpt lat="3.3728070" lon="-76.6222580">
        <ele>1699.8</ele>
        <time>2022-02-13T15:52:25Z</time>
      </trkpt>
      <trkpt lat="3.3727460" lon="-76.6223180">
        <ele>1698.2</ele>
        <time>2022-02-13T15:52:34Z</time>
      </trkpt>
      <trkpt lat="3.3727230" lon="-76.6223430">
        <ele>1697.6</ele>
        <time>2022-02-13T15:52:38Z</time>
      </trkpt>
      <trkpt lat="3.3727130" lon="-76.6223510">
        <ele>1697.4</ele>
        <time>2022-02-13T15:52:40Z</time>
      </trkpt>
      <trkpt lat="3.3727030" lon="-76.6223550">
        <ele>1697.2</ele>
        <time>2022-02-13T15:52:42Z</time>
      </trkpt>
      <trkpt lat="3.3726840" lon="-76.6223790">
        <ele>1696.7</ele>
        <time>2022-02-13T15:52:46Z</time>
      </trkpt>
      <trkpt lat="3.3726510" lon="-76.6224070">
        <ele>1695.9</ele>
        <time>2022-02-13T15:52:51Z</time>
      </trkpt>
      <trkpt lat="3.3726140" lon="-76.6224270">
        <ele>1695.1</ele>
        <time>2022-02-13T15:52:56Z</time>
      </trkpt>
      <trkpt lat="3.3726090" lon="-76.6224310">
        <ele>1695.0</ele>
        <time>2022-02-13T15:52:57Z</time>
      </trkpt>
      <trkpt lat="3.3725960" lon="-76.6224420">
        <ele>1694.7</ele>
        <time>2022-02-13T15:52:59Z</time>
      </trkpt>
      <trkpt lat="3.3725630" lon="-76.6224750">
        <ele>1693.8</ele>
        <time>2022-02-13T15:53:03Z</time>
      </trkpt>
      <trkpt lat="3.3725300" lon="-76.6225130">
        <ele>1692.9</ele>
        <time>2022-02-13T15:53:09Z</time>
      </trkpt>
      <trkpt lat="3.3725210" lon="-76.6225220">
        <ele>1692.7</ele>
        <time>2022-02-13T15:53:10Z</time>
      </trkpt>
      <trkpt lat="3.3725060" lon="-76.6225390">
        <ele>1692.2</ele>
        <time>2022-02-13T15:53:13Z</time>
      </trkpt>
      <trkpt lat="3.3724780" lon="-76.6225890">
        <ele>1691.2</ele>
        <time>2022-02-13T15:53:19Z</time>
      </trkpt>
      <trkpt lat="3.3724760" lon="-76.6225970">
        <ele>1691.1</ele>
        <time>2022-02-13T15:53:20Z</time>
      </trkpt>
      <trkpt lat="3.3724590" lon="-76.6226390">
        <ele>1690.3</ele>
        <time>2022-02-13T15:53:28Z</time>
      </trkpt>
      <trkpt lat="3.3724590" lon="-76.6226450">
        <ele>1690.2</ele>
        <time>2022-02-13T15:53:29Z</time>
      </trkpt>
      <trkpt lat="3.3724270" lon="-76.6227020">
        <ele>1689.0</ele>
        <time>2022-02-13T15:53:39Z</time>
      </trkpt>
      <trkpt lat="3.3724080" lon="-76.6227430">
        <ele>1688.2</ele>
        <time>2022-02-13T15:53:46Z</time>
      </trkpt>
      <trkpt lat="3.3723900" lon="-76.6227660">
        <ele>1687.6</ele>
        <time>2022-02-13T15:53:49Z</time>
      </trkpt>
      <trkpt lat="3.3723860" lon="-76.6227750">
        <ele>1687.4</ele>
        <time>2022-02-13T15:53:50Z</time>
      </trkpt>
      <trkpt lat="3.3723710" lon="-76.6227940">
        <ele>1686.9</ele>
        <time>2022-02-13T15:53:55Z</time>
      </trkpt>
      <trkpt lat="3.3723660" lon="-76.6228010">
        <ele>1686.7</ele>
        <time>2022-02-13T15:53:56Z</time>
      </trkpt>
      <trkpt lat="3.3723610" lon="-76.6228100">
        <ele>1686.4</ele>
        <time>2022-02-13T15:53:57Z</time>
      </trkpt>
      <trkpt lat="3.3723480" lon="-76.6228360">
        <ele>1685.8</ele>
        <time>2022-02-13T15:54:01Z</time>
      </trkpt>
      <trkpt lat="3.3723330" lon="-76.6228640">
        <ele>1685.1</ele>
        <time>2022-02-13T15:54:05Z</time>
      </trkpt>
      <trkpt lat="3.3723200" lon="-76.6228830">
        <ele>1684.6</ele>
        <time>2022-02-13T15:54:07Z</time>
      </trkpt>
      <trkpt lat="3.3722840" lon="-76.6229290">
        <ele>1683.3</ele>
        <time>2022-02-13T15:54:12Z</time>
      </trkpt>
      <trkpt lat="3.3722770" lon="-76.6229330">
        <ele>1683.1</ele>
        <time>2022-02-13T15:54:14Z</time>
      </trkpt>
      <trkpt lat="3.3722460" lon="-76.6230050">
        <ele>1681.4</ele>
        <time>2022-02-13T15:54:21Z</time>
      </trkpt>
      <trkpt lat="3.3722430" lon="-76.6230090">
        <ele>1681.3</ele>
        <time>2022-02-13T15:54:22Z</time>
      </trkpt>
      <trkpt lat="3.3722220" lon="-76.6230500">
        <ele>1680.3</ele>
        <time>2022-02-13T15:54:27Z</time>
      </trkpt>
      <trkpt lat="3.3722150" lon="-76.6230600">
        <ele>1680.1</ele>
        <time>2022-02-13T15:54:29Z</time>
      </trkpt>
      <trkpt lat="3.3721580" lon="-76.6231010">
        <ele>1678.7</ele>
        <time>2022-02-13T15:54:35Z</time>
      </trkpt>
      <trkpt lat="3.3721240" lon="-76.6231320">
        <ele>1677.8</ele>
        <time>2022-02-13T15:54:41Z</time>
      </trkpt>
      <trkpt lat="3.3720900" lon="-76.6231620">
        <ele>1677.0</ele>
        <time>2022-02-13T15:54:44Z</time>
      </trkpt>
      <trkpt lat="3.3720920" lon="-76.6232100">
        <ele>1674.6</ele>
        <time>2022-02-13T15:54:49Z</time>
      </trkpt>
      <trkpt lat="3.3721020" lon="-76.6232310">
        <ele>1672.9</ele>
        <time>2022-02-13T15:54:51Z</time>
      </trkpt>
      <trkpt lat="3.3721100" lon="-76.6232390">
        <ele>1672.8</ele>
        <time>2022-02-13T15:54:56Z</time>
      </trkpt>
      <trkpt lat="3.3721150" lon="-76.6232340">
        <ele>1672.6</ele>
        <time>2022-02-13T15:54:57Z</time>
      </trkpt>
      <trkpt lat="3.3721080" lon="-76.6232220">
        <ele>1672.5</ele>
        <time>2022-02-13T15:55:05Z</time>
      </trkpt>
      <trkpt lat="3.3721560" lon="-76.6232000">
        <ele>1673.1</ele>
        <time>2022-02-13T15:55:13Z</time>
      </trkpt>
      <trkpt lat="3.3721610" lon="-76.6231990">
        <ele>1672.9</ele>
        <time>2022-02-13T15:55:14Z</time>
      </trkpt>
      <trkpt lat="3.3721670" lon="-76.6231980">
        <ele>1672.8</ele>
        <time>2022-02-13T15:55:15Z</time>
      </trkpt>
      <trkpt lat="3.3722090" lon="-76.6231970">
        <ele>1671.5</ele>
        <time>2022-02-13T15:55:20Z</time>
      </trkpt>
      <trkpt lat="3.3722460" lon="-76.6231650">
        <ele>1670.4</ele>
        <time>2022-02-13T15:55:24Z</time>
      </trkpt>
      <trkpt lat="3.3722680" lon="-76.6231550">
        <ele>1672.0</ele>
        <time>2022-02-13T15:55:28Z</time>
      </trkpt>
      <trkpt lat="3.3722750" lon="-76.6231490">
        <ele>1670.8</ele>
        <time>2022-02-13T15:55:29Z</time>
      </trkpt>
      <trkpt lat="3.3722830" lon="-76.6231480">
        <ele>1670.6</ele>
        <time>2022-02-13T15:55:30Z</time>
      </trkpt>
      <trkpt lat="3.3722930" lon="-76.6231460">
        <ele>1670.5</ele>
        <time>2022-02-13T15:55:31Z</time>
      </trkpt>
      <trkpt lat="3.3723210" lon="-76.6231370">
        <ele>1669.2</ele>
        <time>2022-02-13T15:55:34Z</time>
      </trkpt>
      <trkpt lat="3.3723510" lon="-76.6231250">
        <ele>1669.1</ele>
        <time>2022-02-13T15:55:37Z</time>
      </trkpt>
      <trkpt lat="3.3723600" lon="-76.6231220">
        <ele>1667.8</ele>
        <time>2022-02-13T15:55:38Z</time>
      </trkpt>
      <trkpt lat="3.3724130" lon="-76.6230940">
        <ele>1667.8</ele>
        <time>2022-02-13T15:55:43Z</time>
      </trkpt>
      <trkpt lat="3.3724380" lon="-76.6230860">
        <ele>1667.6</ele>
        <time>2022-02-13T15:55:45Z</time>
      </trkpt>
      <trkpt lat="3.3724650" lon="-76.6230770">
        <ele>1666.2</ele>
        <time>2022-02-13T15:55:48Z</time>
      </trkpt>
      <trkpt lat="3.3725140" lon="-76.6230760">
        <ele>1664.8</ele>
        <time>2022-02-13T15:55:52Z</time>
      </trkpt>
      <trkpt lat="3.3725600" lon="-76.6230450">
        <ele>1663.9</ele>
        <time>2022-02-13T15:55:57Z</time>
      </trkpt>
      <trkpt lat="3.3725730" lon="-76.6230470">
        <ele>1663.7</ele>
        <time>2022-02-13T15:55:58Z</time>
      </trkpt>
      <trkpt lat="3.3725830" lon="-76.6230490">
        <ele>1663.6</ele>
        <time>2022-02-13T15:55:59Z</time>
      </trkpt>
      <trkpt lat="3.3726410" lon="-76.6230250">
        <ele>1662.8</ele>
        <time>2022-02-13T15:56:06Z</time>
      </trkpt>
      <trkpt lat="3.3726900" lon="-76.6230120">
        <ele>1662.3</ele>
        <time>2022-02-13T15:56:09Z</time>
      </trkpt>
      <trkpt lat="3.3727410" lon="-76.6229890">
        <ele>1661.5</ele>
        <time>2022-02-13T15:56:13Z</time>
      </trkpt>
      <trkpt lat="3.3727690" lon="-76.6229830">
        <ele>1661.0</ele>
        <time>2022-02-13T15:56:16Z</time>
      </trkpt>
      <trkpt lat="3.3727760" lon="-76.6229840">
        <ele>1660.9</ele>
        <time>2022-02-13T15:56:17Z</time>
      </trkpt>
      <trkpt lat="3.3728350" lon="-76.6229750">
        <ele>1659.8</ele>
        <time>2022-02-13T15:56:24Z</time>
      </trkpt>
      <trkpt lat="3.3729000" lon="-76.6229630">
        <ele>1658.4</ele>
        <time>2022-02-13T15:56:32Z</time>
      </trkpt>
      <trkpt lat="3.3729510" lon="-76.6229450">
        <ele>1657.3</ele>
        <time>2022-02-13T15:56:37Z</time>
      </trkpt>
      <trkpt lat="3.3729680" lon="-76.6229410">
        <ele>1657.0</ele>
        <time>2022-02-13T15:56:39Z</time>
      </trkpt>
      <trkpt lat="3.3729990" lon="-76.6229130">
        <ele>1656.2</ele>
        <time>2022-02-13T15:56:44Z</time>
      </trkpt>
      <trkpt lat="3.3730260" lon="-76.6229100">
        <ele>1655.7</ele>
        <time>2022-02-13T15:56:46Z</time>
      </trkpt>
      <trkpt lat="3.3730670" lon="-76.6228990">
        <ele>1655.0</ele>
        <time>2022-02-13T15:56:52Z</time>
      </trkpt>
      <trkpt lat="3.3730960" lon="-76.6228920">
        <ele>1654.5</ele>
        <time>2022-02-13T15:56:55Z</time>
      </trkpt>
      <trkpt lat="3.3731060" lon="-76.6228910">
        <ele>1654.4</ele>
        <time>2022-02-13T15:56:56Z</time>
      </trkpt>
      <trkpt lat="3.3731290" lon="-76.6228910">
        <ele>1654.0</ele>
        <time>2022-02-13T15:56:58Z</time>
      </trkpt>
      <trkpt lat="3.3731440" lon="-76.6228790">
        <ele>1653.7</ele>
        <time>2022-02-13T15:57:00Z</time>
      </trkpt>
      <trkpt lat="3.3731520" lon="-76.6228730">
        <ele>1653.6</ele>
        <time>2022-02-13T15:57:01Z</time>
      </trkpt>
      <trkpt lat="3.3731570" lon="-76.6228660">
        <ele>1653.4</ele>
        <time>2022-02-13T15:57:02Z</time>
      </trkpt>
      <trkpt lat="3.3731740" lon="-76.6228520">
        <ele>1653.1</ele>
        <time>2022-02-13T15:57:06Z</time>
      </trkpt>
      <trkpt lat="3.3732000" lon="-76.6228270">
        <ele>1652.5</ele>
        <time>2022-02-13T15:57:09Z</time>
      </trkpt>
      <trkpt lat="3.3732050" lon="-76.6228200">
        <ele>1652.3</ele>
        <time>2022-02-13T15:57:10Z</time>
      </trkpt>
      <trkpt lat="3.3732070" lon="-76.6228140">
        <ele>1652.2</ele>
        <time>2022-02-13T15:57:11Z</time>
      </trkpt>
      <trkpt lat="3.3732180" lon="-76.6227930">
        <ele>1651.8</ele>
        <time>2022-02-13T15:57:14Z</time>
      </trkpt>
      <trkpt lat="3.3732800" lon="-76.6227540">
        <ele>1650.7</ele>
        <time>2022-02-13T15:57:19Z</time>
      </trkpt>
      <trkpt lat="3.3733110" lon="-76.6227290">
        <ele>1650.0</ele>
        <time>2022-02-13T15:57:23Z</time>
      </trkpt>
      <trkpt lat="3.3733450" lon="-76.6227290">
        <ele>1650.0</ele>
        <time>2022-02-13T15:57:26Z</time>
      </trkpt>
      <trkpt lat="3.3733800" lon="-76.6227330">
        <ele>1649.2</ele>
        <time>2022-02-13T15:57:31Z</time>
      </trkpt>
      <trkpt lat="3.3733700" lon="-76.6227330">
        <ele>1649.0</ele>
        <time>2022-02-13T15:57:33Z</time>
      </trkpt>
      <trkpt lat="3.3733540" lon="-76.6227350">
        <ele>1648.6</ele>
        <time>2022-02-13T15:57:38Z</time>
      </trkpt>
      <trkpt lat="3.3733480" lon="-76.6227310">
        <ele>1648.5</ele>
        <time>2022-02-13T15:57:40Z</time>
      </trkpt>
      <trkpt lat="3.3733440" lon="-76.6227320">
        <ele>1648.4</ele>
        <time>2022-02-13T15:57:42Z</time>
      </trkpt>
      <trkpt lat="3.3733490" lon="-76.6227380">
        <ele>1648.2</ele>
        <time>2022-02-13T15:57:44Z</time>
      </trkpt>
      <trkpt lat="3.3733500" lon="-76.6227410">
        <ele>1648.2</ele>
        <time>2022-02-13T15:57:45Z</time>
      </trkpt>
      <trkpt lat="3.3733360" lon="-76.6227490">
        <ele>1647.8</ele>
        <time>2022-02-13T15:57:49Z</time>
      </trkpt>
      <trkpt lat="3.3733130" lon="-76.6227970">
        <ele>1646.7</ele>
        <time>2022-02-13T15:57:55Z</time>
      </trkpt>
      <trkpt lat="3.3732930" lon="-76.6228650">
        <ele>1645.4</ele>
        <time>2022-02-13T15:58:01Z</time>
      </trkpt>
      <trkpt lat="3.3732730" lon="-76.6229110">
        <ele>1644.5</ele>
        <time>2022-02-13T15:58:06Z</time>
      </trkpt>
      <trkpt lat="3.3732670" lon="-76.6229460">
        <ele>1644.0</ele>
        <time>2022-02-13T15:58:08Z</time>
      </trkpt>
      <trkpt lat="3.3732730" lon="-76.6230000">
        <ele>1643.2</ele>
        <time>2022-02-13T15:58:14Z</time>
      </trkpt>
      <trkpt lat="3.3732650" lon="-76.6230140">
        <ele>1643.0</ele>
        <time>2022-02-13T15:58:16Z</time>
      </trkpt>
      <trkpt lat="3.3732610" lon="-76.6230560">
        <ele>1642.5</ele>
        <time>2022-02-13T15:58:19Z</time>
      </trkpt>
      <trkpt lat="3.3732580" lon="-76.6230700">
        <ele>1642.3</ele>
        <time>2022-02-13T15:58:20Z</time>
      </trkpt>
      <trkpt lat="3.3732380" lon="-76.6231000">
        <ele>1641.9</ele>
        <time>2022-02-13T15:58:25Z</time>
      </trkpt>
      <trkpt lat="3.3732320" lon="-76.6231060">
        <ele>1641.9</ele>
        <time>2022-02-13T15:58:26Z</time>
      </trkpt>
      <trkpt lat="3.3731930" lon="-76.6231660">
        <ele>1641.3</ele>
        <time>2022-02-13T15:58:33Z</time>
      </trkpt>
      <trkpt lat="3.3731900" lon="-76.6231680">
        <ele>1641.2</ele>
        <time>2022-02-13T15:58:34Z</time>
      </trkpt>
      <trkpt lat="3.3731840" lon="-76.6231740">
        <ele>1641.2</ele>
        <time>2022-02-13T15:58:38Z</time>
      </trkpt>
      <trkpt lat="3.3731830" lon="-76.6231680">
        <ele>1641.1</ele>
        <time>2022-02-13T15:58:41Z</time>
      </trkpt>
      <trkpt lat="3.3731790" lon="-76.6231690">
        <ele>1641.1</ele>
        <time>2022-02-13T15:58:45Z</time>
      </trkpt>
      <trkpt lat="3.3731560" lon="-76.6232020">
        <ele>1640.9</ele>
        <time>2022-02-13T15:58:53Z</time>
      </trkpt>
      <trkpt lat="3.3731330" lon="-76.6232260">
        <ele>1640.7</ele>
        <time>2022-02-13T15:58:59Z</time>
      </trkpt>
      <trkpt lat="3.3731200" lon="-76.6232470">
        <ele>1640.6</ele>
        <time>2022-02-13T15:59:02Z</time>
      </trkpt>
      <trkpt lat="3.3731090" lon="-76.6232610">
        <ele>1640.5</ele>
        <time>2022-02-13T15:59:05Z</time>
      </trkpt>
      <trkpt lat="3.3730960" lon="-76.6232830">
        <ele>1640.4</ele>
        <time>2022-02-13T15:59:08Z</time>
      </trkpt>
      <trkpt lat="3.3730890" lon="-76.6232870">
        <ele>1640.3</ele>
        <time>2022-02-13T15:59:09Z</time>
      </trkpt>
      <trkpt lat="3.3730580" lon="-76.6233220">
        <ele>1640.1</ele>
        <time>2022-02-13T15:59:15Z</time>
      </trkpt>
      <trkpt lat="3.3729890" lon="-76.6233330">
        <ele>1639.9</ele>
        <time>2022-02-13T15:59:24Z</time>
      </trkpt>
      <trkpt lat="3.3729710" lon="-76.6233420">
        <ele>1639.8</ele>
        <time>2022-02-13T15:59:26Z</time>
      </trkpt>
      <trkpt lat="3.3729610" lon="-76.6233510">
        <ele>1639.8</ele>
        <time>2022-02-13T15:59:27Z</time>
      </trkpt>
      <trkpt lat="3.3729350" lon="-76.6233640">
        <ele>1639.6</ele>
        <time>2022-02-13T15:59:29Z</time>
      </trkpt>
      <trkpt lat="3.3729150" lon="-76.6233940">
        <ele>1639.4</ele>
        <time>2022-02-13T15:59:31Z</time>
      </trkpt>
      <trkpt lat="3.3729140" lon="-76.6234120">
        <ele>1639.4</ele>
        <time>2022-02-13T15:59:32Z</time>
      </trkpt>
      <trkpt lat="3.3729300" lon="-76.6234660">
        <ele>1639.4</ele>
        <time>2022-02-13T15:59:36Z</time>
      </trkpt>
      <trkpt lat="3.3729490" lon="-76.6234730">
        <ele>1639.3</ele>
        <time>2022-02-13T15:59:38Z</time>
      </trkpt>
      <trkpt lat="3.3730210" lon="-76.6234840">
        <ele>1639.3</ele>
        <time>2022-02-13T15:59:46Z</time>
      </trkpt>
      <trkpt lat="3.3730410" lon="-76.6234860">
        <ele>1639.3</ele>
        <time>2022-02-13T15:59:48Z</time>
      </trkpt>
      <trkpt lat="3.3730530" lon="-76.6234860">
        <ele>1639.3</ele>
        <time>2022-02-13T15:59:49Z</time>
      </trkpt>
      <trkpt lat="3.3730690" lon="-76.6234920">
        <ele>1639.3</ele>
        <time>2022-02-13T15:59:52Z</time>
      </trkpt>
      <trkpt lat="3.3730780" lon="-76.6234880">
        <ele>1639.3</ele>
        <time>2022-02-13T15:59:53Z</time>
      </trkpt>
      <trkpt lat="3.3731170" lon="-76.6234850">
        <ele>1638.8</ele>
        <time>2022-02-13T15:59:58Z</time>
      </trkpt>
      <trkpt lat="3.3731430" lon="-76.6234920">
        <ele>1638.4</ele>
        <time>2022-02-13T16:00:01Z</time>
      </trkpt>
      <trkpt lat="3.3731530" lon="-76.6234970">
        <ele>1638.3</ele>
        <time>2022-02-13T16:00:03Z</time>
      </trkpt>
      <trkpt lat="3.3731550" lon="-76.6234970">
        <ele>1638.3</ele>
        <time>2022-02-13T16:00:04Z</time>
      </trkpt>
      <trkpt lat="3.3731550" lon="-76.6235020">
        <ele>1638.2</ele>
        <time>2022-02-13T16:00:05Z</time>
      </trkpt>
      <trkpt lat="3.3731560" lon="-76.6235140">
        <ele>1638.0</ele>
        <time>2022-02-13T16:00:06Z</time>
      </trkpt>
      <trkpt lat="3.3731570" lon="-76.6235120">
        <ele>1638.0</ele>
        <time>2022-02-13T16:00:10Z</time>
      </trkpt>
      <trkpt lat="3.3731570" lon="-76.6235110">
        <ele>1638.0</ele>
        <time>2022-02-13T16:00:11Z</time>
      </trkpt>
      <trkpt lat="3.3731680" lon="-76.6234560">
        <ele>1637.2</ele>
        <time>2022-02-13T16:04:14Z</time>
      </trkpt>
      <trkpt lat="3.3731680" lon="-76.6234560">
        <ele>1637.2</ele>
        <time>2022-02-13T16:04:15Z</time>
      </trkpt>
      <trkpt lat="3.3731810" lon="-76.6234340">
        <ele>1636.8</ele>
        <time>2022-02-13T16:04:19Z</time>
      </trkpt>
      <trkpt lat="3.3731990" lon="-76.6233910">
        <ele>1636.2</ele>
        <time>2022-02-13T16:04:23Z</time>
      </trkpt>
      <trkpt lat="3.3732010" lon="-76.6233730">
        <ele>1635.9</ele>
        <time>2022-02-13T16:04:25Z</time>
      </trkpt>
      <trkpt lat="3.3732020" lon="-76.6233610">
        <ele>1635.8</ele>
        <time>2022-02-13T16:04:28Z</time>
      </trkpt>
      <trkpt lat="3.3732210" lon="-76.6233670">
        <ele>1635.5</ele>
        <time>2022-02-13T16:04:37Z</time>
      </trkpt>
      <trkpt lat="3.3732330" lon="-76.6233580">
        <ele>1635.3</ele>
        <time>2022-02-13T16:04:40Z</time>
      </trkpt>
      <trkpt lat="3.3732440" lon="-76.6233510">
        <ele>1635.1</ele>
        <time>2022-02-13T16:04:42Z</time>
      </trkpt>
      <trkpt lat="3.3733010" lon="-76.6233220">
        <ele>1634.2</ele>
        <time>2022-02-13T16:04:49Z</time>
      </trkpt>
      <trkpt lat="3.3733810" lon="-76.6232650">
        <ele>1632.8</ele>
        <time>2022-02-13T16:04:56Z</time>
      </trkpt>
      <trkpt lat="3.3733990" lon="-76.6232430">
        <ele>1632.4</ele>
        <time>2022-02-13T16:04:59Z</time>
      </trkpt>
      <trkpt lat="3.3734390" lon="-76.6232210">
        <ele>1631.7</ele>
        <time>2022-02-13T16:05:03Z</time>
      </trkpt>
      <trkpt lat="3.3734600" lon="-76.6232240">
        <ele>1631.4</ele>
        <time>2022-02-13T16:05:05Z</time>
      </trkpt>
      <trkpt lat="3.3734730" lon="-76.6232260">
        <ele>1631.3</ele>
        <time>2022-02-13T16:05:06Z</time>
      </trkpt>
      <trkpt lat="3.3735060" lon="-76.6232180">
        <ele>1630.8</ele>
        <time>2022-02-13T16:05:09Z</time>
      </trkpt>
      <trkpt lat="3.3735940" lon="-76.6232010">
        <ele>1629.5</ele>
        <time>2022-02-13T16:05:16Z</time>
      </trkpt>
      <trkpt lat="3.3736280" lon="-76.6231890">
        <ele>1629.0</ele>
        <time>2022-02-13T16:05:19Z</time>
      </trkpt>
      <trkpt lat="3.3736780" lon="-76.6231710">
        <ele>1628.2</ele>
        <time>2022-02-13T16:05:23Z</time>
      </trkpt>
      <trkpt lat="3.3736780" lon="-76.6231720">
        <ele>1628.2</ele>
        <time>2022-02-13T16:05:25Z</time>
      </trkpt>
      <trkpt lat="3.3736800" lon="-76.6231760">
        <ele>1628.2</ele>
        <time>2022-02-13T16:05:27Z</time>
      </trkpt>
      <trkpt lat="3.3736800" lon="-76.6231760">
        <ele>1628.2</ele>
        <time>2022-02-13T16:05:34Z</time>
      </trkpt>
      <trkpt lat="3.3737100" lon="-76.6231360">
        <ele>1627.5</ele>
        <time>2022-02-13T16:05:40Z</time>
      </trkpt>
      <trkpt lat="3.3737110" lon="-76.6231360">
        <ele>1627.4</ele>
        <time>2022-02-13T16:05:41Z</time>
      </trkpt>
      <trkpt lat="3.3737130" lon="-76.6231330">
        <ele>1627.4</ele>
        <time>2022-02-13T16:05:45Z</time>
      </trkpt>
      <trkpt lat="3.3737110" lon="-76.6231320">
        <ele>1627.4</ele>
        <time>2022-02-13T16:05:47Z</time>
      </trkpt>
      <trkpt lat="3.3737120" lon="-76.6231330">
        <ele>1627.3</ele>
        <time>2022-02-13T16:05:53Z</time>
      </trkpt>
      <trkpt lat="3.3736900" lon="-76.6231800">
        <ele>1626.6</ele>
        <time>2022-02-13T16:10:44Z</time>
      </trkpt>
      <trkpt lat="3.3736900" lon="-76.6231770">
        <ele>1626.6</ele>
        <time>2022-02-13T16:10:47Z</time>
      </trkpt>
      <trkpt lat="3.3737130" lon="-76.6231640">
        <ele>1626.2</ele>
        <time>2022-02-13T16:10:51Z</time>
      </trkpt>
      <trkpt lat="3.3737390" lon="-76.6231350">
        <ele>1625.6</ele>
        <time>2022-02-13T16:10:58Z</time>
      </trkpt>
      <trkpt lat="3.3737740" lon="-76.6230620">
        <ele>1624.5</ele>
        <time>2022-02-13T16:11:05Z</time>
      </trkpt>
      <trkpt lat="3.3738100" lon="-76.6229650">
        <ele>1623.2</ele>
        <time>2022-02-13T16:11:13Z</time>
      </trkpt>
      <trkpt lat="3.3738370" lon="-76.6228850">
        <ele>1621.8</ele>
        <time>2022-02-13T16:11:18Z</time>
      </trkpt>
      <trkpt lat="3.3738530" lon="-76.6228570">
        <ele>1621.2</ele>
        <time>2022-02-13T16:11:20Z</time>
      </trkpt>
      <trkpt lat="3.3738590" lon="-76.6228500">
        <ele>1621.1</ele>
        <time>2022-02-13T16:11:21Z</time>
      </trkpt>
      <trkpt lat="3.3738700" lon="-76.6228410">
        <ele>1620.8</ele>
        <time>2022-02-13T16:11:22Z</time>
      </trkpt>
      <trkpt lat="3.3739050" lon="-76.6228050">
        <ele>1620.0</ele>
        <time>2022-02-13T16:11:26Z</time>
      </trkpt>
      <trkpt lat="3.3739140" lon="-76.6228000">
        <ele>1619.8</ele>
        <time>2022-02-13T16:11:27Z</time>
      </trkpt>
      <trkpt lat="3.3739340" lon="-76.6227900">
        <ele>1619.4</ele>
        <time>2022-02-13T16:11:29Z</time>
      </trkpt>
      <trkpt lat="3.3739510" lon="-76.6227680">
        <ele>1619.0</ele>
        <time>2022-02-13T16:11:32Z</time>
      </trkpt>
      <trkpt lat="3.3739550" lon="-76.6227520">
        <ele>1618.7</ele>
        <time>2022-02-13T16:11:33Z</time>
      </trkpt>
      <trkpt lat="3.3739810" lon="-76.6227300">
        <ele>1618.1</ele>
        <time>2022-02-13T16:11:36Z</time>
      </trkpt>
      <trkpt lat="3.3739940" lon="-76.6227160">
        <ele>1617.7</ele>
        <time>2022-02-13T16:11:38Z</time>
      </trkpt>
      <trkpt lat="3.3740130" lon="-76.6226990">
        <ele>1617.3</ele>
        <time>2022-02-13T16:11:40Z</time>
      </trkpt>
      <trkpt lat="3.3740310" lon="-76.6226780">
        <ele>1616.8</ele>
        <time>2022-02-13T16:11:42Z</time>
      </trkpt>
      <trkpt lat="3.3740400" lon="-76.6226680">
        <ele>1616.5</ele>
        <time>2022-02-13T16:11:43Z</time>
      </trkpt>
      <trkpt lat="3.3740450" lon="-76.6226490">
        <ele>1616.2</ele>
        <time>2022-02-13T16:11:45Z</time>
      </trkpt>
      <trkpt lat="3.3740500" lon="-76.6226360">
        <ele>1615.9</ele>
        <time>2022-02-13T16:11:46Z</time>
      </trkpt>
      <trkpt lat="3.3740740" lon="-76.6225900">
        <ele>1615.0</ele>
        <time>2022-02-13T16:11:50Z</time>
      </trkpt>
      <trkpt lat="3.3741230" lon="-76.6225260">
        <ele>1613.5</ele>
        <time>2022-02-13T16:11:57Z</time>
      </trkpt>
      <trkpt lat="3.3741300" lon="-76.6225120">
        <ele>1613.2</ele>
        <time>2022-02-13T16:11:58Z</time>
      </trkpt>
      <trkpt lat="3.3741330" lon="-76.6224730">
        <ele>1612.5</ele>
        <time>2022-02-13T16:12:02Z</time>
      </trkpt>
      <trkpt lat="3.3741400" lon="-76.6224570">
        <ele>1612.2</ele>
        <time>2022-02-13T16:12:04Z</time>
      </trkpt>
      <trkpt lat="3.3741470" lon="-76.6224470">
        <ele>1612.0</ele>
        <time>2022-02-13T16:12:05Z</time>
      </trkpt>
      <trkpt lat="3.3741640" lon="-76.6224210">
        <ele>1611.4</ele>
        <time>2022-02-13T16:12:07Z</time>
      </trkpt>
      <trkpt lat="3.3741990" lon="-76.6223650">
        <ele>1610.2</ele>
        <time>2022-02-13T16:12:12Z</time>
      </trkpt>
      <trkpt lat="3.3742040" lon="-76.6223380">
        <ele>1609.7</ele>
        <time>2022-02-13T16:12:14Z</time>
      </trkpt>
      <trkpt lat="3.3742230" lon="-76.6222090">
        <ele>1607.4</ele>
        <time>2022-02-13T16:12:23Z</time>
      </trkpt>
      <trkpt lat="3.3742250" lon="-76.6221950">
        <ele>1607.1</ele>
        <time>2022-02-13T16:12:24Z</time>
      </trkpt>
      <trkpt lat="3.3742250" lon="-76.6221170">
        <ele>1605.8</ele>
        <time>2022-02-13T16:12:28Z</time>
      </trkpt>
      <trkpt lat="3.3742160" lon="-76.6221020">
        <ele>1605.5</ele>
        <time>2022-02-13T16:12:29Z</time>
      </trkpt>
      <trkpt lat="3.3742120" lon="-76.6220880">
        <ele>1605.2</ele>
        <time>2022-02-13T16:12:30Z</time>
      </trkpt>
      <trkpt lat="3.3742130" lon="-76.6220770">
        <ele>1605.0</ele>
        <time>2022-02-13T16:12:31Z</time>
      </trkpt>
      <trkpt lat="3.3742060" lon="-76.6220580">
        <ele>1604.7</ele>
        <time>2022-02-13T16:12:33Z</time>
      </trkpt>
      <trkpt lat="3.3741960" lon="-76.6220000">
        <ele>1603.6</ele>
        <time>2022-02-13T16:12:37Z</time>
      </trkpt>
      <trkpt lat="3.3741880" lon="-76.6219700">
        <ele>1603.1</ele>
        <time>2022-02-13T16:12:39Z</time>
      </trkpt>
      <trkpt lat="3.3741720" lon="-76.6218760">
        <ele>1601.4</ele>
        <time>2022-02-13T16:12:46Z</time>
      </trkpt>
      <trkpt lat="3.3741610" lon="-76.6218230">
        <ele>1600.4</ele>
        <time>2022-02-13T16:12:50Z</time>
      </trkpt>
      <trkpt lat="3.3741570" lon="-76.6218090">
        <ele>1600.2</ele>
        <time>2022-02-13T16:12:51Z</time>
      </trkpt>
      <trkpt lat="3.3741540" lon="-76.6217990">
        <ele>1600.0</ele>
        <time>2022-02-13T16:12:52Z</time>
      </trkpt>
      <trkpt lat="3.3741520" lon="-76.6217770">
        <ele>1599.6</ele>
        <time>2022-02-13T16:12:54Z</time>
      </trkpt>
      <trkpt lat="3.3741490" lon="-76.6217320">
        <ele>1598.9</ele>
        <time>2022-02-13T16:12:57Z</time>
      </trkpt>
      <trkpt lat="3.3741490" lon="-76.6216300">
        <ele>1597.2</ele>
        <time>2022-02-13T16:13:05Z</time>
      </trkpt>
      <trkpt lat="3.3741570" lon="-76.6216020">
        <ele>1596.7</ele>
        <time>2022-02-13T16:13:08Z</time>
      </trkpt>
      <trkpt lat="3.3741610" lon="-76.6215530">
        <ele>1595.9</ele>
        <time>2022-02-13T16:13:12Z</time>
      </trkpt>
      <trkpt lat="3.3741740" lon="-76.6214560">
        <ele>1594.4</ele>
        <time>2022-02-13T16:13:22Z</time>
      </trkpt>
      <trkpt lat="3.3741740" lon="-76.6213880">
        <ele>1593.3</ele>
        <time>2022-02-13T16:13:28Z</time>
      </trkpt>
      <trkpt lat="3.3741800" lon="-76.6213500">
        <ele>1592.7</ele>
        <time>2022-02-13T16:13:31Z</time>
      </trkpt>
      <trkpt lat="3.3741980" lon="-76.6212970">
        <ele>1591.8</ele>
        <time>2022-02-13T16:13:36Z</time>
      </trkpt>
      <trkpt lat="3.3741970" lon="-76.6212460">
        <ele>1591.0</ele>
        <time>2022-02-13T16:13:40Z</time>
      </trkpt>
      <trkpt lat="3.3742110" lon="-76.6211890">
        <ele>1590.2</ele>
        <time>2022-02-13T16:13:45Z</time>
      </trkpt>
      <trkpt lat="3.3742130" lon="-76.6211650">
        <ele>1589.8</ele>
        <time>2022-02-13T16:13:47Z</time>
      </trkpt>
      <trkpt lat="3.3742020" lon="-76.6211450">
        <ele>1589.4</ele>
        <time>2022-02-13T16:13:49Z</time>
      </trkpt>
      <trkpt lat="3.3742080" lon="-76.6210760">
        <ele>1588.4</ele>
        <time>2022-02-13T16:13:55Z</time>
      </trkpt>
      <trkpt lat="3.3741990" lon="-76.6210190">
        <ele>1587.5</ele>
        <time>2022-02-13T16:14:00Z</time>
      </trkpt>
      <trkpt lat="3.3741940" lon="-76.6209590">
        <ele>1586.6</ele>
        <time>2022-02-13T16:14:04Z</time>
      </trkpt>
      <trkpt lat="3.3741900" lon="-76.6208960">
        <ele>1585.6</ele>
        <time>2022-02-13T16:14:08Z</time>
      </trkpt>
      <trkpt lat="3.3741810" lon="-76.6208570">
        <ele>1585.0</ele>
        <time>2022-02-13T16:14:11Z</time>
      </trkpt>
      <trkpt lat="3.3741740" lon="-76.6208430">
        <ele>1584.7</ele>
        <time>2022-02-13T16:14:12Z</time>
      </trkpt>
      <trkpt lat="3.3741630" lon="-76.6208240">
        <ele>1584.4</ele>
        <time>2022-02-13T16:14:13Z</time>
      </trkpt>
      <trkpt lat="3.3741330" lon="-76.6207240">
        <ele>1582.9</ele>
        <time>2022-02-13T16:14:21Z</time>
      </trkpt>
      <trkpt lat="3.3741250" lon="-76.6206750">
        <ele>1582.1</ele>
        <time>2022-02-13T16:14:25Z</time>
      </trkpt>
      <trkpt lat="3.3741180" lon="-76.6206650">
        <ele>1581.9</ele>
        <time>2022-02-13T16:14:26Z</time>
      </trkpt>
      <trkpt lat="3.3741140" lon="-76.6206310">
        <ele>1581.4</ele>
        <time>2022-02-13T16:14:29Z</time>
      </trkpt>
      <trkpt lat="3.3741160" lon="-76.6206120">
        <ele>1581.2</ele>
        <time>2022-02-13T16:14:31Z</time>
      </trkpt>
      <trkpt lat="3.3741160" lon="-76.6205920">
        <ele>1580.9</ele>
        <time>2022-02-13T16:14:33Z</time>
      </trkpt>
      <trkpt lat="3.3741530" lon="-76.6205280">
        <ele>1579.7</ele>
        <time>2022-02-13T16:14:40Z</time>
      </trkpt>
      <trkpt lat="3.3742120" lon="-76.6204580">
        <ele>1578.1</ele>
        <time>2022-02-13T16:14:48Z</time>
      </trkpt>
      <trkpt lat="3.3742300" lon="-76.6204400">
        <ele>1577.7</ele>
        <time>2022-02-13T16:14:50Z</time>
      </trkpt>
      <trkpt lat="3.3742560" lon="-76.6203890">
        <ele>1576.7</ele>
        <time>2022-02-13T16:14:56Z</time>
      </trkpt>
      <trkpt lat="3.3742700" lon="-76.6203670">
        <ele>1576.2</ele>
        <time>2022-02-13T16:14:59Z</time>
      </trkpt>
      <trkpt lat="3.3743170" lon="-76.6203330">
        <ele>1575.2</ele>
        <time>2022-02-13T16:15:07Z</time>
      </trkpt>
      <trkpt lat="3.3743560" lon="-76.6203020">
        <ele>1574.4</ele>
        <time>2022-02-13T16:15:11Z</time>
      </trkpt>
      <trkpt lat="3.3743880" lon="-76.6202730">
        <ele>1573.6</ele>
        <time>2022-02-13T16:15:14Z</time>
      </trkpt>
      <trkpt lat="3.3744050" lon="-76.6202380">
        <ele>1573.0</ele>
        <time>2022-02-13T16:15:17Z</time>
      </trkpt>
      <trkpt lat="3.3744130" lon="-76.6201830">
        <ele>1572.0</ele>
        <time>2022-02-13T16:15:22Z</time>
      </trkpt>
      <trkpt lat="3.3744180" lon="-76.6201640">
        <ele>1571.7</ele>
        <time>2022-02-13T16:15:24Z</time>
      </trkpt>
      <trkpt lat="3.3744250" lon="-76.6201190">
        <ele>1570.9</ele>
        <time>2022-02-13T16:15:26Z</time>
      </trkpt>
      <trkpt lat="3.3744600" lon="-76.6200740">
        <ele>1569.9</ele>
        <time>2022-02-13T16:15:31Z</time>
      </trkpt>
      <trkpt lat="3.3744880" lon="-76.6200710">
        <ele>1569.4</ele>
        <time>2022-02-13T16:15:34Z</time>
      </trkpt>
      <trkpt lat="3.3745000" lon="-76.6200580">
        <ele>1569.1</ele>
        <time>2022-02-13T16:15:36Z</time>
      </trkpt>
      <trkpt lat="3.3745010" lon="-76.6200040">
        <ele>1568.2</ele>
        <time>2022-02-13T16:15:41Z</time>
      </trkpt>
      <trkpt lat="3.3744990" lon="-76.6199820">
        <ele>1567.8</ele>
        <time>2022-02-13T16:15:43Z</time>
      </trkpt>
      <trkpt lat="3.3744970" lon="-76.6199470">
        <ele>1567.2</ele>
        <time>2022-02-13T16:15:46Z</time>
      </trkpt>
      <trkpt lat="3.3744980" lon="-76.6199080">
        <ele>1566.5</ele>
        <time>2022-02-13T16:15:49Z</time>
      </trkpt>
      <trkpt lat="3.3745000" lon="-76.6199000">
        <ele>1566.3</ele>
        <time>2022-02-13T16:15:50Z</time>
      </trkpt>
      <trkpt lat="3.3745050" lon="-76.6198910">
        <ele>1566.0</ele>
        <time>2022-02-13T16:15:51Z</time>
      </trkpt>
      <trkpt lat="3.3745550" lon="-76.6198470">
        <ele>1564.9</ele>
        <time>2022-02-13T16:15:56Z</time>
      </trkpt>
      <trkpt lat="3.3745670" lon="-76.6198370">
        <ele>1564.6</ele>
        <time>2022-02-13T16:15:57Z</time>
      </trkpt>
      <trkpt lat="3.3745850" lon="-76.6197950">
        <ele>1563.7</ele>
        <time>2022-02-13T16:16:02Z</time>
      </trkpt>
      <trkpt lat="3.3745800" lon="-76.6197690">
        <ele>1563.2</ele>
        <time>2022-02-13T16:16:04Z</time>
      </trkpt>
      <trkpt lat="3.3746120" lon="-76.6197180">
        <ele>1562.1</ele>
        <time>2022-02-13T16:16:10Z</time>
      </trkpt>
      <trkpt lat="3.3746280" lon="-76.6197130">
        <ele>1561.7</ele>
        <time>2022-02-13T16:16:11Z</time>
      </trkpt>
      <trkpt lat="3.3746600" lon="-76.6196790">
        <ele>1560.8</ele>
        <time>2022-02-13T16:16:15Z</time>
      </trkpt>
      <trkpt lat="3.3746700" lon="-76.6196220">
        <ele>1559.7</ele>
        <time>2022-02-13T16:16:20Z</time>
      </trkpt>
      <trkpt lat="3.3746700" lon="-76.6196090">
        <ele>1559.4</ele>
        <time>2022-02-13T16:16:21Z</time>
      </trkpt>
      <trkpt lat="3.3746720" lon="-76.6195980">
        <ele>1559.2</ele>
        <time>2022-02-13T16:16:22Z</time>
      </trkpt>
      <trkpt lat="3.3746810" lon="-76.6195720">
        <ele>1558.6</ele>
        <time>2022-02-13T16:16:25Z</time>
      </trkpt>
      <trkpt lat="3.3746900" lon="-76.6195620">
        <ele>1558.4</ele>
        <time>2022-02-13T16:16:26Z</time>
      </trkpt>
      <trkpt lat="3.3747290" lon="-76.6194750">
        <ele>1556.6</ele>
        <time>2022-02-13T16:16:33Z</time>
      </trkpt>
      <trkpt lat="3.3747400" lon="-76.6194670">
        <ele>1556.4</ele>
        <time>2022-02-13T16:16:34Z</time>
      </trkpt>
      <trkpt lat="3.3747970" lon="-76.6194140">
        <ele>1555.0</ele>
        <time>2022-02-13T16:16:43Z</time>
      </trkpt>
      <trkpt lat="3.3748110" lon="-76.6193960">
        <ele>1554.6</ele>
        <time>2022-02-13T16:16:45Z</time>
      </trkpt>
      <trkpt lat="3.3748670" lon="-76.6193180">
        <ele>1553.0</ele>
        <time>2022-02-13T16:16:52Z</time>
      </trkpt>
      <trkpt lat="3.3749300" lon="-76.6192310">
        <ele>1551.2</ele>
        <time>2022-02-13T16:17:00Z</time>
      </trkpt>
      <trkpt lat="3.3749720" lon="-76.6191470">
        <ele>1549.7</ele>
        <time>2022-02-13T16:17:06Z</time>
      </trkpt>
      <trkpt lat="3.3749930" lon="-76.6191100">
        <ele>1549.0</ele>
        <time>2022-02-13T16:17:10Z</time>
      </trkpt>
      <trkpt lat="3.3750370" lon="-76.6190680">
        <ele>1548.1</ele>
        <time>2022-02-13T16:17:15Z</time>
      </trkpt>
      <trkpt lat="3.3750590" lon="-76.6190320">
        <ele>1547.4</ele>
        <time>2022-02-13T16:17:19Z</time>
      </trkpt>
      <trkpt lat="3.3751240" lon="-76.6189580">
        <ele>1546.0</ele>
        <time>2022-02-13T16:17:27Z</time>
      </trkpt>
      <trkpt lat="3.3751870" lon="-76.6188660">
        <ele>1544.5</ele>
        <time>2022-02-13T16:17:35Z</time>
      </trkpt>
      <trkpt lat="3.3752050" lon="-76.6188390">
        <ele>1544.0</ele>
        <time>2022-02-13T16:17:38Z</time>
      </trkpt>
      <trkpt lat="3.3752330" lon="-76.6187720">
        <ele>1543.0</ele>
        <time>2022-02-13T16:17:44Z</time>
      </trkpt>
      <trkpt lat="3.3752670" lon="-76.6186610">
        <ele>1542.5</ele>
        <time>2022-02-13T16:17:53Z</time>
      </trkpt>
      <trkpt lat="3.3753010" lon="-76.6185830">
        <ele>1542.1</ele>
        <time>2022-02-13T16:18:00Z</time>
      </trkpt>
      <trkpt lat="3.3753180" lon="-76.6185600">
        <ele>1541.9</ele>
        <time>2022-02-13T16:18:02Z</time>
      </trkpt>
      <trkpt lat="3.3753570" lon="-76.6185240">
        <ele>1541.6</ele>
        <time>2022-02-13T16:18:06Z</time>
      </trkpt>
      <trkpt lat="3.3753920" lon="-76.6184530">
        <ele>1541.0</ele>
        <time>2022-02-13T16:18:12Z</time>
      </trkpt>
      <trkpt lat="3.3754110" lon="-76.6183990">
        <ele>1540.6</ele>
        <time>2022-02-13T16:18:16Z</time>
      </trkpt>
      <trkpt lat="3.3755250" lon="-76.6182840">
        <ele>1539.2</ele>
        <time>2022-02-13T16:18:27Z</time>
      </trkpt>
      <trkpt lat="3.3755300" lon="-76.6182540">
        <ele>1538.9</ele>
        <time>2022-02-13T16:18:29Z</time>
      </trkpt>
      <trkpt lat="3.3755340" lon="-76.6182200">
        <ele>1538.6</ele>
        <time>2022-02-13T16:18:32Z</time>
      </trkpt>
      <trkpt lat="3.3755430" lon="-76.6182120">
        <ele>1538.5</ele>
        <time>2022-02-13T16:18:34Z</time>
      </trkpt>
      <trkpt lat="3.3755850" lon="-76.6181440">
        <ele>1537.7</ele>
        <time>2022-02-13T16:18:41Z</time>
      </trkpt>
      <trkpt lat="3.3756130" lon="-76.6180850">
        <ele>1537.1</ele>
        <time>2022-02-13T16:18:47Z</time>
      </trkpt>
      <trkpt lat="3.3756260" lon="-76.6180680">
        <ele>1536.9</ele>
        <time>2022-02-13T16:18:49Z</time>
      </trkpt>
      <trkpt lat="3.3756700" lon="-76.6179890">
        <ele>1536.1</ele>
        <time>2022-02-13T16:18:55Z</time>
      </trkpt>
      <trkpt lat="3.3756760" lon="-76.6179660">
        <ele>1535.9</ele>
        <time>2022-02-13T16:18:57Z</time>
      </trkpt>
      <trkpt lat="3.3757180" lon="-76.6179240">
        <ele>1535.4</ele>
        <time>2022-02-13T16:19:01Z</time>
      </trkpt>
      <trkpt lat="3.3757290" lon="-76.6179200">
        <ele>1535.3</ele>
        <time>2022-02-13T16:19:02Z</time>
      </trkpt>
      <trkpt lat="3.3757450" lon="-76.6179170">
        <ele>1535.1</ele>
        <time>2022-02-13T16:19:03Z</time>
      </trkpt>
      <trkpt lat="3.3757540" lon="-76.6179110">
        <ele>1535.0</ele>
        <time>2022-02-13T16:19:04Z</time>
      </trkpt>
      <trkpt lat="3.3758070" lon="-76.6178280">
        <ele>1534.2</ele>
        <time>2022-02-13T16:19:11Z</time>
      </trkpt>
      <trkpt lat="3.3758360" lon="-76.6177610">
        <ele>1533.6</ele>
        <time>2022-02-13T16:19:17Z</time>
      </trkpt>
      <trkpt lat="3.3758790" lon="-76.6177150">
        <ele>1533.2</ele>
        <time>2022-02-13T16:19:21Z</time>
      </trkpt>
      <trkpt lat="3.3759080" lon="-76.6176640">
        <ele>1532.7</ele>
        <time>2022-02-13T16:19:26Z</time>
      </trkpt>
      <trkpt lat="3.3759330" lon="-76.6176390">
        <ele>1532.5</ele>
        <time>2022-02-13T16:19:29Z</time>
      </trkpt>
      <trkpt lat="3.3759700" lon="-76.6175760">
        <ele>1532.0</ele>
        <time>2022-02-13T16:19:34Z</time>
      </trkpt>
      <trkpt lat="3.3759770" lon="-76.6175640">
        <ele>1531.9</ele>
        <time>2022-02-13T16:19:35Z</time>
      </trkpt>
      <trkpt lat="3.3759970" lon="-76.6175370">
        <ele>1531.7</ele>
        <time>2022-02-13T16:19:38Z</time>
      </trkpt>
      <trkpt lat="3.3760260" lon="-76.6175140">
        <ele>1531.5</ele>
        <time>2022-02-13T16:19:41Z</time>
      </trkpt>
      <trkpt lat="3.3761030" lon="-76.6174290">
        <ele>1530.7</ele>
        <time>2022-02-13T16:19:49Z</time>
      </trkpt>
      <trkpt lat="3.3761350" lon="-76.6174090">
        <ele>1530.5</ele>
        <time>2022-02-13T16:19:51Z</time>
      </trkpt>
      <trkpt lat="3.3761460" lon="-76.6173970">
        <ele>1530.4</ele>
        <time>2022-02-13T16:19:52Z</time>
      </trkpt>
      <trkpt lat="3.3761670" lon="-76.6173420">
        <ele>1530.0</ele>
        <time>2022-02-13T16:19:56Z</time>
      </trkpt>
      <trkpt lat="3.3761700" lon="-76.6173140">
        <ele>1529.8</ele>
        <time>2022-02-13T16:19:58Z</time>
      </trkpt>
      <trkpt lat="3.3762080" lon="-76.6172340">
        <ele>1529.3</ele>
        <time>2022-02-13T16:20:06Z</time>
      </trkpt>
      <trkpt lat="3.3762620" lon="-76.6171200">
        <ele>1528.6</ele>
        <time>2022-02-13T16:20:16Z</time>
      </trkpt>
      <trkpt lat="3.3762660" lon="-76.6171080">
        <ele>1528.5</ele>
        <time>2022-02-13T16:20:17Z</time>
      </trkpt>
      <trkpt lat="3.3762990" lon="-76.6170420">
        <ele>1528.0</ele>
        <time>2022-02-13T16:20:23Z</time>
      </trkpt>
      <trkpt lat="3.3763040" lon="-76.6170290">
        <ele>1528.0</ele>
        <time>2022-02-13T16:20:24Z</time>
      </trkpt>
      <trkpt lat="3.3763240" lon="-76.6170060">
        <ele>1527.8</ele>
        <time>2022-02-13T16:20:26Z</time>
      </trkpt>
      <trkpt lat="3.3763690" lon="-76.6169460">
        <ele>1527.3</ele>
        <time>2022-02-13T16:20:32Z</time>
      </trkpt>
      <trkpt lat="3.3763920" lon="-76.6169110">
        <ele>1527.0</ele>
        <time>2022-02-13T16:20:35Z</time>
      </trkpt>
      <trkpt lat="3.3764620" lon="-76.6168670">
        <ele>1526.4</ele>
        <time>2022-02-13T16:20:41Z</time>
      </trkpt>
      <trkpt lat="3.3764780" lon="-76.6168510">
        <ele>1526.2</ele>
        <time>2022-02-13T16:20:43Z</time>
      </trkpt>
      <trkpt lat="3.3765510" lon="-76.6167850">
        <ele>1525.3</ele>
        <time>2022-02-13T16:20:52Z</time>
      </trkpt>
      <trkpt lat="3.3765620" lon="-76.6167750">
        <ele>1525.2</ele>
        <time>2022-02-13T16:20:53Z</time>
      </trkpt>
      <trkpt lat="3.3766430" lon="-76.6166830">
        <ele>1524.1</ele>
        <time>2022-02-13T16:21:03Z</time>
      </trkpt>
      <trkpt lat="3.3766610" lon="-76.6166450">
        <ele>1523.8</ele>
        <time>2022-02-13T16:21:06Z</time>
      </trkpt>
      <trkpt lat="3.3766860" lon="-76.6165910">
        <ele>1523.3</ele>
        <time>2022-02-13T16:21:10Z</time>
      </trkpt>
      <trkpt lat="3.3766950" lon="-76.6165670">
        <ele>1523.1</ele>
        <time>2022-02-13T16:21:12Z</time>
      </trkpt>
      <trkpt lat="3.3766990" lon="-76.6165420">
        <ele>1522.9</ele>
        <time>2022-02-13T16:21:14Z</time>
      </trkpt>
      <trkpt lat="3.3767030" lon="-76.6165160">
        <ele>1522.7</ele>
        <time>2022-02-13T16:21:16Z</time>
      </trkpt>
      <trkpt lat="3.3767090" lon="-76.6165050">
        <ele>1522.6</ele>
        <time>2022-02-13T16:21:17Z</time>
      </trkpt>
      <trkpt lat="3.3767180" lon="-76.6164600">
        <ele>1522.2</ele>
        <time>2022-02-13T16:21:21Z</time>
      </trkpt>
      <trkpt lat="3.3767330" lon="-76.6164050">
        <ele>1521.8</ele>
        <time>2022-02-13T16:21:25Z</time>
      </trkpt>
      <trkpt lat="3.3767360" lon="-76.6163920">
        <ele>1521.7</ele>
        <time>2022-02-13T16:21:26Z</time>
      </trkpt>
      <trkpt lat="3.3767470" lon="-76.6162820">
        <ele>1521.0</ele>
        <time>2022-02-13T16:21:34Z</time>
      </trkpt>
      <trkpt lat="3.3767490" lon="-76.6162710">
        <ele>1520.9</ele>
        <time>2022-02-13T16:21:35Z</time>
      </trkpt>
      <trkpt lat="3.3767630" lon="-76.6162130">
        <ele>1520.6</ele>
        <time>2022-02-13T16:21:40Z</time>
      </trkpt>
      <trkpt lat="3.3767860" lon="-76.6161740">
        <ele>1520.3</ele>
        <time>2022-02-13T16:21:43Z</time>
      </trkpt>
      <trkpt lat="3.3767990" lon="-76.6161490">
        <ele>1520.2</ele>
        <time>2022-02-13T16:21:45Z</time>
      </trkpt>
      <trkpt lat="3.3768590" lon="-76.6161140">
        <ele>1519.8</ele>
        <time>2022-02-13T16:21:51Z</time>
      </trkpt>
      <trkpt lat="3.3768640" lon="-76.6161080">
        <ele>1519.7</ele>
        <time>2022-02-13T16:21:52Z</time>
      </trkpt>
      <trkpt lat="3.3768690" lon="-76.6159970">
        <ele>1519.1</ele>
        <time>2022-02-13T16:22:01Z</time>
      </trkpt>
      <trkpt lat="3.3768870" lon="-76.6159470">
        <ele>1518.8</ele>
        <time>2022-02-13T16:22:06Z</time>
      </trkpt>
      <trkpt lat="3.3768940" lon="-76.6159350">
        <ele>1518.7</ele>
        <time>2022-02-13T16:22:07Z</time>
      </trkpt>
      <trkpt lat="3.3769090" lon="-76.6159220">
        <ele>1518.6</ele>
        <time>2022-02-13T16:22:09Z</time>
      </trkpt>
      <trkpt lat="3.3769560" lon="-76.6158260">
        <ele>1518.1</ele>
        <time>2022-02-13T16:22:16Z</time>
      </trkpt>
      <trkpt lat="3.3769650" lon="-76.6157770">
        <ele>1517.8</ele>
        <time>2022-02-13T16:22:18Z</time>
      </trkpt>
      <trkpt lat="3.3769810" lon="-76.6157230">
        <ele>1517.4</ele>
        <time>2022-02-13T16:22:23Z</time>
      </trkpt>
      <trkpt lat="3.3769960" lon="-76.6157020">
        <ele>1517.2</ele>
        <time>2022-02-13T16:22:25Z</time>
      </trkpt>
      <trkpt lat="3.3769980" lon="-76.6156900">
        <ele>1517.2</ele>
        <time>2022-02-13T16:22:26Z</time>
      </trkpt>
      <trkpt lat="3.3770030" lon="-76.6156560">
        <ele>1516.9</ele>
        <time>2022-02-13T16:22:29Z</time>
      </trkpt>
      <trkpt lat="3.3770660" lon="-76.6155360">
        <ele>1516.1</ele>
        <time>2022-02-13T16:22:38Z</time>
      </trkpt>
      <trkpt lat="3.3770990" lon="-76.6154620">
        <ele>1515.7</ele>
        <time>2022-02-13T16:22:46Z</time>
      </trkpt>
      <trkpt lat="3.3771140" lon="-76.6154410">
        <ele>1515.6</ele>
        <time>2022-02-13T16:22:48Z</time>
      </trkpt>
      <trkpt lat="3.3771300" lon="-76.6154230">
        <ele>1515.5</ele>
        <time>2022-02-13T16:22:50Z</time>
      </trkpt>
      <trkpt lat="3.3771470" lon="-76.6154010">
        <ele>1515.4</ele>
        <time>2022-02-13T16:22:52Z</time>
      </trkpt>
      <trkpt lat="3.3771740" lon="-76.6153740">
        <ele>1515.3</ele>
        <time>2022-02-13T16:22:55Z</time>
      </trkpt>
      <trkpt lat="3.3772660" lon="-76.6152980">
        <ele>1514.9</ele>
        <time>2022-02-13T16:23:04Z</time>
      </trkpt>
      <trkpt lat="3.3773470" lon="-76.6152420">
        <ele>1514.7</ele>
        <time>2022-02-13T16:23:12Z</time>
      </trkpt>
      <trkpt lat="3.3774280" lon="-76.6151890">
        <ele>1514.6</ele>
        <time>2022-02-13T16:23:20Z</time>
      </trkpt>
      <trkpt lat="3.3774820" lon="-76.6151530">
        <ele>1514.4</ele>
        <time>2022-02-13T16:23:26Z</time>
      </trkpt>
      <trkpt lat="3.3774900" lon="-76.6151480">
        <ele>1514.4</ele>
        <time>2022-02-13T16:23:27Z</time>
      </trkpt>
      <trkpt lat="3.3775710" lon="-76.6150780">
        <ele>1514.2</ele>
        <time>2022-02-13T16:23:35Z</time>
      </trkpt>
      <trkpt lat="3.3775980" lon="-76.6150520">
        <ele>1514.1</ele>
        <time>2022-02-13T16:23:37Z</time>
      </trkpt>
      <trkpt lat="3.3776230" lon="-76.6150440">
        <ele>1514.0</ele>
        <time>2022-02-13T16:23:39Z</time>
      </trkpt>
      <trkpt lat="3.3776470" lon="-76.6150170">
        <ele>1513.8</ele>
        <time>2022-02-13T16:23:42Z</time>
      </trkpt>
      <trkpt lat="3.3776530" lon="-76.6150090">
        <ele>1513.8</ele>
        <time>2022-02-13T16:23:43Z</time>
      </trkpt>
      <trkpt lat="3.3776650" lon="-76.6149970">
        <ele>1513.7</ele>
        <time>2022-02-13T16:23:45Z</time>
      </trkpt>
      <trkpt lat="3.3776910" lon="-76.6149900">
        <ele>1513.5</ele>
        <time>2022-02-13T16:23:49Z</time>
      </trkpt>
      <trkpt lat="3.3777540" lon="-76.6149590">
        <ele>1513.1</ele>
        <time>2022-02-13T16:23:54Z</time>
      </trkpt>
      <trkpt lat="3.3778900" lon="-76.6148720">
        <ele>1511.9</ele>
        <time>2022-02-13T16:24:04Z</time>
      </trkpt>
      <trkpt lat="3.3779430" lon="-76.6148550">
        <ele>1511.6</ele>
        <time>2022-02-13T16:24:08Z</time>
      </trkpt>
      <trkpt lat="3.3779800" lon="-76.6148100">
        <ele>1511.2</ele>
        <time>2022-02-13T16:24:12Z</time>
      </trkpt>
      <trkpt lat="3.3779910" lon="-76.6147810">
        <ele>1511.1</ele>
        <time>2022-02-13T16:24:14Z</time>
      </trkpt>
      <trkpt lat="3.3779920" lon="-76.6147040">
        <ele>1510.8</ele>
        <time>2022-02-13T16:24:17Z</time>
      </trkpt>
      <trkpt lat="3.3779890" lon="-76.6146620">
        <ele>1510.7</ele>
        <time>2022-02-13T16:24:21Z</time>
      </trkpt>
      <trkpt lat="3.3779900" lon="-76.6146600">
        <ele>1510.7</ele>
        <time>2022-02-13T16:24:22Z</time>
      </trkpt>
      <trkpt lat="3.3780040" lon="-76.6146560">
        <ele>1510.7</ele>
        <time>2022-02-13T16:24:23Z</time>
      </trkpt>
      <trkpt lat="3.3779530" lon="-76.6146890">
        <ele>1510.6</ele>
        <time>2022-02-13T16:28:49Z</time>
      </trkpt>
      <trkpt lat="3.3779620" lon="-76.6146670">
        <ele>1510.6</ele>
        <time>2022-02-13T16:28:52Z</time>
      </trkpt>
      <trkpt lat="3.3779700" lon="-76.6146320">
        <ele>1510.6</ele>
        <time>2022-02-13T16:28:55Z</time>
      </trkpt>
      <trkpt lat="3.3779530" lon="-76.6146160">
        <ele>1510.6</ele>
        <time>2022-02-13T16:29:01Z</time>
      </trkpt>
      <trkpt lat="3.3779560" lon="-76.6146150">
        <ele>1510.6</ele>
        <time>2022-02-13T16:29:11Z</time>
      </trkpt>
      <trkpt lat="3.3779810" lon="-76.6145720">
        <ele>1510.6</ele>
        <time>2022-02-13T16:29:21Z</time>
      </trkpt>
      <trkpt lat="3.3780010" lon="-76.6145400">
        <ele>1510.6</ele>
        <time>2022-02-13T16:29:24Z</time>
      </trkpt>
      <trkpt lat="3.3780160" lon="-76.6145120">
        <ele>1510.6</ele>
        <time>2022-02-13T16:29:27Z</time>
      </trkpt>
      <trkpt lat="3.3780270" lon="-76.6144790">
        <ele>1510.6</ele>
        <time>2022-02-13T16:29:31Z</time>
      </trkpt>
      <trkpt lat="3.3780350" lon="-76.6144370">
        <ele>1510.7</ele>
        <time>2022-02-13T16:29:35Z</time>
      </trkpt>
      <trkpt lat="3.3780430" lon="-76.6144280">
        <ele>1510.7</ele>
        <time>2022-02-13T16:29:36Z</time>
      </trkpt>
      <trkpt lat="3.3780500" lon="-76.6144170">
        <ele>1510.7</ele>
        <time>2022-02-13T16:29:37Z</time>
      </trkpt>
      <trkpt lat="3.3780670" lon="-76.6143810">
        <ele>1510.7</ele>
        <time>2022-02-13T16:29:40Z</time>
      </trkpt>
      <trkpt lat="3.3780670" lon="-76.6143700">
        <ele>1510.7</ele>
        <time>2022-02-13T16:29:41Z</time>
      </trkpt>
      <trkpt lat="3.3781060" lon="-76.6143280">
        <ele>1510.7</ele>
        <time>2022-02-13T16:29:47Z</time>
      </trkpt>
      <trkpt lat="3.3781250" lon="-76.6143010">
        <ele>1510.7</ele>
        <time>2022-02-13T16:29:50Z</time>
      </trkpt>
      <trkpt lat="3.3781950" lon="-76.6141990">
        <ele>1510.6</ele>
        <time>2022-02-13T16:30:01Z</time>
      </trkpt>
      <trkpt lat="3.3782060" lon="-76.6141610">
        <ele>1510.5</ele>
        <time>2022-02-13T16:30:06Z</time>
      </trkpt>
      <trkpt lat="3.3782120" lon="-76.6141460">
        <ele>1510.4</ele>
        <time>2022-02-13T16:30:08Z</time>
      </trkpt>
      <trkpt lat="3.3782350" lon="-76.6140990">
        <ele>1510.3</ele>
        <time>2022-02-13T16:30:13Z</time>
      </trkpt>
      <trkpt lat="3.3782540" lon="-76.6140700">
        <ele>1510.1</ele>
        <time>2022-02-13T16:30:16Z</time>
      </trkpt>
      <trkpt lat="3.3782780" lon="-76.6140420">
        <ele>1509.9</ele>
        <time>2022-02-13T16:30:19Z</time>
      </trkpt>
      <trkpt lat="3.3782880" lon="-76.6139680">
        <ele>1509.5</ele>
        <time>2022-02-13T16:30:25Z</time>
      </trkpt>
      <trkpt lat="3.3783200" lon="-76.6138920">
        <ele>1508.8</ele>
        <time>2022-02-13T16:30:31Z</time>
      </trkpt>
      <trkpt lat="3.3783230" lon="-76.6138700">
        <ele>1508.7</ele>
        <time>2022-02-13T16:30:33Z</time>
      </trkpt>
      <trkpt lat="3.3783250" lon="-76.6138580">
        <ele>1508.6</ele>
        <time>2022-02-13T16:30:34Z</time>
      </trkpt>
      <trkpt lat="3.3783290" lon="-76.6138490">
        <ele>1508.5</ele>
        <time>2022-02-13T16:30:35Z</time>
      </trkpt>
      <trkpt lat="3.3783340" lon="-76.6138370">
        <ele>1508.4</ele>
        <time>2022-02-13T16:30:36Z</time>
      </trkpt>
      <trkpt lat="3.3783620" lon="-76.6137570">
        <ele>1507.5</ele>
        <time>2022-02-13T16:30:42Z</time>
      </trkpt>
      <trkpt lat="3.3783650" lon="-76.6137460">
        <ele>1507.4</ele>
        <time>2022-02-13T16:30:43Z</time>
      </trkpt>
      <trkpt lat="3.3784060" lon="-76.6136550">
        <ele>1506.4</ele>
        <time>2022-02-13T16:30:52Z</time>
      </trkpt>
      <trkpt lat="3.3784100" lon="-76.6136460">
        <ele>1506.3</ele>
        <time>2022-02-13T16:30:53Z</time>
      </trkpt>
      <trkpt lat="3.3784180" lon="-76.6136330">
        <ele>1506.1</ele>
        <time>2022-02-13T16:30:54Z</time>
      </trkpt>
      <trkpt lat="3.3784300" lon="-76.6135970">
        <ele>1505.7</ele>
        <time>2022-02-13T16:30:57Z</time>
      </trkpt>
      <trkpt lat="3.3784430" lon="-76.6135510">
        <ele>1505.2</ele>
        <time>2022-02-13T16:31:01Z</time>
      </trkpt>
      <trkpt lat="3.3784480" lon="-76.6135190">
        <ele>1504.8</ele>
        <time>2022-02-13T16:31:04Z</time>
      </trkpt>
      <trkpt lat="3.3784430" lon="-76.6134430">
        <ele>1503.9</ele>
        <time>2022-02-13T16:31:09Z</time>
      </trkpt>
      <trkpt lat="3.3784370" lon="-76.6134020">
        <ele>1503.4</ele>
        <time>2022-02-13T16:31:12Z</time>
      </trkpt>
      <trkpt lat="3.3784360" lon="-76.6133900">
        <ele>1503.2</ele>
        <time>2022-02-13T16:31:13Z</time>
      </trkpt>
      <trkpt lat="3.3784330" lon="-76.6133720">
        <ele>1503.0</ele>
        <time>2022-02-13T16:31:15Z</time>
      </trkpt>
      <trkpt lat="3.3784500" lon="-76.6132900">
        <ele>1502.0</ele>
        <time>2022-02-13T16:31:22Z</time>
      </trkpt>
      <trkpt lat="3.3784530" lon="-76.6132460">
        <ele>1501.6</ele>
        <time>2022-02-13T16:31:26Z</time>
      </trkpt>
      <trkpt lat="3.3784630" lon="-76.6132150">
        <ele>1501.3</ele>
        <time>2022-02-13T16:31:29Z</time>
      </trkpt>
      <trkpt lat="3.3784640" lon="-76.6131690">
        <ele>1500.9</ele>
        <time>2022-02-13T16:31:32Z</time>
      </trkpt>
      <trkpt lat="3.3784790" lon="-76.6130770">
        <ele>1500.1</ele>
        <time>2022-02-13T16:31:38Z</time>
      </trkpt>
      <trkpt lat="3.3784710" lon="-76.6129480">
        <ele>1499.3</ele>
        <time>2022-02-13T16:31:47Z</time>
      </trkpt>
      <trkpt lat="3.3784660" lon="-76.6129270">
        <ele>1499.2</ele>
        <time>2022-02-13T16:31:49Z</time>
      </trkpt>
      <trkpt lat="3.3784580" lon="-76.6128800">
        <ele>1499.0</ele>
        <time>2022-02-13T16:31:54Z</time>
      </trkpt>
      <trkpt lat="3.3784190" lon="-76.6128280">
        <ele>1498.6</ele>
        <time>2022-02-13T16:32:00Z</time>
      </trkpt>
      <trkpt lat="3.3784150" lon="-76.6128140">
        <ele>1498.5</ele>
        <time>2022-02-13T16:32:01Z</time>
      </trkpt>
      <trkpt lat="3.3784020" lon="-76.6127700">
        <ele>1498.3</ele>
        <time>2022-02-13T16:32:05Z</time>
      </trkpt>
      <trkpt lat="3.3784020" lon="-76.6127460">
        <ele>1498.1</ele>
        <time>2022-02-13T16:32:08Z</time>
      </trkpt>
      <trkpt lat="3.3784090" lon="-76.6127020">
        <ele>1497.8</ele>
        <time>2022-02-13T16:32:15Z</time>
      </trkpt>
      <trkpt lat="3.3784100" lon="-76.6127060">
        <ele>1497.8</ele>
        <time>2022-02-13T16:32:16Z</time>
      </trkpt>
      <trkpt lat="3.3784070" lon="-76.6127110">
        <ele>1497.8</ele>
        <time>2022-02-13T16:32:18Z</time>
      </trkpt>
      <trkpt lat="3.3783960" lon="-76.6127100">
        <ele>1497.7</ele>
        <time>2022-02-13T16:32:20Z</time>
      </trkpt>
      <trkpt lat="3.3783990" lon="-76.6127000">
        <ele>1497.6</ele>
        <time>2022-02-13T16:32:21Z</time>
      </trkpt>
      <trkpt lat="3.3783970" lon="-76.6126920">
        <ele>1497.5</ele>
        <time>2022-02-13T16:32:23Z</time>
      </trkpt>
      <trkpt lat="3.3784170" lon="-76.6126840">
        <ele>1497.4</ele>
        <time>2022-02-13T16:32:25Z</time>
      </trkpt>
      <trkpt lat="3.3784170" lon="-76.6126680">
        <ele>1497.2</ele>
        <time>2022-02-13T16:32:27Z</time>
      </trkpt>
      <trkpt lat="3.3784440" lon="-76.6125920">
        <ele>1496.5</ele>
        <time>2022-02-13T16:32:34Z</time>
      </trkpt>
      <trkpt lat="3.3784500" lon="-76.6125830">
        <ele>1496.3</ele>
        <time>2022-02-13T16:32:35Z</time>
      </trkpt>
      <trkpt lat="3.3784960" lon="-76.6125620">
        <ele>1495.8</ele>
        <time>2022-02-13T16:32:41Z</time>
      </trkpt>
      <trkpt lat="3.3785300" lon="-76.6125320">
        <ele>1495.4</ele>
        <time>2022-02-13T16:32:45Z</time>
      </trkpt>
      <trkpt lat="3.3785530" lon="-76.6125090">
        <ele>1495.1</ele>
        <time>2022-02-13T16:32:48Z</time>
      </trkpt>
      <trkpt lat="3.3785970" lon="-76.6124380">
        <ele>1494.4</ele>
        <time>2022-02-13T16:32:54Z</time>
      </trkpt>
      <trkpt lat="3.3786180" lon="-76.6124160">
        <ele>1494.2</ele>
        <time>2022-02-13T16:32:56Z</time>
      </trkpt>
      <trkpt lat="3.3786290" lon="-76.6123790">
        <ele>1493.9</ele>
        <time>2022-02-13T16:32:59Z</time>
      </trkpt>
      <trkpt lat="3.3786640" lon="-76.6123310">
        <ele>1493.5</ele>
        <time>2022-02-13T16:33:03Z</time>
      </trkpt>
      <trkpt lat="3.3786700" lon="-76.6123170">
        <ele>1493.4</ele>
        <time>2022-02-13T16:33:04Z</time>
      </trkpt>
      <trkpt lat="3.3786680" lon="-76.6123000">
        <ele>1493.4</ele>
        <time>2022-02-13T16:33:05Z</time>
      </trkpt>
      <trkpt lat="3.3786700" lon="-76.6122770">
        <ele>1493.3</ele>
        <time>2022-02-13T16:33:07Z</time>
      </trkpt>
      <trkpt lat="3.3786930" lon="-76.6122450">
        <ele>1493.1</ele>
        <time>2022-02-13T16:33:10Z</time>
      </trkpt>
      <trkpt lat="3.3787030" lon="-76.6122370">
        <ele>1493.0</ele>
        <time>2022-02-13T16:33:11Z</time>
      </trkpt>
      <trkpt lat="3.3787230" lon="-76.6121850">
        <ele>1492.8</ele>
        <time>2022-02-13T16:33:15Z</time>
      </trkpt>
      <trkpt lat="3.3787140" lon="-76.6121680">
        <ele>1492.7</ele>
        <time>2022-02-13T16:33:17Z</time>
      </trkpt>
      <trkpt lat="3.3787520" lon="-76.6120650">
        <ele>1492.2</ele>
        <time>2022-02-13T16:33:24Z</time>
      </trkpt>
      <trkpt lat="3.3787640" lon="-76.6120510">
        <ele>1492.1</ele>
        <time>2022-02-13T16:33:25Z</time>
      </trkpt>
      <trkpt lat="3.3787810" lon="-76.6119240">
        <ele>1491.4</ele>
        <time>2022-02-13T16:33:31Z</time>
      </trkpt>
      <trkpt lat="3.3787870" lon="-76.6119070">
        <ele>1491.3</ele>
        <time>2022-02-13T16:33:32Z</time>
      </trkpt>
      <trkpt lat="3.3788230" lon="-76.6118450">
        <ele>1490.7</ele>
        <time>2022-02-13T16:33:37Z</time>
      </trkpt>
      <trkpt lat="3.3788480" lon="-76.6118340">
        <ele>1490.5</ele>
        <time>2022-02-13T16:33:39Z</time>
      </trkpt>
      <trkpt lat="3.3788900" lon="-76.6118530">
        <ele>1490.2</ele>
        <time>2022-02-13T16:33:42Z</time>
      </trkpt>
      <trkpt lat="3.3789180" lon="-76.6118470">
        <ele>1490.0</ele>
        <time>2022-02-13T16:33:44Z</time>
      </trkpt>
      <trkpt lat="3.3789270" lon="-76.6118450">
        <ele>1489.9</ele>
        <time>2022-02-13T16:33:45Z</time>
      </trkpt>
      <trkpt lat="3.3789940" lon="-76.6117980">
        <ele>1489.2</ele>
        <time>2022-02-13T16:33:52Z</time>
      </trkpt>
      <trkpt lat="3.3790080" lon="-76.6117930">
        <ele>1489.1</ele>
        <time>2022-02-13T16:33:53Z</time>
      </trkpt>
      <trkpt lat="3.3790340" lon="-76.6117800">
        <ele>1488.8</ele>
        <time>2022-02-13T16:33:55Z</time>
      </trkpt>
      <trkpt lat="3.3790560" lon="-76.6117530">
        <ele>1488.5</ele>
        <time>2022-02-13T16:33:58Z</time>
      </trkpt>
      <trkpt lat="3.3790640" lon="-76.6117440">
        <ele>1488.4</ele>
        <time>2022-02-13T16:33:59Z</time>
      </trkpt>
      <trkpt lat="3.3790810" lon="-76.6117290">
        <ele>1488.2</ele>
        <time>2022-02-13T16:34:01Z</time>
      </trkpt>
      <trkpt lat="3.3790960" lon="-76.6117280">
        <ele>1488.0</ele>
        <time>2022-02-13T16:34:02Z</time>
      </trkpt>
      <trkpt lat="3.3791130" lon="-76.6117180">
        <ele>1487.8</ele>
        <time>2022-02-13T16:34:04Z</time>
      </trkpt>
      <trkpt lat="3.3791210" lon="-76.6117130">
        <ele>1487.7</ele>
        <time>2022-02-13T16:34:05Z</time>
      </trkpt>
      <trkpt lat="3.3792300" lon="-76.6116440">
        <ele>1486.4</ele>
        <time>2022-02-13T16:34:14Z</time>
      </trkpt>
      <trkpt lat="3.3792440" lon="-76.6116380">
        <ele>1486.2</ele>
        <time>2022-02-13T16:34:15Z</time>
      </trkpt>
      <trkpt lat="3.3792730" lon="-76.6116320">
        <ele>1485.9</ele>
        <time>2022-02-13T16:34:17Z</time>
      </trkpt>
      <trkpt lat="3.3792930" lon="-76.6116110">
        <ele>1485.6</ele>
        <time>2022-02-13T16:34:19Z</time>
      </trkpt>
      <trkpt lat="3.3793290" lon="-76.6115940">
        <ele>1485.2</ele>
        <time>2022-02-13T16:34:22Z</time>
      </trkpt>
      <trkpt lat="3.3793700" lon="-76.6115900">
        <ele>1484.8</ele>
        <time>2022-02-13T16:34:25Z</time>
      </trkpt>
      <trkpt lat="3.3793970" lon="-76.6115760">
        <ele>1484.6</ele>
        <time>2022-02-13T16:34:28Z</time>
      </trkpt>
      <trkpt lat="3.3794130" lon="-76.6115680">
        <ele>1484.4</ele>
        <time>2022-02-13T16:34:30Z</time>
      </trkpt>
      <trkpt lat="3.3794980" lon="-76.6115060">
        <ele>1483.4</ele>
        <time>2022-02-13T16:34:39Z</time>
      </trkpt>
      <trkpt lat="3.3795330" lon="-76.6114770">
        <ele>1483.0</ele>
        <time>2022-02-13T16:34:43Z</time>
      </trkpt>
      <trkpt lat="3.3795760" lon="-76.6114440">
        <ele>1482.5</ele>
        <time>2022-02-13T16:34:47Z</time>
      </trkpt>
      <trkpt lat="3.3796370" lon="-76.6113800">
        <ele>1481.8</ele>
        <time>2022-02-13T16:34:54Z</time>
      </trkpt>
      <trkpt lat="3.3796580" lon="-76.6113600">
        <ele>1481.6</ele>
        <time>2022-02-13T16:34:56Z</time>
      </trkpt>
      <trkpt lat="3.3796920" lon="-76.6113430">
        <ele>1481.4</ele>
        <time>2022-02-13T16:34:59Z</time>
      </trkpt>
      <trkpt lat="3.3796960" lon="-76.6113420">
        <ele>1481.3</ele>
        <time>2022-02-13T16:35:00Z</time>
      </trkpt>
      <trkpt lat="3.3797310" lon="-76.6113220">
        <ele>1481.1</ele>
        <time>2022-02-13T16:35:03Z</time>
      </trkpt>
      <trkpt lat="3.3797460" lon="-76.6113140">
        <ele>1481.0</ele>
        <time>2022-02-13T16:35:05Z</time>
      </trkpt>
      <trkpt lat="3.3798130" lon="-76.6112720">
        <ele>1480.5</ele>
        <time>2022-02-13T16:35:12Z</time>
      </trkpt>
      <trkpt lat="3.3798450" lon="-76.6111790">
        <ele>1480.1</ele>
        <time>2022-02-13T16:35:19Z</time>
      </trkpt>
      <trkpt lat="3.3798510" lon="-76.6111570">
        <ele>1480.0</ele>
        <time>2022-02-13T16:35:21Z</time>
      </trkpt>
      <trkpt lat="3.3798550" lon="-76.6111270">
        <ele>1479.8</ele>
        <time>2022-02-13T16:35:23Z</time>
      </trkpt>
      <trkpt lat="3.3798620" lon="-76.6111140">
        <ele>1479.8</ele>
        <time>2022-02-13T16:35:24Z</time>
      </trkpt>
      <trkpt lat="3.3798680" lon="-76.6111040">
        <ele>1479.8</ele>
        <time>2022-02-13T16:35:25Z</time>
      </trkpt>
      <trkpt lat="3.3799080" lon="-76.6110550">
        <ele>1479.5</ele>
        <time>2022-02-13T16:35:32Z</time>
      </trkpt>
      <trkpt lat="3.3799030" lon="-76.6110390">
        <ele>1479.4</ele>
        <time>2022-02-13T16:35:33Z</time>
      </trkpt>
      <trkpt lat="3.3799470" lon="-76.6109830">
        <ele>1479.2</ele>
        <time>2022-02-13T16:35:40Z</time>
      </trkpt>
      <trkpt lat="3.3799540" lon="-76.6109770">
        <ele>1479.1</ele>
        <time>2022-02-13T16:35:41Z</time>
      </trkpt>
      <trkpt lat="3.3799720" lon="-76.6109610">
        <ele>1479.1</ele>
        <time>2022-02-13T16:35:43Z</time>
      </trkpt>
      <trkpt lat="3.3800010" lon="-76.6109430">
        <ele>1478.9</ele>
        <time>2022-02-13T16:35:46Z</time>
      </trkpt>
      <trkpt lat="3.3800300" lon="-76.6108930">
        <ele>1478.6</ele>
        <time>2022-02-13T16:35:51Z</time>
      </trkpt>
      <trkpt lat="3.3800360" lon="-76.6108880">
        <ele>1478.6</ele>
        <time>2022-02-13T16:35:52Z</time>
      </trkpt>
      <trkpt lat="3.3800580" lon="-76.6108880">
        <ele>1478.5</ele>
        <time>2022-02-13T16:35:54Z</time>
      </trkpt>
      <trkpt lat="3.3801280" lon="-76.6108710">
        <ele>1478.0</ele>
        <time>2022-02-13T16:35:59Z</time>
      </trkpt>
      <trkpt lat="3.3801760" lon="-76.6108750">
        <ele>1477.6</ele>
        <time>2022-02-13T16:36:03Z</time>
      </trkpt>
      <trkpt lat="3.3801880" lon="-76.6108740">
        <ele>1477.4</ele>
        <time>2022-02-13T16:36:05Z</time>
      </trkpt>
      <trkpt lat="3.3801950" lon="-76.6108730">
        <ele>1477.4</ele>
        <time>2022-02-13T16:36:06Z</time>
      </trkpt>
      <trkpt lat="3.3802270" lon="-76.6108700">
        <ele>1477.0</ele>
        <time>2022-02-13T16:36:09Z</time>
      </trkpt>
      <trkpt lat="3.3802570" lon="-76.6108770">
        <ele>1476.7</ele>
        <time>2022-02-13T16:36:11Z</time>
      </trkpt>
      <trkpt lat="3.3802670" lon="-76.6108740">
        <ele>1476.5</ele>
        <time>2022-02-13T16:36:12Z</time>
      </trkpt>
      <trkpt lat="3.3802810" lon="-76.6108690">
        <ele>1476.4</ele>
        <time>2022-02-13T16:36:14Z</time>
      </trkpt>
      <trkpt lat="3.3803150" lon="-76.6108700">
        <ele>1476.0</ele>
        <time>2022-02-13T16:36:18Z</time>
      </trkpt>
      <trkpt lat="3.3804210" lon="-76.6108650">
        <ele>1474.7</ele>
        <time>2022-02-13T16:36:29Z</time>
      </trkpt>
      <trkpt lat="3.3804910" lon="-76.6108400">
        <ele>1474.0</ele>
        <time>2022-02-13T16:36:35Z</time>
      </trkpt>
      <trkpt lat="3.3805000" lon="-76.6108360">
        <ele>1474.0</ele>
        <time>2022-02-13T16:36:36Z</time>
      </trkpt>
      <trkpt lat="3.3805100" lon="-76.6108260">
        <ele>1473.8</ele>
        <time>2022-02-13T16:36:37Z</time>
      </trkpt>
      <trkpt lat="3.3805530" lon="-76.6107990">
        <ele>1473.5</ele>
        <time>2022-02-13T16:36:41Z</time>
      </trkpt>
      <trkpt lat="3.3805600" lon="-76.6107970">
        <ele>1473.4</ele>
        <time>2022-02-13T16:36:42Z</time>
      </trkpt>
      <trkpt lat="3.3806150" lon="-76.6107710">
        <ele>1473.1</ele>
        <time>2022-02-13T16:36:47Z</time>
      </trkpt>
      <trkpt lat="3.3806990" lon="-76.6106710">
        <ele>1472.6</ele>
        <time>2022-02-13T16:36:55Z</time>
      </trkpt>
      <trkpt lat="3.3807480" lon="-76.6105120">
        <ele>1472.2</ele>
        <time>2022-02-13T16:37:04Z</time>
      </trkpt>
      <trkpt lat="3.3807570" lon="-76.6104550">
        <ele>1472.2</ele>
        <time>2022-02-13T16:37:08Z</time>
      </trkpt>
      <trkpt lat="3.3807610" lon="-76.6104310">
        <ele>1472.1</ele>
        <time>2022-02-13T16:37:10Z</time>
      </trkpt>
      <trkpt lat="3.3807630" lon="-76.6104150">
        <ele>1472.1</ele>
        <time>2022-02-13T16:37:11Z</time>
      </trkpt>
      <trkpt lat="3.3807470" lon="-76.6103240">
        <ele>1472.1</ele>
        <time>2022-02-13T16:37:17Z</time>
      </trkpt>
      <trkpt lat="3.3807470" lon="-76.6103120">
        <ele>1472.1</ele>
        <time>2022-02-13T16:37:18Z</time>
      </trkpt>
      <trkpt lat="3.3807380" lon="-76.6102130">
        <ele>1472.0</ele>
        <time>2022-02-13T16:37:25Z</time>
      </trkpt>
      <trkpt lat="3.3807280" lon="-76.6101940">
        <ele>1472.0</ele>
        <time>2022-02-13T16:37:27Z</time>
      </trkpt>
      <trkpt lat="3.3807310" lon="-76.6101790">
        <ele>1472.0</ele>
        <time>2022-02-13T16:37:28Z</time>
      </trkpt>
      <trkpt lat="3.3807340" lon="-76.6100940">
        <ele>1472.0</ele>
        <time>2022-02-13T16:37:33Z</time>
      </trkpt>
      <trkpt lat="3.3807370" lon="-76.6100420">
        <ele>1471.9</ele>
        <time>2022-02-13T16:37:36Z</time>
      </trkpt>
      <trkpt lat="3.3807320" lon="-76.6100220">
        <ele>1471.9</ele>
        <time>2022-02-13T16:37:38Z</time>
      </trkpt>
      <trkpt lat="3.3807280" lon="-76.6099900">
        <ele>1471.8</ele>
        <time>2022-02-13T16:37:41Z</time>
      </trkpt>
      <trkpt lat="3.3807300" lon="-76.6099650">
        <ele>1471.7</ele>
        <time>2022-02-13T16:37:43Z</time>
      </trkpt>
      <trkpt lat="3.3807300" lon="-76.6099460">
        <ele>1471.7</ele>
        <time>2022-02-13T16:37:44Z</time>
      </trkpt>
      <trkpt lat="3.3807330" lon="-76.6098900">
        <ele>1471.5</ele>
        <time>2022-02-13T16:37:48Z</time>
      </trkpt>
      <trkpt lat="3.3807350" lon="-76.6098580">
        <ele>1471.4</ele>
        <time>2022-02-13T16:37:51Z</time>
      </trkpt>
      <trkpt lat="3.3807470" lon="-76.6098370">
        <ele>1471.3</ele>
        <time>2022-02-13T16:37:54Z</time>
      </trkpt>
      <trkpt lat="3.3807450" lon="-76.6098240">
        <ele>1471.2</ele>
        <time>2022-02-13T16:37:55Z</time>
      </trkpt>
      <trkpt lat="3.3807380" lon="-76.6097680">
        <ele>1470.9</ele>
        <time>2022-02-13T16:37:59Z</time>
      </trkpt>
      <trkpt lat="3.3807430" lon="-76.6097450">
        <ele>1470.8</ele>
        <time>2022-02-13T16:38:01Z</time>
      </trkpt>
      <trkpt lat="3.3807440" lon="-76.6097340">
        <ele>1470.7</ele>
        <time>2022-02-13T16:38:02Z</time>
      </trkpt>
      <trkpt lat="3.3807680" lon="-76.6096450">
        <ele>1470.0</ele>
        <time>2022-02-13T16:38:09Z</time>
      </trkpt>
      <trkpt lat="3.3807700" lon="-76.6096300">
        <ele>1469.9</ele>
        <time>2022-02-13T16:38:10Z</time>
      </trkpt>
      <trkpt lat="3.3807740" lon="-76.6095970">
        <ele>1469.5</ele>
        <time>2022-02-13T16:38:12Z</time>
      </trkpt>
      <trkpt lat="3.3807850" lon="-76.6095130">
        <ele>1468.5</ele>
        <time>2022-02-13T16:38:18Z</time>
      </trkpt>
      <trkpt lat="3.3807840" lon="-76.6095050">
        <ele>1468.4</ele>
        <time>2022-02-13T16:38:19Z</time>
      </trkpt>
      <trkpt lat="3.3807840" lon="-76.6094750">
        <ele>1468.0</ele>
        <time>2022-02-13T16:38:22Z</time>
      </trkpt>
      <trkpt lat="3.3807810" lon="-76.6094740">
        <ele>1468.0</ele>
        <time>2022-02-13T16:38:23Z</time>
      </trkpt>
      <trkpt lat="3.3807840" lon="-76.6094680">
        <ele>1467.9</ele>
        <time>2022-02-13T16:38:25Z</time>
      </trkpt>
      <trkpt lat="3.3807920" lon="-76.6094280">
        <ele>1467.3</ele>
        <time>2022-02-13T16:38:29Z</time>
      </trkpt>
      <trkpt lat="3.3807890" lon="-76.6094100">
        <ele>1467.1</ele>
        <time>2022-02-13T16:38:32Z</time>
      </trkpt>
      <trkpt lat="3.3807890" lon="-76.6093770">
        <ele>1466.6</ele>
        <time>2022-02-13T16:38:36Z</time>
      </trkpt>
      <trkpt lat="3.3807930" lon="-76.6093650">
        <ele>1466.5</ele>
        <time>2022-02-13T16:38:37Z</time>
      </trkpt>
      <trkpt lat="3.3807950" lon="-76.6092840">
        <ele>1465.4</ele>
        <time>2022-02-13T16:38:43Z</time>
      </trkpt>
      <trkpt lat="3.3807790" lon="-76.6092030">
        <ele>1464.3</ele>
        <time>2022-02-13T16:38:50Z</time>
      </trkpt>
      <trkpt lat="3.3807800" lon="-76.6091970">
        <ele>1464.2</ele>
        <time>2022-02-13T16:38:51Z</time>
      </trkpt>
      <trkpt lat="3.3807850" lon="-76.6091920">
        <ele>1464.1</ele>
        <time>2022-02-13T16:38:52Z</time>
      </trkpt>
      <trkpt lat="3.3807930" lon="-76.6091840">
        <ele>1464.0</ele>
        <time>2022-02-13T16:38:54Z</time>
      </trkpt>
      <trkpt lat="3.3807970" lon="-76.6091730">
        <ele>1463.8</ele>
        <time>2022-02-13T16:38:55Z</time>
      </trkpt>
      <trkpt lat="3.3808050" lon="-76.6091490">
        <ele>1463.5</ele>
        <time>2022-02-13T16:38:58Z</time>
      </trkpt>
      <trkpt lat="3.3808140" lon="-76.6091340">
        <ele>1463.3</ele>
        <time>2022-02-13T16:39:00Z</time>
      </trkpt>
      <trkpt lat="3.3808470" lon="-76.6090870">
        <ele>1462.5</ele>
        <time>2022-02-13T16:39:05Z</time>
      </trkpt>
      <trkpt lat="3.3808500" lon="-76.6090770">
        <ele>1462.4</ele>
        <time>2022-02-13T16:39:06Z</time>
      </trkpt>
      <trkpt lat="3.3808760" lon="-76.6089960">
        <ele>1461.5</ele>
        <time>2022-02-13T16:39:14Z</time>
      </trkpt>
      <trkpt lat="3.3808770" lon="-76.6089790">
        <ele>1461.3</ele>
        <time>2022-02-13T16:39:15Z</time>
      </trkpt>
      <trkpt lat="3.3808820" lon="-76.6089480">
        <ele>1461.1</ele>
        <time>2022-02-13T16:39:18Z</time>
      </trkpt>
      <trkpt lat="3.3809030" lon="-76.6089120">
        <ele>1460.7</ele>
        <time>2022-02-13T16:39:21Z</time>
      </trkpt>
      <trkpt lat="3.3809160" lon="-76.6088870">
        <ele>1460.5</ele>
        <time>2022-02-13T16:39:23Z</time>
      </trkpt>
      <trkpt lat="3.3809220" lon="-76.6088770">
        <ele>1460.5</ele>
        <time>2022-02-13T16:39:24Z</time>
      </trkpt>
      <trkpt lat="3.3809410" lon="-76.6087900">
        <ele>1460.0</ele>
        <time>2022-02-13T16:39:32Z</time>
      </trkpt>
      <trkpt lat="3.3810140" lon="-76.6086500">
        <ele>1459.7</ele>
        <time>2022-02-13T16:39:43Z</time>
      </trkpt>
      <trkpt lat="3.3811050" lon="-76.6085940">
        <ele>1460.0</ele>
        <time>2022-02-13T16:39:51Z</time>
      </trkpt>
      <trkpt lat="3.3811280" lon="-76.6085410">
        <ele>1460.2</ele>
        <time>2022-02-13T16:39:55Z</time>
      </trkpt>
      <trkpt lat="3.3811440" lon="-76.6085220">
        <ele>1460.4</ele>
        <time>2022-02-13T16:39:57Z</time>
      </trkpt>
      <trkpt lat="3.3811650" lon="-76.6085110">
        <ele>1460.5</ele>
        <time>2022-02-13T16:39:59Z</time>
      </trkpt>
      <trkpt lat="3.3812200" lon="-76.6085220">
        <ele>1460.9</ele>
        <time>2022-02-13T16:40:04Z</time>
      </trkpt>
      <trkpt lat="3.3812990" lon="-76.6085190">
        <ele>1461.5</ele>
        <time>2022-02-13T16:40:10Z</time>
      </trkpt>
      <trkpt lat="3.3813380" lon="-76.6085080">
        <ele>1461.8</ele>
        <time>2022-02-13T16:40:13Z</time>
      </trkpt>
      <trkpt lat="3.3813760" lon="-76.6084670">
        <ele>1462.1</ele>
        <time>2022-02-13T16:40:17Z</time>
      </trkpt>
      <trkpt lat="3.3814170" lon="-76.6084270">
        <ele>1462.3</ele>
        <time>2022-02-13T16:40:22Z</time>
      </trkpt>
      <trkpt lat="3.3814260" lon="-76.6084170">
        <ele>1462.4</ele>
        <time>2022-02-13T16:40:23Z</time>
      </trkpt>
      <trkpt lat="3.3814340" lon="-76.6084070">
        <ele>1462.4</ele>
        <time>2022-02-13T16:40:24Z</time>
      </trkpt>
      <trkpt lat="3.3814580" lon="-76.6083690">
        <ele>1462.4</ele>
        <time>2022-02-13T16:40:27Z</time>
      </trkpt>
      <trkpt lat="3.3814640" lon="-76.6083570">
        <ele>1462.4</ele>
        <time>2022-02-13T16:40:28Z</time>
      </trkpt>
      <trkpt lat="3.3814790" lon="-76.6083390">
        <ele>1462.3</ele>
        <time>2022-02-13T16:40:30Z</time>
      </trkpt>
      <trkpt lat="3.3814880" lon="-76.6083310">
        <ele>1462.3</ele>
        <time>2022-02-13T16:40:31Z</time>
      </trkpt>
      <trkpt lat="3.3815010" lon="-76.6083250">
        <ele>1462.2</ele>
        <time>2022-02-13T16:40:32Z</time>
      </trkpt>
      <trkpt lat="3.3815460" lon="-76.6082520">
        <ele>1461.8</ele>
        <time>2022-02-13T16:40:38Z</time>
      </trkpt>
      <trkpt lat="3.3816410" lon="-76.6081810">
        <ele>1461.3</ele>
        <time>2022-02-13T16:40:46Z</time>
      </trkpt>
      <trkpt lat="3.3816620" lon="-76.6081560">
        <ele>1461.2</ele>
        <time>2022-02-13T16:40:49Z</time>
      </trkpt>
      <trkpt lat="3.3816920" lon="-76.6081040">
        <ele>1461.0</ele>
        <time>2022-02-13T16:40:53Z</time>
      </trkpt>
      <trkpt lat="3.3817170" lon="-76.6080030">
        <ele>1460.8</ele>
        <time>2022-02-13T16:41:01Z</time>
      </trkpt>
      <trkpt lat="3.3817210" lon="-76.6079600">
        <ele>1460.8</ele>
        <time>2022-02-13T16:41:04Z</time>
      </trkpt>
      <trkpt lat="3.3817280" lon="-76.6078820">
        <ele>1460.8</ele>
        <time>2022-02-13T16:41:11Z</time>
      </trkpt>
      <trkpt lat="3.3817330" lon="-76.6078750">
        <ele>1460.9</ele>
        <time>2022-02-13T16:41:12Z</time>
      </trkpt>
      <trkpt lat="3.3818020" lon="-76.6078060">
        <ele>1461.1</ele>
        <time>2022-02-13T16:41:20Z</time>
      </trkpt>
      <trkpt lat="3.3818100" lon="-76.6078050">
        <ele>1461.1</ele>
        <time>2022-02-13T16:41:21Z</time>
      </trkpt>
      <trkpt lat="3.3819170" lon="-76.6077980">
        <ele>1461.8</ele>
        <time>2022-02-13T16:41:30Z</time>
      </trkpt>
      <trkpt lat="3.3819310" lon="-76.6077980">
        <ele>1461.9</ele>
        <time>2022-02-13T16:41:31Z</time>
      </trkpt>
      <trkpt lat="3.3820260" lon="-76.6077880">
        <ele>1462.8</ele>
        <time>2022-02-13T16:41:39Z</time>
      </trkpt>
      <trkpt lat="3.3820360" lon="-76.6077800">
        <ele>1462.9</ele>
        <time>2022-02-13T16:41:40Z</time>
      </trkpt>
      <trkpt lat="3.3820550" lon="-76.6077730">
        <ele>1463.1</ele>
        <time>2022-02-13T16:41:42Z</time>
      </trkpt>
      <trkpt lat="3.3821030" lon="-76.6077560">
        <ele>1463.6</ele>
        <time>2022-02-13T16:41:47Z</time>
      </trkpt>
      <trkpt lat="3.3821470" lon="-76.6077500">
        <ele>1464.1</ele>
        <time>2022-02-13T16:41:51Z</time>
      </trkpt>
      <trkpt lat="3.3821870" lon="-76.6077260">
        <ele>1464.5</ele>
        <time>2022-02-13T16:41:55Z</time>
      </trkpt>
      <trkpt lat="3.3822820" lon="-76.6076460">
        <ele>1465.6</ele>
        <time>2022-02-13T16:42:05Z</time>
      </trkpt>
      <trkpt lat="3.3823530" lon="-76.6075970">
        <ele>1466.2</ele>
        <time>2022-02-13T16:42:12Z</time>
      </trkpt>
      <trkpt lat="3.3823710" lon="-76.6075800">
        <ele>1466.3</ele>
        <time>2022-02-13T16:42:14Z</time>
      </trkpt>
      <trkpt lat="3.3824730" lon="-76.6074940">
        <ele>1466.9</ele>
        <time>2022-02-13T16:42:24Z</time>
      </trkpt>
      <trkpt lat="3.3825750" lon="-76.6074370">
        <ele>1467.2</ele>
        <time>2022-02-13T16:42:33Z</time>
      </trkpt>
      <trkpt lat="3.3826470" lon="-76.6074010">
        <ele>1467.3</ele>
        <time>2022-02-13T16:42:39Z</time>
      </trkpt>
      <trkpt lat="3.3826610" lon="-76.6073950">
        <ele>1467.3</ele>
        <time>2022-02-13T16:42:40Z</time>
      </trkpt>
      <trkpt lat="3.3826890" lon="-76.6073660">
        <ele>1467.3</ele>
        <time>2022-02-13T16:42:43Z</time>
      </trkpt>
      <trkpt lat="3.3827070" lon="-76.6073430">
        <ele>1467.3</ele>
        <time>2022-02-13T16:42:45Z</time>
      </trkpt>
      <trkpt lat="3.3827990" lon="-76.6072910">
        <ele>1467.2</ele>
        <time>2022-02-13T16:42:52Z</time>
      </trkpt>
      <trkpt lat="3.3829090" lon="-76.6071990">
        <ele>1466.6</ele>
        <time>2022-02-13T16:43:03Z</time>
      </trkpt>
      <trkpt lat="3.3830000" lon="-76.6071230">
        <ele>1465.6</ele>
        <time>2022-02-13T16:43:13Z</time>
      </trkpt>
      <trkpt lat="3.3830260" lon="-76.6071120">
        <ele>1465.3</ele>
        <time>2022-02-13T16:43:15Z</time>
      </trkpt>
      <trkpt lat="3.3830430" lon="-76.6071070">
        <ele>1465.2</ele>
        <time>2022-02-13T16:43:16Z</time>
      </trkpt>
      <trkpt lat="3.3831320" lon="-76.6070600">
        <ele>1464.1</ele>
        <time>2022-02-13T16:43:23Z</time>
      </trkpt>
      <trkpt lat="3.3832250" lon="-76.6069750">
        <ele>1462.7</ele>
        <time>2022-02-13T16:43:32Z</time>
      </trkpt>
      <trkpt lat="3.3832850" lon="-76.6068890">
        <ele>1461.6</ele>
        <time>2022-02-13T16:43:39Z</time>
      </trkpt>
      <trkpt lat="3.3833040" lon="-76.6068720">
        <ele>1461.4</ele>
        <time>2022-02-13T16:43:41Z</time>
      </trkpt>
      <trkpt lat="3.3833380" lon="-76.6068180">
        <ele>1460.8</ele>
        <time>2022-02-13T16:43:47Z</time>
      </trkpt>
      <trkpt lat="3.3833570" lon="-76.6067980">
        <ele>1460.5</ele>
        <time>2022-02-13T16:43:49Z</time>
      </trkpt>
      <trkpt lat="3.3834270" lon="-76.6066970">
        <ele>1459.6</ele>
        <time>2022-02-13T16:43:58Z</time>
      </trkpt>
      <trkpt lat="3.3834660" lon="-76.6066730">
        <ele>1459.3</ele>
        <time>2022-02-13T16:44:02Z</time>
      </trkpt>
      <trkpt lat="3.3835050" lon="-76.6066510">
        <ele>1459.1</ele>
        <time>2022-02-13T16:44:05Z</time>
      </trkpt>
      <trkpt lat="3.3835150" lon="-76.6066390">
        <ele>1459.0</ele>
        <time>2022-02-13T16:44:06Z</time>
      </trkpt>
      <trkpt lat="3.3836080" lon="-76.6065950">
        <ele>1458.4</ele>
        <time>2022-02-13T16:44:14Z</time>
      </trkpt>
      <trkpt lat="3.3836340" lon="-76.6065870">
        <ele>1458.3</ele>
        <time>2022-02-13T16:44:16Z</time>
      </trkpt>
      <trkpt lat="3.3836580" lon="-76.6065790">
        <ele>1458.2</ele>
        <time>2022-02-13T16:44:18Z</time>
      </trkpt>
      <trkpt lat="3.3836840" lon="-76.6065610">
        <ele>1458.0</ele>
        <time>2022-02-13T16:44:20Z</time>
      </trkpt>
      <trkpt lat="3.3837070" lon="-76.6065420">
        <ele>1457.9</ele>
        <time>2022-02-13T16:44:22Z</time>
      </trkpt>
      <trkpt lat="3.3837100" lon="-76.6065250">
        <ele>1457.9</ele>
        <time>2022-02-13T16:44:24Z</time>
      </trkpt>
      <trkpt lat="3.3837170" lon="-76.6065200">
        <ele>1457.8</ele>
        <time>2022-02-13T16:44:25Z</time>
      </trkpt>
      <trkpt lat="3.3837350" lon="-76.6065090">
        <ele>1457.7</ele>
        <time>2022-02-13T16:44:27Z</time>
      </trkpt>
      <trkpt lat="3.3837590" lon="-76.6064780">
        <ele>1457.6</ele>
        <time>2022-02-13T16:44:30Z</time>
      </trkpt>
      <trkpt lat="3.3837710" lon="-76.6064430">
        <ele>1457.5</ele>
        <time>2022-02-13T16:44:33Z</time>
      </trkpt>
      <trkpt lat="3.3837850" lon="-76.6064170">
        <ele>1457.4</ele>
        <time>2022-02-13T16:44:35Z</time>
      </trkpt>
      <trkpt lat="3.3837960" lon="-76.6063940">
        <ele>1457.3</ele>
        <time>2022-02-13T16:44:37Z</time>
      </trkpt>
      <trkpt lat="3.3838350" lon="-76.6062910">
        <ele>1457.0</ele>
        <time>2022-02-13T16:44:45Z</time>
      </trkpt>
      <trkpt lat="3.3838430" lon="-76.6062780">
        <ele>1457.0</ele>
        <time>2022-02-13T16:44:46Z</time>
      </trkpt>
      <trkpt lat="3.3838600" lon="-76.6061900">
        <ele>1456.7</ele>
        <time>2022-02-13T16:44:53Z</time>
      </trkpt>
      <trkpt lat="3.3838580" lon="-76.6061770">
        <ele>1456.7</ele>
        <time>2022-02-13T16:44:54Z</time>
      </trkpt>
      <trkpt lat="3.3838230" lon="-76.6060680">
        <ele>1456.2</ele>
        <time>2022-02-13T16:45:02Z</time>
      </trkpt>
      <trkpt lat="3.3837570" lon="-76.6059560">
        <ele>1455.5</ele>
        <time>2022-02-13T16:45:10Z</time>
      </trkpt>
      <trkpt lat="3.3836700" lon="-76.6059060">
        <ele>1458.3</ele>
        <time>2022-02-13T16:45:17Z</time>
      </trkpt>
      <trkpt lat="3.3836450" lon="-76.6059040">
        <ele>1458.5</ele>
        <time>2022-02-13T16:45:19Z</time>
      </trkpt>
      <trkpt lat="3.3836150" lon="-76.6058970">
        <ele>1458.6</ele>
        <time>2022-02-13T16:45:22Z</time>
      </trkpt>
      <trkpt lat="3.3836090" lon="-76.6058920">
        <ele>1457.8</ele>
        <time>2022-02-13T16:45:23Z</time>
      </trkpt>
      <trkpt lat="3.3835580" lon="-76.6058400">
        <ele>1457.6</ele>
        <time>2022-02-13T16:45:29Z</time>
      </trkpt>
      <trkpt lat="3.3835480" lon="-76.6058390">
        <ele>1456.9</ele>
        <time>2022-02-13T16:45:30Z</time>
      </trkpt>
      <trkpt lat="3.3835370" lon="-76.6058340">
        <ele>1456.5</ele>
        <time>2022-02-13T16:45:31Z</time>
      </trkpt>
      <trkpt lat="3.3835350" lon="-76.6058220">
        <ele>1455.8</ele>
        <time>2022-02-13T16:45:32Z</time>
      </trkpt>
      <trkpt lat="3.3835350" lon="-76.6058100">
        <ele>1454.9</ele>
        <time>2022-02-13T16:45:33Z</time>
      </trkpt>
      <trkpt lat="3.3835410" lon="-76.6058030">
        <ele>1453.7</ele>
        <time>2022-02-13T16:45:34Z</time>
      </trkpt>
      <trkpt lat="3.3835440" lon="-76.6057950">
        <ele>1452.9</ele>
        <time>2022-02-13T16:45:35Z</time>
      </trkpt>
      <trkpt lat="3.3835530" lon="-76.6057750">
        <ele>1452.0</ele>
        <time>2022-02-13T16:45:37Z</time>
      </trkpt>
      <trkpt lat="3.3835630" lon="-76.6057600">
        <ele>1451.3</ele>
        <time>2022-02-13T16:45:39Z</time>
      </trkpt>
      <trkpt lat="3.3835760" lon="-76.6057500">
        <ele>1450.5</ele>
        <time>2022-02-13T16:45:40Z</time>
      </trkpt>
      <trkpt lat="3.3836170" lon="-76.6057220">
        <ele>1450.4</ele>
        <time>2022-02-13T16:45:44Z</time>
      </trkpt>
      <trkpt lat="3.3836520" lon="-76.6057390">
        <ele>1450.3</ele>
        <time>2022-02-13T16:45:48Z</time>
      </trkpt>
      <trkpt lat="3.3836720" lon="-76.6057490">
        <ele>1450.2</ele>
        <time>2022-02-13T16:45:50Z</time>
      </trkpt>
      <trkpt lat="3.3837370" lon="-76.6057870">
        <ele>1450.0</ele>
        <time>2022-02-13T16:45:57Z</time>
      </trkpt>
      <trkpt lat="3.3837580" lon="-76.6057920">
        <ele>1449.9</ele>
        <time>2022-02-13T16:46:00Z</time>
      </trkpt>
      <trkpt lat="3.3837980" lon="-76.6058180">
        <ele>1449.8</ele>
        <time>2022-02-13T16:46:04Z</time>
      </trkpt>
      <trkpt lat="3.3838850" lon="-76.6058380">
        <ele>1449.5</ele>
        <time>2022-02-13T16:46:13Z</time>
      </trkpt>
      <trkpt lat="3.3838980" lon="-76.6058390">
        <ele>1449.4</ele>
        <time>2022-02-13T16:46:14Z</time>
      </trkpt>
      <trkpt lat="3.3839390" lon="-76.6058420">
        <ele>1449.2</ele>
        <time>2022-02-13T16:46:17Z</time>
      </trkpt>
      <trkpt lat="3.3839610" lon="-76.6058480">
        <ele>1449.0</ele>
        <time>2022-02-13T16:46:19Z</time>
      </trkpt>
      <trkpt lat="3.3839900" lon="-76.6058510">
        <ele>1448.9</ele>
        <time>2022-02-13T16:46:22Z</time>
      </trkpt>
      <trkpt lat="3.3840270" lon="-76.6058400">
        <ele>1448.6</ele>
        <time>2022-02-13T16:46:25Z</time>
      </trkpt>
      <trkpt lat="3.3840450" lon="-76.6058360">
        <ele>1448.5</ele>
        <time>2022-02-13T16:46:26Z</time>
      </trkpt>
      <trkpt lat="3.3840620" lon="-76.6058320">
        <ele>1448.3</ele>
        <time>2022-02-13T16:46:27Z</time>
      </trkpt>
      <trkpt lat="3.3840930" lon="-76.6058240">
        <ele>1448.1</ele>
        <time>2022-02-13T16:46:29Z</time>
      </trkpt>
      <trkpt lat="3.3841220" lon="-76.6058190">
        <ele>1447.8</ele>
        <time>2022-02-13T16:46:31Z</time>
      </trkpt>
      <trkpt lat="3.3841320" lon="-76.6058240">
        <ele>1447.7</ele>
        <time>2022-02-13T16:46:32Z</time>
      </trkpt>
      <trkpt lat="3.3841630" lon="-76.6058130">
        <ele>1447.5</ele>
        <time>2022-02-13T16:46:35Z</time>
      </trkpt>
      <trkpt lat="3.3841820" lon="-76.6058030">
        <ele>1447.3</ele>
        <time>2022-02-13T16:46:37Z</time>
      </trkpt>
      <trkpt lat="3.3841880" lon="-76.6057960">
        <ele>1447.2</ele>
        <time>2022-02-13T16:46:38Z</time>
      </trkpt>
      <trkpt lat="3.3842390" lon="-76.6057440">
        <ele>1446.8</ele>
        <time>2022-02-13T16:46:43Z</time>
      </trkpt>
      <trkpt lat="3.3842700" lon="-76.6057030">
        <ele>1446.5</ele>
        <time>2022-02-13T16:46:47Z</time>
      </trkpt>
      <trkpt lat="3.3843010" lon="-76.6056910">
        <ele>1446.4</ele>
        <time>2022-02-13T16:46:50Z</time>
      </trkpt>
      <trkpt lat="3.3843410" lon="-76.6057020">
        <ele>1446.2</ele>
        <time>2022-02-13T16:46:54Z</time>
      </trkpt>
      <trkpt lat="3.3843590" lon="-76.6057220">
        <ele>1446.1</ele>
        <time>2022-02-13T16:46:58Z</time>
      </trkpt>
      <trkpt lat="3.3843280" lon="-76.6057730">
        <ele>1446.0</ele>
        <time>2022-02-13T16:47:08Z</time>
      </trkpt>
      <trkpt lat="3.3843290" lon="-76.6057850">
        <ele>1445.9</ele>
        <time>2022-02-13T16:47:09Z</time>
      </trkpt>
      <trkpt lat="3.3843480" lon="-76.6058360">
        <ele>1445.8</ele>
        <time>2022-02-13T16:47:16Z</time>
      </trkpt>
      <trkpt lat="3.3843710" lon="-76.6058680">
        <ele>1445.6</ele>
        <time>2022-02-13T16:47:19Z</time>
      </trkpt>
      <trkpt lat="3.3844150" lon="-76.6059080">
        <ele>1445.4</ele>
        <time>2022-02-13T16:47:23Z</time>
      </trkpt>
      <trkpt lat="3.3844910" lon="-76.6059740">
        <ele>1444.9</ele>
        <time>2022-02-13T16:47:29Z</time>
      </trkpt>
      <trkpt lat="3.3845210" lon="-76.6059940">
        <ele>1444.7</ele>
        <time>2022-02-13T16:47:31Z</time>
      </trkpt>
      <trkpt lat="3.3845600" lon="-76.6060150">
        <ele>1444.6</ele>
        <time>2022-02-13T16:47:34Z</time>
      </trkpt>
      <trkpt lat="3.3846080" lon="-76.6060330">
        <ele>1444.5</ele>
        <time>2022-02-13T16:47:38Z</time>
      </trkpt>
      <trkpt lat="3.3846700" lon="-76.6060650">
        <ele>1444.4</ele>
        <time>2022-02-13T16:47:42Z</time>
      </trkpt>
      <trkpt lat="3.3847030" lon="-76.6060780">
        <ele>1444.4</ele>
        <time>2022-02-13T16:47:44Z</time>
      </trkpt>
      <trkpt lat="3.3847390" lon="-76.6061000">
        <ele>1444.4</ele>
        <time>2022-02-13T16:47:47Z</time>
      </trkpt>
      <trkpt lat="3.3848100" lon="-76.6061070">
        <ele>1444.4</ele>
        <time>2022-02-13T16:47:52Z</time>
      </trkpt>
      <trkpt lat="3.3848610" lon="-76.6061000">
        <ele>1444.5</ele>
        <time>2022-02-13T16:47:55Z</time>
      </trkpt>
      <trkpt lat="3.3849430" lon="-76.6061080">
        <ele>1444.7</ele>
        <time>2022-02-13T16:48:01Z</time>
      </trkpt>
      <trkpt lat="3.3849870" lon="-76.6061120">
        <ele>1444.8</ele>
        <time>2022-02-13T16:48:04Z</time>
      </trkpt>
      <trkpt lat="3.3850880" lon="-76.6061380">
        <ele>1445.2</ele>
        <time>2022-02-13T16:48:11Z</time>
      </trkpt>
      <trkpt lat="3.3851450" lon="-76.6061670">
        <ele>1445.4</ele>
        <time>2022-02-13T16:48:16Z</time>
      </trkpt>
      <trkpt lat="3.3851600" lon="-76.6061830">
        <ele>1445.5</ele>
        <time>2022-02-13T16:48:18Z</time>
      </trkpt>
      <trkpt lat="3.3851730" lon="-76.6061880">
        <ele>1445.6</ele>
        <time>2022-02-13T16:48:19Z</time>
      </trkpt>
      <trkpt lat="3.3852360" lon="-76.6062140">
        <ele>1445.8</ele>
        <time>2022-02-13T16:48:25Z</time>
      </trkpt>
      <trkpt lat="3.3852480" lon="-76.6062160">
        <ele>1445.9</ele>
        <time>2022-02-13T16:48:26Z</time>
      </trkpt>
      <trkpt lat="3.3853110" lon="-76.6062090">
        <ele>1446.0</ele>
        <time>2022-02-13T16:48:31Z</time>
      </trkpt>
      <trkpt lat="3.3853490" lon="-76.6062090">
        <ele>1446.1</ele>
        <time>2022-02-13T16:48:34Z</time>
      </trkpt>
      <trkpt lat="3.3854070" lon="-76.6062080">
        <ele>1446.1</ele>
        <time>2022-02-13T16:48:39Z</time>
      </trkpt>
      <trkpt lat="3.3854210" lon="-76.6062030">
        <ele>1446.1</ele>
        <time>2022-02-13T16:48:40Z</time>
      </trkpt>
      <trkpt lat="3.3854480" lon="-76.6061900">
        <ele>1446.1</ele>
        <time>2022-02-13T16:48:42Z</time>
      </trkpt>
      <trkpt lat="3.3854960" lon="-76.6061720">
        <ele>1446.0</ele>
        <time>2022-02-13T16:48:46Z</time>
      </trkpt>
      <trkpt lat="3.3855910" lon="-76.6061290">
        <ele>1445.9</ele>
        <time>2022-02-13T16:48:54Z</time>
      </trkpt>
      <trkpt lat="3.3857160" lon="-76.6060760">
        <ele>1445.6</ele>
        <time>2022-02-13T16:49:04Z</time>
      </trkpt>
      <trkpt lat="3.3857600" lon="-76.6060600">
        <ele>1445.6</ele>
        <time>2022-02-13T16:49:07Z</time>
      </trkpt>
      <trkpt lat="3.3857850" lon="-76.6060500">
        <ele>1445.5</ele>
        <time>2022-02-13T16:49:09Z</time>
      </trkpt>
      <trkpt lat="3.3858110" lon="-76.6060400">
        <ele>1445.5</ele>
        <time>2022-02-13T16:49:11Z</time>
      </trkpt>
      <trkpt lat="3.3858230" lon="-76.6060390">
        <ele>1445.4</ele>
        <time>2022-02-13T16:49:12Z</time>
      </trkpt>
      <trkpt lat="3.3859130" lon="-76.6060250">
        <ele>1445.3</ele>
        <time>2022-02-13T16:49:19Z</time>
      </trkpt>
      <trkpt lat="3.3859250" lon="-76.6060220">
        <ele>1445.2</ele>
        <time>2022-02-13T16:49:20Z</time>
      </trkpt>
      <trkpt lat="3.3859870" lon="-76.6060200">
        <ele>1445.1</ele>
        <time>2022-02-13T16:49:25Z</time>
      </trkpt>
      <trkpt lat="3.3860250" lon="-76.6060260">
        <ele>1445.0</ele>
        <time>2022-02-13T16:49:28Z</time>
      </trkpt>
      <trkpt lat="3.3861520" lon="-76.6060640">
        <ele>1444.4</ele>
        <time>2022-02-13T16:49:39Z</time>
      </trkpt>
      <trkpt lat="3.3861910" lon="-76.6060680">
        <ele>1444.2</ele>
        <time>2022-02-13T16:49:42Z</time>
      </trkpt>
      <trkpt lat="3.3862420" lon="-76.6060840">
        <ele>1443.9</ele>
        <time>2022-02-13T16:49:46Z</time>
      </trkpt>
      <trkpt lat="3.3862680" lon="-76.6060850">
        <ele>1443.7</ele>
        <time>2022-02-13T16:49:48Z</time>
      </trkpt>
      <trkpt lat="3.3863050" lon="-76.6060940">
        <ele>1443.5</ele>
        <time>2022-02-13T16:49:51Z</time>
      </trkpt>
      <trkpt lat="3.3863760" lon="-76.6061120">
        <ele>1443.1</ele>
        <time>2022-02-13T16:49:56Z</time>
      </trkpt>
      <trkpt lat="3.3864300" lon="-76.6061240">
        <ele>1442.8</ele>
        <time>2022-02-13T16:50:00Z</time>
      </trkpt>
      <trkpt lat="3.3865350" lon="-76.6061720">
        <ele>1442.3</ele>
        <time>2022-02-13T16:50:09Z</time>
      </trkpt>
      <trkpt lat="3.3866920" lon="-76.6062280">
        <ele>1441.7</ele>
        <time>2022-02-13T16:50:21Z</time>
      </trkpt>
      <trkpt lat="3.3868090" lon="-76.6062410">
        <ele>1441.4</ele>
        <time>2022-02-13T16:50:30Z</time>
      </trkpt>
      <trkpt lat="3.3869260" lon="-76.6062530">
        <ele>1441.2</ele>
        <time>2022-02-13T16:50:39Z</time>
      </trkpt>
      <trkpt lat="3.3869560" lon="-76.6062610">
        <ele>1441.1</ele>
        <time>2022-02-13T16:50:41Z</time>
      </trkpt>
      <trkpt lat="3.3870100" lon="-76.6062750">
        <ele>1441.0</ele>
        <time>2022-02-13T16:50:45Z</time>
      </trkpt>
      <trkpt lat="3.3870330" lon="-76.6062760">
        <ele>1441.0</ele>
        <time>2022-02-13T16:50:47Z</time>
      </trkpt>
      <trkpt lat="3.3871690" lon="-76.6062740">
        <ele>1440.7</ele>
        <time>2022-02-13T16:50:57Z</time>
      </trkpt>
      <trkpt lat="3.3873240" lon="-76.6062780">
        <ele>1440.1</ele>
        <time>2022-02-13T16:51:08Z</time>
      </trkpt>
      <trkpt lat="3.3873490" lon="-76.6062740">
        <ele>1440.0</ele>
        <time>2022-02-13T16:51:10Z</time>
      </trkpt>
      <trkpt lat="3.3873890" lon="-76.6062630">
        <ele>1439.8</ele>
        <time>2022-02-13T16:51:14Z</time>
      </trkpt>
      <trkpt lat="3.3875270" lon="-76.6062120">
        <ele>1438.6</ele>
        <time>2022-02-13T16:51:24Z</time>
      </trkpt>
      <trkpt lat="3.3876350" lon="-76.6061540">
        <ele>1437.4</ele>
        <time>2022-02-13T16:51:32Z</time>
      </trkpt>
      <trkpt lat="3.3876450" lon="-76.6061490">
        <ele>1437.2</ele>
        <time>2022-02-13T16:51:33Z</time>
      </trkpt>
      <trkpt lat="3.3877310" lon="-76.6060970">
        <ele>1436.1</ele>
        <time>2022-02-13T16:51:41Z</time>
      </trkpt>
      <trkpt lat="3.3878140" lon="-76.6060720">
        <ele>1435.1</ele>
        <time>2022-02-13T16:51:47Z</time>
      </trkpt>
      <trkpt lat="3.3878490" lon="-76.6060630">
        <ele>1434.7</ele>
        <time>2022-02-13T16:51:50Z</time>
      </trkpt>
      <trkpt lat="3.3879000" lon="-76.6060340">
        <ele>1433.9</ele>
        <time>2022-02-13T16:51:54Z</time>
      </trkpt>
      <trkpt lat="3.3879410" lon="-76.6060250">
        <ele>1433.4</ele>
        <time>2022-02-13T16:51:57Z</time>
      </trkpt>
      <trkpt lat="3.3879910" lon="-76.6060200">
        <ele>1432.7</ele>
        <time>2022-02-13T16:52:01Z</time>
      </trkpt>
      <trkpt lat="3.3880810" lon="-76.6059740">
        <ele>1431.4</ele>
        <time>2022-02-13T16:52:09Z</time>
      </trkpt>
      <trkpt lat="3.3881330" lon="-76.6059460">
        <ele>1430.6</ele>
        <time>2022-02-13T16:52:13Z</time>
      </trkpt>
      <trkpt lat="3.3881610" lon="-76.6059380">
        <ele>1430.2</ele>
        <time>2022-02-13T16:52:15Z</time>
      </trkpt>
      <trkpt lat="3.3882350" lon="-76.6058880">
        <ele>1429.0</ele>
        <time>2022-02-13T16:52:21Z</time>
      </trkpt>
      <trkpt lat="3.3882790" lon="-76.6058550">
        <ele>1428.3</ele>
        <time>2022-02-13T16:52:24Z</time>
      </trkpt>
      <trkpt lat="3.3883920" lon="-76.6057960">
        <ele>1426.8</ele>
        <time>2022-02-13T16:52:32Z</time>
      </trkpt>
      <trkpt lat="3.3884840" lon="-76.6057180">
        <ele>1425.5</ele>
        <time>2022-02-13T16:52:40Z</time>
      </trkpt>
      <trkpt lat="3.3885800" lon="-76.6056070">
        <ele>1424.1</ele>
        <time>2022-02-13T16:52:49Z</time>
      </trkpt>
      <trkpt lat="3.3886060" lon="-76.6055330">
        <ele>1423.4</ele>
        <time>2022-02-13T16:52:56Z</time>
      </trkpt>
      <trkpt lat="3.3886190" lon="-76.6053780">
        <ele>1422.7</ele>
        <time>2022-02-13T16:53:07Z</time>
      </trkpt>
      <trkpt lat="3.3886240" lon="-76.6053080">
        <ele>1422.5</ele>
        <time>2022-02-13T16:53:13Z</time>
      </trkpt>
      <trkpt lat="3.3886410" lon="-76.6052850">
        <ele>1422.4</ele>
        <time>2022-02-13T16:53:15Z</time>
      </trkpt>
      <trkpt lat="3.3886850" lon="-76.6052000">
        <ele>1422.4</ele>
        <time>2022-02-13T16:53:22Z</time>
      </trkpt>
      <trkpt lat="3.3887030" lon="-76.6051830">
        <ele>1422.4</ele>
        <time>2022-02-13T16:53:24Z</time>
      </trkpt>
      <trkpt lat="3.3888190" lon="-76.6050850">
        <ele>1423.1</ele>
        <time>2022-02-13T16:53:35Z</time>
      </trkpt>
      <trkpt lat="3.3889080" lon="-76.6050010">
        <ele>1424.0</ele>
        <time>2022-02-13T16:53:45Z</time>
      </trkpt>
      <trkpt lat="3.3889620" lon="-76.6049150">
        <ele>1424.9</ele>
        <time>2022-02-13T16:53:54Z</time>
      </trkpt>
      <trkpt lat="3.3889970" lon="-76.6047890">
        <ele>1426.0</ele>
        <time>2022-02-13T16:54:04Z</time>
      </trkpt>
      <trkpt lat="3.3890080" lon="-76.6047130">
        <ele>1426.5</ele>
        <time>2022-02-13T16:54:11Z</time>
      </trkpt>
      <trkpt lat="3.3890060" lon="-76.6047160">
        <ele>1426.6</ele>
        <time>2022-02-13T16:54:16Z</time>
      </trkpt>
      <trkpt lat="3.3890020" lon="-76.6047210">
        <ele>1426.6</ele>
        <time>2022-02-13T16:54:22Z</time>
      </trkpt>
      <trkpt lat="3.3890000" lon="-76.6047260">
        <ele>1426.6</ele>
        <time>2022-02-13T16:54:25Z</time>
      </trkpt>
      <trkpt lat="3.3889990" lon="-76.6047250">
        <ele>1426.6</ele>
        <time>2022-02-13T16:54:29Z</time>
      </trkpt>
      <trkpt lat="3.3889990" lon="-76.6047250">
        <ele>1426.6</ele>
        <time>2022-02-13T16:54:31Z</time>
      </trkpt>
      <trkpt lat="3.3889990" lon="-76.6047250">
        <ele>1426.6</ele>
        <time>2022-02-13T16:54:34Z</time>
      </trkpt>
      <trkpt lat="3.3890030" lon="-76.6047080">
        <ele>1426.8</ele>
        <time>2022-02-13T16:54:39Z</time>
      </trkpt>
      <trkpt lat="3.3890130" lon="-76.6046770">
        <ele>1427.0</ele>
        <time>2022-02-13T16:54:41Z</time>
      </trkpt>
      <trkpt lat="3.3890580" lon="-76.6045660">
        <ele>1427.7</ele>
        <time>2022-02-13T16:54:47Z</time>
      </trkpt>
      <trkpt lat="3.3891230" lon="-76.6044780">
        <ele>1428.4</ele>
        <time>2022-02-13T16:54:55Z</time>
      </trkpt>
      <trkpt lat="3.3891440" lon="-76.6044430">
        <ele>1428.7</ele>
        <time>2022-02-13T16:54:58Z</time>
      </trkpt>
      <trkpt lat="3.3891640" lon="-76.6044120">
        <ele>1428.9</ele>
        <time>2022-02-13T16:55:01Z</time>
      </trkpt>
      <trkpt lat="3.3892120" lon="-76.6043580">
        <ele>1429.4</ele>
        <time>2022-02-13T16:55:07Z</time>
      </trkpt>
      <trkpt lat="3.3892340" lon="-76.6043240">
        <ele>1429.6</ele>
        <time>2022-02-13T16:55:10Z</time>
      </trkpt>
      <trkpt lat="3.3892590" lon="-76.6042910">
        <ele>1429.9</ele>
        <time>2022-02-13T16:55:13Z</time>
      </trkpt>
      <trkpt lat="3.3892750" lon="-76.6042660">
        <ele>1430.0</ele>
        <time>2022-02-13T16:55:15Z</time>
      </trkpt>
      <trkpt lat="3.3892890" lon="-76.6042450">
        <ele>1430.2</ele>
        <time>2022-02-13T16:55:17Z</time>
      </trkpt>
      <trkpt lat="3.3892970" lon="-76.6042380">
        <ele>1430.2</ele>
        <time>2022-02-13T16:55:18Z</time>
      </trkpt>
      <trkpt lat="3.3893210" lon="-76.6042100">
        <ele>1430.4</ele>
        <time>2022-02-13T16:55:21Z</time>
      </trkpt>
      <trkpt lat="3.3893790" lon="-76.6040900">
        <ele>1430.8</ele>
        <time>2022-02-13T16:55:30Z</time>
      </trkpt>
      <trkpt lat="3.3894750" lon="-76.6039350">
        <ele>1430.7</ele>
        <time>2022-02-13T16:55:43Z</time>
      </trkpt>
      <trkpt lat="3.3895410" lon="-76.6038300">
        <ele>1430.1</ele>
        <time>2022-02-13T16:55:52Z</time>
      </trkpt>
      <trkpt lat="3.3896030" lon="-76.6037750">
        <ele>1429.6</ele>
        <time>2022-02-13T16:55:59Z</time>
      </trkpt>
      <trkpt lat="3.3896160" lon="-76.6037710">
        <ele>1429.5</ele>
        <time>2022-02-13T16:56:00Z</time>
      </trkpt>
      <trkpt lat="3.3897120" lon="-76.6037080">
        <ele>1428.7</ele>
        <time>2022-02-13T16:56:08Z</time>
      </trkpt>
      <trkpt lat="3.3897240" lon="-76.6037000">
        <ele>1428.6</ele>
        <time>2022-02-13T16:56:09Z</time>
      </trkpt>
      <trkpt lat="3.3897580" lon="-76.6036810">
        <ele>1428.4</ele>
        <time>2022-02-13T16:56:12Z</time>
      </trkpt>
      <trkpt lat="3.3897760" lon="-76.6036600">
        <ele>1428.2</ele>
        <time>2022-02-13T16:56:14Z</time>
      </trkpt>
      <trkpt lat="3.3897870" lon="-76.6036480">
        <ele>1428.1</ele>
        <time>2022-02-13T16:56:15Z</time>
      </trkpt>
      <trkpt lat="3.3898080" lon="-76.6036170">
        <ele>1427.9</ele>
        <time>2022-02-13T16:56:17Z</time>
      </trkpt>
      <trkpt lat="3.3898300" lon="-76.6036060">
        <ele>1427.7</ele>
        <time>2022-02-13T16:56:19Z</time>
      </trkpt>
      <trkpt lat="3.3898520" lon="-76.6035980">
        <ele>1427.6</ele>
        <time>2022-02-13T16:56:21Z</time>
      </trkpt>
      <trkpt lat="3.3899060" lon="-76.6035910">
        <ele>1427.3</ele>
        <time>2022-02-13T16:56:25Z</time>
      </trkpt>
      <trkpt lat="3.3899130" lon="-76.6035880">
        <ele>1427.3</ele>
        <time>2022-02-13T16:56:26Z</time>
      </trkpt>
      <trkpt lat="3.3900470" lon="-76.6035590">
        <ele>1426.7</ele>
        <time>2022-02-13T16:56:33Z</time>
      </trkpt>
      <trkpt lat="3.3900720" lon="-76.6035450">
        <ele>1426.6</ele>
        <time>2022-02-13T16:56:35Z</time>
      </trkpt>
      <trkpt lat="3.3900950" lon="-76.6035390">
        <ele>1426.5</ele>
        <time>2022-02-13T16:56:37Z</time>
      </trkpt>
      <trkpt lat="3.3901040" lon="-76.6035320">
        <ele>1426.5</ele>
        <time>2022-02-13T16:56:38Z</time>
      </trkpt>
      <trkpt lat="3.3901390" lon="-76.6035170">
        <ele>1426.3</ele>
        <time>2022-02-13T16:56:41Z</time>
      </trkpt>
      <trkpt lat="3.3902630" lon="-76.6034580">
        <ele>1425.8</ele>
        <time>2022-02-13T16:56:50Z</time>
      </trkpt>
      <trkpt lat="3.3903300" lon="-76.6033500">
        <ele>1425.3</ele>
        <time>2022-02-13T16:56:59Z</time>
      </trkpt>
      <trkpt lat="3.3903590" lon="-76.6032260">
        <ele>1424.4</ele>
        <time>2022-02-13T16:57:07Z</time>
      </trkpt>
      <trkpt lat="3.3903560" lon="-76.6032160">
        <ele>1424.3</ele>
        <time>2022-02-13T16:57:08Z</time>
      </trkpt>
      <trkpt lat="3.3903330" lon="-76.6031240">
        <ele>1423.5</ele>
        <time>2022-02-13T16:57:16Z</time>
      </trkpt>
      <trkpt lat="3.3903270" lon="-76.6031130">
        <ele>1423.3</ele>
        <time>2022-02-13T16:57:17Z</time>
      </trkpt>
      <trkpt lat="3.3902460" lon="-76.6029890">
        <ele>1421.9</ele>
        <time>2022-02-13T16:57:26Z</time>
      </trkpt>
      <trkpt lat="3.3902050" lon="-76.6028720">
        <ele>1420.9</ele>
        <time>2022-02-13T16:57:34Z</time>
      </trkpt>
      <trkpt lat="3.3901950" lon="-76.6027890">
        <ele>1420.3</ele>
        <time>2022-02-13T16:57:39Z</time>
      </trkpt>
      <trkpt lat="3.3901950" lon="-76.6027620">
        <ele>1420.1</ele>
        <time>2022-02-13T16:57:41Z</time>
      </trkpt>
      <trkpt lat="3.3902160" lon="-76.6026900">
        <ele>1419.6</ele>
        <time>2022-02-13T16:57:48Z</time>
      </trkpt>
      <trkpt lat="3.3902310" lon="-76.6026480">
        <ele>1419.3</ele>
        <time>2022-02-13T16:57:52Z</time>
      </trkpt>
      <trkpt lat="3.3902700" lon="-76.6025940">
        <ele>1418.9</ele>
        <time>2022-02-13T16:57:57Z</time>
      </trkpt>
      <trkpt lat="3.3902780" lon="-76.6025840">
        <ele>1418.8</ele>
        <time>2022-02-13T16:57:58Z</time>
      </trkpt>
      <trkpt lat="3.3902920" lon="-76.6025730">
        <ele>1418.6</ele>
        <time>2022-02-13T16:58:00Z</time>
      </trkpt>
      <trkpt lat="3.3903320" lon="-76.6025300">
        <ele>1418.1</ele>
        <time>2022-02-13T16:58:05Z</time>
      </trkpt>
      <trkpt lat="3.3903830" lon="-76.6024400">
        <ele>1417.0</ele>
        <time>2022-02-13T16:58:13Z</time>
      </trkpt>
      <trkpt lat="3.3904000" lon="-76.6024050">
        <ele>1416.4</ele>
        <time>2022-02-13T16:58:15Z</time>
      </trkpt>
      <trkpt lat="3.3904190" lon="-76.6023700">
        <ele>1415.9</ele>
        <time>2022-02-13T16:58:17Z</time>
      </trkpt>
      <trkpt lat="3.3904310" lon="-76.6023090">
        <ele>1415.0</ele>
        <time>2022-02-13T16:58:21Z</time>
      </trkpt>
      <trkpt lat="3.3904850" lon="-76.6021900">
        <ele>1413.1</ele>
        <time>2022-02-13T16:58:29Z</time>
      </trkpt>
      <trkpt lat="3.3905340" lon="-76.6020840">
        <ele>1411.5</ele>
        <time>2022-02-13T16:58:37Z</time>
      </trkpt>
      <trkpt lat="3.3906160" lon="-76.6019600">
        <ele>1409.8</ele>
        <time>2022-02-13T16:58:48Z</time>
      </trkpt>
      <trkpt lat="3.3906810" lon="-76.6018490">
        <ele>1408.5</ele>
        <time>2022-02-13T16:58:57Z</time>
      </trkpt>
      <trkpt lat="3.3907550" lon="-76.6017220">
        <ele>1407.5</ele>
        <time>2022-02-13T16:59:06Z</time>
      </trkpt>
      <trkpt lat="3.3908040" lon="-76.6016290">
        <ele>1407.1</ele>
        <time>2022-02-13T16:59:15Z</time>
      </trkpt>
      <trkpt lat="3.3908570" lon="-76.6015050">
        <ele>1406.9</ele>
        <time>2022-02-13T16:59:24Z</time>
      </trkpt>
      <trkpt lat="3.3909370" lon="-76.6013940">
        <ele>1407.1</ele>
        <time>2022-02-13T16:59:34Z</time>
      </trkpt>
      <trkpt lat="3.3909630" lon="-76.6012790">
        <ele>1407.5</ele>
        <time>2022-02-13T16:59:42Z</time>
      </trkpt>
      <trkpt lat="3.3909700" lon="-76.6012520">
        <ele>1407.6</ele>
        <time>2022-02-13T16:59:44Z</time>
      </trkpt>
      <trkpt lat="3.3909770" lon="-76.6012340">
        <ele>1407.6</ele>
        <time>2022-02-13T16:59:45Z</time>
      </trkpt>
      <trkpt lat="3.3909940" lon="-76.6011410">
        <ele>1407.6</ele>
        <time>2022-02-13T16:59:52Z</time>
      </trkpt>
      <trkpt lat="3.3909800" lon="-76.6010450">
        <ele>1407.3</ele>
        <time>2022-02-13T16:59:58Z</time>
      </trkpt>
      <trkpt lat="3.3909460" lon="-76.6010150">
        <ele>1407.0</ele>
        <time>2022-02-13T17:00:01Z</time>
      </trkpt>
      <trkpt lat="3.3909120" lon="-76.6008720">
        <ele>1405.8</ele>
        <time>2022-02-13T17:00:10Z</time>
      </trkpt>
      <trkpt lat="3.3909130" lon="-76.6008610">
        <ele>1405.7</ele>
        <time>2022-02-13T17:00:11Z</time>
      </trkpt>
      <trkpt lat="3.3909120" lon="-76.6007580">
        <ele>1404.3</ele>
        <time>2022-02-13T17:00:19Z</time>
      </trkpt>
      <trkpt lat="3.3909140" lon="-76.6006390">
        <ele>1403.1</ele>
        <time>2022-02-13T17:00:27Z</time>
      </trkpt>
      <trkpt lat="3.3909150" lon="-76.6006220">
        <ele>1402.9</ele>
        <time>2022-02-13T17:00:28Z</time>
      </trkpt>
      <trkpt lat="3.3909160" lon="-76.6006120">
        <ele>1402.8</ele>
        <time>2022-02-13T17:00:29Z</time>
      </trkpt>
      <trkpt lat="3.3909550" lon="-76.6005110">
        <ele>1401.7</ele>
        <time>2022-02-13T17:00:38Z</time>
      </trkpt>
      <trkpt lat="3.3909590" lon="-76.6004460">
        <ele>1401.1</ele>
        <time>2022-02-13T17:00:43Z</time>
      </trkpt>
      <trkpt lat="3.3909620" lon="-76.6004320">
        <ele>1400.9</ele>
        <time>2022-02-13T17:00:44Z</time>
      </trkpt>
      <trkpt lat="3.3909720" lon="-76.6003750">
        <ele>1400.3</ele>
        <time>2022-02-13T17:00:48Z</time>
      </trkpt>
      <trkpt lat="3.3909590" lon="-76.6002620">
        <ele>1399.2</ele>
        <time>2022-02-13T17:00:57Z</time>
      </trkpt>
      <trkpt lat="3.3909140" lon="-76.6001340">
        <ele>1397.8</ele>
        <time>2022-02-13T17:01:07Z</time>
      </trkpt>
      <trkpt lat="3.3908950" lon="-76.6000940">
        <ele>1397.4</ele>
        <time>2022-02-13T17:01:10Z</time>
      </trkpt>
      <trkpt lat="3.3908880" lon="-76.6000780">
        <ele>1397.2</ele>
        <time>2022-02-13T17:01:11Z</time>
      </trkpt>
      <trkpt lat="3.3908610" lon="-76.6000170">
        <ele>1396.5</ele>
        <time>2022-02-13T17:01:15Z</time>
      </trkpt>
      <trkpt lat="3.3908450" lon="-76.5999850">
        <ele>1396.2</ele>
        <time>2022-02-13T17:01:17Z</time>
      </trkpt>
      <trkpt lat="3.3907770" lon="-76.5998550">
        <ele>1394.7</ele>
        <time>2022-02-13T17:01:26Z</time>
      </trkpt>
      <trkpt lat="3.3907170" lon="-76.5996960">
        <ele>1393.0</ele>
        <time>2022-02-13T17:01:37Z</time>
      </trkpt>
      <trkpt lat="3.3906690" lon="-76.5996080">
        <ele>1391.9</ele>
        <time>2022-02-13T17:01:44Z</time>
      </trkpt>
      <trkpt lat="3.3906510" lon="-76.5995760">
        <ele>1391.6</ele>
        <time>2022-02-13T17:01:47Z</time>
      </trkpt>
      <trkpt lat="3.3906320" lon="-76.5995250">
        <ele>1391.0</ele>
        <time>2022-02-13T17:01:51Z</time>
      </trkpt>
      <trkpt lat="3.3906030" lon="-76.5994320">
        <ele>1390.0</ele>
        <time>2022-02-13T17:01:57Z</time>
      </trkpt>
      <trkpt lat="3.3905910" lon="-76.5993730">
        <ele>1389.4</ele>
        <time>2022-02-13T17:02:02Z</time>
      </trkpt>
      <trkpt lat="3.3905830" lon="-76.5993270">
        <ele>1389.0</ele>
        <time>2022-02-13T17:02:06Z</time>
      </trkpt>
      <trkpt lat="3.3906070" lon="-76.5992060">
        <ele>1387.7</ele>
        <time>2022-02-13T17:02:15Z</time>
      </trkpt>
      <trkpt lat="3.3906250" lon="-76.5991550">
        <ele>1387.2</ele>
        <time>2022-02-13T17:02:19Z</time>
      </trkpt>
      <trkpt lat="3.3906590" lon="-76.5991160">
        <ele>1386.7</ele>
        <time>2022-02-13T17:02:24Z</time>
      </trkpt>
      <trkpt lat="3.3907140" lon="-76.5990250">
        <ele>1385.6</ele>
        <time>2022-02-13T17:02:31Z</time>
      </trkpt>
      <trkpt lat="3.3907780" lon="-76.5989680">
        <ele>1384.7</ele>
        <time>2022-02-13T17:02:38Z</time>
      </trkpt>
      <trkpt lat="3.3908690" lon="-76.5989160">
        <ele>1383.7</ele>
        <time>2022-02-13T17:02:45Z</time>
      </trkpt>
      <trkpt lat="3.3909050" lon="-76.5988880">
        <ele>1383.2</ele>
        <time>2022-02-13T17:02:48Z</time>
      </trkpt>
      <trkpt lat="3.3909290" lon="-76.5988540">
        <ele>1382.8</ele>
        <time>2022-02-13T17:02:51Z</time>
      </trkpt>
      <trkpt lat="3.3910160" lon="-76.5987550">
        <ele>1381.4</ele>
        <time>2022-02-13T17:03:00Z</time>
      </trkpt>
      <trkpt lat="3.3911250" lon="-76.5985950">
        <ele>1379.5</ele>
        <time>2022-02-13T17:03:12Z</time>
      </trkpt>
      <trkpt lat="3.3911760" lon="-76.5985090">
        <ele>1378.5</ele>
        <time>2022-02-13T17:03:20Z</time>
      </trkpt>
      <trkpt lat="3.3911890" lon="-76.5984960">
        <ele>1378.3</ele>
        <time>2022-02-13T17:03:21Z</time>
      </trkpt>
      <trkpt lat="3.3912710" lon="-76.5983880">
        <ele>1376.9</ele>
        <time>2022-02-13T17:03:29Z</time>
      </trkpt>
      <trkpt lat="3.3913190" lon="-76.5983070">
        <ele>1376.0</ele>
        <time>2022-02-13T17:03:36Z</time>
      </trkpt>
      <trkpt lat="3.3913800" lon="-76.5982280">
        <ele>1375.0</ele>
        <time>2022-02-13T17:03:43Z</time>
      </trkpt>
      <trkpt lat="3.3914010" lon="-76.5982140">
        <ele>1374.7</ele>
        <time>2022-02-13T17:03:45Z</time>
      </trkpt>
      <trkpt lat="3.3915180" lon="-76.5981510">
        <ele>1373.4</ele>
        <time>2022-02-13T17:03:54Z</time>
      </trkpt>
      <trkpt lat="3.3916270" lon="-76.5980830">
        <ele>1372.1</ele>
        <time>2022-02-13T17:04:02Z</time>
      </trkpt>
      <trkpt lat="3.3917070" lon="-76.5979810">
        <ele>1370.8</ele>
        <time>2022-02-13T17:04:12Z</time>
      </trkpt>
      <trkpt lat="3.3917640" lon="-76.5978750">
        <ele>1369.6</ele>
        <time>2022-02-13T17:04:22Z</time>
      </trkpt>
      <trkpt lat="3.3917930" lon="-76.5977260">
        <ele>1368.0</ele>
        <time>2022-02-13T17:04:31Z</time>
      </trkpt>
      <trkpt lat="3.3918130" lon="-76.5975720">
        <ele>1366.5</ele>
        <time>2022-02-13T17:04:41Z</time>
      </trkpt>
      <trkpt lat="3.3917930" lon="-76.5974550">
        <ele>1365.3</ele>
        <time>2022-02-13T17:04:50Z</time>
      </trkpt>
      <trkpt lat="3.3917950" lon="-76.5973390">
        <ele>1364.1</ele>
        <time>2022-02-13T17:04:59Z</time>
      </trkpt>
      <trkpt lat="3.3917940" lon="-76.5973030">
        <ele>1363.7</ele>
        <time>2022-02-13T17:05:02Z</time>
      </trkpt>
      <trkpt lat="3.3918210" lon="-76.5972240">
        <ele>1362.9</ele>
        <time>2022-02-13T17:05:08Z</time>
      </trkpt>
      <trkpt lat="3.3918820" lon="-76.5971140">
        <ele>1361.6</ele>
        <time>2022-02-13T17:05:17Z</time>
      </trkpt>
      <trkpt lat="3.3918890" lon="-76.5971040">
        <ele>1361.5</ele>
        <time>2022-02-13T17:05:18Z</time>
      </trkpt>
      <trkpt lat="3.3919700" lon="-76.5970490">
        <ele>1360.5</ele>
        <time>2022-02-13T17:05:26Z</time>
      </trkpt>
      <trkpt lat="3.3920710" lon="-76.5970330">
        <ele>1359.5</ele>
        <time>2022-02-13T17:05:34Z</time>
      </trkpt>
      <trkpt lat="3.3921510" lon="-76.5969960">
        <ele>1358.6</ele>
        <time>2022-02-13T17:05:40Z</time>
      </trkpt>
      <trkpt lat="3.3922150" lon="-76.5969370">
        <ele>1357.7</ele>
        <time>2022-02-13T17:05:46Z</time>
      </trkpt>
      <trkpt lat="3.3922550" lon="-76.5968090">
        <ele>1356.4</ele>
        <time>2022-02-13T17:05:54Z</time>
      </trkpt>
      <trkpt lat="3.3922590" lon="-76.5967930">
        <ele>1356.2</ele>
        <time>2022-02-13T17:05:55Z</time>
      </trkpt>
      <trkpt lat="3.3922580" lon="-76.5967100">
        <ele>1355.3</ele>
        <time>2022-02-13T17:06:00Z</time>
      </trkpt>
      <trkpt lat="3.3922590" lon="-76.5966940">
        <ele>1355.2</ele>
        <time>2022-02-13T17:06:01Z</time>
      </trkpt>
      <trkpt lat="3.3922650" lon="-76.5966330">
        <ele>1354.6</ele>
        <time>2022-02-13T17:06:05Z</time>
      </trkpt>
      <trkpt lat="3.3922720" lon="-76.5965530">
        <ele>1353.8</ele>
        <time>2022-02-13T17:06:10Z</time>
      </trkpt>
      <trkpt lat="3.3922850" lon="-76.5965040">
        <ele>1353.2</ele>
        <time>2022-02-13T17:06:14Z</time>
      </trkpt>
      <trkpt lat="3.3922930" lon="-76.5964660">
        <ele>1352.9</ele>
        <time>2022-02-13T17:06:17Z</time>
      </trkpt>
      <trkpt lat="3.3923140" lon="-76.5963490">
        <ele>1351.7</ele>
        <time>2022-02-13T17:06:26Z</time>
      </trkpt>
      <trkpt lat="3.3923120" lon="-76.5963130">
        <ele>1351.3</ele>
        <time>2022-02-13T17:06:29Z</time>
      </trkpt>
      <trkpt lat="3.3923230" lon="-76.5962170">
        <ele>1350.3</ele>
        <time>2022-02-13T17:06:36Z</time>
      </trkpt>
      <trkpt lat="3.3923350" lon="-76.5961370">
        <ele>1349.5</ele>
        <time>2022-02-13T17:06:42Z</time>
      </trkpt>
      <trkpt lat="3.3923390" lon="-76.5960940">
        <ele>1349.1</ele>
        <time>2022-02-13T17:06:45Z</time>
      </trkpt>
      <trkpt lat="3.3923350" lon="-76.5960820">
        <ele>1348.9</ele>
        <time>2022-02-13T17:06:46Z</time>
      </trkpt>
      <trkpt lat="3.3923510" lon="-76.5960560">
        <ele>1348.6</ele>
        <time>2022-02-13T17:06:48Z</time>
      </trkpt>
      <trkpt lat="3.3923680" lon="-76.5960080">
        <ele>1348.1</ele>
        <time>2022-02-13T17:06:51Z</time>
      </trkpt>
      <trkpt lat="3.3923750" lon="-76.5958780">
        <ele>1346.8</ele>
        <time>2022-02-13T17:07:00Z</time>
      </trkpt>
      <trkpt lat="3.3923690" lon="-76.5957810">
        <ele>1345.8</ele>
        <time>2022-02-13T17:07:07Z</time>
      </trkpt>
      <trkpt lat="3.3924040" lon="-76.5957050">
        <ele>1345.0</ele>
        <time>2022-02-13T17:07:14Z</time>
      </trkpt>
      <trkpt lat="3.3924120" lon="-76.5956670">
        <ele>1344.6</ele>
        <time>2022-02-13T17:07:17Z</time>
      </trkpt>
      <trkpt lat="3.3924380" lon="-76.5955800">
        <ele>1343.7</ele>
        <time>2022-02-13T17:07:23Z</time>
      </trkpt>
      <trkpt lat="3.3925190" lon="-76.5954160">
        <ele>1341.8</ele>
        <time>2022-02-13T17:07:35Z</time>
      </trkpt>
      <trkpt lat="3.3925250" lon="-76.5954020">
        <ele>1341.7</ele>
        <time>2022-02-13T17:07:36Z</time>
      </trkpt>
      <trkpt lat="3.3925490" lon="-76.5953430">
        <ele>1341.0</ele>
        <time>2022-02-13T17:07:43Z</time>
      </trkpt>
      <trkpt lat="3.3925660" lon="-76.5953240">
        <ele>1340.8</ele>
        <time>2022-02-13T17:07:45Z</time>
      </trkpt>
      <trkpt lat="3.3925930" lon="-76.5952530">
        <ele>1340.0</ele>
        <time>2022-02-13T17:07:51Z</time>
      </trkpt>
      <trkpt lat="3.3925790" lon="-76.5951390">
        <ele>1338.8</ele>
        <time>2022-02-13T17:08:00Z</time>
      </trkpt>
      <trkpt lat="3.3925700" lon="-76.5951280">
        <ele>1338.7</ele>
        <time>2022-02-13T17:08:01Z</time>
      </trkpt>
      <trkpt lat="3.3925270" lon="-76.5950640">
        <ele>1337.9</ele>
        <time>2022-02-13T17:08:06Z</time>
      </trkpt>
      <trkpt lat="3.3925090" lon="-76.5950380">
        <ele>1337.6</ele>
        <time>2022-02-13T17:08:08Z</time>
      </trkpt>
      <trkpt lat="3.3925010" lon="-76.5950240">
        <ele>1337.4</ele>
        <time>2022-02-13T17:08:09Z</time>
      </trkpt>
      <trkpt lat="3.3924770" lon="-76.5949890">
        <ele>1337.0</ele>
        <time>2022-02-13T17:08:12Z</time>
      </trkpt>
      <trkpt lat="3.3924450" lon="-76.5949580">
        <ele>1336.6</ele>
        <time>2022-02-13T17:08:15Z</time>
      </trkpt>
      <trkpt lat="3.3924370" lon="-76.5949460">
        <ele>1336.4</ele>
        <time>2022-02-13T17:08:16Z</time>
      </trkpt>
      <trkpt lat="3.3923520" lon="-76.5948320">
        <ele>1335.0</ele>
        <time>2022-02-13T17:08:24Z</time>
      </trkpt>
      <trkpt lat="3.3923420" lon="-76.5948210">
        <ele>1334.8</ele>
        <time>2022-02-13T17:08:25Z</time>
      </trkpt>
      <trkpt lat="3.3922700" lon="-76.5947140">
        <ele>1333.5</ele>
        <time>2022-02-13T17:08:33Z</time>
      </trkpt>
      <trkpt lat="3.3922040" lon="-76.5946250">
        <ele>1332.4</ele>
        <time>2022-02-13T17:08:40Z</time>
      </trkpt>
      <trkpt lat="3.3921630" lon="-76.5945840">
        <ele>1331.8</ele>
        <time>2022-02-13T17:08:44Z</time>
      </trkpt>
      <trkpt lat="3.3921390" lon="-76.5945490">
        <ele>1331.4</ele>
        <time>2022-02-13T17:08:47Z</time>
      </trkpt>
      <trkpt lat="3.3920400" lon="-76.5944310">
        <ele>1329.8</ele>
        <time>2022-02-13T17:08:58Z</time>
      </trkpt>
      <trkpt lat="3.3919860" lon="-76.5943310">
        <ele>1328.7</ele>
        <time>2022-02-13T17:09:07Z</time>
      </trkpt>
      <trkpt lat="3.3919690" lon="-76.5942260">
        <ele>1327.6</ele>
        <time>2022-02-13T17:09:14Z</time>
      </trkpt>
      <trkpt lat="3.3919700" lon="-76.5942010">
        <ele>1327.4</ele>
        <time>2022-02-13T17:09:16Z</time>
      </trkpt>
      <trkpt lat="3.3919240" lon="-76.5940680">
        <ele>1326.0</ele>
        <time>2022-02-13T17:09:25Z</time>
      </trkpt>
      <trkpt lat="3.3918970" lon="-76.5939420">
        <ele>1324.7</ele>
        <time>2022-02-13T17:09:34Z</time>
      </trkpt>
      <trkpt lat="3.3918570" lon="-76.5937830">
        <ele>1323.0</ele>
        <time>2022-02-13T17:09:44Z</time>
      </trkpt>
      <trkpt lat="3.3918130" lon="-76.5936470">
        <ele>1321.6</ele>
        <time>2022-02-13T17:09:53Z</time>
      </trkpt>
      <trkpt lat="3.3917750" lon="-76.5935110">
        <ele>1320.1</ele>
        <time>2022-02-13T17:10:02Z</time>
      </trkpt>
      <trkpt lat="3.3917530" lon="-76.5934550">
        <ele>1319.5</ele>
        <time>2022-02-13T17:10:06Z</time>
      </trkpt>
      <trkpt lat="3.3917500" lon="-76.5934400">
        <ele>1319.4</ele>
        <time>2022-02-13T17:10:07Z</time>
      </trkpt>
      <trkpt lat="3.3917260" lon="-76.5934130">
        <ele>1319.0</ele>
        <time>2022-02-13T17:10:10Z</time>
      </trkpt>
      <trkpt lat="3.3916600" lon="-76.5933350">
        <ele>1318.0</ele>
        <time>2022-02-13T17:10:18Z</time>
      </trkpt>
      <trkpt lat="3.3916320" lon="-76.5932820">
        <ele>1317.4</ele>
        <time>2022-02-13T17:10:23Z</time>
      </trkpt>
      <trkpt lat="3.3915940" lon="-76.5932210">
        <ele>1316.6</ele>
        <time>2022-02-13T17:10:28Z</time>
      </trkpt>
      <trkpt lat="3.3915080" lon="-76.5931010">
        <ele>1315.1</ele>
        <time>2022-02-13T17:10:38Z</time>
      </trkpt>
      <trkpt lat="3.3914980" lon="-76.5930860">
        <ele>1315.0</ele>
        <time>2022-02-13T17:10:39Z</time>
      </trkpt>
      <trkpt lat="3.3913910" lon="-76.5930010">
        <ele>1314.3</ele>
        <time>2022-02-13T17:10:49Z</time>
      </trkpt>
      <trkpt lat="3.3912730" lon="-76.5929870">
        <ele>1313.6</ele>
        <time>2022-02-13T17:10:58Z</time>
      </trkpt>
      <trkpt lat="3.3912560" lon="-76.5929900">
        <ele>1313.4</ele>
        <time>2022-02-13T17:10:59Z</time>
      </trkpt>
      <trkpt lat="3.3912440" lon="-76.5929920">
        <ele>1313.4</ele>
        <time>2022-02-13T17:11:00Z</time>
      </trkpt>
      <trkpt lat="3.3911620" lon="-76.5930150">
        <ele>1312.7</ele>
        <time>2022-02-13T17:11:06Z</time>
      </trkpt>
      <trkpt lat="3.3911350" lon="-76.5930250">
        <ele>1312.5</ele>
        <time>2022-02-13T17:11:08Z</time>
      </trkpt>
      <trkpt lat="3.3910920" lon="-76.5930420">
        <ele>1312.0</ele>
        <time>2022-02-13T17:11:11Z</time>
      </trkpt>
      <trkpt lat="3.3910820" lon="-76.5930500">
        <ele>1311.9</ele>
        <time>2022-02-13T17:11:12Z</time>
      </trkpt>
      <trkpt lat="3.3910160" lon="-76.5930750">
        <ele>1311.0</ele>
        <time>2022-02-13T17:11:17Z</time>
      </trkpt>
      <trkpt lat="3.3910020" lon="-76.5930710">
        <ele>1310.8</ele>
        <time>2022-02-13T17:11:18Z</time>
      </trkpt>
      <trkpt lat="3.3909630" lon="-76.5930610">
        <ele>1310.2</ele>
        <time>2022-02-13T17:11:21Z</time>
      </trkpt>
      <trkpt lat="3.3909330" lon="-76.5930240">
        <ele>1309.5</ele>
        <time>2022-02-13T17:11:25Z</time>
      </trkpt>
      <trkpt lat="3.3909240" lon="-76.5929980">
        <ele>1309.1</ele>
        <time>2022-02-13T17:11:27Z</time>
      </trkpt>
      <trkpt lat="3.3909300" lon="-76.5929720">
        <ele>1308.7</ele>
        <time>2022-02-13T17:11:29Z</time>
      </trkpt>
      <trkpt lat="3.3909340" lon="-76.5929620">
        <ele>1308.5</ele>
        <time>2022-02-13T17:11:30Z</time>
      </trkpt>
      <trkpt lat="3.3910490" lon="-76.5928690">
        <ele>1306.5</ele>
        <time>2022-02-13T17:11:40Z</time>
      </trkpt>
      <trkpt lat="3.3910960" lon="-76.5928170">
        <ele>1305.5</ele>
        <time>2022-02-13T17:11:45Z</time>
      </trkpt>
      <trkpt lat="3.3911460" lon="-76.5927740">
        <ele>1304.6</ele>
        <time>2022-02-13T17:11:50Z</time>
      </trkpt>
      <trkpt lat="3.3912140" lon="-76.5927080">
        <ele>1303.3</ele>
        <time>2022-02-13T17:11:58Z</time>
      </trkpt>
      <trkpt lat="3.3913060" lon="-76.5926190">
        <ele>1301.6</ele>
        <time>2022-02-13T17:12:08Z</time>
      </trkpt>
      <trkpt lat="3.3913260" lon="-76.5925980">
        <ele>1301.2</ele>
        <time>2022-02-13T17:12:10Z</time>
      </trkpt>
      <trkpt lat="3.3913430" lon="-76.5925760">
        <ele>1300.9</ele>
        <time>2022-02-13T17:12:12Z</time>
      </trkpt>
      <trkpt lat="3.3913910" lon="-76.5925320">
        <ele>1300.1</ele>
        <time>2022-02-13T17:12:17Z</time>
      </trkpt>
      <trkpt lat="3.3914680" lon="-76.5924720">
        <ele>1298.9</ele>
        <time>2022-02-13T17:12:24Z</time>
      </trkpt>
      <trkpt lat="3.3914960" lon="-76.5924440">
        <ele>1298.4</ele>
        <time>2022-02-13T17:12:27Z</time>
      </trkpt>
      <trkpt lat="3.3915780" lon="-76.5923510">
        <ele>1296.7</ele>
        <time>2022-02-13T17:12:36Z</time>
      </trkpt>
      <trkpt lat="3.3916460" lon="-76.5922620">
        <ele>1295.2</ele>
        <time>2022-02-13T17:12:45Z</time>
      </trkpt>
      <trkpt lat="3.3916990" lon="-76.5921420">
        <ele>1293.6</ele>
        <time>2022-02-13T17:12:54Z</time>
      </trkpt>
      <trkpt lat="3.3917330" lon="-76.5920150">
        <ele>1292.1</ele>
        <time>2022-02-13T17:13:03Z</time>
      </trkpt>
      <trkpt lat="3.3917490" lon="-76.5919100">
        <ele>1291.1</ele>
        <time>2022-02-13T17:13:10Z</time>
      </trkpt>
      <trkpt lat="3.3917600" lon="-76.5918570">
        <ele>1290.5</ele>
        <time>2022-02-13T17:13:13Z</time>
      </trkpt>
      <trkpt lat="3.3917700" lon="-76.5918130">
        <ele>1290.1</ele>
        <time>2022-02-13T17:13:16Z</time>
      </trkpt>
      <trkpt lat="3.3917730" lon="-76.5917980">
        <ele>1289.9</ele>
        <time>2022-02-13T17:13:17Z</time>
      </trkpt>
      <trkpt lat="3.3917810" lon="-76.5917760">
        <ele>1289.7</ele>
        <time>2022-02-13T17:13:19Z</time>
      </trkpt>
      <trkpt lat="3.3917820" lon="-76.5917630">
        <ele>1289.6</ele>
        <time>2022-02-13T17:13:20Z</time>
      </trkpt>
      <trkpt lat="3.3918170" lon="-76.5916640">
        <ele>1288.5</ele>
        <time>2022-02-13T17:13:28Z</time>
      </trkpt>
      <trkpt lat="3.3917960" lon="-76.5915600">
        <ele>1287.3</ele>
        <time>2022-02-13T17:13:36Z</time>
      </trkpt>
      <trkpt lat="3.3917360" lon="-76.5914530">
        <ele>1285.8</ele>
        <time>2022-02-13T17:13:44Z</time>
      </trkpt>
      <trkpt lat="3.3916750" lon="-76.5913540">
        <ele>1284.2</ele>
        <time>2022-02-13T17:13:52Z</time>
      </trkpt>
      <trkpt lat="3.3916090" lon="-76.5912590">
        <ele>1282.5</ele>
        <time>2022-02-13T17:14:00Z</time>
      </trkpt>
      <trkpt lat="3.3915520" lon="-76.5911810">
        <ele>1280.9</ele>
        <time>2022-02-13T17:14:06Z</time>
      </trkpt>
      <trkpt lat="3.3914840" lon="-76.5910750">
        <ele>1278.8</ele>
        <time>2022-02-13T17:14:17Z</time>
      </trkpt>
      <trkpt lat="3.3914770" lon="-76.5910500">
        <ele>1278.4</ele>
        <time>2022-02-13T17:14:19Z</time>
      </trkpt>
      <trkpt lat="3.3914840" lon="-76.5909810">
        <ele>1277.3</ele>
        <time>2022-02-13T17:14:23Z</time>
      </trkpt>
      <trkpt lat="3.3914680" lon="-76.5908920">
        <ele>1276.1</ele>
        <time>2022-02-13T17:14:29Z</time>
      </trkpt>
      <trkpt lat="3.3914620" lon="-76.5908670">
        <ele>1275.8</ele>
        <time>2022-02-13T17:14:31Z</time>
      </trkpt>
      <trkpt lat="3.3914390" lon="-76.5907530">
        <ele>1274.5</ele>
        <time>2022-02-13T17:14:40Z</time>
      </trkpt>
      <trkpt lat="3.3914420" lon="-76.5907470">
        <ele>1274.5</ele>
        <time>2022-02-13T17:14:41Z</time>
      </trkpt>
      <trkpt lat="3.3914560" lon="-76.5907050">
        <ele>1274.2</ele>
        <time>2022-02-13T17:14:47Z</time>
      </trkpt>
      <trkpt lat="3.3914570" lon="-76.5907040">
        <ele>1274.2</ele>
        <time>2022-02-13T17:14:48Z</time>
      </trkpt>
      <trkpt lat="3.3914810" lon="-76.5906720">
        <ele>1274.0</ele>
        <time>2022-02-13T17:14:52Z</time>
      </trkpt>
      <trkpt lat="3.3914920" lon="-76.5906540">
        <ele>1273.9</ele>
        <time>2022-02-13T17:14:54Z</time>
      </trkpt>
      <trkpt lat="3.3914960" lon="-76.5905960">
        <ele>1273.5</ele>
        <time>2022-02-13T17:14:59Z</time>
      </trkpt>
      <trkpt lat="3.3914750" lon="-76.5905620">
        <ele>1273.3</ele>
        <time>2022-02-13T17:15:02Z</time>
      </trkpt>
      <trkpt lat="3.3914290" lon="-76.5905080">
        <ele>1272.8</ele>
        <time>2022-02-13T17:15:07Z</time>
      </trkpt>
      <trkpt lat="3.3914240" lon="-76.5905050">
        <ele>1272.8</ele>
        <time>2022-02-13T17:15:08Z</time>
      </trkpt>
      <trkpt lat="3.3914210" lon="-76.5905060">
        <ele>1272.8</ele>
        <time>2022-02-13T17:15:09Z</time>
      </trkpt>
      <trkpt lat="3.3914190" lon="-76.5905100">
        <ele>1272.8</ele>
        <time>2022-02-13T17:15:10Z</time>
      </trkpt>
      <trkpt lat="3.3914190" lon="-76.5905150">
        <ele>1272.7</ele>
        <time>2022-02-13T17:15:11Z</time>
      </trkpt>
      <trkpt lat="3.3914180" lon="-76.5905190">
        <ele>1272.7</ele>
        <time>2022-02-13T17:15:12Z</time>
      </trkpt>
      <trkpt lat="3.3914130" lon="-76.5905270">
        <ele>1272.7</ele>
        <time>2022-02-13T17:15:15Z</time>
      </trkpt>
      <trkpt lat="3.3914140" lon="-76.5905260">
        <ele>1272.6</ele>
        <time>2022-02-13T17:15:16Z</time>
      </trkpt>
      <trkpt lat="3.3914140" lon="-76.5905250">
        <ele>1272.6</ele>
        <time>2022-02-13T17:15:20Z</time>
      </trkpt>
      <trkpt lat="3.3914160" lon="-76.5905250">
        <ele>1272.6</ele>
        <time>2022-02-13T17:15:21Z</time>
      </trkpt>
      <trkpt lat="3.3914140" lon="-76.5905230">
        <ele>1272.6</ele>
        <time>2022-02-13T17:15:28Z</time>
      </trkpt>
      <trkpt lat="3.3914140" lon="-76.5905230">
        <ele>1272.6</ele>
        <time>2022-02-13T17:15:30Z</time>
      </trkpt>
      <trkpt lat="3.3914140" lon="-76.5905230">
        <ele>1272.6</ele>
        <time>2022-02-13T17:15:31Z</time>
      </trkpt>
      <trkpt lat="3.3914140" lon="-76.5905230">
        <ele>1272.6</ele>
        <time>2022-02-13T17:15:32Z</time>
      </trkpt>
      <trkpt lat="3.3914140" lon="-76.5905230">
        <ele>1272.6</ele>
        <time>2022-02-13T17:15:41Z</time>
      </trkpt>
      <trkpt lat="3.3914130" lon="-76.5905240">
        <ele>1272.6</ele>
        <time>2022-02-13T17:15:48Z</time>
      </trkpt>
      <trkpt lat="3.3914130" lon="-76.5905240">
        <ele>1272.6</ele>
        <time>2022-02-13T17:15:49Z</time>
      </trkpt>
      <trkpt lat="3.3914130" lon="-76.5905230">
        <ele>1272.6</ele>
        <time>2022-02-13T17:16:02Z</time>
      </trkpt>
      <trkpt lat="3.3914190" lon="-76.5905100">
        <ele>1272.5</ele>
        <time>2022-02-13T17:16:12Z</time>
      </trkpt>
      <trkpt lat="3.3914220" lon="-76.5905080">
        <ele>1272.5</ele>
        <time>2022-02-13T17:16:16Z</time>
      </trkpt>
      <trkpt lat="3.3914110" lon="-76.5904970">
        <ele>1272.4</ele>
        <time>2022-02-13T17:16:21Z</time>
      </trkpt>
      <trkpt lat="3.3914130" lon="-76.5904950">
        <ele>1272.4</ele>
        <time>2022-02-13T17:16:32Z</time>
      </trkpt>
      <trkpt lat="3.3914130" lon="-76.5904910">
        <ele>1272.4</ele>
        <time>2022-02-13T17:16:34Z</time>
      </trkpt>
      <trkpt lat="3.3913620" lon="-76.5904590">
        <ele>1272.0</ele>
        <time>2022-02-13T17:16:39Z</time>
      </trkpt>
      <trkpt lat="3.3913090" lon="-76.5904430">
        <ele>1271.7</ele>
        <time>2022-02-13T17:16:44Z</time>
      </trkpt>
      <trkpt lat="3.3913020" lon="-76.5904360">
        <ele>1271.6</ele>
        <time>2022-02-13T17:16:45Z</time>
      </trkpt>
      <trkpt lat="3.3913010" lon="-76.5904400">
        <ele>1271.6</ele>
        <time>2022-02-13T17:16:47Z</time>
      </trkpt>
      <trkpt lat="3.3913010" lon="-76.5904400">
        <ele>1271.6</ele>
        <time>2022-02-13T17:16:51Z</time>
      </trkpt>
      <trkpt lat="3.3913290" lon="-76.5904170">
        <ele>1271.4</ele>
        <time>2022-02-13T17:16:53Z</time>
      </trkpt>
      <trkpt lat="3.3913390" lon="-76.5903860">
        <ele>1271.2</ele>
        <time>2022-02-13T17:16:56Z</time>
      </trkpt>
      <trkpt lat="3.3913600" lon="-76.5903500">
        <ele>1271.0</ele>
        <time>2022-02-13T17:17:01Z</time>
      </trkpt>
      <trkpt lat="3.3913920" lon="-76.5904080">
        <ele>1270.6</ele>
        <time>2022-02-13T17:17:06Z</time>
      </trkpt>
      <trkpt lat="3.3914000" lon="-76.5904370">
        <ele>1270.4</ele>
        <time>2022-02-13T17:17:09Z</time>
      </trkpt>
      <trkpt lat="3.3914000" lon="-76.5904370">
        <ele>1270.4</ele>
        <time>2022-02-13T17:17:25Z</time>
      </trkpt>
    </trkseg>
  </trk>
</gpx>
